<?xml version="1.0" encoding="UTF-8" standalone="no" ?>
<gpx xmlns="http://www.topografix.com/GPX/1/1" creator="MapSource 6.15.7" version="1.1" xmlns:xsi="http://www.w3.org/2001/XMLSchema-instance" xsi:schemaLocation="http://www.topografix.com/GPX/1/1 http://www.topografix.com/GPX/1/1/gpx.xsd">

  <metadata>
    <link href="http://www.garmin.com">
      <text>Garmin International</text>
    </link>
    <time>2010-09-27T06:59:45Z</time>
    <bounds maxlat="41.8793560" maxlon="2.1700570" minlat="41.7493330" minlon="1.9015000"/>
  </metadata>

  <trk>
    <name>Selènika2010</name>
    <extensions>
      <gpxx:TrackExtension xmlns:gpxx="http://www.garmin.com/xmlschemas/GpxExtensions/v3">
        <gpxx:DisplayColor>Magenta</gpxx:DisplayColor>
      </gpxx:TrackExtension>
    </extensions>
    <trkseg>
      <trkpt lat="41.7513320" lon="1.9015000">
        <ele>247.1820000</ele>
        <time>2010-09-26T06:05:30Z</time>
      </trkpt>
      <trkpt lat="41.7512560" lon="1.9016380">
        <ele>248.0820000</ele>
        <time>2010-09-26T06:05:33Z</time>
      </trkpt>
      <trkpt lat="41.7511780" lon="1.9017930">
        <ele>246.6690000</ele>
        <time>2010-09-26T06:05:36Z</time>
      </trkpt>
      <trkpt lat="41.7511230" lon="1.9018980">
        <ele>247.7810000</ele>
        <time>2010-09-26T06:05:38Z</time>
      </trkpt>
      <trkpt lat="41.7509330" lon="1.9023060">
        <ele>247.3580000</ele>
        <time>2010-09-26T06:05:45Z</time>
      </trkpt>
      <trkpt lat="41.7507580" lon="1.9026380">
        <ele>247.2270000</ele>
        <time>2010-09-26T06:05:51Z</time>
      </trkpt>
      <trkpt lat="41.7506130" lon="1.9028810">
        <ele>247.0910000</ele>
        <time>2010-09-26T06:05:56Z</time>
      </trkpt>
      <trkpt lat="41.7504810" lon="1.9031490">
        <ele>246.7230000</ele>
        <time>2010-09-26T06:06:03Z</time>
      </trkpt>
      <trkpt lat="41.7504090" lon="1.9033010">
        <ele>247.2740000</ele>
        <time>2010-09-26T06:06:09Z</time>
      </trkpt>
      <trkpt lat="41.7504020" lon="1.9033920">
        <ele>246.5470000</ele>
        <time>2010-09-26T06:06:15Z</time>
      </trkpt>
      <trkpt lat="41.7504050" lon="1.9034030">
        <ele>247.0020000</ele>
        <time>2010-09-26T06:06:18Z</time>
      </trkpt>
      <trkpt lat="41.7504330" lon="1.9035300">
        <ele>246.4830000</ele>
        <time>2010-09-26T06:06:29Z</time>
      </trkpt>
      <trkpt lat="41.7504820" lon="1.9036870">
        <ele>246.3350000</ele>
        <time>2010-09-26T06:06:36Z</time>
      </trkpt>
      <trkpt lat="41.7506050" lon="1.9039620">
        <ele>247.7880000</ele>
        <time>2010-09-26T06:06:44Z</time>
      </trkpt>
      <trkpt lat="41.7507000" lon="1.9042070">
        <ele>248.1270000</ele>
        <time>2010-09-26T06:06:50Z</time>
      </trkpt>
      <trkpt lat="41.7507970" lon="1.9044790">
        <ele>249.5620000</ele>
        <time>2010-09-26T06:06:57Z</time>
      </trkpt>
      <trkpt lat="41.7508860" lon="1.9047200">
        <ele>250.4410000</ele>
        <time>2010-09-26T06:07:04Z</time>
      </trkpt>
      <trkpt lat="41.7509270" lon="1.9048790">
        <ele>251.0790000</ele>
        <time>2010-09-26T06:07:09Z</time>
      </trkpt>
      <trkpt lat="41.7509970" lon="1.9051240">
        <ele>252.0210000</ele>
        <time>2010-09-26T06:07:16Z</time>
      </trkpt>
      <trkpt lat="41.7510440" lon="1.9053790">
        <ele>253.9080000</ele>
        <time>2010-09-26T06:07:23Z</time>
      </trkpt>
      <trkpt lat="41.7511040" lon="1.9056280">
        <ele>255.5190000</ele>
        <time>2010-09-26T06:07:29Z</time>
      </trkpt>
      <trkpt lat="41.7511520" lon="1.9059430">
        <ele>256.7890000</ele>
        <time>2010-09-26T06:07:37Z</time>
      </trkpt>
      <trkpt lat="41.7512270" lon="1.9062780">
        <ele>258.1250000</ele>
        <time>2010-09-26T06:07:45Z</time>
      </trkpt>
      <trkpt lat="41.7513200" lon="1.9065770">
        <ele>258.4320000</ele>
        <time>2010-09-26T06:07:53Z</time>
      </trkpt>
      <trkpt lat="41.7514100" lon="1.9067130">
        <ele>258.5610000</ele>
        <time>2010-09-26T06:07:57Z</time>
      </trkpt>
      <trkpt lat="41.7514410" lon="1.9067580">
        <ele>258.4360000</ele>
        <time>2010-09-26T06:07:58Z</time>
      </trkpt>
      <trkpt lat="41.7515330" lon="1.9071100">
        <ele>256.1930000</ele>
        <time>2010-09-26T06:08:03Z</time>
      </trkpt>
      <trkpt lat="41.7514400" lon="1.9073640">
        <ele>255.7490000</ele>
        <time>2010-09-26T06:08:08Z</time>
      </trkpt>
      <trkpt lat="41.7511590" lon="1.9077490">
        <ele>257.0410000</ele>
        <time>2010-09-26T06:08:17Z</time>
      </trkpt>
      <trkpt lat="41.7510410" lon="1.9080780">
        <ele>256.8040000</ele>
        <time>2010-09-26T06:08:23Z</time>
      </trkpt>
      <trkpt lat="41.7510200" lon="1.9086300">
        <ele>257.0900000</ele>
        <time>2010-09-26T06:08:32Z</time>
      </trkpt>
      <trkpt lat="41.7510200" lon="1.9086880">
        <ele>257.0500000</ele>
        <time>2010-09-26T06:08:33Z</time>
      </trkpt>
      <trkpt lat="41.7510020" lon="1.9088540">
        <ele>257.5660000</ele>
        <time>2010-09-26T06:08:36Z</time>
      </trkpt>
      <trkpt lat="41.7509720" lon="1.9092640">
        <ele>258.6800000</ele>
        <time>2010-09-26T06:08:43Z</time>
      </trkpt>
      <trkpt lat="41.7508420" lon="1.9097520">
        <ele>260.1680000</ele>
        <time>2010-09-26T06:08:52Z</time>
      </trkpt>
      <trkpt lat="41.7506810" lon="1.9102250">
        <ele>261.0680000</ele>
        <time>2010-09-26T06:09:01Z</time>
      </trkpt>
      <trkpt lat="41.7505920" lon="1.9106830">
        <ele>262.0450000</ele>
        <time>2010-09-26T06:09:09Z</time>
      </trkpt>
      <trkpt lat="41.7506020" lon="1.9111580">
        <ele>262.8340000</ele>
        <time>2010-09-26T06:09:17Z</time>
      </trkpt>
      <trkpt lat="41.7507210" lon="1.9117400">
        <ele>264.1400000</ele>
        <time>2010-09-26T06:09:27Z</time>
      </trkpt>
      <trkpt lat="41.7507590" lon="1.9119070">
        <ele>264.6280000</ele>
        <time>2010-09-26T06:09:30Z</time>
      </trkpt>
      <trkpt lat="41.7508240" lon="1.9121980">
        <ele>265.0200000</ele>
        <time>2010-09-26T06:09:35Z</time>
      </trkpt>
      <trkpt lat="41.7509850" lon="1.9128020">
        <ele>267.2850000</ele>
        <time>2010-09-26T06:09:46Z</time>
      </trkpt>
      <trkpt lat="41.7511310" lon="1.9133070">
        <ele>268.2910000</ele>
        <time>2010-09-26T06:09:56Z</time>
      </trkpt>
      <trkpt lat="41.7512990" lon="1.9136730">
        <ele>270.1740000</ele>
        <time>2010-09-26T06:10:04Z</time>
      </trkpt>
      <trkpt lat="41.7515130" lon="1.9140770">
        <ele>272.6250000</ele>
        <time>2010-09-26T06:10:13Z</time>
      </trkpt>
      <trkpt lat="41.7517340" lon="1.9144860">
        <ele>273.0120000</ele>
        <time>2010-09-26T06:10:22Z</time>
      </trkpt>
      <trkpt lat="41.7519610" lon="1.9149130">
        <ele>274.1330000</ele>
        <time>2010-09-26T06:10:31Z</time>
      </trkpt>
      <trkpt lat="41.7521240" lon="1.9151840">
        <ele>274.0830000</ele>
        <time>2010-09-26T06:10:38Z</time>
      </trkpt>
      <trkpt lat="41.7522520" lon="1.9153640">
        <ele>274.7580000</ele>
        <time>2010-09-26T06:10:45Z</time>
      </trkpt>
      <trkpt lat="41.7522830" lon="1.9154040">
        <ele>274.8030000</ele>
        <time>2010-09-26T06:10:47Z</time>
      </trkpt>
      <trkpt lat="41.7522880" lon="1.9155380">
        <ele>275.1950000</ele>
        <time>2010-09-26T06:10:53Z</time>
      </trkpt>
      <trkpt lat="41.7523340" lon="1.9156080">
        <ele>275.1230000</ele>
        <time>2010-09-26T06:10:56Z</time>
      </trkpt>
      <trkpt lat="41.7524590" lon="1.9158250">
        <ele>275.1840000</ele>
        <time>2010-09-26T06:11:05Z</time>
      </trkpt>
      <trkpt lat="41.7524910" lon="1.9158860">
        <ele>275.7100000</ele>
        <time>2010-09-26T06:11:11Z</time>
      </trkpt>
      <trkpt lat="41.7525060" lon="1.9159170">
        <ele>275.3850000</ele>
        <time>2010-09-26T06:11:21Z</time>
      </trkpt>
      <trkpt lat="41.7525090" lon="1.9159240">
        <ele>275.4230000</ele>
        <time>2010-09-26T06:11:23Z</time>
      </trkpt>
      <trkpt lat="41.7525150" lon="1.9159680">
        <ele>275.4520000</ele>
        <time>2010-09-26T06:11:31Z</time>
      </trkpt>
      <trkpt lat="41.7525110" lon="1.9159800">
        <ele>275.6410000</ele>
        <time>2010-09-26T06:11:33Z</time>
      </trkpt>
      <trkpt lat="41.7524980" lon="1.9160730">
        <ele>275.6220000</ele>
        <time>2010-09-26T06:11:41Z</time>
      </trkpt>
      <trkpt lat="41.7524920" lon="1.9161480">
        <ele>276.4920000</ele>
        <time>2010-09-26T06:11:47Z</time>
      </trkpt>
      <trkpt lat="41.7524930" lon="1.9162990">
        <ele>276.3620000</ele>
        <time>2010-09-26T06:11:54Z</time>
      </trkpt>
      <trkpt lat="41.7524890" lon="1.9165260">
        <ele>276.3500000</ele>
        <time>2010-09-26T06:12:02Z</time>
      </trkpt>
      <trkpt lat="41.7524890" lon="1.9167780">
        <ele>277.8220000</ele>
        <time>2010-09-26T06:12:10Z</time>
      </trkpt>
      <trkpt lat="41.7524780" lon="1.9169520">
        <ele>277.8630000</ele>
        <time>2010-09-26T06:12:15Z</time>
      </trkpt>
      <trkpt lat="41.7523960" lon="1.9171220">
        <ele>279.4670000</ele>
        <time>2010-09-26T06:12:21Z</time>
      </trkpt>
      <trkpt lat="41.7522790" lon="1.9173270">
        <ele>279.1890000</ele>
        <time>2010-09-26T06:12:28Z</time>
      </trkpt>
      <trkpt lat="41.7522240" lon="1.9175950">
        <ele>280.3780000</ele>
        <time>2010-09-26T06:12:35Z</time>
      </trkpt>
      <trkpt lat="41.7521460" lon="1.9178450">
        <ele>281.0570000</ele>
        <time>2010-09-26T06:12:42Z</time>
      </trkpt>
      <trkpt lat="41.7519930" lon="1.9179620">
        <ele>281.1740000</ele>
        <time>2010-09-26T06:12:47Z</time>
      </trkpt>
      <trkpt lat="41.7518400" lon="1.9181700">
        <ele>281.2090000</ele>
        <time>2010-09-26T06:12:53Z</time>
      </trkpt>
      <trkpt lat="41.7516970" lon="1.9185220">
        <ele>282.3100000</ele>
        <time>2010-09-26T06:13:01Z</time>
      </trkpt>
      <trkpt lat="41.7516010" lon="1.9188000">
        <ele>283.4000000</ele>
        <time>2010-09-26T06:13:08Z</time>
      </trkpt>
      <trkpt lat="41.7513960" lon="1.9192200">
        <ele>284.1930000</ele>
        <time>2010-09-26T06:13:18Z</time>
      </trkpt>
      <trkpt lat="41.7512450" lon="1.9195440">
        <ele>284.7240000</ele>
        <time>2010-09-26T06:13:26Z</time>
      </trkpt>
      <trkpt lat="41.7510550" lon="1.9198940">
        <ele>284.1040000</ele>
        <time>2010-09-26T06:13:34Z</time>
      </trkpt>
      <trkpt lat="41.7508800" lon="1.9202160">
        <ele>283.6470000</ele>
        <time>2010-09-26T06:13:41Z</time>
      </trkpt>
      <trkpt lat="41.7506620" lon="1.9206140">
        <ele>283.3330000</ele>
        <time>2010-09-26T06:13:50Z</time>
      </trkpt>
      <trkpt lat="41.7504860" lon="1.9208870">
        <ele>282.5060000</ele>
        <time>2010-09-26T06:13:57Z</time>
      </trkpt>
      <trkpt lat="41.7503750" lon="1.9210610">
        <ele>282.4070000</ele>
        <time>2010-09-26T06:14:03Z</time>
      </trkpt>
      <trkpt lat="41.7503290" lon="1.9211890">
        <ele>282.5420000</ele>
        <time>2010-09-26T06:14:10Z</time>
      </trkpt>
      <trkpt lat="41.7503480" lon="1.9212720">
        <ele>283.1270000</ele>
        <time>2010-09-26T06:14:14Z</time>
      </trkpt>
      <trkpt lat="41.7504320" lon="1.9213160">
        <ele>283.7490000</ele>
        <time>2010-09-26T06:14:19Z</time>
      </trkpt>
      <trkpt lat="41.7505490" lon="1.9213470">
        <ele>284.6610000</ele>
        <time>2010-09-26T06:14:26Z</time>
      </trkpt>
      <trkpt lat="41.7506890" lon="1.9213820">
        <ele>285.7460000</ele>
        <time>2010-09-26T06:14:35Z</time>
      </trkpt>
      <trkpt lat="41.7507710" lon="1.9214060">
        <ele>286.2720000</ele>
        <time>2010-09-26T06:14:41Z</time>
      </trkpt>
      <trkpt lat="41.7508910" lon="1.9214560">
        <ele>286.9960000</ele>
        <time>2010-09-26T06:14:48Z</time>
      </trkpt>
      <trkpt lat="41.7509870" lon="1.9215610">
        <ele>288.2660000</ele>
        <time>2010-09-26T06:14:54Z</time>
      </trkpt>
      <trkpt lat="41.7510340" lon="1.9217500">
        <ele>289.1370000</ele>
        <time>2010-09-26T06:15:00Z</time>
      </trkpt>
      <trkpt lat="41.7510770" lon="1.9219180">
        <ele>290.2790000</ele>
        <time>2010-09-26T06:15:06Z</time>
      </trkpt>
      <trkpt lat="41.7511090" lon="1.9220450">
        <ele>291.5770000</ele>
        <time>2010-09-26T06:15:11Z</time>
      </trkpt>
      <trkpt lat="41.7511810" lon="1.9222280">
        <ele>293.2700000</ele>
        <time>2010-09-26T06:15:19Z</time>
      </trkpt>
      <trkpt lat="41.7512660" lon="1.9224200">
        <ele>295.6440000</ele>
        <time>2010-09-26T06:15:28Z</time>
      </trkpt>
      <trkpt lat="41.7513300" lon="1.9225780">
        <ele>296.9050000</ele>
        <time>2010-09-26T06:15:35Z</time>
      </trkpt>
      <trkpt lat="41.7514020" lon="1.9227810">
        <ele>297.7680000</ele>
        <time>2010-09-26T06:15:42Z</time>
      </trkpt>
      <trkpt lat="41.7513690" lon="1.9229270">
        <ele>298.5780000</ele>
        <time>2010-09-26T06:15:47Z</time>
      </trkpt>
      <trkpt lat="41.7512210" lon="1.9230640">
        <ele>299.8470000</ele>
        <time>2010-09-26T06:15:54Z</time>
      </trkpt>
      <trkpt lat="41.7510140" lon="1.9232240">
        <ele>300.2550000</ele>
        <time>2010-09-26T06:16:01Z</time>
      </trkpt>
      <trkpt lat="41.7509480" lon="1.9232870">
        <ele>300.1890000</ele>
        <time>2010-09-26T06:16:03Z</time>
      </trkpt>
      <trkpt lat="41.7508010" lon="1.9235680">
        <ele>299.6280000</ele>
        <time>2010-09-26T06:16:09Z</time>
      </trkpt>
      <trkpt lat="41.7508180" lon="1.9238000">
        <ele>300.2280000</ele>
        <time>2010-09-26T06:16:13Z</time>
      </trkpt>
      <trkpt lat="41.7508530" lon="1.9239060">
        <ele>300.0110000</ele>
        <time>2010-09-26T06:16:15Z</time>
      </trkpt>
      <trkpt lat="41.7510260" lon="1.9242500">
        <ele>301.4480000</ele>
        <time>2010-09-26T06:16:23Z</time>
      </trkpt>
      <trkpt lat="41.7511460" lon="1.9244080">
        <ele>302.3730000</ele>
        <time>2010-09-26T06:16:28Z</time>
      </trkpt>
      <trkpt lat="41.7512850" lon="1.9245280">
        <ele>303.3900000</ele>
        <time>2010-09-26T06:16:33Z</time>
      </trkpt>
      <trkpt lat="41.7514530" lon="1.9246700">
        <ele>303.9200000</ele>
        <time>2010-09-26T06:16:39Z</time>
      </trkpt>
      <trkpt lat="41.7516540" lon="1.9249230">
        <ele>304.7220000</ele>
        <time>2010-09-26T06:16:47Z</time>
      </trkpt>
      <trkpt lat="41.7516810" lon="1.9250460">
        <ele>304.7230000</ele>
        <time>2010-09-26T06:16:50Z</time>
      </trkpt>
      <trkpt lat="41.7515900" lon="1.9252510">
        <ele>305.3420000</ele>
        <time>2010-09-26T06:16:55Z</time>
      </trkpt>
      <trkpt lat="41.7515600" lon="1.9252830">
        <ele>305.2710000</ele>
        <time>2010-09-26T06:16:56Z</time>
      </trkpt>
      <trkpt lat="41.7512020" lon="1.9256230">
        <ele>304.3530000</ele>
        <time>2010-09-26T06:17:05Z</time>
      </trkpt>
      <trkpt lat="41.7510670" lon="1.9257540">
        <ele>304.0150000</ele>
        <time>2010-09-26T06:17:08Z</time>
      </trkpt>
      <trkpt lat="41.7509480" lon="1.9260140">
        <ele>303.3500000</ele>
        <time>2010-09-26T06:17:12Z</time>
      </trkpt>
      <trkpt lat="41.7509880" lon="1.9262190">
        <ele>302.3480000</ele>
        <time>2010-09-26T06:17:15Z</time>
      </trkpt>
      <trkpt lat="41.7509980" lon="1.9262890">
        <ele>301.9230000</ele>
        <time>2010-09-26T06:17:16Z</time>
      </trkpt>
      <trkpt lat="41.7510320" lon="1.9267230">
        <ele>302.4100000</ele>
        <time>2010-09-26T06:17:23Z</time>
      </trkpt>
      <trkpt lat="41.7510830" lon="1.9272320">
        <ele>303.1870000</ele>
        <time>2010-09-26T06:17:33Z</time>
      </trkpt>
      <trkpt lat="41.7511830" lon="1.9276000">
        <ele>304.2900000</ele>
        <time>2010-09-26T06:17:41Z</time>
      </trkpt>
      <trkpt lat="41.7512860" lon="1.9279780">
        <ele>305.1370000</ele>
        <time>2010-09-26T06:17:49Z</time>
      </trkpt>
      <trkpt lat="41.7513970" lon="1.9283290">
        <ele>306.6930000</ele>
        <time>2010-09-26T06:17:57Z</time>
      </trkpt>
      <trkpt lat="41.7515080" lon="1.9285930">
        <ele>308.2730000</ele>
        <time>2010-09-26T06:18:04Z</time>
      </trkpt>
      <trkpt lat="41.7516720" lon="1.9290380">
        <ele>308.6970000</ele>
        <time>2010-09-26T06:18:14Z</time>
      </trkpt>
      <trkpt lat="41.7518030" lon="1.9293690">
        <ele>310.1600000</ele>
        <time>2010-09-26T06:18:22Z</time>
      </trkpt>
      <trkpt lat="41.7518890" lon="1.9295660">
        <ele>310.8150000</ele>
        <time>2010-09-26T06:18:27Z</time>
      </trkpt>
      <trkpt lat="41.7519180" lon="1.9298120">
        <ele>312.5500000</ele>
        <time>2010-09-26T06:18:33Z</time>
      </trkpt>
      <trkpt lat="41.7519230" lon="1.9301600">
        <ele>313.4790000</ele>
        <time>2010-09-26T06:18:41Z</time>
      </trkpt>
      <trkpt lat="41.7519160" lon="1.9305500">
        <ele>314.4120000</ele>
        <time>2010-09-26T06:18:50Z</time>
      </trkpt>
      <trkpt lat="41.7519250" lon="1.9309120">
        <ele>314.3310000</ele>
        <time>2010-09-26T06:18:59Z</time>
      </trkpt>
      <trkpt lat="41.7519650" lon="1.9311100">
        <ele>315.1680000</ele>
        <time>2010-09-26T06:19:04Z</time>
      </trkpt>
      <trkpt lat="41.7519870" lon="1.9312400">
        <ele>314.3170000</ele>
        <time>2010-09-26T06:19:10Z</time>
      </trkpt>
      <trkpt lat="41.7520120" lon="1.9313560">
        <ele>314.3370000</ele>
        <time>2010-09-26T06:19:17Z</time>
      </trkpt>
      <trkpt lat="41.7520600" lon="1.9314490">
        <ele>314.2660000</ele>
        <time>2010-09-26T06:19:22Z</time>
      </trkpt>
      <trkpt lat="41.7521840" lon="1.9316310">
        <ele>314.3600000</ele>
        <time>2010-09-26T06:19:31Z</time>
      </trkpt>
      <trkpt lat="41.7523190" lon="1.9318160">
        <ele>315.4160000</ele>
        <time>2010-09-26T06:19:40Z</time>
      </trkpt>
      <trkpt lat="41.7524090" lon="1.9319890">
        <ele>316.4530000</ele>
        <time>2010-09-26T06:19:48Z</time>
      </trkpt>
      <trkpt lat="41.7524770" lon="1.9321640">
        <ele>317.9140000</ele>
        <time>2010-09-26T06:19:55Z</time>
      </trkpt>
      <trkpt lat="41.7525660" lon="1.9323800">
        <ele>318.6420000</ele>
        <time>2010-09-26T06:20:02Z</time>
      </trkpt>
      <trkpt lat="41.7526350" lon="1.9325750">
        <ele>320.8920000</ele>
        <time>2010-09-26T06:20:09Z</time>
      </trkpt>
      <trkpt lat="41.7526750" lon="1.9327240">
        <ele>322.2710000</ele>
        <time>2010-09-26T06:20:15Z</time>
      </trkpt>
      <trkpt lat="41.7527440" lon="1.9328540">
        <ele>323.4170000</ele>
        <time>2010-09-26T06:20:21Z</time>
      </trkpt>
      <trkpt lat="41.7528160" lon="1.9329720">
        <ele>325.0620000</ele>
        <time>2010-09-26T06:20:28Z</time>
      </trkpt>
      <trkpt lat="41.7528570" lon="1.9330610">
        <ele>325.7840000</ele>
        <time>2010-09-26T06:20:34Z</time>
      </trkpt>
      <trkpt lat="41.7529080" lon="1.9331520">
        <ele>326.0970000</ele>
        <time>2010-09-26T06:20:42Z</time>
      </trkpt>
      <trkpt lat="41.7529570" lon="1.9332200">
        <ele>326.5570000</ele>
        <time>2010-09-26T06:20:47Z</time>
      </trkpt>
      <trkpt lat="41.7529990" lon="1.9332840">
        <ele>326.7140000</ele>
        <time>2010-09-26T06:20:54Z</time>
      </trkpt>
      <trkpt lat="41.7530400" lon="1.9333560">
        <ele>327.2930000</ele>
        <time>2010-09-26T06:21:00Z</time>
      </trkpt>
      <trkpt lat="41.7531060" lon="1.9334540">
        <ele>327.3780000</ele>
        <time>2010-09-26T06:21:07Z</time>
      </trkpt>
      <trkpt lat="41.7531450" lon="1.9335070">
        <ele>328.1330000</ele>
        <time>2010-09-26T06:21:11Z</time>
      </trkpt>
      <trkpt lat="41.7531950" lon="1.9335930">
        <ele>329.3390000</ele>
        <time>2010-09-26T06:21:19Z</time>
      </trkpt>
      <trkpt lat="41.7532090" lon="1.9336150">
        <ele>329.2140000</ele>
        <time>2010-09-26T06:21:21Z</time>
      </trkpt>
      <trkpt lat="41.7532570" lon="1.9336970">
        <ele>329.2230000</ele>
        <time>2010-09-26T06:21:29Z</time>
      </trkpt>
      <trkpt lat="41.7532800" lon="1.9337390">
        <ele>329.4740000</ele>
        <time>2010-09-26T06:21:33Z</time>
      </trkpt>
      <trkpt lat="41.7533290" lon="1.9338150">
        <ele>330.2240000</ele>
        <time>2010-09-26T06:21:42Z</time>
      </trkpt>
      <trkpt lat="41.7533310" lon="1.9338190">
        <ele>330.3760000</ele>
        <time>2010-09-26T06:21:43Z</time>
      </trkpt>
      <trkpt lat="41.7533500" lon="1.9338500">
        <ele>329.9380000</ele>
        <time>2010-09-26T06:21:48Z</time>
      </trkpt>
      <trkpt lat="41.7533830" lon="1.9339370">
        <ele>330.9020000</ele>
        <time>2010-09-26T06:22:04Z</time>
      </trkpt>
      <trkpt lat="41.7534370" lon="1.9339920">
        <ele>331.6750000</ele>
        <time>2010-09-26T06:22:21Z</time>
      </trkpt>
      <trkpt lat="41.7534490" lon="1.9340000">
        <ele>331.5000000</ele>
        <time>2010-09-26T06:22:25Z</time>
      </trkpt>
      <trkpt lat="41.7534510" lon="1.9340010">
        <ele>331.6470000</ele>
        <time>2010-09-26T06:22:26Z</time>
      </trkpt>
      <trkpt lat="41.7534850" lon="1.9340470">
        <ele>332.4230000</ele>
        <time>2010-09-26T06:22:37Z</time>
      </trkpt>
      <trkpt lat="41.7535090" lon="1.9340870">
        <ele>332.8850000</ele>
        <time>2010-09-26T06:22:44Z</time>
      </trkpt>
      <trkpt lat="41.7535290" lon="1.9341150">
        <ele>333.5430000</ele>
        <time>2010-09-26T06:22:50Z</time>
      </trkpt>
      <trkpt lat="41.7535530" lon="1.9341480">
        <ele>334.8820000</ele>
        <time>2010-09-26T06:22:58Z</time>
      </trkpt>
      <trkpt lat="41.7535580" lon="1.9341520">
        <ele>334.9370000</ele>
        <time>2010-09-26T06:22:59Z</time>
      </trkpt>
      <trkpt lat="41.7535640" lon="1.9341500">
        <ele>334.8570000</ele>
        <time>2010-09-26T06:23:02Z</time>
      </trkpt>
      <trkpt lat="41.7536130" lon="1.9342500">
        <ele>335.8550000</ele>
        <time>2010-09-26T06:23:07Z</time>
      </trkpt>
      <trkpt lat="41.7536310" lon="1.9343010">
        <ele>337.2090000</ele>
        <time>2010-09-26T06:23:10Z</time>
      </trkpt>
      <trkpt lat="41.7536480" lon="1.9343660">
        <ele>337.8590000</ele>
        <time>2010-09-26T06:23:13Z</time>
      </trkpt>
      <trkpt lat="41.7536650" lon="1.9344150">
        <ele>338.7020000</ele>
        <time>2010-09-26T06:23:16Z</time>
      </trkpt>
      <trkpt lat="41.7536790" lon="1.9344470">
        <ele>339.2410000</ele>
        <time>2010-09-26T06:23:18Z</time>
      </trkpt>
      <trkpt lat="41.7536850" lon="1.9344640">
        <ele>339.6940000</ele>
        <time>2010-09-26T06:23:19Z</time>
      </trkpt>
      <trkpt lat="41.7537050" lon="1.9345300">
        <ele>340.4650000</ele>
        <time>2010-09-26T06:23:22Z</time>
      </trkpt>
      <trkpt lat="41.7537780" lon="1.9347360">
        <ele>342.5790000</ele>
        <time>2010-09-26T06:23:29Z</time>
      </trkpt>
      <trkpt lat="41.7538730" lon="1.9349720">
        <ele>343.3020000</ele>
        <time>2010-09-26T06:23:35Z</time>
      </trkpt>
      <trkpt lat="41.7539790" lon="1.9352230">
        <ele>345.4890000</ele>
        <time>2010-09-26T06:23:43Z</time>
      </trkpt>
      <trkpt lat="41.7541340" lon="1.9353570">
        <ele>347.0710000</ele>
        <time>2010-09-26T06:23:51Z</time>
      </trkpt>
      <trkpt lat="41.7542550" lon="1.9354530">
        <ele>349.3510000</ele>
        <time>2010-09-26T06:23:57Z</time>
      </trkpt>
      <trkpt lat="41.7543130" lon="1.9355230">
        <ele>349.5280000</ele>
        <time>2010-09-26T06:24:00Z</time>
      </trkpt>
      <trkpt lat="41.7542830" lon="1.9355900">
        <ele>350.1460000</ele>
        <time>2010-09-26T06:24:04Z</time>
      </trkpt>
      <trkpt lat="41.7542590" lon="1.9355900">
        <ele>350.4250000</ele>
        <time>2010-09-26T06:24:05Z</time>
      </trkpt>
      <trkpt lat="41.7540370" lon="1.9356370">
        <ele>351.6240000</ele>
        <time>2010-09-26T06:24:14Z</time>
      </trkpt>
      <trkpt lat="41.7539200" lon="1.9357900">
        <ele>351.3170000</ele>
        <time>2010-09-26T06:24:20Z</time>
      </trkpt>
      <trkpt lat="41.7538250" lon="1.9359600">
        <ele>351.0100000</ele>
        <time>2010-09-26T06:24:28Z</time>
      </trkpt>
      <trkpt lat="41.7538040" lon="1.9360920">
        <ele>351.0470000</ele>
        <time>2010-09-26T06:24:34Z</time>
      </trkpt>
      <trkpt lat="41.7538160" lon="1.9362020">
        <ele>350.9160000</ele>
        <time>2010-09-26T06:24:41Z</time>
      </trkpt>
      <trkpt lat="41.7538250" lon="1.9363790">
        <ele>351.0360000</ele>
        <time>2010-09-26T06:24:47Z</time>
      </trkpt>
      <trkpt lat="41.7537910" lon="1.9366240">
        <ele>351.3510000</ele>
        <time>2010-09-26T06:24:53Z</time>
      </trkpt>
      <trkpt lat="41.7536700" lon="1.9368210">
        <ele>351.5890000</ele>
        <time>2010-09-26T06:24:58Z</time>
      </trkpt>
      <trkpt lat="41.7535810" lon="1.9371110">
        <ele>351.9080000</ele>
        <time>2010-09-26T06:25:04Z</time>
      </trkpt>
      <trkpt lat="41.7534770" lon="1.9373890">
        <ele>353.3520000</ele>
        <time>2010-09-26T06:25:10Z</time>
      </trkpt>
      <trkpt lat="41.7533850" lon="1.9375410">
        <ele>352.8510000</ele>
        <time>2010-09-26T06:25:13Z</time>
      </trkpt>
      <trkpt lat="41.7532200" lon="1.9379090">
        <ele>352.5670000</ele>
        <time>2010-09-26T06:25:20Z</time>
      </trkpt>
      <trkpt lat="41.7532040" lon="1.9379670">
        <ele>352.6790000</ele>
        <time>2010-09-26T06:25:21Z</time>
      </trkpt>
      <trkpt lat="41.7531460" lon="1.9382860">
        <ele>353.6800000</ele>
        <time>2010-09-26T06:25:27Z</time>
      </trkpt>
      <trkpt lat="41.7529900" lon="1.9385110">
        <ele>353.4430000</ele>
        <time>2010-09-26T06:25:32Z</time>
      </trkpt>
      <trkpt lat="41.7528800" lon="1.9387810">
        <ele>353.5620000</ele>
        <time>2010-09-26T06:25:37Z</time>
      </trkpt>
      <trkpt lat="41.7528230" lon="1.9391080">
        <ele>354.0690000</ele>
        <time>2010-09-26T06:25:43Z</time>
      </trkpt>
      <trkpt lat="41.7528560" lon="1.9394510">
        <ele>354.8580000</ele>
        <time>2010-09-26T06:25:49Z</time>
      </trkpt>
      <trkpt lat="41.7528970" lon="1.9397350">
        <ele>353.2580000</ele>
        <time>2010-09-26T06:25:53Z</time>
      </trkpt>
      <trkpt lat="41.7530090" lon="1.9400070">
        <ele>351.5460000</ele>
        <time>2010-09-26T06:25:57Z</time>
      </trkpt>
      <trkpt lat="41.7530910" lon="1.9401290">
        <ele>350.3790000</ele>
        <time>2010-09-26T06:25:59Z</time>
      </trkpt>
      <trkpt lat="41.7533010" lon="1.9402410">
        <ele>347.5220000</ele>
        <time>2010-09-26T06:26:03Z</time>
      </trkpt>
      <trkpt lat="41.7534390" lon="1.9402070">
        <ele>345.8130000</ele>
        <time>2010-09-26T06:26:05Z</time>
      </trkpt>
      <trkpt lat="41.7536420" lon="1.9401070">
        <ele>344.2290000</ele>
        <time>2010-09-26T06:26:08Z</time>
      </trkpt>
      <trkpt lat="41.7537180" lon="1.9400770">
        <ele>343.7210000</ele>
        <time>2010-09-26T06:26:09Z</time>
      </trkpt>
      <trkpt lat="41.7539760" lon="1.9398780">
        <ele>341.3900000</ele>
        <time>2010-09-26T06:26:13Z</time>
      </trkpt>
      <trkpt lat="41.7540200" lon="1.9396850">
        <ele>339.7560000</ele>
        <time>2010-09-26T06:26:15Z</time>
      </trkpt>
      <trkpt lat="41.7539800" lon="1.9392530">
        <ele>336.6920000</ele>
        <time>2010-09-26T06:26:19Z</time>
      </trkpt>
      <trkpt lat="41.7540130" lon="1.9390390">
        <ele>334.8190000</ele>
        <time>2010-09-26T06:26:22Z</time>
      </trkpt>
      <trkpt lat="41.7541520" lon="1.9390500">
        <ele>333.9440000</ele>
        <time>2010-09-26T06:26:24Z</time>
      </trkpt>
      <trkpt lat="41.7542880" lon="1.9391090">
        <ele>333.2220000</ele>
        <time>2010-09-26T06:26:26Z</time>
      </trkpt>
      <trkpt lat="41.7545660" lon="1.9392840">
        <ele>330.7520000</ele>
        <time>2010-09-26T06:26:30Z</time>
      </trkpt>
      <trkpt lat="41.7548570" lon="1.9392680">
        <ele>328.9750000</ele>
        <time>2010-09-26T06:26:34Z</time>
      </trkpt>
      <trkpt lat="41.7549150" lon="1.9392020">
        <ele>328.4810000</ele>
        <time>2010-09-26T06:26:35Z</time>
      </trkpt>
      <trkpt lat="41.7550870" lon="1.9389590">
        <ele>327.1450000</ele>
        <time>2010-09-26T06:26:38Z</time>
      </trkpt>
      <trkpt lat="41.7552070" lon="1.9387970">
        <ele>325.8230000</ele>
        <time>2010-09-26T06:26:40Z</time>
      </trkpt>
      <trkpt lat="41.7553510" lon="1.9383960">
        <ele>322.7300000</ele>
        <time>2010-09-26T06:26:44Z</time>
      </trkpt>
      <trkpt lat="41.7554540" lon="1.9381990">
        <ele>320.6010000</ele>
        <time>2010-09-26T06:26:47Z</time>
      </trkpt>
      <trkpt lat="41.7555670" lon="1.9382680">
        <ele>319.4010000</ele>
        <time>2010-09-26T06:26:49Z</time>
      </trkpt>
      <trkpt lat="41.7557310" lon="1.9383590">
        <ele>317.1710000</ele>
        <time>2010-09-26T06:26:52Z</time>
      </trkpt>
      <trkpt lat="41.7558820" lon="1.9384410">
        <ele>314.6480000</ele>
        <time>2010-09-26T06:26:56Z</time>
      </trkpt>
      <trkpt lat="41.7559720" lon="1.9384530">
        <ele>314.5230000</ele>
        <time>2010-09-26T06:26:59Z</time>
      </trkpt>
      <trkpt lat="41.7560440" lon="1.9384830">
        <ele>314.7250000</ele>
        <time>2010-09-26T06:27:01Z</time>
      </trkpt>
      <trkpt lat="41.7562470" lon="1.9384830">
        <ele>314.1670000</ele>
        <time>2010-09-26T06:27:05Z</time>
      </trkpt>
      <trkpt lat="41.7563130" lon="1.9384780">
        <ele>313.9450000</ele>
        <time>2010-09-26T06:27:06Z</time>
      </trkpt>
      <trkpt lat="41.7566370" lon="1.9383180">
        <ele>311.4720000</ele>
        <time>2010-09-26T06:27:11Z</time>
      </trkpt>
      <trkpt lat="41.7568630" lon="1.9380380">
        <ele>309.4620000</ele>
        <time>2010-09-26T06:27:15Z</time>
      </trkpt>
      <trkpt lat="41.7571840" lon="1.9378930">
        <ele>307.1330000</ele>
        <time>2010-09-26T06:27:19Z</time>
      </trkpt>
      <trkpt lat="41.7575390" lon="1.9378920">
        <ele>303.9500000</ele>
        <time>2010-09-26T06:27:23Z</time>
      </trkpt>
      <trkpt lat="41.7577060" lon="1.9379280">
        <ele>303.2300000</ele>
        <time>2010-09-26T06:27:25Z</time>
      </trkpt>
      <trkpt lat="41.7579760" lon="1.9381060">
        <ele>300.7250000</ele>
        <time>2010-09-26T06:27:29Z</time>
      </trkpt>
      <trkpt lat="41.7580310" lon="1.9381600">
        <ele>300.4940000</ele>
        <time>2010-09-26T06:27:30Z</time>
      </trkpt>
      <trkpt lat="41.7582920" lon="1.9382090">
        <ele>300.1510000</ele>
        <time>2010-09-26T06:27:34Z</time>
      </trkpt>
      <trkpt lat="41.7587450" lon="1.9380960">
        <ele>298.9660000</ele>
        <time>2010-09-26T06:27:40Z</time>
      </trkpt>
      <trkpt lat="41.7590050" lon="1.9380240">
        <ele>296.5140000</ele>
        <time>2010-09-26T06:27:44Z</time>
      </trkpt>
      <trkpt lat="41.7590650" lon="1.9380070">
        <ele>295.8430000</ele>
        <time>2010-09-26T06:27:45Z</time>
      </trkpt>
      <trkpt lat="41.7592930" lon="1.9380070">
        <ele>293.1090000</ele>
        <time>2010-09-26T06:27:49Z</time>
      </trkpt>
      <trkpt lat="41.7595060" lon="1.9378760">
        <ele>291.6000000</ele>
        <time>2010-09-26T06:27:54Z</time>
      </trkpt>
      <trkpt lat="41.7596030" lon="1.9376860">
        <ele>290.2930000</ele>
        <time>2010-09-26T06:27:57Z</time>
      </trkpt>
      <trkpt lat="41.7596620" lon="1.9375080">
        <ele>289.4210000</ele>
        <time>2010-09-26T06:27:59Z</time>
      </trkpt>
      <trkpt lat="41.7597540" lon="1.9371230">
        <ele>287.5030000</ele>
        <time>2010-09-26T06:28:04Z</time>
      </trkpt>
      <trkpt lat="41.7599340" lon="1.9367800">
        <ele>286.7220000</ele>
        <time>2010-09-26T06:28:09Z</time>
      </trkpt>
      <trkpt lat="41.7601620" lon="1.9366810">
        <ele>285.6200000</ele>
        <time>2010-09-26T06:28:13Z</time>
      </trkpt>
      <trkpt lat="41.7606020" lon="1.9365980">
        <ele>285.9620000</ele>
        <time>2010-09-26T06:28:20Z</time>
      </trkpt>
      <trkpt lat="41.7608750" lon="1.9367530">
        <ele>285.3970000</ele>
        <time>2010-09-26T06:28:25Z</time>
      </trkpt>
      <trkpt lat="41.7609040" lon="1.9368440">
        <ele>285.6070000</ele>
        <time>2010-09-26T06:28:26Z</time>
      </trkpt>
      <trkpt lat="41.7611500" lon="1.9372600">
        <ele>284.5740000</ele>
        <time>2010-09-26T06:28:31Z</time>
      </trkpt>
      <trkpt lat="41.7612890" lon="1.9373900">
        <ele>283.3640000</ele>
        <time>2010-09-26T06:28:33Z</time>
      </trkpt>
      <trkpt lat="41.7614610" lon="1.9376710">
        <ele>281.7170000</ele>
        <time>2010-09-26T06:28:36Z</time>
      </trkpt>
      <trkpt lat="41.7616800" lon="1.9382760">
        <ele>280.9350000</ele>
        <time>2010-09-26T06:28:42Z</time>
      </trkpt>
      <trkpt lat="41.7617340" lon="1.9384700">
        <ele>281.3110000</ele>
        <time>2010-09-26T06:28:44Z</time>
      </trkpt>
      <trkpt lat="41.7618950" lon="1.9388000">
        <ele>280.9070000</ele>
        <time>2010-09-26T06:28:48Z</time>
      </trkpt>
      <trkpt lat="41.7620070" lon="1.9390740">
        <ele>279.9960000</ele>
        <time>2010-09-26T06:28:51Z</time>
      </trkpt>
      <trkpt lat="41.7622920" lon="1.9395420">
        <ele>277.3520000</ele>
        <time>2010-09-26T06:28:56Z</time>
      </trkpt>
      <trkpt lat="41.7624110" lon="1.9397040">
        <ele>276.8960000</ele>
        <time>2010-09-26T06:28:58Z</time>
      </trkpt>
      <trkpt lat="41.7626140" lon="1.9398940">
        <ele>277.4960000</ele>
        <time>2010-09-26T06:29:01Z</time>
      </trkpt>
      <trkpt lat="41.7628580" lon="1.9401440">
        <ele>277.0700000</ele>
        <time>2010-09-26T06:29:05Z</time>
      </trkpt>
      <trkpt lat="41.7632180" lon="1.9403430">
        <ele>277.1830000</ele>
        <time>2010-09-26T06:29:11Z</time>
      </trkpt>
      <trkpt lat="41.7632740" lon="1.9403640">
        <ele>277.0790000</ele>
        <time>2010-09-26T06:29:12Z</time>
      </trkpt>
      <trkpt lat="41.7634970" lon="1.9403100">
        <ele>277.6220000</ele>
        <time>2010-09-26T06:29:16Z</time>
      </trkpt>
      <trkpt lat="41.7635990" lon="1.9400750">
        <ele>277.0050000</ele>
        <time>2010-09-26T06:29:19Z</time>
      </trkpt>
      <trkpt lat="41.7636770" lon="1.9397270">
        <ele>274.8340000</ele>
        <time>2010-09-26T06:29:24Z</time>
      </trkpt>
      <trkpt lat="41.7636790" lon="1.9394070">
        <ele>274.4400000</ele>
        <time>2010-09-26T06:29:29Z</time>
      </trkpt>
      <trkpt lat="41.7635740" lon="1.9391890">
        <ele>276.3070000</ele>
        <time>2010-09-26T06:29:33Z</time>
      </trkpt>
      <trkpt lat="41.7635320" lon="1.9391490">
        <ele>276.4650000</ele>
        <time>2010-09-26T06:29:34Z</time>
      </trkpt>
      <trkpt lat="41.7634910" lon="1.9391080">
        <ele>276.8030000</ele>
        <time>2010-09-26T06:29:35Z</time>
      </trkpt>
      <trkpt lat="41.7633110" lon="1.9389290">
        <ele>277.9130000</ele>
        <time>2010-09-26T06:29:40Z</time>
      </trkpt>
      <trkpt lat="41.7631190" lon="1.9387860">
        <ele>279.5430000</ele>
        <time>2010-09-26T06:29:45Z</time>
      </trkpt>
      <trkpt lat="41.7629670" lon="1.9385770">
        <ele>280.0470000</ele>
        <time>2010-09-26T06:29:50Z</time>
      </trkpt>
      <trkpt lat="41.7629640" lon="1.9384700">
        <ele>280.3660000</ele>
        <time>2010-09-26T06:29:52Z</time>
      </trkpt>
      <trkpt lat="41.7629760" lon="1.9381950">
        <ele>284.0240000</ele>
        <time>2010-09-26T06:29:58Z</time>
      </trkpt>
      <trkpt lat="41.7629670" lon="1.9381590">
        <ele>284.3180000</ele>
        <time>2010-09-26T06:29:59Z</time>
      </trkpt>
      <trkpt lat="41.7629220" lon="1.9380080">
        <ele>285.6010000</ele>
        <time>2010-09-26T06:30:04Z</time>
      </trkpt>
      <trkpt lat="41.7628130" lon="1.9378870">
        <ele>286.5510000</ele>
        <time>2010-09-26T06:30:08Z</time>
      </trkpt>
      <trkpt lat="41.7626550" lon="1.9377100">
        <ele>286.7370000</ele>
        <time>2010-09-26T06:30:14Z</time>
      </trkpt>
      <trkpt lat="41.7626530" lon="1.9375260">
        <ele>287.2600000</ele>
        <time>2010-09-26T06:30:18Z</time>
      </trkpt>
      <trkpt lat="41.7627460" lon="1.9373170">
        <ele>288.5240000</ele>
        <time>2010-09-26T06:30:23Z</time>
      </trkpt>
      <trkpt lat="41.7628640" lon="1.9370150">
        <ele>289.6550000</ele>
        <time>2010-09-26T06:30:30Z</time>
      </trkpt>
      <trkpt lat="41.7630110" lon="1.9367470">
        <ele>290.2030000</ele>
        <time>2010-09-26T06:30:37Z</time>
      </trkpt>
      <trkpt lat="41.7632150" lon="1.9366030">
        <ele>291.8720000</ele>
        <time>2010-09-26T06:30:44Z</time>
      </trkpt>
      <trkpt lat="41.7633780" lon="1.9365070">
        <ele>292.6680000</ele>
        <time>2010-09-26T06:30:50Z</time>
      </trkpt>
      <trkpt lat="41.7635670" lon="1.9363750">
        <ele>295.1340000</ele>
        <time>2010-09-26T06:30:58Z</time>
      </trkpt>
      <trkpt lat="41.7636850" lon="1.9363240">
        <ele>296.7100000</ele>
        <time>2010-09-26T06:31:04Z</time>
      </trkpt>
      <trkpt lat="41.7638030" lon="1.9362490">
        <ele>297.9850000</ele>
        <time>2010-09-26T06:31:10Z</time>
      </trkpt>
      <trkpt lat="41.7639630" lon="1.9361560">
        <ele>299.7490000</ele>
        <time>2010-09-26T06:31:18Z</time>
      </trkpt>
      <trkpt lat="41.7641170" lon="1.9360050">
        <ele>301.2880000</ele>
        <time>2010-09-26T06:31:26Z</time>
      </trkpt>
      <trkpt lat="41.7642280" lon="1.9357520">
        <ele>303.0470000</ele>
        <time>2010-09-26T06:31:35Z</time>
      </trkpt>
      <trkpt lat="41.7643230" lon="1.9355660">
        <ele>304.7990000</ele>
        <time>2010-09-26T06:31:42Z</time>
      </trkpt>
      <trkpt lat="41.7644990" lon="1.9352070">
        <ele>306.8930000</ele>
        <time>2010-09-26T06:31:53Z</time>
      </trkpt>
      <trkpt lat="41.7646500" lon="1.9349040">
        <ele>308.3920000</ele>
        <time>2010-09-26T06:32:02Z</time>
      </trkpt>
      <trkpt lat="41.7647180" lon="1.9346600">
        <ele>309.7470000</ele>
        <time>2010-09-26T06:32:09Z</time>
      </trkpt>
      <trkpt lat="41.7646980" lon="1.9344460">
        <ele>311.1380000</ele>
        <time>2010-09-26T06:32:15Z</time>
      </trkpt>
      <trkpt lat="41.7646470" lon="1.9341060">
        <ele>312.5530000</ele>
        <time>2010-09-26T06:32:24Z</time>
      </trkpt>
      <trkpt lat="41.7646360" lon="1.9337800">
        <ele>313.4220000</ele>
        <time>2010-09-26T06:32:32Z</time>
      </trkpt>
      <trkpt lat="41.7646310" lon="1.9333460">
        <ele>314.5580000</ele>
        <time>2010-09-26T06:32:42Z</time>
      </trkpt>
      <trkpt lat="41.7646630" lon="1.9331800">
        <ele>315.5080000</ele>
        <time>2010-09-26T06:32:46Z</time>
      </trkpt>
      <trkpt lat="41.7648020" lon="1.9331220">
        <ele>316.5510000</ele>
        <time>2010-09-26T06:32:51Z</time>
      </trkpt>
      <trkpt lat="41.7650600" lon="1.9332090">
        <ele>318.3000000</ele>
        <time>2010-09-26T06:33:00Z</time>
      </trkpt>
      <trkpt lat="41.7653000" lon="1.9333220">
        <ele>319.0280000</ele>
        <time>2010-09-26T06:33:08Z</time>
      </trkpt>
      <trkpt lat="41.7655720" lon="1.9334000">
        <ele>320.5590000</ele>
        <time>2010-09-26T06:33:17Z</time>
      </trkpt>
      <trkpt lat="41.7657240" lon="1.9334300">
        <ele>321.2180000</ele>
        <time>2010-09-26T06:33:24Z</time>
      </trkpt>
      <trkpt lat="41.7658230" lon="1.9334550">
        <ele>320.9120000</ele>
        <time>2010-09-26T06:33:31Z</time>
      </trkpt>
      <trkpt lat="41.7658350" lon="1.9334580">
        <ele>320.9920000</ele>
        <time>2010-09-26T06:33:32Z</time>
      </trkpt>
      <trkpt lat="41.7658830" lon="1.9334930">
        <ele>321.0570000</ele>
        <time>2010-09-26T06:33:37Z</time>
      </trkpt>
      <trkpt lat="41.7659140" lon="1.9336140">
        <ele>321.2060000</ele>
        <time>2010-09-26T06:33:43Z</time>
      </trkpt>
      <trkpt lat="41.7659090" lon="1.9337640">
        <ele>322.3220000</ele>
        <time>2010-09-26T06:33:50Z</time>
      </trkpt>
      <trkpt lat="41.7658980" lon="1.9339350">
        <ele>323.9490000</ele>
        <time>2010-09-26T06:33:57Z</time>
      </trkpt>
      <trkpt lat="41.7658720" lon="1.9340910">
        <ele>325.7560000</ele>
        <time>2010-09-26T06:34:04Z</time>
      </trkpt>
      <trkpt lat="41.7658630" lon="1.9342090">
        <ele>326.5210000</ele>
        <time>2010-09-26T06:34:10Z</time>
      </trkpt>
      <trkpt lat="41.7658580" lon="1.9343780">
        <ele>327.8370000</ele>
        <time>2010-09-26T06:34:19Z</time>
      </trkpt>
      <trkpt lat="41.7658290" lon="1.9345180">
        <ele>329.2130000</ele>
        <time>2010-09-26T06:34:25Z</time>
      </trkpt>
      <trkpt lat="41.7658100" lon="1.9347010">
        <ele>330.6950000</ele>
        <time>2010-09-26T06:34:33Z</time>
      </trkpt>
      <trkpt lat="41.7658020" lon="1.9349650">
        <ele>332.5490000</ele>
        <time>2010-09-26T06:34:44Z</time>
      </trkpt>
      <trkpt lat="41.7657980" lon="1.9351410">
        <ele>334.1080000</ele>
        <time>2010-09-26T06:34:52Z</time>
      </trkpt>
      <trkpt lat="41.7657800" lon="1.9353740">
        <ele>335.9070000</ele>
        <time>2010-09-26T06:35:02Z</time>
      </trkpt>
      <trkpt lat="41.7657670" lon="1.9356100">
        <ele>338.2060000</ele>
        <time>2010-09-26T06:35:12Z</time>
      </trkpt>
      <trkpt lat="41.7657450" lon="1.9358480">
        <ele>339.2310000</ele>
        <time>2010-09-26T06:35:21Z</time>
      </trkpt>
      <trkpt lat="41.7657500" lon="1.9360820">
        <ele>340.9850000</ele>
        <time>2010-09-26T06:35:30Z</time>
      </trkpt>
      <trkpt lat="41.7658540" lon="1.9362830">
        <ele>342.3630000</ele>
        <time>2010-09-26T06:35:39Z</time>
      </trkpt>
      <trkpt lat="41.7659880" lon="1.9363940">
        <ele>342.4120000</ele>
        <time>2010-09-26T06:35:45Z</time>
      </trkpt>
      <trkpt lat="41.7660370" lon="1.9365820">
        <ele>343.1560000</ele>
        <time>2010-09-26T06:35:51Z</time>
      </trkpt>
      <trkpt lat="41.7660350" lon="1.9367670">
        <ele>344.8260000</ele>
        <time>2010-09-26T06:35:57Z</time>
      </trkpt>
      <trkpt lat="41.7659840" lon="1.9370120">
        <ele>346.1370000</ele>
        <time>2010-09-26T06:36:05Z</time>
      </trkpt>
      <trkpt lat="41.7659440" lon="1.9372840">
        <ele>347.4920000</ele>
        <time>2010-09-26T06:36:14Z</time>
      </trkpt>
      <trkpt lat="41.7658930" lon="1.9375410">
        <ele>348.2890000</ele>
        <time>2010-09-26T06:36:22Z</time>
      </trkpt>
      <trkpt lat="41.7658310" lon="1.9378330">
        <ele>349.7780000</ele>
        <time>2010-09-26T06:36:31Z</time>
      </trkpt>
      <trkpt lat="41.7657740" lon="1.9380820">
        <ele>351.4240000</ele>
        <time>2010-09-26T06:36:40Z</time>
      </trkpt>
      <trkpt lat="41.7657040" lon="1.9383850">
        <ele>354.0680000</ele>
        <time>2010-09-26T06:36:51Z</time>
      </trkpt>
      <trkpt lat="41.7656520" lon="1.9387050">
        <ele>356.9870000</ele>
        <time>2010-09-26T06:37:03Z</time>
      </trkpt>
      <trkpt lat="41.7656900" lon="1.9389510">
        <ele>358.3050000</ele>
        <time>2010-09-26T06:37:11Z</time>
      </trkpt>
      <trkpt lat="41.7657700" lon="1.9391620">
        <ele>357.8780000</ele>
        <time>2010-09-26T06:37:16Z</time>
      </trkpt>
      <trkpt lat="41.7659050" lon="1.9394420">
        <ele>358.0480000</ele>
        <time>2010-09-26T06:37:23Z</time>
      </trkpt>
      <trkpt lat="41.7660620" lon="1.9396390">
        <ele>357.7830000</ele>
        <time>2010-09-26T06:37:29Z</time>
      </trkpt>
      <trkpt lat="41.7662350" lon="1.9396910">
        <ele>357.5930000</ele>
        <time>2010-09-26T06:37:34Z</time>
      </trkpt>
      <trkpt lat="41.7665120" lon="1.9397100">
        <ele>357.3860000</ele>
        <time>2010-09-26T06:37:41Z</time>
      </trkpt>
      <trkpt lat="41.7668080" lon="1.9397700">
        <ele>355.8020000</ele>
        <time>2010-09-26T06:37:46Z</time>
      </trkpt>
      <trkpt lat="41.7668720" lon="1.9397950">
        <ele>355.3490000</ele>
        <time>2010-09-26T06:37:47Z</time>
      </trkpt>
      <trkpt lat="41.7670510" lon="1.9399070">
        <ele>354.1620000</ele>
        <time>2010-09-26T06:37:50Z</time>
      </trkpt>
      <trkpt lat="41.7674690" lon="1.9401840">
        <ele>352.5380000</ele>
        <time>2010-09-26T06:37:57Z</time>
      </trkpt>
      <trkpt lat="41.7676620" lon="1.9403180">
        <ele>351.4190000</ele>
        <time>2010-09-26T06:38:00Z</time>
      </trkpt>
      <trkpt lat="41.7678410" lon="1.9405950">
        <ele>350.4130000</ele>
        <time>2010-09-26T06:38:04Z</time>
      </trkpt>
      <trkpt lat="41.7678390" lon="1.9408520">
        <ele>350.2060000</ele>
        <time>2010-09-26T06:38:08Z</time>
      </trkpt>
      <trkpt lat="41.7678010" lon="1.9412170">
        <ele>351.2380000</ele>
        <time>2010-09-26T06:38:15Z</time>
      </trkpt>
      <trkpt lat="41.7677480" lon="1.9413480">
        <ele>351.5040000</ele>
        <time>2010-09-26T06:38:20Z</time>
      </trkpt>
      <trkpt lat="41.7676330" lon="1.9413870">
        <ele>352.2990000</ele>
        <time>2010-09-26T06:38:24Z</time>
      </trkpt>
      <trkpt lat="41.7673880" lon="1.9414120">
        <ele>352.9710000</ele>
        <time>2010-09-26T06:38:31Z</time>
      </trkpt>
      <trkpt lat="41.7671920" lon="1.9414910">
        <ele>355.1290000</ele>
        <time>2010-09-26T06:38:38Z</time>
      </trkpt>
      <trkpt lat="41.7670130" lon="1.9415730">
        <ele>356.9690000</ele>
        <time>2010-09-26T06:38:45Z</time>
      </trkpt>
      <trkpt lat="41.7668350" lon="1.9416130">
        <ele>358.5770000</ele>
        <time>2010-09-26T06:38:52Z</time>
      </trkpt>
      <trkpt lat="41.7666740" lon="1.9416880">
        <ele>360.9940000</ele>
        <time>2010-09-26T06:39:00Z</time>
      </trkpt>
      <trkpt lat="41.7664950" lon="1.9417200">
        <ele>362.3200000</ele>
        <time>2010-09-26T06:39:07Z</time>
      </trkpt>
      <trkpt lat="41.7663720" lon="1.9417890">
        <ele>361.5770000</ele>
        <time>2010-09-26T06:39:13Z</time>
      </trkpt>
      <trkpt lat="41.7663300" lon="1.9419070">
        <ele>362.8500000</ele>
        <time>2010-09-26T06:39:20Z</time>
      </trkpt>
      <trkpt lat="41.7663120" lon="1.9420630">
        <ele>363.6020000</ele>
        <time>2010-09-26T06:39:27Z</time>
      </trkpt>
      <trkpt lat="41.7663300" lon="1.9422470">
        <ele>364.5370000</ele>
        <time>2010-09-26T06:39:33Z</time>
      </trkpt>
      <trkpt lat="41.7663410" lon="1.9423680">
        <ele>365.7970000</ele>
        <time>2010-09-26T06:39:39Z</time>
      </trkpt>
      <trkpt lat="41.7663340" lon="1.9424270">
        <ele>365.7080000</ele>
        <time>2010-09-26T06:39:45Z</time>
      </trkpt>
      <trkpt lat="41.7663330" lon="1.9424330">
        <ele>365.8130000</ele>
        <time>2010-09-26T06:39:46Z</time>
      </trkpt>
      <trkpt lat="41.7663210" lon="1.9424930">
        <ele>366.3920000</ele>
        <time>2010-09-26T06:39:51Z</time>
      </trkpt>
      <trkpt lat="41.7663150" lon="1.9425700">
        <ele>366.3520000</ele>
        <time>2010-09-26T06:39:58Z</time>
      </trkpt>
      <trkpt lat="41.7662890" lon="1.9426590">
        <ele>366.5390000</ele>
        <time>2010-09-26T06:40:05Z</time>
      </trkpt>
      <trkpt lat="41.7662640" lon="1.9428020">
        <ele>367.1150000</ele>
        <time>2010-09-26T06:40:12Z</time>
      </trkpt>
      <trkpt lat="41.7662680" lon="1.9428430">
        <ele>367.6700000</ele>
        <time>2010-09-26T06:40:15Z</time>
      </trkpt>
      <trkpt lat="41.7663360" lon="1.9428950">
        <ele>368.7630000</ele>
        <time>2010-09-26T06:40:21Z</time>
      </trkpt>
      <trkpt lat="41.7663660" lon="1.9429990">
        <ele>370.3070000</ele>
        <time>2010-09-26T06:40:28Z</time>
      </trkpt>
      <trkpt lat="41.7663650" lon="1.9430120">
        <ele>370.4800000</ele>
        <time>2010-09-26T06:40:29Z</time>
      </trkpt>
      <trkpt lat="41.7662950" lon="1.9431030">
        <ele>371.6980000</ele>
        <time>2010-09-26T06:40:36Z</time>
      </trkpt>
      <trkpt lat="41.7662310" lon="1.9432340">
        <ele>372.6490000</ele>
        <time>2010-09-26T06:40:42Z</time>
      </trkpt>
      <trkpt lat="41.7662830" lon="1.9433360">
        <ele>373.2630000</ele>
        <time>2010-09-26T06:40:46Z</time>
      </trkpt>
      <trkpt lat="41.7664300" lon="1.9434580">
        <ele>373.8710000</ele>
        <time>2010-09-26T06:40:53Z</time>
      </trkpt>
      <trkpt lat="41.7666540" lon="1.9436060">
        <ele>374.4750000</ele>
        <time>2010-09-26T06:41:02Z</time>
      </trkpt>
      <trkpt lat="41.7667780" lon="1.9437840">
        <ele>374.4650000</ele>
        <time>2010-09-26T06:41:08Z</time>
      </trkpt>
      <trkpt lat="41.7668310" lon="1.9440190">
        <ele>374.7430000</ele>
        <time>2010-09-26T06:41:14Z</time>
      </trkpt>
      <trkpt lat="41.7669520" lon="1.9443560">
        <ele>376.1860000</ele>
        <time>2010-09-26T06:41:23Z</time>
      </trkpt>
      <trkpt lat="41.7670540" lon="1.9444060">
        <ele>376.2770000</ele>
        <time>2010-09-26T06:41:26Z</time>
      </trkpt>
      <trkpt lat="41.7671920" lon="1.9444270">
        <ele>375.7370000</ele>
        <time>2010-09-26T06:41:29Z</time>
      </trkpt>
      <trkpt lat="41.7674560" lon="1.9445450">
        <ele>374.1030000</ele>
        <time>2010-09-26T06:41:35Z</time>
      </trkpt>
      <trkpt lat="41.7675560" lon="1.9446210">
        <ele>373.4660000</ele>
        <time>2010-09-26T06:41:39Z</time>
      </trkpt>
      <trkpt lat="41.7675110" lon="1.9446490">
        <ele>373.3460000</ele>
        <time>2010-09-26T06:41:41Z</time>
      </trkpt>
      <trkpt lat="41.7673150" lon="1.9447550">
        <ele>372.0990000</ele>
        <time>2010-09-26T06:41:47Z</time>
      </trkpt>
      <trkpt lat="41.7671610" lon="1.9449190">
        <ele>370.3590000</ele>
        <time>2010-09-26T06:41:53Z</time>
      </trkpt>
      <trkpt lat="41.7670220" lon="1.9450830">
        <ele>368.3470000</ele>
        <time>2010-09-26T06:41:59Z</time>
      </trkpt>
      <trkpt lat="41.7669510" lon="1.9451810">
        <ele>367.3450000</ele>
        <time>2010-09-26T06:42:05Z</time>
      </trkpt>
      <trkpt lat="41.7669040" lon="1.9452260">
        <ele>366.3730000</ele>
        <time>2010-09-26T06:42:10Z</time>
      </trkpt>
      <trkpt lat="41.7668680" lon="1.9452660">
        <ele>365.9740000</ele>
        <time>2010-09-26T06:42:16Z</time>
      </trkpt>
      <trkpt lat="41.7668250" lon="1.9453240">
        <ele>365.2370000</ele>
        <time>2010-09-26T06:42:29Z</time>
      </trkpt>
      <trkpt lat="41.7668160" lon="1.9453590">
        <ele>364.9210000</ele>
        <time>2010-09-26T06:42:33Z</time>
      </trkpt>
      <trkpt lat="41.7667950" lon="1.9454770">
        <ele>364.3530000</ele>
        <time>2010-09-26T06:42:43Z</time>
      </trkpt>
      <trkpt lat="41.7668060" lon="1.9455710">
        <ele>364.4490000</ele>
        <time>2010-09-26T06:42:51Z</time>
      </trkpt>
      <trkpt lat="41.7668190" lon="1.9456640">
        <ele>364.5520000</ele>
        <time>2010-09-26T06:42:55Z</time>
      </trkpt>
      <trkpt lat="41.7668480" lon="1.9457550">
        <ele>364.0940000</ele>
        <time>2010-09-26T06:43:00Z</time>
      </trkpt>
      <trkpt lat="41.7668240" lon="1.9458900">
        <ele>364.1770000</ele>
        <time>2010-09-26T06:43:05Z</time>
      </trkpt>
      <trkpt lat="41.7667950" lon="1.9462330">
        <ele>364.4970000</ele>
        <time>2010-09-26T06:43:12Z</time>
      </trkpt>
      <trkpt lat="41.7668500" lon="1.9465540">
        <ele>366.3290000</ele>
        <time>2010-09-26T06:43:19Z</time>
      </trkpt>
      <trkpt lat="41.7669930" lon="1.9466980">
        <ele>366.8460000</ele>
        <time>2010-09-26T06:43:24Z</time>
      </trkpt>
      <trkpt lat="41.7672480" lon="1.9468310">
        <ele>367.3700000</ele>
        <time>2010-09-26T06:43:31Z</time>
      </trkpt>
      <trkpt lat="41.7672890" lon="1.9468480">
        <ele>367.1940000</ele>
        <time>2010-09-26T06:43:32Z</time>
      </trkpt>
      <trkpt lat="41.7675490" lon="1.9468570">
        <ele>365.4330000</ele>
        <time>2010-09-26T06:43:37Z</time>
      </trkpt>
      <trkpt lat="41.7679520" lon="1.9468620">
        <ele>360.9430000</ele>
        <time>2010-09-26T06:43:43Z</time>
      </trkpt>
      <trkpt lat="41.7680840" lon="1.9468720">
        <ele>360.3120000</ele>
        <time>2010-09-26T06:43:45Z</time>
      </trkpt>
      <trkpt lat="41.7681990" lon="1.9468750">
        <ele>359.3300000</ele>
        <time>2010-09-26T06:43:47Z</time>
      </trkpt>
      <trkpt lat="41.7682830" lon="1.9469950">
        <ele>358.1230000</ele>
        <time>2010-09-26T06:43:51Z</time>
      </trkpt>
      <trkpt lat="41.7682450" lon="1.9471670">
        <ele>358.1530000</ele>
        <time>2010-09-26T06:43:56Z</time>
      </trkpt>
      <trkpt lat="41.7681740" lon="1.9473890">
        <ele>359.5180000</ele>
        <time>2010-09-26T06:44:04Z</time>
      </trkpt>
      <trkpt lat="41.7681400" lon="1.9475170">
        <ele>361.2530000</ele>
        <time>2010-09-26T06:44:10Z</time>
      </trkpt>
      <trkpt lat="41.7681490" lon="1.9477310">
        <ele>362.4960000</ele>
        <time>2010-09-26T06:44:17Z</time>
      </trkpt>
      <trkpt lat="41.7682350" lon="1.9478970">
        <ele>364.0710000</ele>
        <time>2010-09-26T06:44:23Z</time>
      </trkpt>
      <trkpt lat="41.7683460" lon="1.9479870">
        <ele>364.4930000</ele>
        <time>2010-09-26T06:44:28Z</time>
      </trkpt>
      <trkpt lat="41.7685440" lon="1.9480340">
        <ele>365.0090000</ele>
        <time>2010-09-26T06:44:34Z</time>
      </trkpt>
      <trkpt lat="41.7688600" lon="1.9480880">
        <ele>365.1630000</ele>
        <time>2010-09-26T06:44:42Z</time>
      </trkpt>
      <trkpt lat="41.7691610" lon="1.9482440">
        <ele>364.8090000</ele>
        <time>2010-09-26T06:44:49Z</time>
      </trkpt>
      <trkpt lat="41.7692870" lon="1.9483010">
        <ele>364.5350000</ele>
        <time>2010-09-26T06:44:51Z</time>
      </trkpt>
      <trkpt lat="41.7694560" lon="1.9485100">
        <ele>362.6520000</ele>
        <time>2010-09-26T06:44:55Z</time>
      </trkpt>
      <trkpt lat="41.7693670" lon="1.9486640">
        <ele>362.1170000</ele>
        <time>2010-09-26T06:44:58Z</time>
      </trkpt>
      <trkpt lat="41.7693160" lon="1.9486820">
        <ele>362.0370000</ele>
        <time>2010-09-26T06:44:59Z</time>
      </trkpt>
      <trkpt lat="41.7690050" lon="1.9487070">
        <ele>362.0450000</ele>
        <time>2010-09-26T06:45:05Z</time>
      </trkpt>
      <trkpt lat="41.7688650" lon="1.9486850">
        <ele>362.4190000</ele>
        <time>2010-09-26T06:45:08Z</time>
      </trkpt>
      <trkpt lat="41.7686690" lon="1.9487120">
        <ele>363.6200000</ele>
        <time>2010-09-26T06:45:13Z</time>
      </trkpt>
      <trkpt lat="41.7683960" lon="1.9488580">
        <ele>365.8280000</ele>
        <time>2010-09-26T06:45:22Z</time>
      </trkpt>
      <trkpt lat="41.7681390" lon="1.9489790">
        <ele>367.7780000</ele>
        <time>2010-09-26T06:45:31Z</time>
      </trkpt>
      <trkpt lat="41.7679470" lon="1.9490920">
        <ele>369.8600000</ele>
        <time>2010-09-26T06:45:38Z</time>
      </trkpt>
      <trkpt lat="41.7677760" lon="1.9493330">
        <ele>371.5930000</ele>
        <time>2010-09-26T06:45:46Z</time>
      </trkpt>
      <trkpt lat="41.7676700" lon="1.9495810">
        <ele>372.6090000</ele>
        <time>2010-09-26T06:45:53Z</time>
      </trkpt>
      <trkpt lat="41.7675560" lon="1.9495870">
        <ele>372.9930000</ele>
        <time>2010-09-26T06:45:57Z</time>
      </trkpt>
      <trkpt lat="41.7673740" lon="1.9494090">
        <ele>374.2960000</ele>
        <time>2010-09-26T06:46:04Z</time>
      </trkpt>
      <trkpt lat="41.7672110" lon="1.9492850">
        <ele>375.4350000</ele>
        <time>2010-09-26T06:46:10Z</time>
      </trkpt>
      <trkpt lat="41.7670620" lon="1.9493400">
        <ele>376.1970000</ele>
        <time>2010-09-26T06:46:15Z</time>
      </trkpt>
      <trkpt lat="41.7669120" lon="1.9495340">
        <ele>377.5710000</ele>
        <time>2010-09-26T06:46:22Z</time>
      </trkpt>
      <trkpt lat="41.7669010" lon="1.9497460">
        <ele>378.4130000</ele>
        <time>2010-09-26T06:46:27Z</time>
      </trkpt>
      <trkpt lat="41.7669250" lon="1.9499870">
        <ele>378.0630000</ele>
        <time>2010-09-26T06:46:32Z</time>
      </trkpt>
      <trkpt lat="41.7669510" lon="1.9503230">
        <ele>378.3390000</ele>
        <time>2010-09-26T06:46:39Z</time>
      </trkpt>
      <trkpt lat="41.7669670" lon="1.9506590">
        <ele>379.0780000</ele>
        <time>2010-09-26T06:46:46Z</time>
      </trkpt>
      <trkpt lat="41.7668950" lon="1.9509160">
        <ele>379.0360000</ele>
        <time>2010-09-26T06:46:51Z</time>
      </trkpt>
      <trkpt lat="41.7667190" lon="1.9512000">
        <ele>379.5300000</ele>
        <time>2010-09-26T06:46:58Z</time>
      </trkpt>
      <trkpt lat="41.7665710" lon="1.9514490">
        <ele>379.3620000</ele>
        <time>2010-09-26T06:47:03Z</time>
      </trkpt>
      <trkpt lat="41.7664750" lon="1.9517510">
        <ele>378.2990000</ele>
        <time>2010-09-26T06:47:07Z</time>
      </trkpt>
      <trkpt lat="41.7665410" lon="1.9519640">
        <ele>377.6460000</ele>
        <time>2010-09-26T06:47:10Z</time>
      </trkpt>
      <trkpt lat="41.7666770" lon="1.9520390">
        <ele>375.8760000</ele>
        <time>2010-09-26T06:47:13Z</time>
      </trkpt>
      <trkpt lat="41.7667420" lon="1.9521590">
        <ele>374.7070000</ele>
        <time>2010-09-26T06:47:16Z</time>
      </trkpt>
      <trkpt lat="41.7666450" lon="1.9523120">
        <ele>373.4050000</ele>
        <time>2010-09-26T06:47:19Z</time>
      </trkpt>
      <trkpt lat="41.7665880" lon="1.9523470">
        <ele>372.9680000</ele>
        <time>2010-09-26T06:47:20Z</time>
      </trkpt>
      <trkpt lat="41.7662920" lon="1.9525200">
        <ele>370.8660000</ele>
        <time>2010-09-26T06:47:25Z</time>
      </trkpt>
      <trkpt lat="41.7661120" lon="1.9527450">
        <ele>371.7250000</ele>
        <time>2010-09-26T06:47:30Z</time>
      </trkpt>
      <trkpt lat="41.7660060" lon="1.9530860">
        <ele>373.3240000</ele>
        <time>2010-09-26T06:47:37Z</time>
      </trkpt>
      <trkpt lat="41.7660680" lon="1.9532720">
        <ele>374.7130000</ele>
        <time>2010-09-26T06:47:41Z</time>
      </trkpt>
      <trkpt lat="41.7663080" lon="1.9535410">
        <ele>374.7010000</ele>
        <time>2010-09-26T06:47:48Z</time>
      </trkpt>
      <trkpt lat="41.7665340" lon="1.9538100">
        <ele>374.3670000</ele>
        <time>2010-09-26T06:47:54Z</time>
      </trkpt>
      <trkpt lat="41.7666050" lon="1.9539060">
        <ele>373.9980000</ele>
        <time>2010-09-26T06:47:56Z</time>
      </trkpt>
      <trkpt lat="41.7668880" lon="1.9542330">
        <ele>373.3530000</ele>
        <time>2010-09-26T06:48:03Z</time>
      </trkpt>
      <trkpt lat="41.7669850" lon="1.9543180">
        <ele>373.1910000</ele>
        <time>2010-09-26T06:48:05Z</time>
      </trkpt>
      <trkpt lat="41.7672910" lon="1.9544360">
        <ele>371.6060000</ele>
        <time>2010-09-26T06:48:10Z</time>
      </trkpt>
      <trkpt lat="41.7674220" lon="1.9544330">
        <ele>371.2260000</ele>
        <time>2010-09-26T06:48:12Z</time>
      </trkpt>
      <trkpt lat="41.7677230" lon="1.9545710">
        <ele>370.5160000</ele>
        <time>2010-09-26T06:48:17Z</time>
      </trkpt>
      <trkpt lat="41.7681110" lon="1.9548510">
        <ele>370.2300000</ele>
        <time>2010-09-26T06:48:24Z</time>
      </trkpt>
      <trkpt lat="41.7682680" lon="1.9549630">
        <ele>370.0100000</ele>
        <time>2010-09-26T06:48:27Z</time>
      </trkpt>
      <trkpt lat="41.7683940" lon="1.9551710">
        <ele>369.8100000</ele>
        <time>2010-09-26T06:48:31Z</time>
      </trkpt>
      <trkpt lat="41.7683000" lon="1.9552400">
        <ele>369.6830000</ele>
        <time>2010-09-26T06:48:34Z</time>
      </trkpt>
      <trkpt lat="41.7682640" lon="1.9552380">
        <ele>369.7090000</ele>
        <time>2010-09-26T06:48:35Z</time>
      </trkpt>
      <trkpt lat="41.7680200" lon="1.9551970">
        <ele>371.2430000</ele>
        <time>2010-09-26T06:48:42Z</time>
      </trkpt>
      <trkpt lat="41.7677910" lon="1.9552450">
        <ele>373.6710000</ele>
        <time>2010-09-26T06:48:49Z</time>
      </trkpt>
      <trkpt lat="41.7676230" lon="1.9552950">
        <ele>374.7050000</ele>
        <time>2010-09-26T06:48:54Z</time>
      </trkpt>
      <trkpt lat="41.7674880" lon="1.9553900">
        <ele>375.7660000</ele>
        <time>2010-09-26T06:48:59Z</time>
      </trkpt>
      <trkpt lat="41.7674300" lon="1.9556060">
        <ele>377.2930000</ele>
        <time>2010-09-26T06:49:05Z</time>
      </trkpt>
      <trkpt lat="41.7674140" lon="1.9559330">
        <ele>379.5090000</ele>
        <time>2010-09-26T06:49:13Z</time>
      </trkpt>
      <trkpt lat="41.7673820" lon="1.9562130">
        <ele>381.6300000</ele>
        <time>2010-09-26T06:49:20Z</time>
      </trkpt>
      <trkpt lat="41.7672920" lon="1.9563680">
        <ele>381.9380000</ele>
        <time>2010-09-26T06:49:25Z</time>
      </trkpt>
      <trkpt lat="41.7670950" lon="1.9565310">
        <ele>383.1580000</ele>
        <time>2010-09-26T06:49:33Z</time>
      </trkpt>
      <trkpt lat="41.7669820" lon="1.9566720">
        <ele>383.6920000</ele>
        <time>2010-09-26T06:49:40Z</time>
      </trkpt>
      <trkpt lat="41.7668810" lon="1.9568040">
        <ele>385.4370000</ele>
        <time>2010-09-26T06:49:48Z</time>
      </trkpt>
      <trkpt lat="41.7667840" lon="1.9569550">
        <ele>387.7260000</ele>
        <time>2010-09-26T06:49:56Z</time>
      </trkpt>
      <trkpt lat="41.7666990" lon="1.9571180">
        <ele>388.8800000</ele>
        <time>2010-09-26T06:50:03Z</time>
      </trkpt>
      <trkpt lat="41.7666480" lon="1.9572960">
        <ele>390.7330000</ele>
        <time>2010-09-26T06:50:10Z</time>
      </trkpt>
      <trkpt lat="41.7666900" lon="1.9574760">
        <ele>391.5100000</ele>
        <time>2010-09-26T06:50:16Z</time>
      </trkpt>
      <trkpt lat="41.7667800" lon="1.9577800">
        <ele>391.5160000</ele>
        <time>2010-09-26T06:50:24Z</time>
      </trkpt>
      <trkpt lat="41.7668090" lon="1.9579050">
        <ele>392.0210000</ele>
        <time>2010-09-26T06:50:27Z</time>
      </trkpt>
      <trkpt lat="41.7668850" lon="1.9580440">
        <ele>391.8700000</ele>
        <time>2010-09-26T06:50:30Z</time>
      </trkpt>
      <trkpt lat="41.7670480" lon="1.9582850">
        <ele>391.4110000</ele>
        <time>2010-09-26T06:50:36Z</time>
      </trkpt>
      <trkpt lat="41.7671830" lon="1.9585270">
        <ele>392.2970000</ele>
        <time>2010-09-26T06:50:43Z</time>
      </trkpt>
      <trkpt lat="41.7673320" lon="1.9587210">
        <ele>393.7090000</ele>
        <time>2010-09-26T06:50:50Z</time>
      </trkpt>
      <trkpt lat="41.7675050" lon="1.9589810">
        <ele>394.2660000</ele>
        <time>2010-09-26T06:50:58Z</time>
      </trkpt>
      <trkpt lat="41.7674880" lon="1.9591490">
        <ele>394.4540000</ele>
        <time>2010-09-26T06:51:02Z</time>
      </trkpt>
      <trkpt lat="41.7673900" lon="1.9592960">
        <ele>395.4620000</ele>
        <time>2010-09-26T06:51:07Z</time>
      </trkpt>
      <trkpt lat="41.7673580" lon="1.9594720">
        <ele>396.2760000</ele>
        <time>2010-09-26T06:51:12Z</time>
      </trkpt>
      <trkpt lat="41.7673650" lon="1.9597390">
        <ele>397.7480000</ele>
        <time>2010-09-26T06:51:19Z</time>
      </trkpt>
      <trkpt lat="41.7672720" lon="1.9598170">
        <ele>398.1010000</ele>
        <time>2010-09-26T06:51:23Z</time>
      </trkpt>
      <trkpt lat="41.7671400" lon="1.9597610">
        <ele>398.5960000</ele>
        <time>2010-09-26T06:51:28Z</time>
      </trkpt>
      <trkpt lat="41.7670190" lon="1.9596380">
        <ele>399.1920000</ele>
        <time>2010-09-26T06:51:33Z</time>
      </trkpt>
      <trkpt lat="41.7669000" lon="1.9596430">
        <ele>399.5960000</ele>
        <time>2010-09-26T06:51:37Z</time>
      </trkpt>
      <trkpt lat="41.7667600" lon="1.9597890">
        <ele>400.3840000</ele>
        <time>2010-09-26T06:51:43Z</time>
      </trkpt>
      <trkpt lat="41.7667360" lon="1.9599610">
        <ele>401.1320000</ele>
        <time>2010-09-26T06:51:48Z</time>
      </trkpt>
      <trkpt lat="41.7666760" lon="1.9602180">
        <ele>403.3000000</ele>
        <time>2010-09-26T06:51:56Z</time>
      </trkpt>
      <trkpt lat="41.7666730" lon="1.9602450">
        <ele>403.6290000</ele>
        <time>2010-09-26T06:51:57Z</time>
      </trkpt>
      <trkpt lat="41.7667500" lon="1.9603210">
        <ele>405.4740000</ele>
        <time>2010-09-26T06:52:03Z</time>
      </trkpt>
      <trkpt lat="41.7668940" lon="1.9603880">
        <ele>408.4060000</ele>
        <time>2010-09-26T06:52:12Z</time>
      </trkpt>
      <trkpt lat="41.7669660" lon="1.9605300">
        <ele>409.6180000</ele>
        <time>2010-09-26T06:52:19Z</time>
      </trkpt>
      <trkpt lat="41.7669700" lon="1.9607400">
        <ele>411.5060000</ele>
        <time>2010-09-26T06:52:27Z</time>
      </trkpt>
      <trkpt lat="41.7669520" lon="1.9609680">
        <ele>412.4050000</ele>
        <time>2010-09-26T06:52:35Z</time>
      </trkpt>
      <trkpt lat="41.7669270" lon="1.9612780">
        <ele>414.3530000</ele>
        <time>2010-09-26T06:52:46Z</time>
      </trkpt>
      <trkpt lat="41.7669130" lon="1.9615370">
        <ele>415.8290000</ele>
        <time>2010-09-26T06:52:55Z</time>
      </trkpt>
      <trkpt lat="41.7669300" lon="1.9617820">
        <ele>417.3570000</ele>
        <time>2010-09-26T06:53:04Z</time>
      </trkpt>
      <trkpt lat="41.7670220" lon="1.9619510">
        <ele>418.5480000</ele>
        <time>2010-09-26T06:53:10Z</time>
      </trkpt>
      <trkpt lat="41.7672140" lon="1.9621720">
        <ele>418.9090000</ele>
        <time>2010-09-26T06:53:18Z</time>
      </trkpt>
      <trkpt lat="41.7674770" lon="1.9625530">
        <ele>419.8040000</ele>
        <time>2010-09-26T06:53:30Z</time>
      </trkpt>
      <trkpt lat="41.7675900" lon="1.9626690">
        <ele>419.4710000</ele>
        <time>2010-09-26T06:53:34Z</time>
      </trkpt>
      <trkpt lat="41.7678770" lon="1.9627860">
        <ele>417.4670000</ele>
        <time>2010-09-26T06:53:39Z</time>
      </trkpt>
      <trkpt lat="41.7680500" lon="1.9630080">
        <ele>416.7020000</ele>
        <time>2010-09-26T06:53:43Z</time>
      </trkpt>
      <trkpt lat="41.7682290" lon="1.9632590">
        <ele>416.4160000</ele>
        <time>2010-09-26T06:53:48Z</time>
      </trkpt>
      <trkpt lat="41.7683530" lon="1.9632800">
        <ele>416.0010000</ele>
        <time>2010-09-26T06:53:50Z</time>
      </trkpt>
      <trkpt lat="41.7685400" lon="1.9634250">
        <ele>415.0910000</ele>
        <time>2010-09-26T06:53:54Z</time>
      </trkpt>
      <trkpt lat="41.7687030" lon="1.9636730">
        <ele>415.3670000</ele>
        <time>2010-09-26T06:53:59Z</time>
      </trkpt>
      <trkpt lat="41.7687360" lon="1.9639190">
        <ele>415.5100000</ele>
        <time>2010-09-26T06:54:03Z</time>
      </trkpt>
      <trkpt lat="41.7686160" lon="1.9640500">
        <ele>415.2950000</ele>
        <time>2010-09-26T06:54:06Z</time>
      </trkpt>
      <trkpt lat="41.7684090" lon="1.9641850">
        <ele>414.6070000</ele>
        <time>2010-09-26T06:54:10Z</time>
      </trkpt>
      <trkpt lat="41.7682630" lon="1.9644500">
        <ele>414.1360000</ele>
        <time>2010-09-26T06:54:14Z</time>
      </trkpt>
      <trkpt lat="41.7682550" lon="1.9647460">
        <ele>413.7860000</ele>
        <time>2010-09-26T06:54:18Z</time>
      </trkpt>
      <trkpt lat="41.7683730" lon="1.9649420">
        <ele>413.3600000</ele>
        <time>2010-09-26T06:54:21Z</time>
      </trkpt>
      <trkpt lat="41.7685380" lon="1.9650780">
        <ele>411.9240000</ele>
        <time>2010-09-26T06:54:24Z</time>
      </trkpt>
      <trkpt lat="41.7686050" lon="1.9652560">
        <ele>409.4610000</ele>
        <time>2010-09-26T06:54:27Z</time>
      </trkpt>
      <trkpt lat="41.7685380" lon="1.9654410">
        <ele>408.1140000</ele>
        <time>2010-09-26T06:54:30Z</time>
      </trkpt>
      <trkpt lat="41.7684870" lon="1.9656160">
        <ele>407.0550000</ele>
        <time>2010-09-26T06:54:33Z</time>
      </trkpt>
      <trkpt lat="41.7684660" lon="1.9657980">
        <ele>406.6340000</ele>
        <time>2010-09-26T06:54:36Z</time>
      </trkpt>
      <trkpt lat="41.7685250" lon="1.9660930">
        <ele>404.6980000</ele>
        <time>2010-09-26T06:54:40Z</time>
      </trkpt>
      <trkpt lat="41.7685730" lon="1.9661520">
        <ele>404.6940000</ele>
        <time>2010-09-26T06:54:41Z</time>
      </trkpt>
      <trkpt lat="41.7687370" lon="1.9663230">
        <ele>402.3440000</ele>
        <time>2010-09-26T06:54:44Z</time>
      </trkpt>
      <trkpt lat="41.7692200" lon="1.9666320">
        <ele>397.8830000</ele>
        <time>2010-09-26T06:54:51Z</time>
      </trkpt>
      <trkpt lat="41.7695880" lon="1.9668350">
        <ele>392.9800000</ele>
        <time>2010-09-26T06:54:56Z</time>
      </trkpt>
      <trkpt lat="41.7698690" lon="1.9669120">
        <ele>387.9440000</ele>
        <time>2010-09-26T06:55:00Z</time>
      </trkpt>
      <trkpt lat="41.7699710" lon="1.9670380">
        <ele>384.9290000</ele>
        <time>2010-09-26T06:55:03Z</time>
      </trkpt>
      <trkpt lat="41.7701030" lon="1.9673310">
        <ele>382.2980000</ele>
        <time>2010-09-26T06:55:08Z</time>
      </trkpt>
      <trkpt lat="41.7702510" lon="1.9673290">
        <ele>380.7520000</ele>
        <time>2010-09-26T06:55:11Z</time>
      </trkpt>
      <trkpt lat="41.7703520" lon="1.9671670">
        <ele>379.1750000</ele>
        <time>2010-09-26T06:55:14Z</time>
      </trkpt>
      <trkpt lat="41.7703790" lon="1.9670930">
        <ele>378.6400000</ele>
        <time>2010-09-26T06:55:15Z</time>
      </trkpt>
      <trkpt lat="41.7705440" lon="1.9665250">
        <ele>374.4860000</ele>
        <time>2010-09-26T06:55:22Z</time>
      </trkpt>
      <trkpt lat="41.7706520" lon="1.9664180">
        <ele>372.2810000</ele>
        <time>2010-09-26T06:55:26Z</time>
      </trkpt>
      <trkpt lat="41.7706710" lon="1.9665160">
        <ele>371.4890000</ele>
        <time>2010-09-26T06:55:28Z</time>
      </trkpt>
      <trkpt lat="41.7706330" lon="1.9667930">
        <ele>370.5020000</ele>
        <time>2010-09-26T06:55:32Z</time>
      </trkpt>
      <trkpt lat="41.7706460" lon="1.9669750">
        <ele>369.9890000</ele>
        <time>2010-09-26T06:55:34Z</time>
      </trkpt>
      <trkpt lat="41.7706720" lon="1.9671660">
        <ele>369.2770000</ele>
        <time>2010-09-26T06:55:36Z</time>
      </trkpt>
      <trkpt lat="41.7707400" lon="1.9676470">
        <ele>366.2680000</ele>
        <time>2010-09-26T06:55:41Z</time>
      </trkpt>
      <trkpt lat="41.7707300" lon="1.9677480">
        <ele>365.4710000</ele>
        <time>2010-09-26T06:55:42Z</time>
      </trkpt>
      <trkpt lat="41.7705970" lon="1.9683370">
        <ele>361.1420000</ele>
        <time>2010-09-26T06:55:48Z</time>
      </trkpt>
      <trkpt lat="41.7704440" lon="1.9687350">
        <ele>357.7140000</ele>
        <time>2010-09-26T06:55:52Z</time>
      </trkpt>
      <trkpt lat="41.7703700" lon="1.9689510">
        <ele>356.3630000</ele>
        <time>2010-09-26T06:55:54Z</time>
      </trkpt>
      <trkpt lat="41.7701630" lon="1.9692400">
        <ele>354.9940000</ele>
        <time>2010-09-26T06:55:58Z</time>
      </trkpt>
      <trkpt lat="41.7700830" lon="1.9693960">
        <ele>354.8600000</ele>
        <time>2010-09-26T06:56:01Z</time>
      </trkpt>
      <trkpt lat="41.7700540" lon="1.9695490">
        <ele>355.7260000</ele>
        <time>2010-09-26T06:56:04Z</time>
      </trkpt>
      <trkpt lat="41.7700130" lon="1.9699240">
        <ele>355.4690000</ele>
        <time>2010-09-26T06:56:10Z</time>
      </trkpt>
      <trkpt lat="41.7700090" lon="1.9700000">
        <ele>355.2790000</ele>
        <time>2010-09-26T06:56:11Z</time>
      </trkpt>
      <trkpt lat="41.7699210" lon="1.9702680">
        <ele>354.2500000</ele>
        <time>2010-09-26T06:56:15Z</time>
      </trkpt>
      <trkpt lat="41.7698370" lon="1.9704610">
        <ele>355.0130000</ele>
        <time>2010-09-26T06:56:18Z</time>
      </trkpt>
      <trkpt lat="41.7697690" lon="1.9708030">
        <ele>355.3430000</ele>
        <time>2010-09-26T06:56:23Z</time>
      </trkpt>
      <trkpt lat="41.7697110" lon="1.9711130">
        <ele>356.4190000</ele>
        <time>2010-09-26T06:56:28Z</time>
      </trkpt>
      <trkpt lat="41.7696560" lon="1.9712240">
        <ele>356.4020000</ele>
        <time>2010-09-26T06:56:30Z</time>
      </trkpt>
      <trkpt lat="41.7695520" lon="1.9715450">
        <ele>357.8490000</ele>
        <time>2010-09-26T06:56:36Z</time>
      </trkpt>
      <trkpt lat="41.7695640" lon="1.9717150">
        <ele>359.0800000</ele>
        <time>2010-09-26T06:56:40Z</time>
      </trkpt>
      <trkpt lat="41.7696630" lon="1.9720050">
        <ele>360.8340000</ele>
        <time>2010-09-26T06:56:47Z</time>
      </trkpt>
      <trkpt lat="41.7696940" lon="1.9722400">
        <ele>360.9000000</ele>
        <time>2010-09-26T06:56:52Z</time>
      </trkpt>
      <trkpt lat="41.7696090" lon="1.9724460">
        <ele>362.4600000</ele>
        <time>2010-09-26T06:56:58Z</time>
      </trkpt>
      <trkpt lat="41.7695010" lon="1.9726150">
        <ele>363.6870000</ele>
        <time>2010-09-26T06:57:04Z</time>
      </trkpt>
      <trkpt lat="41.7694320" lon="1.9728180">
        <ele>364.1000000</ele>
        <time>2010-09-26T06:57:10Z</time>
      </trkpt>
      <trkpt lat="41.7694710" lon="1.9730310">
        <ele>365.2700000</ele>
        <time>2010-09-26T06:57:16Z</time>
      </trkpt>
      <trkpt lat="41.7695950" lon="1.9733040">
        <ele>366.6790000</ele>
        <time>2010-09-26T06:57:24Z</time>
      </trkpt>
      <trkpt lat="41.7695530" lon="1.9734640">
        <ele>366.9230000</ele>
        <time>2010-09-26T06:57:28Z</time>
      </trkpt>
      <trkpt lat="41.7694440" lon="1.9735520">
        <ele>368.3840000</ele>
        <time>2010-09-26T06:57:33Z</time>
      </trkpt>
      <trkpt lat="41.7692280" lon="1.9736830">
        <ele>369.5580000</ele>
        <time>2010-09-26T06:57:41Z</time>
      </trkpt>
      <trkpt lat="41.7691050" lon="1.9738230">
        <ele>370.6950000</ele>
        <time>2010-09-26T06:57:47Z</time>
      </trkpt>
      <trkpt lat="41.7690070" lon="1.9740250">
        <ele>371.3210000</ele>
        <time>2010-09-26T06:57:53Z</time>
      </trkpt>
      <trkpt lat="41.7688800" lon="1.9742870">
        <ele>371.1080000</ele>
        <time>2010-09-26T06:57:59Z</time>
      </trkpt>
      <trkpt lat="41.7687050" lon="1.9746930">
        <ele>369.2010000</ele>
        <time>2010-09-26T06:58:05Z</time>
      </trkpt>
      <trkpt lat="41.7685370" lon="1.9748430">
        <ele>367.8330000</ele>
        <time>2010-09-26T06:58:09Z</time>
      </trkpt>
      <trkpt lat="41.7684290" lon="1.9749960">
        <ele>367.2220000</ele>
        <time>2010-09-26T06:58:12Z</time>
      </trkpt>
      <trkpt lat="41.7681660" lon="1.9755410">
        <ele>365.0860000</ele>
        <time>2010-09-26T06:58:19Z</time>
      </trkpt>
      <trkpt lat="41.7681230" lon="1.9756200">
        <ele>364.7060000</ele>
        <time>2010-09-26T06:58:20Z</time>
      </trkpt>
      <trkpt lat="41.7678900" lon="1.9757780">
        <ele>363.7210000</ele>
        <time>2010-09-26T06:58:24Z</time>
      </trkpt>
      <trkpt lat="41.7676870" lon="1.9759500">
        <ele>364.2050000</ele>
        <time>2010-09-26T06:58:29Z</time>
      </trkpt>
      <trkpt lat="41.7675280" lon="1.9762410">
        <ele>365.8070000</ele>
        <time>2010-09-26T06:58:35Z</time>
      </trkpt>
      <trkpt lat="41.7673430" lon="1.9765910">
        <ele>365.9160000</ele>
        <time>2010-09-26T06:58:42Z</time>
      </trkpt>
      <trkpt lat="41.7673140" lon="1.9766450">
        <ele>365.7980000</ele>
        <time>2010-09-26T06:58:43Z</time>
      </trkpt>
      <trkpt lat="41.7671530" lon="1.9768800">
        <ele>365.6530000</ele>
        <time>2010-09-26T06:58:48Z</time>
      </trkpt>
      <trkpt lat="41.7671210" lon="1.9770080">
        <ele>365.5160000</ele>
        <time>2010-09-26T06:58:50Z</time>
      </trkpt>
      <trkpt lat="41.7669990" lon="1.9773590">
        <ele>364.7470000</ele>
        <time>2010-09-26T06:58:55Z</time>
      </trkpt>
      <trkpt lat="41.7668180" lon="1.9778080">
        <ele>363.3770000</ele>
        <time>2010-09-26T06:59:01Z</time>
      </trkpt>
      <trkpt lat="41.7667660" lon="1.9781090">
        <ele>361.9880000</ele>
        <time>2010-09-26T06:59:04Z</time>
      </trkpt>
      <trkpt lat="41.7666270" lon="1.9786690">
        <ele>359.4700000</ele>
        <time>2010-09-26T06:59:09Z</time>
      </trkpt>
      <trkpt lat="41.7664930" lon="1.9792000">
        <ele>355.1520000</ele>
        <time>2010-09-26T06:59:14Z</time>
      </trkpt>
      <trkpt lat="41.7664580" lon="1.9794690">
        <ele>352.4630000</ele>
        <time>2010-09-26T06:59:18Z</time>
      </trkpt>
      <trkpt lat="41.7665020" lon="1.9796000">
        <ele>351.0230000</ele>
        <time>2010-09-26T06:59:22Z</time>
      </trkpt>
      <trkpt lat="41.7665880" lon="1.9796400">
        <ele>351.2010000</ele>
        <time>2010-09-26T06:59:27Z</time>
      </trkpt>
      <trkpt lat="41.7666050" lon="1.9796420">
        <ele>351.3320000</ele>
        <time>2010-09-26T06:59:28Z</time>
      </trkpt>
      <trkpt lat="41.7667260" lon="1.9796810">
        <ele>351.1090000</ele>
        <time>2010-09-26T06:59:36Z</time>
      </trkpt>
      <trkpt lat="41.7668100" lon="1.9797360">
        <ele>350.9020000</ele>
        <time>2010-09-26T06:59:43Z</time>
      </trkpt>
      <trkpt lat="41.7668120" lon="1.9797370">
        <ele>350.6420000</ele>
        <time>2010-09-26T06:59:44Z</time>
      </trkpt>
      <trkpt lat="41.7668520" lon="1.9797670">
        <ele>350.5500000</ele>
        <time>2010-09-26T07:00:14Z</time>
      </trkpt>
      <trkpt lat="41.7668510" lon="1.9797820">
        <ele>349.7350000</ele>
        <time>2010-09-26T07:00:16Z</time>
      </trkpt>
      <trkpt lat="41.7668580" lon="1.9797940">
        <ele>352.1350000</ele>
        <time>2010-09-26T07:00:19Z</time>
      </trkpt>
      <trkpt lat="41.7668910" lon="1.9798060">
        <ele>351.1370000</ele>
        <time>2010-09-26T07:00:25Z</time>
      </trkpt>
      <trkpt lat="41.7669110" lon="1.9798000">
        <ele>350.5100000</ele>
        <time>2010-09-26T07:00:30Z</time>
      </trkpt>
      <trkpt lat="41.7669220" lon="1.9798090">
        <ele>350.4510000</ele>
        <time>2010-09-26T07:00:33Z</time>
      </trkpt>
      <trkpt lat="41.7669670" lon="1.9798950">
        <ele>349.7550000</ele>
        <time>2010-09-26T07:00:37Z</time>
      </trkpt>
      <trkpt lat="41.7670360" lon="1.9799930">
        <ele>347.8980000</ele>
        <time>2010-09-26T07:00:43Z</time>
      </trkpt>
      <trkpt lat="41.7670710" lon="1.9799800">
        <ele>347.9460000</ele>
        <time>2010-09-26T07:00:48Z</time>
      </trkpt>
      <trkpt lat="41.7671130" lon="1.9799630">
        <ele>347.9160000</ele>
        <time>2010-09-26T07:00:53Z</time>
      </trkpt>
      <trkpt lat="41.7671160" lon="1.9799620">
        <ele>347.8120000</ele>
        <time>2010-09-26T07:00:55Z</time>
      </trkpt>
      <trkpt lat="41.7671180" lon="1.9799550">
        <ele>347.7720000</ele>
        <time>2010-09-26T07:01:06Z</time>
      </trkpt>
      <trkpt lat="41.7672210" lon="1.9799760">
        <ele>347.4300000</ele>
        <time>2010-09-26T07:01:55Z</time>
      </trkpt>
      <trkpt lat="41.7672290" lon="1.9799770">
        <ele>347.5500000</ele>
        <time>2010-09-26T07:01:57Z</time>
      </trkpt>
      <trkpt lat="41.7672740" lon="1.9799740">
        <ele>347.3800000</ele>
        <time>2010-09-26T07:02:10Z</time>
      </trkpt>
      <trkpt lat="41.7672780" lon="1.9799710">
        <ele>347.4620000</ele>
        <time>2010-09-26T07:02:11Z</time>
      </trkpt>
      <trkpt lat="41.7673070" lon="1.9799370">
        <ele>347.9360000</ele>
        <time>2010-09-26T07:02:22Z</time>
      </trkpt>
      <trkpt lat="41.7673550" lon="1.9799270">
        <ele>348.0620000</ele>
        <time>2010-09-26T07:02:52Z</time>
      </trkpt>
      <trkpt lat="41.7676430" lon="1.9798350">
        <ele>349.8730000</ele>
        <time>2010-09-26T07:07:01Z</time>
      </trkpt>
      <trkpt lat="41.7677070" lon="1.9799150">
        <ele>349.6360000</ele>
        <time>2010-09-26T07:07:04Z</time>
      </trkpt>
      <trkpt lat="41.7678530" lon="1.9799930">
        <ele>349.2270000</ele>
        <time>2010-09-26T07:07:10Z</time>
      </trkpt>
      <trkpt lat="41.7679870" lon="1.9800180">
        <ele>351.2830000</ele>
        <time>2010-09-26T07:07:17Z</time>
      </trkpt>
      <trkpt lat="41.7681080" lon="1.9800440">
        <ele>352.4950000</ele>
        <time>2010-09-26T07:07:23Z</time>
      </trkpt>
      <trkpt lat="41.7682100" lon="1.9800110">
        <ele>354.4740000</ele>
        <time>2010-09-26T07:07:29Z</time>
      </trkpt>
      <trkpt lat="41.7682800" lon="1.9800890">
        <ele>355.3220000</ele>
        <time>2010-09-26T07:07:33Z</time>
      </trkpt>
      <trkpt lat="41.7684880" lon="1.9802990">
        <ele>354.7910000</ele>
        <time>2010-09-26T07:07:40Z</time>
      </trkpt>
      <trkpt lat="41.7685240" lon="1.9803330">
        <ele>354.7780000</ele>
        <time>2010-09-26T07:07:41Z</time>
      </trkpt>
      <trkpt lat="41.7686560" lon="1.9804810">
        <ele>354.6470000</ele>
        <time>2010-09-26T07:07:45Z</time>
      </trkpt>
      <trkpt lat="41.7688100" lon="1.9807630">
        <ele>354.8220000</ele>
        <time>2010-09-26T07:07:52Z</time>
      </trkpt>
      <trkpt lat="41.7689960" lon="1.9811230">
        <ele>355.2820000</ele>
        <time>2010-09-26T07:08:02Z</time>
      </trkpt>
      <trkpt lat="41.7690410" lon="1.9811930">
        <ele>355.3850000</ele>
        <time>2010-09-26T07:08:04Z</time>
      </trkpt>
      <trkpt lat="41.7692210" lon="1.9813360">
        <ele>354.4620000</ele>
        <time>2010-09-26T07:08:09Z</time>
      </trkpt>
      <trkpt lat="41.7692400" lon="1.9814620">
        <ele>354.4620000</ele>
        <time>2010-09-26T07:08:12Z</time>
      </trkpt>
      <trkpt lat="41.7692140" lon="1.9814930">
        <ele>354.5260000</ele>
        <time>2010-09-26T07:08:13Z</time>
      </trkpt>
      <trkpt lat="41.7690270" lon="1.9816510">
        <ele>355.6110000</ele>
        <time>2010-09-26T07:08:20Z</time>
      </trkpt>
      <trkpt lat="41.7690080" lon="1.9816860">
        <ele>355.6090000</ele>
        <time>2010-09-26T07:08:21Z</time>
      </trkpt>
      <trkpt lat="41.7690150" lon="1.9819040">
        <ele>354.9740000</ele>
        <time>2010-09-26T07:08:25Z</time>
      </trkpt>
      <trkpt lat="41.7691000" lon="1.9822630">
        <ele>354.6080000</ele>
        <time>2010-09-26T07:08:33Z</time>
      </trkpt>
      <trkpt lat="41.7691120" lon="1.9823010">
        <ele>354.6180000</ele>
        <time>2010-09-26T07:08:34Z</time>
      </trkpt>
      <trkpt lat="41.7690150" lon="1.9824190">
        <ele>353.4360000</ele>
        <time>2010-09-26T07:08:38Z</time>
      </trkpt>
      <trkpt lat="41.7688530" lon="1.9825250">
        <ele>351.6130000</ele>
        <time>2010-09-26T07:08:42Z</time>
      </trkpt>
      <trkpt lat="41.7688480" lon="1.9826270">
        <ele>350.7960000</ele>
        <time>2010-09-26T07:08:44Z</time>
      </trkpt>
      <trkpt lat="41.7689170" lon="1.9829670">
        <ele>350.2250000</ele>
        <time>2010-09-26T07:08:51Z</time>
      </trkpt>
      <trkpt lat="41.7689210" lon="1.9831430">
        <ele>350.7510000</ele>
        <time>2010-09-26T07:08:56Z</time>
      </trkpt>
      <trkpt lat="41.7689680" lon="1.9833360">
        <ele>351.6160000</ele>
        <time>2010-09-26T07:09:02Z</time>
      </trkpt>
      <trkpt lat="41.7689990" lon="1.9835200">
        <ele>351.6840000</ele>
        <time>2010-09-26T07:09:07Z</time>
      </trkpt>
      <trkpt lat="41.7690180" lon="1.9836800">
        <ele>351.2440000</ele>
        <time>2010-09-26T07:09:11Z</time>
      </trkpt>
      <trkpt lat="41.7690160" lon="1.9838880">
        <ele>351.2430000</ele>
        <time>2010-09-26T07:09:17Z</time>
      </trkpt>
      <trkpt lat="41.7690240" lon="1.9839120">
        <ele>351.3220000</ele>
        <time>2010-09-26T07:09:18Z</time>
      </trkpt>
      <trkpt lat="41.7690230" lon="1.9841500">
        <ele>351.9860000</ele>
        <time>2010-09-26T07:09:25Z</time>
      </trkpt>
      <trkpt lat="41.7690220" lon="1.9843920">
        <ele>352.1600000</ele>
        <time>2010-09-26T07:09:31Z</time>
      </trkpt>
      <trkpt lat="41.7690610" lon="1.9845610">
        <ele>352.9160000</ele>
        <time>2010-09-26T07:09:35Z</time>
      </trkpt>
      <trkpt lat="41.7690380" lon="1.9847350">
        <ele>353.1500000</ele>
        <time>2010-09-26T07:09:40Z</time>
      </trkpt>
      <trkpt lat="41.7690440" lon="1.9849690">
        <ele>354.6440000</ele>
        <time>2010-09-26T07:09:48Z</time>
      </trkpt>
      <trkpt lat="41.7690440" lon="1.9851790">
        <ele>356.0260000</ele>
        <time>2010-09-26T07:09:55Z</time>
      </trkpt>
      <trkpt lat="41.7690180" lon="1.9854310">
        <ele>357.3860000</ele>
        <time>2010-09-26T07:10:04Z</time>
      </trkpt>
      <trkpt lat="41.7690450" lon="1.9856610">
        <ele>358.2000000</ele>
        <time>2010-09-26T07:10:12Z</time>
      </trkpt>
      <trkpt lat="41.7690480" lon="1.9858540">
        <ele>360.0490000</ele>
        <time>2010-09-26T07:10:19Z</time>
      </trkpt>
      <trkpt lat="41.7690910" lon="1.9860490">
        <ele>361.1250000</ele>
        <time>2010-09-26T07:10:25Z</time>
      </trkpt>
      <trkpt lat="41.7691640" lon="1.9863460">
        <ele>362.3790000</ele>
        <time>2010-09-26T07:10:32Z</time>
      </trkpt>
      <trkpt lat="41.7692270" lon="1.9866620">
        <ele>363.6240000</ele>
        <time>2010-09-26T07:10:40Z</time>
      </trkpt>
      <trkpt lat="41.7692220" lon="1.9869100">
        <ele>364.9480000</ele>
        <time>2010-09-26T07:10:47Z</time>
      </trkpt>
      <trkpt lat="41.7691920" lon="1.9871230">
        <ele>366.0420000</ele>
        <time>2010-09-26T07:10:54Z</time>
      </trkpt>
      <trkpt lat="41.7692100" lon="1.9873250">
        <ele>367.3030000</ele>
        <time>2010-09-26T07:11:01Z</time>
      </trkpt>
      <trkpt lat="41.7692030" lon="1.9875210">
        <ele>369.2680000</ele>
        <time>2010-09-26T07:11:09Z</time>
      </trkpt>
      <trkpt lat="41.7692640" lon="1.9876700">
        <ele>371.3720000</ele>
        <time>2010-09-26T07:11:16Z</time>
      </trkpt>
      <trkpt lat="41.7693530" lon="1.9878220">
        <ele>372.4790000</ele>
        <time>2010-09-26T07:11:22Z</time>
      </trkpt>
      <trkpt lat="41.7693650" lon="1.9880230">
        <ele>373.4800000</ele>
        <time>2010-09-26T07:11:29Z</time>
      </trkpt>
      <trkpt lat="41.7693620" lon="1.9881910">
        <ele>374.0880000</ele>
        <time>2010-09-26T07:11:35Z</time>
      </trkpt>
      <trkpt lat="41.7694200" lon="1.9883320">
        <ele>374.9860000</ele>
        <time>2010-09-26T07:11:40Z</time>
      </trkpt>
      <trkpt lat="41.7695630" lon="1.9885110">
        <ele>375.5840000</ele>
        <time>2010-09-26T07:11:47Z</time>
      </trkpt>
      <trkpt lat="41.7696590" lon="1.9886280">
        <ele>376.3930000</ele>
        <time>2010-09-26T07:11:53Z</time>
      </trkpt>
      <trkpt lat="41.7698210" lon="1.9888200">
        <ele>377.5030000</ele>
        <time>2010-09-26T07:12:02Z</time>
      </trkpt>
      <trkpt lat="41.7699460" lon="1.9890460">
        <ele>378.2050000</ele>
        <time>2010-09-26T07:12:10Z</time>
      </trkpt>
      <trkpt lat="41.7699660" lon="1.9891170">
        <ele>378.2240000</ele>
        <time>2010-09-26T07:12:12Z</time>
      </trkpt>
      <trkpt lat="41.7700860" lon="1.9891720">
        <ele>378.6220000</ele>
        <time>2010-09-26T07:12:17Z</time>
      </trkpt>
      <trkpt lat="41.7701650" lon="1.9892850">
        <ele>378.6460000</ele>
        <time>2010-09-26T07:12:22Z</time>
      </trkpt>
      <trkpt lat="41.7701990" lon="1.9893500">
        <ele>378.7770000</ele>
        <time>2010-09-26T07:12:24Z</time>
      </trkpt>
      <trkpt lat="41.7704070" lon="1.9894220">
        <ele>376.8980000</ele>
        <time>2010-09-26T07:12:29Z</time>
      </trkpt>
      <trkpt lat="41.7705730" lon="1.9893400">
        <ele>374.5050000</ele>
        <time>2010-09-26T07:12:33Z</time>
      </trkpt>
      <trkpt lat="41.7706160" lon="1.9892890">
        <ele>373.7010000</ele>
        <time>2010-09-26T07:12:34Z</time>
      </trkpt>
      <trkpt lat="41.7708640" lon="1.9890620">
        <ele>369.5930000</ele>
        <time>2010-09-26T07:12:40Z</time>
      </trkpt>
      <trkpt lat="41.7708990" lon="1.9890390">
        <ele>369.2010000</ele>
        <time>2010-09-26T07:12:41Z</time>
      </trkpt>
      <trkpt lat="41.7711470" lon="1.9888380">
        <ele>365.7840000</ele>
        <time>2010-09-26T07:12:46Z</time>
      </trkpt>
      <trkpt lat="41.7714330" lon="1.9887680">
        <ele>362.0470000</ele>
        <time>2010-09-26T07:12:51Z</time>
      </trkpt>
      <trkpt lat="41.7715270" lon="1.9888510">
        <ele>360.6080000</ele>
        <time>2010-09-26T07:12:53Z</time>
      </trkpt>
      <trkpt lat="41.7716450" lon="1.9890200">
        <ele>359.6830000</ele>
        <time>2010-09-26T07:12:56Z</time>
      </trkpt>
      <trkpt lat="41.7718050" lon="1.9892530">
        <ele>359.3010000</ele>
        <time>2010-09-26T07:13:01Z</time>
      </trkpt>
      <trkpt lat="41.7720120" lon="1.9895970">
        <ele>359.5250000</ele>
        <time>2010-09-26T07:13:07Z</time>
      </trkpt>
      <trkpt lat="41.7721020" lon="1.9897690">
        <ele>359.5200000</ele>
        <time>2010-09-26T07:13:10Z</time>
      </trkpt>
      <trkpt lat="41.7722080" lon="1.9899920">
        <ele>359.5360000</ele>
        <time>2010-09-26T07:13:14Z</time>
      </trkpt>
      <trkpt lat="41.7723650" lon="1.9902670">
        <ele>361.3610000</ele>
        <time>2010-09-26T07:13:21Z</time>
      </trkpt>
      <trkpt lat="41.7724340" lon="1.9903340">
        <ele>361.9530000</ele>
        <time>2010-09-26T07:13:25Z</time>
      </trkpt>
      <trkpt lat="41.7725600" lon="1.9904030">
        <ele>363.4180000</ele>
        <time>2010-09-26T07:13:31Z</time>
      </trkpt>
      <trkpt lat="41.7726200" lon="1.9905310">
        <ele>364.7460000</ele>
        <time>2010-09-26T07:13:35Z</time>
      </trkpt>
      <trkpt lat="41.7726940" lon="1.9907800">
        <ele>366.6050000</ele>
        <time>2010-09-26T07:13:42Z</time>
      </trkpt>
      <trkpt lat="41.7727320" lon="1.9909930">
        <ele>367.1740000</ele>
        <time>2010-09-26T07:13:47Z</time>
      </trkpt>
      <trkpt lat="41.7728450" lon="1.9913100">
        <ele>367.9390000</ele>
        <time>2010-09-26T07:13:55Z</time>
      </trkpt>
      <trkpt lat="41.7730050" lon="1.9916390">
        <ele>369.3160000</ele>
        <time>2010-09-26T07:14:04Z</time>
      </trkpt>
      <trkpt lat="41.7731330" lon="1.9918960">
        <ele>370.5200000</ele>
        <time>2010-09-26T07:14:11Z</time>
      </trkpt>
      <trkpt lat="41.7733220" lon="1.9921180">
        <ele>371.5940000</ele>
        <time>2010-09-26T07:14:19Z</time>
      </trkpt>
      <trkpt lat="41.7735370" lon="1.9922040">
        <ele>372.8280000</ele>
        <time>2010-09-26T07:14:26Z</time>
      </trkpt>
      <trkpt lat="41.7738020" lon="1.9922560">
        <ele>373.0800000</ele>
        <time>2010-09-26T07:14:33Z</time>
      </trkpt>
      <trkpt lat="41.7741810" lon="1.9922820">
        <ele>373.7810000</ele>
        <time>2010-09-26T07:14:43Z</time>
      </trkpt>
      <trkpt lat="41.7743910" lon="1.9922170">
        <ele>374.5450000</ele>
        <time>2010-09-26T07:14:49Z</time>
      </trkpt>
      <trkpt lat="41.7745340" lon="1.9920100">
        <ele>376.3030000</ele>
        <time>2010-09-26T07:14:55Z</time>
      </trkpt>
      <trkpt lat="41.7745800" lon="1.9919410">
        <ele>376.8160000</ele>
        <time>2010-09-26T07:14:57Z</time>
      </trkpt>
      <trkpt lat="41.7747310" lon="1.9918750">
        <ele>376.3240000</ele>
        <time>2010-09-26T07:15:01Z</time>
      </trkpt>
      <trkpt lat="41.7747900" lon="1.9919710">
        <ele>376.0260000</ele>
        <time>2010-09-26T07:15:03Z</time>
      </trkpt>
      <trkpt lat="41.7750200" lon="1.9921920">
        <ele>375.9250000</ele>
        <time>2010-09-26T07:15:10Z</time>
      </trkpt>
      <trkpt lat="41.7750590" lon="1.9922150">
        <ele>375.8990000</ele>
        <time>2010-09-26T07:15:11Z</time>
      </trkpt>
      <trkpt lat="41.7752920" lon="1.9924270">
        <ele>376.0440000</ele>
        <time>2010-09-26T07:15:16Z</time>
      </trkpt>
      <trkpt lat="41.7753400" lon="1.9924680">
        <ele>375.9420000</ele>
        <time>2010-09-26T07:15:17Z</time>
      </trkpt>
      <trkpt lat="41.7756660" lon="1.9926210">
        <ele>375.6010000</ele>
        <time>2010-09-26T07:15:24Z</time>
      </trkpt>
      <trkpt lat="41.7759740" lon="1.9927470">
        <ele>375.9180000</ele>
        <time>2010-09-26T07:15:32Z</time>
      </trkpt>
      <trkpt lat="41.7762350" lon="1.9928280">
        <ele>376.9110000</ele>
        <time>2010-09-26T07:15:39Z</time>
      </trkpt>
      <trkpt lat="41.7765750" lon="1.9928400">
        <ele>378.2880000</ele>
        <time>2010-09-26T07:15:48Z</time>
      </trkpt>
      <trkpt lat="41.7768320" lon="1.9928330">
        <ele>379.6280000</ele>
        <time>2010-09-26T07:15:55Z</time>
      </trkpt>
      <trkpt lat="41.7770540" lon="1.9928650">
        <ele>380.0790000</ele>
        <time>2010-09-26T07:16:00Z</time>
      </trkpt>
      <trkpt lat="41.7771560" lon="1.9928840">
        <ele>379.5620000</ele>
        <time>2010-09-26T07:16:02Z</time>
      </trkpt>
      <trkpt lat="41.7775790" lon="1.9928760">
        <ele>379.4170000</ele>
        <time>2010-09-26T07:16:10Z</time>
      </trkpt>
      <trkpt lat="41.7776230" lon="1.9928700">
        <ele>379.5110000</ele>
        <time>2010-09-26T07:16:11Z</time>
      </trkpt>
      <trkpt lat="41.7777810" lon="1.9929730">
        <ele>379.2400000</ele>
        <time>2010-09-26T07:16:15Z</time>
      </trkpt>
      <trkpt lat="41.7778210" lon="1.9930250">
        <ele>378.8830000</ele>
        <time>2010-09-26T07:16:16Z</time>
      </trkpt>
      <trkpt lat="41.7779110" lon="1.9931300">
        <ele>378.0850000</ele>
        <time>2010-09-26T07:16:18Z</time>
      </trkpt>
      <trkpt lat="41.7781410" lon="1.9932490">
        <ele>376.8330000</ele>
        <time>2010-09-26T07:16:22Z</time>
      </trkpt>
      <trkpt lat="41.7782500" lon="1.9932900">
        <ele>375.8630000</ele>
        <time>2010-09-26T07:16:24Z</time>
      </trkpt>
      <trkpt lat="41.7784360" lon="1.9932110">
        <ele>373.1090000</ele>
        <time>2010-09-26T07:16:28Z</time>
      </trkpt>
      <trkpt lat="41.7785250" lon="1.9930300">
        <ele>371.7480000</ele>
        <time>2010-09-26T07:16:31Z</time>
      </trkpt>
      <trkpt lat="41.7785570" lon="1.9927730">
        <ele>372.1790000</ele>
        <time>2010-09-26T07:16:35Z</time>
      </trkpt>
      <trkpt lat="41.7785830" lon="1.9925500">
        <ele>372.8900000</ele>
        <time>2010-09-26T07:16:40Z</time>
      </trkpt>
      <trkpt lat="41.7786900" lon="1.9924830">
        <ele>373.5020000</ele>
        <time>2010-09-26T07:16:44Z</time>
      </trkpt>
      <trkpt lat="41.7788610" lon="1.9924780">
        <ele>374.9000000</ele>
        <time>2010-09-26T07:16:50Z</time>
      </trkpt>
      <trkpt lat="41.7789910" lon="1.9925860">
        <ele>376.1840000</ele>
        <time>2010-09-26T07:16:55Z</time>
      </trkpt>
      <trkpt lat="41.7791070" lon="1.9927870">
        <ele>377.7130000</ele>
        <time>2010-09-26T07:17:01Z</time>
      </trkpt>
      <trkpt lat="41.7791600" lon="1.9927970">
        <ele>378.1040000</ele>
        <time>2010-09-26T07:17:03Z</time>
      </trkpt>
      <trkpt lat="41.7792420" lon="1.9926620">
        <ele>379.2440000</ele>
        <time>2010-09-26T07:17:08Z</time>
      </trkpt>
      <trkpt lat="41.7792430" lon="1.9925840">
        <ele>379.3990000</ele>
        <time>2010-09-26T07:17:10Z</time>
      </trkpt>
      <trkpt lat="41.7792270" lon="1.9922400">
        <ele>381.2550000</ele>
        <time>2010-09-26T07:17:19Z</time>
      </trkpt>
      <trkpt lat="41.7791420" lon="1.9919190">
        <ele>382.5920000</ele>
        <time>2010-09-26T07:17:27Z</time>
      </trkpt>
      <trkpt lat="41.7790340" lon="1.9915900">
        <ele>383.3820000</ele>
        <time>2010-09-26T07:17:35Z</time>
      </trkpt>
      <trkpt lat="41.7789180" lon="1.9912300">
        <ele>384.0980000</ele>
        <time>2010-09-26T07:17:43Z</time>
      </trkpt>
      <trkpt lat="41.7788860" lon="1.9910760">
        <ele>384.1640000</ele>
        <time>2010-09-26T07:17:46Z</time>
      </trkpt>
      <trkpt lat="41.7789760" lon="1.9909310">
        <ele>384.3080000</ele>
        <time>2010-09-26T07:17:50Z</time>
      </trkpt>
      <trkpt lat="41.7791460" lon="1.9909200">
        <ele>384.6790000</ele>
        <time>2010-09-26T07:17:54Z</time>
      </trkpt>
      <trkpt lat="41.7795980" lon="1.9910400">
        <ele>384.8940000</ele>
        <time>2010-09-26T07:18:04Z</time>
      </trkpt>
      <trkpt lat="41.7799700" lon="1.9912050">
        <ele>385.9500000</ele>
        <time>2010-09-26T07:18:13Z</time>
      </trkpt>
      <trkpt lat="41.7803620" lon="1.9912480">
        <ele>386.8180000</ele>
        <time>2010-09-26T07:18:22Z</time>
      </trkpt>
      <trkpt lat="41.7807580" lon="1.9913110">
        <ele>388.3310000</ele>
        <time>2010-09-26T07:18:31Z</time>
      </trkpt>
      <trkpt lat="41.7811590" lon="1.9913660">
        <ele>388.7800000</ele>
        <time>2010-09-26T07:18:39Z</time>
      </trkpt>
      <trkpt lat="41.7816750" lon="1.9913970">
        <ele>388.8730000</ele>
        <time>2010-09-26T07:18:49Z</time>
      </trkpt>
      <trkpt lat="41.7821400" lon="1.9915420">
        <ele>389.9660000</ele>
        <time>2010-09-26T07:18:59Z</time>
      </trkpt>
      <trkpt lat="41.7825330" lon="1.9916970">
        <ele>392.6070000</ele>
        <time>2010-09-26T07:19:09Z</time>
      </trkpt>
      <trkpt lat="41.7828240" lon="1.9916890">
        <ele>393.8450000</ele>
        <time>2010-09-26T07:19:16Z</time>
      </trkpt>
      <trkpt lat="41.7829160" lon="1.9916910">
        <ele>393.8780000</ele>
        <time>2010-09-26T07:19:18Z</time>
      </trkpt>
      <trkpt lat="41.7830660" lon="1.9918100">
        <ele>393.6340000</ele>
        <time>2010-09-26T07:19:22Z</time>
      </trkpt>
      <trkpt lat="41.7831060" lon="1.9920420">
        <ele>394.2560000</ele>
        <time>2010-09-26T07:19:26Z</time>
      </trkpt>
      <trkpt lat="41.7831000" lon="1.9921030">
        <ele>394.3310000</ele>
        <time>2010-09-26T07:19:27Z</time>
      </trkpt>
      <trkpt lat="41.7830530" lon="1.9927100">
        <ele>395.4400000</ele>
        <time>2010-09-26T07:19:37Z</time>
      </trkpt>
      <trkpt lat="41.7829290" lon="1.9932940">
        <ele>395.9660000</ele>
        <time>2010-09-26T07:19:47Z</time>
      </trkpt>
      <trkpt lat="41.7827440" lon="1.9937300">
        <ele>396.9690000</ele>
        <time>2010-09-26T07:19:55Z</time>
      </trkpt>
      <trkpt lat="41.7824920" lon="1.9942090">
        <ele>397.7810000</ele>
        <time>2010-09-26T07:20:04Z</time>
      </trkpt>
      <trkpt lat="41.7822800" lon="1.9945940">
        <ele>397.7550000</ele>
        <time>2010-09-26T07:20:11Z</time>
      </trkpt>
      <trkpt lat="41.7820160" lon="1.9949740">
        <ele>398.3150000</ele>
        <time>2010-09-26T07:20:19Z</time>
      </trkpt>
      <trkpt lat="41.7818960" lon="1.9950980">
        <ele>398.6310000</ele>
        <time>2010-09-26T07:20:22Z</time>
      </trkpt>
      <trkpt lat="41.7817730" lon="1.9953070">
        <ele>398.6760000</ele>
        <time>2010-09-26T07:20:26Z</time>
      </trkpt>
      <trkpt lat="41.7815720" lon="1.9958350">
        <ele>399.5230000</ele>
        <time>2010-09-26T07:20:35Z</time>
      </trkpt>
      <trkpt lat="41.7814440" lon="1.9960920">
        <ele>400.4570000</ele>
        <time>2010-09-26T07:20:41Z</time>
      </trkpt>
      <trkpt lat="41.7813770" lon="1.9962600">
        <ele>402.3080000</ele>
        <time>2010-09-26T07:20:46Z</time>
      </trkpt>
      <trkpt lat="41.7813970" lon="1.9963250">
        <ele>402.8500000</ele>
        <time>2010-09-26T07:20:48Z</time>
      </trkpt>
      <trkpt lat="41.7815430" lon="1.9963870">
        <ele>404.4610000</ele>
        <time>2010-09-26T07:20:54Z</time>
      </trkpt>
      <trkpt lat="41.7817450" lon="1.9964030">
        <ele>406.3670000</ele>
        <time>2010-09-26T07:21:02Z</time>
      </trkpt>
      <trkpt lat="41.7819470" lon="1.9964810">
        <ele>409.5200000</ele>
        <time>2010-09-26T07:21:11Z</time>
      </trkpt>
      <trkpt lat="41.7820940" lon="1.9966160">
        <ele>411.5050000</ele>
        <time>2010-09-26T07:21:19Z</time>
      </trkpt>
      <trkpt lat="41.7822300" lon="1.9967840">
        <ele>413.7270000</ele>
        <time>2010-09-26T07:21:28Z</time>
      </trkpt>
      <trkpt lat="41.7822300" lon="1.9968580">
        <ele>414.6300000</ele>
        <time>2010-09-26T07:21:31Z</time>
      </trkpt>
      <trkpt lat="41.7821530" lon="1.9968610">
        <ele>415.4940000</ele>
        <time>2010-09-26T07:21:35Z</time>
      </trkpt>
      <trkpt lat="41.7819160" lon="1.9967610">
        <ele>417.1180000</ele>
        <time>2010-09-26T07:21:45Z</time>
      </trkpt>
      <trkpt lat="41.7816850" lon="1.9967820">
        <ele>418.1350000</ele>
        <time>2010-09-26T07:21:54Z</time>
      </trkpt>
      <trkpt lat="41.7814910" lon="1.9968540">
        <ele>419.4510000</ele>
        <time>2010-09-26T07:22:02Z</time>
      </trkpt>
      <trkpt lat="41.7812890" lon="1.9969550">
        <ele>421.5020000</ele>
        <time>2010-09-26T07:22:11Z</time>
      </trkpt>
      <trkpt lat="41.7811250" lon="1.9969720">
        <ele>422.7150000</ele>
        <time>2010-09-26T07:22:18Z</time>
      </trkpt>
      <trkpt lat="41.7809820" lon="1.9968670">
        <ele>424.4110000</ele>
        <time>2010-09-26T07:22:25Z</time>
      </trkpt>
      <trkpt lat="41.7808600" lon="1.9967180">
        <ele>425.4880000</ele>
        <time>2010-09-26T07:22:32Z</time>
      </trkpt>
      <trkpt lat="41.7807210" lon="1.9967340">
        <ele>426.5400000</ele>
        <time>2010-09-26T07:22:38Z</time>
      </trkpt>
      <trkpt lat="41.7805540" lon="1.9968590">
        <ele>428.3320000</ele>
        <time>2010-09-26T07:22:46Z</time>
      </trkpt>
      <trkpt lat="41.7804050" lon="1.9969480">
        <ele>429.8570000</ele>
        <time>2010-09-26T07:22:53Z</time>
      </trkpt>
      <trkpt lat="41.7802370" lon="1.9971140">
        <ele>431.7010000</ele>
        <time>2010-09-26T07:23:02Z</time>
      </trkpt>
      <trkpt lat="41.7801240" lon="1.9972970">
        <ele>433.4880000</ele>
        <time>2010-09-26T07:23:10Z</time>
      </trkpt>
      <trkpt lat="41.7801020" lon="1.9973480">
        <ele>434.2270000</ele>
        <time>2010-09-26T07:23:12Z</time>
      </trkpt>
      <trkpt lat="41.7801500" lon="1.9974590">
        <ele>436.4010000</ele>
        <time>2010-09-26T07:23:18Z</time>
      </trkpt>
      <trkpt lat="41.7802110" lon="1.9973970">
        <ele>436.3160000</ele>
        <time>2010-09-26T07:23:21Z</time>
      </trkpt>
      <trkpt lat="41.7803970" lon="1.9971830">
        <ele>437.4950000</ele>
        <time>2010-09-26T07:23:30Z</time>
      </trkpt>
      <trkpt lat="41.7806490" lon="1.9970730">
        <ele>438.7670000</ele>
        <time>2010-09-26T07:23:39Z</time>
      </trkpt>
      <trkpt lat="41.7808660" lon="1.9971070">
        <ele>439.4930000</ele>
        <time>2010-09-26T07:23:46Z</time>
      </trkpt>
      <trkpt lat="41.7810640" lon="1.9973200">
        <ele>440.9610000</ele>
        <time>2010-09-26T07:23:54Z</time>
      </trkpt>
      <trkpt lat="41.7812750" lon="1.9974750">
        <ele>442.2290000</ele>
        <time>2010-09-26T07:24:02Z</time>
      </trkpt>
      <trkpt lat="41.7815030" lon="1.9974420">
        <ele>443.4690000</ele>
        <time>2010-09-26T07:24:09Z</time>
      </trkpt>
      <trkpt lat="41.7817930" lon="1.9973130">
        <ele>444.3790000</ele>
        <time>2010-09-26T07:24:18Z</time>
      </trkpt>
      <trkpt lat="41.7819500" lon="1.9973800">
        <ele>444.7310000</ele>
        <time>2010-09-26T07:24:23Z</time>
      </trkpt>
      <trkpt lat="41.7820190" lon="1.9975430">
        <ele>445.3710000</ele>
        <time>2010-09-26T07:24:27Z</time>
      </trkpt>
      <trkpt lat="41.7820360" lon="1.9978090">
        <ele>446.7200000</ele>
        <time>2010-09-26T07:24:33Z</time>
      </trkpt>
      <trkpt lat="41.7820540" lon="1.9982900">
        <ele>448.0360000</ele>
        <time>2010-09-26T07:24:43Z</time>
      </trkpt>
      <trkpt lat="41.7820730" lon="1.9987270">
        <ele>449.3930000</ele>
        <time>2010-09-26T07:24:52Z</time>
      </trkpt>
      <trkpt lat="41.7821520" lon="1.9991410">
        <ele>450.7340000</ele>
        <time>2010-09-26T07:25:01Z</time>
      </trkpt>
      <trkpt lat="41.7823110" lon="1.9995690">
        <ele>452.0420000</ele>
        <time>2010-09-26T07:25:11Z</time>
      </trkpt>
      <trkpt lat="41.7824950" lon="1.9999330">
        <ele>453.5600000</ele>
        <time>2010-09-26T07:25:20Z</time>
      </trkpt>
      <trkpt lat="41.7826780" lon="2.0000850">
        <ele>454.5700000</ele>
        <time>2010-09-26T07:25:26Z</time>
      </trkpt>
      <trkpt lat="41.7828410" lon="2.0002590">
        <ele>455.0150000</ele>
        <time>2010-09-26T07:25:32Z</time>
      </trkpt>
      <trkpt lat="41.7828970" lon="2.0005150">
        <ele>456.1030000</ele>
        <time>2010-09-26T07:25:38Z</time>
      </trkpt>
      <trkpt lat="41.7829900" lon="2.0006890">
        <ele>457.0110000</ele>
        <time>2010-09-26T07:25:43Z</time>
      </trkpt>
      <trkpt lat="41.7831310" lon="2.0007350">
        <ele>457.4270000</ele>
        <time>2010-09-26T07:25:47Z</time>
      </trkpt>
      <trkpt lat="41.7832570" lon="2.0006660">
        <ele>457.9920000</ele>
        <time>2010-09-26T07:25:51Z</time>
      </trkpt>
      <trkpt lat="41.7833540" lon="2.0004660">
        <ele>458.6260000</ele>
        <time>2010-09-26T07:25:56Z</time>
      </trkpt>
      <trkpt lat="41.7833740" lon="2.0001680">
        <ele>459.1010000</ele>
        <time>2010-09-26T07:26:02Z</time>
      </trkpt>
      <trkpt lat="41.7833370" lon="1.9996920">
        <ele>460.4800000</ele>
        <time>2010-09-26T07:26:12Z</time>
      </trkpt>
      <trkpt lat="41.7832380" lon="1.9993460">
        <ele>461.7320000</ele>
        <time>2010-09-26T07:26:20Z</time>
      </trkpt>
      <trkpt lat="41.7831930" lon="1.9990230">
        <ele>463.0450000</ele>
        <time>2010-09-26T07:26:27Z</time>
      </trkpt>
      <trkpt lat="41.7832100" lon="1.9986070">
        <ele>464.2810000</ele>
        <time>2010-09-26T07:26:36Z</time>
      </trkpt>
      <trkpt lat="41.7832970" lon="1.9984030">
        <ele>465.2930000</ele>
        <time>2010-09-26T07:26:41Z</time>
      </trkpt>
      <trkpt lat="41.7835470" lon="1.9980880">
        <ele>466.9620000</ele>
        <time>2010-09-26T07:26:51Z</time>
      </trkpt>
      <trkpt lat="41.7836470" lon="1.9977830">
        <ele>468.2060000</ele>
        <time>2010-09-26T07:26:58Z</time>
      </trkpt>
      <trkpt lat="41.7837800" lon="1.9972320">
        <ele>469.9470000</ele>
        <time>2010-09-26T07:27:10Z</time>
      </trkpt>
      <trkpt lat="41.7839170" lon="1.9968530">
        <ele>471.1500000</ele>
        <time>2010-09-26T07:27:19Z</time>
      </trkpt>
      <trkpt lat="41.7840690" lon="1.9967300">
        <ele>472.0370000</ele>
        <time>2010-09-26T07:27:24Z</time>
      </trkpt>
      <trkpt lat="41.7843560" lon="1.9967060">
        <ele>473.2840000</ele>
        <time>2010-09-26T07:27:32Z</time>
      </trkpt>
      <trkpt lat="41.7847090" lon="1.9967170">
        <ele>474.6290000</ele>
        <time>2010-09-26T07:27:42Z</time>
      </trkpt>
      <trkpt lat="41.7849140" lon="1.9968300">
        <ele>475.3510000</ele>
        <time>2010-09-26T07:27:48Z</time>
      </trkpt>
      <trkpt lat="41.7850800" lon="1.9971030">
        <ele>476.4980000</ele>
        <time>2010-09-26T07:27:55Z</time>
      </trkpt>
      <trkpt lat="41.7852600" lon="1.9974710">
        <ele>478.4550000</ele>
        <time>2010-09-26T07:28:04Z</time>
      </trkpt>
      <trkpt lat="41.7854890" lon="1.9976940">
        <ele>479.4820000</ele>
        <time>2010-09-26T07:28:12Z</time>
      </trkpt>
      <trkpt lat="41.7858480" lon="1.9979040">
        <ele>480.9450000</ele>
        <time>2010-09-26T07:28:23Z</time>
      </trkpt>
      <trkpt lat="41.7861470" lon="1.9980630">
        <ele>482.4380000</ele>
        <time>2010-09-26T07:28:32Z</time>
      </trkpt>
      <trkpt lat="41.7863940" lon="1.9980970">
        <ele>483.3920000</ele>
        <time>2010-09-26T07:28:39Z</time>
      </trkpt>
      <trkpt lat="41.7868140" lon="1.9981120">
        <ele>485.3910000</ele>
        <time>2010-09-26T07:28:51Z</time>
      </trkpt>
      <trkpt lat="41.7871710" lon="1.9981420">
        <ele>487.0140000</ele>
        <time>2010-09-26T07:29:01Z</time>
      </trkpt>
      <trkpt lat="41.7873270" lon="1.9982780">
        <ele>487.6710000</ele>
        <time>2010-09-26T07:29:06Z</time>
      </trkpt>
      <trkpt lat="41.7876040" lon="1.9986050">
        <ele>489.6500000</ele>
        <time>2010-09-26T07:29:16Z</time>
      </trkpt>
      <trkpt lat="41.7879270" lon="1.9989060">
        <ele>490.9350000</ele>
        <time>2010-09-26T07:29:27Z</time>
      </trkpt>
      <trkpt lat="41.7880250" lon="1.9990670">
        <ele>491.5800000</ele>
        <time>2010-09-26T07:29:32Z</time>
      </trkpt>
      <trkpt lat="41.7880120" lon="1.9992140">
        <ele>493.2320000</ele>
        <time>2010-09-26T07:29:37Z</time>
      </trkpt>
      <trkpt lat="41.7880250" lon="1.9994400">
        <ele>495.1850000</ele>
        <time>2010-09-26T07:29:46Z</time>
      </trkpt>
      <trkpt lat="41.7880570" lon="1.9996920">
        <ele>498.4880000</ele>
        <time>2010-09-26T07:29:57Z</time>
      </trkpt>
      <trkpt lat="41.7880970" lon="1.9999280">
        <ele>502.0060000</ele>
        <time>2010-09-26T07:30:08Z</time>
      </trkpt>
      <trkpt lat="41.7881750" lon="2.0001250">
        <ele>505.1480000</ele>
        <time>2010-09-26T07:30:19Z</time>
      </trkpt>
      <trkpt lat="41.7882600" lon="2.0003090">
        <ele>508.4870000</ele>
        <time>2010-09-26T07:30:30Z</time>
      </trkpt>
      <trkpt lat="41.7883240" lon="2.0005670">
        <ele>511.9350000</ele>
        <time>2010-09-26T07:30:44Z</time>
      </trkpt>
      <trkpt lat="41.7883240" lon="2.0007370">
        <ele>514.5660000</ele>
        <time>2010-09-26T07:30:53Z</time>
      </trkpt>
      <trkpt lat="41.7883050" lon="2.0009480">
        <ele>517.6140000</ele>
        <time>2010-09-26T07:31:04Z</time>
      </trkpt>
      <trkpt lat="41.7882460" lon="2.0011830">
        <ele>520.3890000</ele>
        <time>2010-09-26T07:31:16Z</time>
      </trkpt>
      <trkpt lat="41.7882230" lon="2.0013810">
        <ele>522.2740000</ele>
        <time>2010-09-26T07:31:25Z</time>
      </trkpt>
      <trkpt lat="41.7882500" lon="2.0016060">
        <ele>525.0520000</ele>
        <time>2010-09-26T07:31:36Z</time>
      </trkpt>
      <trkpt lat="41.7883270" lon="2.0018830">
        <ele>527.8770000</ele>
        <time>2010-09-26T07:31:50Z</time>
      </trkpt>
      <trkpt lat="41.7883820" lon="2.0020950">
        <ele>529.4510000</ele>
        <time>2010-09-26T07:32:00Z</time>
      </trkpt>
      <trkpt lat="41.7884480" lon="2.0023400">
        <ele>531.0620000</ele>
        <time>2010-09-26T07:32:11Z</time>
      </trkpt>
      <trkpt lat="41.7885140" lon="2.0026000">
        <ele>533.3530000</ele>
        <time>2010-09-26T07:32:22Z</time>
      </trkpt>
      <trkpt lat="41.7885920" lon="2.0029150">
        <ele>535.9110000</ele>
        <time>2010-09-26T07:32:35Z</time>
      </trkpt>
      <trkpt lat="41.7886420" lon="2.0031610">
        <ele>537.3420000</ele>
        <time>2010-09-26T07:32:45Z</time>
      </trkpt>
      <trkpt lat="41.7887080" lon="2.0034530">
        <ele>539.6580000</ele>
        <time>2010-09-26T07:32:57Z</time>
      </trkpt>
      <trkpt lat="41.7887400" lon="2.0037360">
        <ele>541.7390000</ele>
        <time>2010-09-26T07:33:08Z</time>
      </trkpt>
      <trkpt lat="41.7887650" lon="2.0040750">
        <ele>544.2600000</ele>
        <time>2010-09-26T07:33:21Z</time>
      </trkpt>
      <trkpt lat="41.7887790" lon="2.0043620">
        <ele>547.0020000</ele>
        <time>2010-09-26T07:33:32Z</time>
      </trkpt>
      <trkpt lat="41.7887880" lon="2.0046810">
        <ele>548.5470000</ele>
        <time>2010-09-26T07:33:43Z</time>
      </trkpt>
      <trkpt lat="41.7887960" lon="2.0049350">
        <ele>549.6520000</ele>
        <time>2010-09-26T07:33:51Z</time>
      </trkpt>
      <trkpt lat="41.7888110" lon="2.0052000">
        <ele>550.7410000</ele>
        <time>2010-09-26T07:34:00Z</time>
      </trkpt>
      <trkpt lat="41.7888270" lon="2.0054340">
        <ele>552.6100000</ele>
        <time>2010-09-26T07:34:08Z</time>
      </trkpt>
      <trkpt lat="41.7888560" lon="2.0057890">
        <ele>555.4920000</ele>
        <time>2010-09-26T07:34:20Z</time>
      </trkpt>
      <trkpt lat="41.7888740" lon="2.0060690">
        <ele>556.9380000</ele>
        <time>2010-09-26T07:34:29Z</time>
      </trkpt>
      <trkpt lat="41.7889090" lon="2.0064270">
        <ele>559.1200000</ele>
        <time>2010-09-26T07:34:40Z</time>
      </trkpt>
      <trkpt lat="41.7889310" lon="2.0067640">
        <ele>561.3680000</ele>
        <time>2010-09-26T07:34:51Z</time>
      </trkpt>
      <trkpt lat="41.7889470" lon="2.0070900">
        <ele>563.9040000</ele>
        <time>2010-09-26T07:35:02Z</time>
      </trkpt>
      <trkpt lat="41.7889740" lon="2.0074010">
        <ele>566.4900000</ele>
        <time>2010-09-26T07:35:13Z</time>
      </trkpt>
      <trkpt lat="41.7890170" lon="2.0076810">
        <ele>568.7690000</ele>
        <time>2010-09-26T07:35:23Z</time>
      </trkpt>
      <trkpt lat="41.7890790" lon="2.0079350">
        <ele>570.5510000</ele>
        <time>2010-09-26T07:35:32Z</time>
      </trkpt>
      <trkpt lat="41.7891990" lon="2.0082350">
        <ele>571.8960000</ele>
        <time>2010-09-26T07:35:43Z</time>
      </trkpt>
      <trkpt lat="41.7892950" lon="2.0084810">
        <ele>572.7510000</ele>
        <time>2010-09-26T07:35:52Z</time>
      </trkpt>
      <trkpt lat="41.7894000" lon="2.0088320">
        <ele>573.6200000</ele>
        <time>2010-09-26T07:36:02Z</time>
      </trkpt>
      <trkpt lat="41.7894620" lon="2.0092280">
        <ele>573.9800000</ele>
        <time>2010-09-26T07:36:12Z</time>
      </trkpt>
      <trkpt lat="41.7895060" lon="2.0096720">
        <ele>575.0150000</ele>
        <time>2010-09-26T07:36:23Z</time>
      </trkpt>
      <trkpt lat="41.7895130" lon="2.0100760">
        <ele>575.4870000</ele>
        <time>2010-09-26T07:36:33Z</time>
      </trkpt>
      <trkpt lat="41.7894460" lon="2.0104730">
        <ele>576.7590000</ele>
        <time>2010-09-26T07:36:43Z</time>
      </trkpt>
      <trkpt lat="41.7892840" lon="2.0109920">
        <ele>579.0560000</ele>
        <time>2010-09-26T07:36:57Z</time>
      </trkpt>
      <trkpt lat="41.7891140" lon="2.0113640">
        <ele>581.3120000</ele>
        <time>2010-09-26T07:37:08Z</time>
      </trkpt>
      <trkpt lat="41.7889470" lon="2.0115640">
        <ele>583.2410000</ele>
        <time>2010-09-26T07:37:17Z</time>
      </trkpt>
      <trkpt lat="41.7887580" lon="2.0117650">
        <ele>586.0100000</ele>
        <time>2010-09-26T07:37:28Z</time>
      </trkpt>
      <trkpt lat="41.7885890" lon="2.0119780">
        <ele>588.2030000</ele>
        <time>2010-09-26T07:37:38Z</time>
      </trkpt>
      <trkpt lat="41.7884860" lon="2.0122030">
        <ele>590.2640000</ele>
        <time>2010-09-26T07:37:47Z</time>
      </trkpt>
      <trkpt lat="41.7884990" lon="2.0123780">
        <ele>591.8240000</ele>
        <time>2010-09-26T07:37:54Z</time>
      </trkpt>
      <trkpt lat="41.7886010" lon="2.0124920">
        <ele>594.1750000</ele>
        <time>2010-09-26T07:38:02Z</time>
      </trkpt>
      <trkpt lat="41.7886290" lon="2.0126300">
        <ele>595.9400000</ele>
        <time>2010-09-26T07:38:09Z</time>
      </trkpt>
      <trkpt lat="41.7886430" lon="2.0127520">
        <ele>596.8870000</ele>
        <time>2010-09-26T07:38:16Z</time>
      </trkpt>
      <trkpt lat="41.7886620" lon="2.0129050">
        <ele>597.3030000</ele>
        <time>2010-09-26T07:38:23Z</time>
      </trkpt>
      <trkpt lat="41.7886810" lon="2.0130750">
        <ele>598.3930000</ele>
        <time>2010-09-26T07:38:30Z</time>
      </trkpt>
      <trkpt lat="41.7886920" lon="2.0133690">
        <ele>599.0770000</ele>
        <time>2010-09-26T07:38:39Z</time>
      </trkpt>
      <trkpt lat="41.7887060" lon="2.0136050">
        <ele>600.4080000</ele>
        <time>2010-09-26T07:38:47Z</time>
      </trkpt>
      <trkpt lat="41.7887400" lon="2.0138030">
        <ele>601.8350000</ele>
        <time>2010-09-26T07:38:54Z</time>
      </trkpt>
      <trkpt lat="41.7888260" lon="2.0140240">
        <ele>603.2740000</ele>
        <time>2010-09-26T07:39:02Z</time>
      </trkpt>
      <trkpt lat="41.7889490" lon="2.0142700">
        <ele>603.9530000</ele>
        <time>2010-09-26T07:39:10Z</time>
      </trkpt>
      <trkpt lat="41.7890670" lon="2.0144830">
        <ele>604.8060000</ele>
        <time>2010-09-26T07:39:17Z</time>
      </trkpt>
      <trkpt lat="41.7892900" lon="2.0147730">
        <ele>604.8200000</ele>
        <time>2010-09-26T07:39:27Z</time>
      </trkpt>
      <trkpt lat="41.7894230" lon="2.0149970">
        <ele>604.9910000</ele>
        <time>2010-09-26T07:39:34Z</time>
      </trkpt>
      <trkpt lat="41.7895760" lon="2.0153140">
        <ele>605.6210000</ele>
        <time>2010-09-26T07:39:43Z</time>
      </trkpt>
      <trkpt lat="41.7896170" lon="2.0155470">
        <ele>606.4540000</ele>
        <time>2010-09-26T07:39:49Z</time>
      </trkpt>
      <trkpt lat="41.7896290" lon="2.0158940">
        <ele>607.5190000</ele>
        <time>2010-09-26T07:39:58Z</time>
      </trkpt>
      <trkpt lat="41.7896000" lon="2.0161920">
        <ele>608.3430000</ele>
        <time>2010-09-26T07:40:06Z</time>
      </trkpt>
      <trkpt lat="41.7895240" lon="2.0164550">
        <ele>609.4630000</ele>
        <time>2010-09-26T07:40:14Z</time>
      </trkpt>
      <trkpt lat="41.7894480" lon="2.0167640">
        <ele>609.8950000</ele>
        <time>2010-09-26T07:40:22Z</time>
      </trkpt>
      <trkpt lat="41.7893380" lon="2.0171920">
        <ele>611.5000000</ele>
        <time>2010-09-26T07:40:33Z</time>
      </trkpt>
      <trkpt lat="41.7892070" lon="2.0175550">
        <ele>612.9020000</ele>
        <time>2010-09-26T07:40:43Z</time>
      </trkpt>
      <trkpt lat="41.7891090" lon="2.0178640">
        <ele>615.0940000</ele>
        <time>2010-09-26T07:40:52Z</time>
      </trkpt>
      <trkpt lat="41.7891160" lon="2.0180800">
        <ele>616.2220000</ele>
        <time>2010-09-26T07:40:58Z</time>
      </trkpt>
      <trkpt lat="41.7892000" lon="2.0182550">
        <ele>616.1900000</ele>
        <time>2010-09-26T07:41:03Z</time>
      </trkpt>
      <trkpt lat="41.7893090" lon="2.0183620">
        <ele>615.7680000</ele>
        <time>2010-09-26T07:41:06Z</time>
      </trkpt>
      <trkpt lat="41.7894560" lon="2.0185910">
        <ele>614.9300000</ele>
        <time>2010-09-26T07:41:10Z</time>
      </trkpt>
      <trkpt lat="41.7896240" lon="2.0188860">
        <ele>615.2800000</ele>
        <time>2010-09-26T07:41:16Z</time>
      </trkpt>
      <trkpt lat="41.7900070" lon="2.0192680">
        <ele>614.5620000</ele>
        <time>2010-09-26T07:41:25Z</time>
      </trkpt>
      <trkpt lat="41.7900460" lon="2.0193090">
        <ele>614.6150000</ele>
        <time>2010-09-26T07:41:26Z</time>
      </trkpt>
      <trkpt lat="41.7901670" lon="2.0195720">
        <ele>614.9340000</ele>
        <time>2010-09-26T07:41:31Z</time>
      </trkpt>
      <trkpt lat="41.7901720" lon="2.0196290">
        <ele>615.1280000</ele>
        <time>2010-09-26T07:41:32Z</time>
      </trkpt>
      <trkpt lat="41.7901800" lon="2.0199650">
        <ele>616.2210000</ele>
        <time>2010-09-26T07:41:39Z</time>
      </trkpt>
      <trkpt lat="41.7902760" lon="2.0203030">
        <ele>617.4650000</ele>
        <time>2010-09-26T07:41:47Z</time>
      </trkpt>
      <trkpt lat="41.7902900" lon="2.0204980">
        <ele>617.9270000</ele>
        <time>2010-09-26T07:41:52Z</time>
      </trkpt>
      <trkpt lat="41.7901570" lon="2.0206620">
        <ele>617.6450000</ele>
        <time>2010-09-26T07:41:57Z</time>
      </trkpt>
      <trkpt lat="41.7899630" lon="2.0208220">
        <ele>618.5860000</ele>
        <time>2010-09-26T07:42:03Z</time>
      </trkpt>
      <trkpt lat="41.7898690" lon="2.0210370">
        <ele>619.5160000</ele>
        <time>2010-09-26T07:42:09Z</time>
      </trkpt>
      <trkpt lat="41.7898070" lon="2.0212940">
        <ele>620.6660000</ele>
        <time>2010-09-26T07:42:15Z</time>
      </trkpt>
      <trkpt lat="41.7896980" lon="2.0215530">
        <ele>621.5400000</ele>
        <time>2010-09-26T07:42:21Z</time>
      </trkpt>
      <trkpt lat="41.7894480" lon="2.0216980">
        <ele>620.7690000</ele>
        <time>2010-09-26T07:42:27Z</time>
      </trkpt>
      <trkpt lat="41.7893520" lon="2.0217190">
        <ele>620.6250000</ele>
        <time>2010-09-26T07:42:29Z</time>
      </trkpt>
      <trkpt lat="41.7890520" lon="2.0218070">
        <ele>621.2020000</ele>
        <time>2010-09-26T07:42:36Z</time>
      </trkpt>
      <trkpt lat="41.7889130" lon="2.0218700">
        <ele>621.5200000</ele>
        <time>2010-09-26T07:42:40Z</time>
      </trkpt>
      <trkpt lat="41.7887420" lon="2.0219280">
        <ele>621.3810000</ele>
        <time>2010-09-26T07:42:44Z</time>
      </trkpt>
      <trkpt lat="41.7885730" lon="2.0220450">
        <ele>620.9600000</ele>
        <time>2010-09-26T07:42:48Z</time>
      </trkpt>
      <trkpt lat="41.7884890" lon="2.0221350">
        <ele>620.5360000</ele>
        <time>2010-09-26T07:42:50Z</time>
      </trkpt>
      <trkpt lat="41.7882390" lon="2.0222280">
        <ele>618.5520000</ele>
        <time>2010-09-26T07:42:54Z</time>
      </trkpt>
      <trkpt lat="41.7881690" lon="2.0222080">
        <ele>617.9490000</ele>
        <time>2010-09-26T07:42:55Z</time>
      </trkpt>
      <trkpt lat="41.7880300" lon="2.0221490">
        <ele>616.4370000</ele>
        <time>2010-09-26T07:42:57Z</time>
      </trkpt>
      <trkpt lat="41.7877760" lon="2.0221620">
        <ele>612.5420000</ele>
        <time>2010-09-26T07:43:01Z</time>
      </trkpt>
      <trkpt lat="41.7876620" lon="2.0222560">
        <ele>609.3440000</ele>
        <time>2010-09-26T07:43:04Z</time>
      </trkpt>
      <trkpt lat="41.7877210" lon="2.0223820">
        <ele>607.3080000</ele>
        <time>2010-09-26T07:43:07Z</time>
      </trkpt>
      <trkpt lat="41.7878170" lon="2.0224600">
        <ele>606.9680000</ele>
        <time>2010-09-26T07:43:09Z</time>
      </trkpt>
      <trkpt lat="41.7879910" lon="2.0225990">
        <ele>606.7420000</ele>
        <time>2010-09-26T07:43:13Z</time>
      </trkpt>
      <trkpt lat="41.7883390" lon="2.0226550">
        <ele>606.0700000</ele>
        <time>2010-09-26T07:43:19Z</time>
      </trkpt>
      <trkpt lat="41.7887560" lon="2.0227240">
        <ele>604.4320000</ele>
        <time>2010-09-26T07:43:25Z</time>
      </trkpt>
      <trkpt lat="41.7889720" lon="2.0228410">
        <ele>603.1200000</ele>
        <time>2010-09-26T07:43:28Z</time>
      </trkpt>
      <trkpt lat="41.7891270" lon="2.0228800">
        <ele>602.3360000</ele>
        <time>2010-09-26T07:43:30Z</time>
      </trkpt>
      <trkpt lat="41.7892860" lon="2.0228870">
        <ele>601.4920000</ele>
        <time>2010-09-26T07:43:32Z</time>
      </trkpt>
      <trkpt lat="41.7896730" lon="2.0230790">
        <ele>599.6620000</ele>
        <time>2010-09-26T07:43:37Z</time>
      </trkpt>
      <trkpt lat="41.7898710" lon="2.0232500">
        <ele>598.6070000</ele>
        <time>2010-09-26T07:43:40Z</time>
      </trkpt>
      <trkpt lat="41.7900810" lon="2.0232200">
        <ele>597.5800000</ele>
        <time>2010-09-26T07:43:43Z</time>
      </trkpt>
      <trkpt lat="41.7902200" lon="2.0233220">
        <ele>596.6200000</ele>
        <time>2010-09-26T07:43:45Z</time>
      </trkpt>
      <trkpt lat="41.7902550" lon="2.0233920">
        <ele>596.3390000</ele>
        <time>2010-09-26T07:43:46Z</time>
      </trkpt>
      <trkpt lat="41.7902810" lon="2.0234780">
        <ele>596.0670000</ele>
        <time>2010-09-26T07:43:47Z</time>
      </trkpt>
      <trkpt lat="41.7904270" lon="2.0237570">
        <ele>596.3120000</ele>
        <time>2010-09-26T07:43:53Z</time>
      </trkpt>
      <trkpt lat="41.7906790" lon="2.0240800">
        <ele>595.1020000</ele>
        <time>2010-09-26T07:43:59Z</time>
      </trkpt>
      <trkpt lat="41.7907300" lon="2.0243690">
        <ele>594.3240000</ele>
        <time>2010-09-26T07:44:02Z</time>
      </trkpt>
      <trkpt lat="41.7906900" lon="2.0245100">
        <ele>594.3960000</ele>
        <time>2010-09-26T07:44:05Z</time>
      </trkpt>
      <trkpt lat="41.7906650" lon="2.0245350">
        <ele>595.0420000</ele>
        <time>2010-09-26T07:44:06Z</time>
      </trkpt>
      <trkpt lat="41.7904530" lon="2.0246430">
        <ele>597.1900000</ele>
        <time>2010-09-26T07:44:13Z</time>
      </trkpt>
      <trkpt lat="41.7903250" lon="2.0246690">
        <ele>598.2690000</ele>
        <time>2010-09-26T07:44:17Z</time>
      </trkpt>
      <trkpt lat="41.7901300" lon="2.0247830">
        <ele>599.6360000</ele>
        <time>2010-09-26T07:44:24Z</time>
      </trkpt>
      <trkpt lat="41.7899490" lon="2.0249140">
        <ele>600.5410000</ele>
        <time>2010-09-26T07:44:31Z</time>
      </trkpt>
      <trkpt lat="41.7897540" lon="2.0250370">
        <ele>602.6270000</ele>
        <time>2010-09-26T07:44:39Z</time>
      </trkpt>
      <trkpt lat="41.7896160" lon="2.0251210">
        <ele>604.7330000</ele>
        <time>2010-09-26T07:44:46Z</time>
      </trkpt>
      <trkpt lat="41.7895000" lon="2.0250830">
        <ele>605.0510000</ele>
        <time>2010-09-26T07:44:50Z</time>
      </trkpt>
      <trkpt lat="41.7894190" lon="2.0250370">
        <ele>604.9110000</ele>
        <time>2010-09-26T07:44:52Z</time>
      </trkpt>
      <trkpt lat="41.7890870" lon="2.0249720">
        <ele>603.0410000</ele>
        <time>2010-09-26T07:44:58Z</time>
      </trkpt>
      <trkpt lat="41.7889610" lon="2.0249510">
        <ele>602.3690000</ele>
        <time>2010-09-26T07:45:00Z</time>
      </trkpt>
      <trkpt lat="41.7887250" lon="2.0250370">
        <ele>601.1100000</ele>
        <time>2010-09-26T07:45:04Z</time>
      </trkpt>
      <trkpt lat="41.7885280" lon="2.0251680">
        <ele>600.9970000</ele>
        <time>2010-09-26T07:45:08Z</time>
      </trkpt>
      <trkpt lat="41.7884050" lon="2.0253890">
        <ele>600.7300000</ele>
        <time>2010-09-26T07:45:12Z</time>
      </trkpt>
      <trkpt lat="41.7884730" lon="2.0256090">
        <ele>600.3470000</ele>
        <time>2010-09-26T07:45:15Z</time>
      </trkpt>
      <trkpt lat="41.7886610" lon="2.0257450">
        <ele>599.3240000</ele>
        <time>2010-09-26T07:45:18Z</time>
      </trkpt>
      <trkpt lat="41.7887350" lon="2.0257670">
        <ele>599.3220000</ele>
        <time>2010-09-26T07:45:19Z</time>
      </trkpt>
      <trkpt lat="41.7889660" lon="2.0258330">
        <ele>596.8520000</ele>
        <time>2010-09-26T07:45:23Z</time>
      </trkpt>
      <trkpt lat="41.7889230" lon="2.0259060">
        <ele>594.2410000</ele>
        <time>2010-09-26T07:45:27Z</time>
      </trkpt>
      <trkpt lat="41.7888800" lon="2.0258940">
        <ele>594.0000000</ele>
        <time>2010-09-26T07:45:28Z</time>
      </trkpt>
      <trkpt lat="41.7888350" lon="2.0258800">
        <ele>593.6300000</ele>
        <time>2010-09-26T07:45:29Z</time>
      </trkpt>
      <trkpt lat="41.7885620" lon="2.0258050">
        <ele>593.0180000</ele>
        <time>2010-09-26T07:45:34Z</time>
      </trkpt>
      <trkpt lat="41.7882800" lon="2.0255700">
        <ele>591.5720000</ele>
        <time>2010-09-26T07:45:39Z</time>
      </trkpt>
      <trkpt lat="41.7881800" lon="2.0254590">
        <ele>590.1950000</ele>
        <time>2010-09-26T07:45:42Z</time>
      </trkpt>
      <trkpt lat="41.7881240" lon="2.0254730">
        <ele>588.6740000</ele>
        <time>2010-09-26T07:45:45Z</time>
      </trkpt>
      <trkpt lat="41.7881920" lon="2.0256060">
        <ele>588.2250000</ele>
        <time>2010-09-26T07:45:48Z</time>
      </trkpt>
      <trkpt lat="41.7882600" lon="2.0257070">
        <ele>588.3420000</ele>
        <time>2010-09-26T07:45:50Z</time>
      </trkpt>
      <trkpt lat="41.7885090" lon="2.0260070">
        <ele>587.4510000</ele>
        <time>2010-09-26T07:45:56Z</time>
      </trkpt>
      <trkpt lat="41.7886300" lon="2.0260530">
        <ele>586.9900000</ele>
        <time>2010-09-26T07:45:58Z</time>
      </trkpt>
      <trkpt lat="41.7889070" lon="2.0260950">
        <ele>586.1660000</ele>
        <time>2010-09-26T07:46:02Z</time>
      </trkpt>
      <trkpt lat="41.7892420" lon="2.0262480">
        <ele>584.6060000</ele>
        <time>2010-09-26T07:46:07Z</time>
      </trkpt>
      <trkpt lat="41.7894450" lon="2.0262990">
        <ele>584.5210000</ele>
        <time>2010-09-26T07:46:10Z</time>
      </trkpt>
      <trkpt lat="41.7898090" lon="2.0264420">
        <ele>583.3000000</ele>
        <time>2010-09-26T07:46:15Z</time>
      </trkpt>
      <trkpt lat="41.7899890" lon="2.0265010">
        <ele>582.0680000</ele>
        <time>2010-09-26T07:46:17Z</time>
      </trkpt>
      <trkpt lat="41.7902670" lon="2.0267570">
        <ele>580.2060000</ele>
        <time>2010-09-26T07:46:21Z</time>
      </trkpt>
      <trkpt lat="41.7902580" lon="2.0270300">
        <ele>579.3780000</ele>
        <time>2010-09-26T07:46:23Z</time>
      </trkpt>
      <trkpt lat="41.7902030" lon="2.0272350">
        <ele>578.7720000</ele>
        <time>2010-09-26T07:46:25Z</time>
      </trkpt>
      <trkpt lat="41.7900590" lon="2.0276200">
        <ele>580.8460000</ele>
        <time>2010-09-26T07:46:31Z</time>
      </trkpt>
      <trkpt lat="41.7900240" lon="2.0279180">
        <ele>582.4180000</ele>
        <time>2010-09-26T07:46:37Z</time>
      </trkpt>
      <trkpt lat="41.7900490" lon="2.0280890">
        <ele>583.4900000</ele>
        <time>2010-09-26T07:46:41Z</time>
      </trkpt>
      <trkpt lat="41.7903010" lon="2.0282990">
        <ele>583.6550000</ele>
        <time>2010-09-26T07:46:47Z</time>
      </trkpt>
      <trkpt lat="41.7904680" lon="2.0283850">
        <ele>583.0110000</ele>
        <time>2010-09-26T07:46:50Z</time>
      </trkpt>
      <trkpt lat="41.7906600" lon="2.0284090">
        <ele>582.3770000</ele>
        <time>2010-09-26T07:46:53Z</time>
      </trkpt>
      <trkpt lat="41.7908460" lon="2.0286030">
        <ele>581.5940000</ele>
        <time>2010-09-26T07:46:57Z</time>
      </trkpt>
      <trkpt lat="41.7909050" lon="2.0287580">
        <ele>581.3920000</ele>
        <time>2010-09-26T07:46:59Z</time>
      </trkpt>
      <trkpt lat="41.7909680" lon="2.0289250">
        <ele>580.9750000</ele>
        <time>2010-09-26T07:47:01Z</time>
      </trkpt>
      <trkpt lat="41.7909940" lon="2.0292190">
        <ele>580.9370000</ele>
        <time>2010-09-26T07:47:05Z</time>
      </trkpt>
      <trkpt lat="41.7909720" lon="2.0292810">
        <ele>581.1020000</ele>
        <time>2010-09-26T07:47:06Z</time>
      </trkpt>
      <trkpt lat="41.7909190" lon="2.0293970">
        <ele>581.5610000</ele>
        <time>2010-09-26T07:47:08Z</time>
      </trkpt>
      <trkpt lat="41.7908860" lon="2.0296540">
        <ele>582.7340000</ele>
        <time>2010-09-26T07:47:13Z</time>
      </trkpt>
      <trkpt lat="41.7909260" lon="2.0297490">
        <ele>583.1230000</ele>
        <time>2010-09-26T07:47:15Z</time>
      </trkpt>
      <trkpt lat="41.7910500" lon="2.0299770">
        <ele>583.6960000</ele>
        <time>2010-09-26T07:47:20Z</time>
      </trkpt>
      <trkpt lat="41.7911070" lon="2.0300640">
        <ele>583.7690000</ele>
        <time>2010-09-26T07:47:22Z</time>
      </trkpt>
      <trkpt lat="41.7913190" lon="2.0302270">
        <ele>583.7480000</ele>
        <time>2010-09-26T07:47:27Z</time>
      </trkpt>
      <trkpt lat="41.7914320" lon="2.0304280">
        <ele>583.6780000</ele>
        <time>2010-09-26T07:47:31Z</time>
      </trkpt>
      <trkpt lat="41.7914160" lon="2.0305480">
        <ele>583.9490000</ele>
        <time>2010-09-26T07:47:33Z</time>
      </trkpt>
      <trkpt lat="41.7913190" lon="2.0309800">
        <ele>584.4960000</ele>
        <time>2010-09-26T07:47:41Z</time>
      </trkpt>
      <trkpt lat="41.7912580" lon="2.0311370">
        <ele>585.1960000</ele>
        <time>2010-09-26T07:47:45Z</time>
      </trkpt>
      <trkpt lat="41.7910960" lon="2.0311780">
        <ele>586.5580000</ele>
        <time>2010-09-26T07:47:50Z</time>
      </trkpt>
      <trkpt lat="41.7908890" lon="2.0311440">
        <ele>587.9940000</ele>
        <time>2010-09-26T07:47:57Z</time>
      </trkpt>
      <trkpt lat="41.7907200" lon="2.0311230">
        <ele>589.1390000</ele>
        <time>2010-09-26T07:48:02Z</time>
      </trkpt>
      <trkpt lat="41.7904830" lon="2.0311590">
        <ele>590.6520000</ele>
        <time>2010-09-26T07:48:10Z</time>
      </trkpt>
      <trkpt lat="41.7902650" lon="2.0312080">
        <ele>592.7390000</ele>
        <time>2010-09-26T07:48:18Z</time>
      </trkpt>
      <trkpt lat="41.7900270" lon="2.0312560">
        <ele>594.5150000</ele>
        <time>2010-09-26T07:48:26Z</time>
      </trkpt>
      <trkpt lat="41.7899060" lon="2.0313600">
        <ele>595.7670000</ele>
        <time>2010-09-26T07:48:31Z</time>
      </trkpt>
      <trkpt lat="41.7898920" lon="2.0315570">
        <ele>597.5620000</ele>
        <time>2010-09-26T07:48:38Z</time>
      </trkpt>
      <trkpt lat="41.7899220" lon="2.0317660">
        <ele>598.6650000</ele>
        <time>2010-09-26T07:48:44Z</time>
      </trkpt>
      <trkpt lat="41.7899910" lon="2.0320500">
        <ele>601.0070000</ele>
        <time>2010-09-26T07:48:53Z</time>
      </trkpt>
      <trkpt lat="41.7899780" lon="2.0322820">
        <ele>602.1230000</ele>
        <time>2010-09-26T07:49:00Z</time>
      </trkpt>
      <trkpt lat="41.7899300" lon="2.0325350">
        <ele>602.7870000</ele>
        <time>2010-09-26T07:49:07Z</time>
      </trkpt>
      <trkpt lat="41.7898600" lon="2.0327550">
        <ele>604.3510000</ele>
        <time>2010-09-26T07:49:14Z</time>
      </trkpt>
      <trkpt lat="41.7897790" lon="2.0329340">
        <ele>604.6050000</ele>
        <time>2010-09-26T07:49:19Z</time>
      </trkpt>
      <trkpt lat="41.7897200" lon="2.0332460">
        <ele>604.6730000</ele>
        <time>2010-09-26T07:49:26Z</time>
      </trkpt>
      <trkpt lat="41.7897670" lon="2.0334250">
        <ele>604.7290000</ele>
        <time>2010-09-26T07:49:30Z</time>
      </trkpt>
      <trkpt lat="41.7899830" lon="2.0335960">
        <ele>604.4120000</ele>
        <time>2010-09-26T07:49:35Z</time>
      </trkpt>
      <trkpt lat="41.7901390" lon="2.0336900">
        <ele>603.9630000</ele>
        <time>2010-09-26T07:49:38Z</time>
      </trkpt>
      <trkpt lat="41.7903280" lon="2.0339230">
        <ele>603.1600000</ele>
        <time>2010-09-26T07:49:42Z</time>
      </trkpt>
      <trkpt lat="41.7904090" lon="2.0340670">
        <ele>602.3630000</ele>
        <time>2010-09-26T07:49:44Z</time>
      </trkpt>
      <trkpt lat="41.7905710" lon="2.0342760">
        <ele>601.9970000</ele>
        <time>2010-09-26T07:49:48Z</time>
      </trkpt>
      <trkpt lat="41.7906330" lon="2.0343360">
        <ele>602.4530000</ele>
        <time>2010-09-26T07:49:50Z</time>
      </trkpt>
      <trkpt lat="41.7908180" lon="2.0343560">
        <ele>602.1670000</ele>
        <time>2010-09-26T07:49:54Z</time>
      </trkpt>
      <trkpt lat="41.7911180" lon="2.0341810">
        <ele>600.0850000</ele>
        <time>2010-09-26T07:49:59Z</time>
      </trkpt>
      <trkpt lat="41.7911630" lon="2.0341130">
        <ele>599.3560000</ele>
        <time>2010-09-26T07:50:00Z</time>
      </trkpt>
      <trkpt lat="41.7912440" lon="2.0339740">
        <ele>598.6540000</ele>
        <time>2010-09-26T07:50:02Z</time>
      </trkpt>
      <trkpt lat="41.7912810" lon="2.0339140">
        <ele>598.4860000</ele>
        <time>2010-09-26T07:50:03Z</time>
      </trkpt>
      <trkpt lat="41.7914280" lon="2.0337650">
        <ele>599.6640000</ele>
        <time>2010-09-26T07:50:08Z</time>
      </trkpt>
      <trkpt lat="41.7916310" lon="2.0336530">
        <ele>601.9270000</ele>
        <time>2010-09-26T07:50:15Z</time>
      </trkpt>
      <trkpt lat="41.7917270" lon="2.0335220">
        <ele>602.6620000</ele>
        <time>2010-09-26T07:50:20Z</time>
      </trkpt>
      <trkpt lat="41.7918550" lon="2.0333610">
        <ele>604.1010000</ele>
        <time>2010-09-26T07:50:26Z</time>
      </trkpt>
      <trkpt lat="41.7920730" lon="2.0331520">
        <ele>604.4370000</ele>
        <time>2010-09-26T07:50:33Z</time>
      </trkpt>
      <trkpt lat="41.7923150" lon="2.0330340">
        <ele>603.8780000</ele>
        <time>2010-09-26T07:50:38Z</time>
      </trkpt>
      <trkpt lat="41.7926680" lon="2.0329170">
        <ele>602.8840000</ele>
        <time>2010-09-26T07:50:44Z</time>
      </trkpt>
      <trkpt lat="41.7929330" lon="2.0328340">
        <ele>602.2420000</ele>
        <time>2010-09-26T07:50:49Z</time>
      </trkpt>
      <trkpt lat="41.7931130" lon="2.0328400">
        <ele>603.5200000</ele>
        <time>2010-09-26T07:50:54Z</time>
      </trkpt>
      <trkpt lat="41.7932620" lon="2.0330860">
        <ele>603.0430000</ele>
        <time>2010-09-26T07:50:59Z</time>
      </trkpt>
      <trkpt lat="41.7932720" lon="2.0331600">
        <ele>602.9580000</ele>
        <time>2010-09-26T07:51:00Z</time>
      </trkpt>
      <trkpt lat="41.7933040" lon="2.0334440">
        <ele>602.6990000</ele>
        <time>2010-09-26T07:51:04Z</time>
      </trkpt>
      <trkpt lat="41.7934530" lon="2.0338070">
        <ele>603.1380000</ele>
        <time>2010-09-26T07:51:11Z</time>
      </trkpt>
      <trkpt lat="41.7936210" lon="2.0340620">
        <ele>603.6930000</ele>
        <time>2010-09-26T07:51:17Z</time>
      </trkpt>
      <trkpt lat="41.7937380" lon="2.0343430">
        <ele>603.6340000</ele>
        <time>2010-09-26T07:51:22Z</time>
      </trkpt>
      <trkpt lat="41.7938470" lon="2.0345310">
        <ele>604.1980000</ele>
        <time>2010-09-26T07:51:26Z</time>
      </trkpt>
      <trkpt lat="41.7940740" lon="2.0347330">
        <ele>605.2230000</ele>
        <time>2010-09-26T07:51:33Z</time>
      </trkpt>
      <trkpt lat="41.7941750" lon="2.0348900">
        <ele>605.7410000</ele>
        <time>2010-09-26T07:51:38Z</time>
      </trkpt>
      <trkpt lat="41.7942280" lon="2.0351140">
        <ele>606.2670000</ele>
        <time>2010-09-26T07:51:43Z</time>
      </trkpt>
      <trkpt lat="41.7942890" lon="2.0354030">
        <ele>607.3080000</ele>
        <time>2010-09-26T07:51:49Z</time>
      </trkpt>
      <trkpt lat="41.7942860" lon="2.0356700">
        <ele>607.6620000</ele>
        <time>2010-09-26T07:51:55Z</time>
      </trkpt>
      <trkpt lat="41.7942900" lon="2.0359920">
        <ele>608.8420000</ele>
        <time>2010-09-26T07:52:02Z</time>
      </trkpt>
      <trkpt lat="41.7943080" lon="2.0362730">
        <ele>610.2530000</ele>
        <time>2010-09-26T07:52:08Z</time>
      </trkpt>
      <trkpt lat="41.7943740" lon="2.0365300">
        <ele>611.0590000</ele>
        <time>2010-09-26T07:52:14Z</time>
      </trkpt>
      <trkpt lat="41.7944980" lon="2.0367690">
        <ele>611.6890000</ele>
        <time>2010-09-26T07:52:20Z</time>
      </trkpt>
      <trkpt lat="41.7945630" lon="2.0368230">
        <ele>611.8720000</ele>
        <time>2010-09-26T07:52:22Z</time>
      </trkpt>
      <trkpt lat="41.7947700" lon="2.0368880">
        <ele>611.9210000</ele>
        <time>2010-09-26T07:52:27Z</time>
      </trkpt>
      <trkpt lat="41.7948620" lon="2.0368890">
        <ele>611.7820000</ele>
        <time>2010-09-26T07:52:29Z</time>
      </trkpt>
      <trkpt lat="41.7952250" lon="2.0369010">
        <ele>610.9340000</ele>
        <time>2010-09-26T07:52:35Z</time>
      </trkpt>
      <trkpt lat="41.7955430" lon="2.0368510">
        <ele>610.2820000</ele>
        <time>2010-09-26T07:52:40Z</time>
      </trkpt>
      <trkpt lat="41.7960180" lon="2.0367670">
        <ele>610.6210000</ele>
        <time>2010-09-26T07:52:48Z</time>
      </trkpt>
      <trkpt lat="41.7962390" lon="2.0366870">
        <ele>610.0400000</ele>
        <time>2010-09-26T07:52:52Z</time>
      </trkpt>
      <trkpt lat="41.7964040" lon="2.0365630">
        <ele>611.0800000</ele>
        <time>2010-09-26T07:52:57Z</time>
      </trkpt>
      <trkpt lat="41.7965600" lon="2.0364780">
        <ele>613.0820000</ele>
        <time>2010-09-26T07:53:03Z</time>
      </trkpt>
      <trkpt lat="41.7967480" lon="2.0365020">
        <ele>614.6680000</ele>
        <time>2010-09-26T07:53:10Z</time>
      </trkpt>
      <trkpt lat="41.7969450" lon="2.0365240">
        <ele>614.1880000</ele>
        <time>2010-09-26T07:53:15Z</time>
      </trkpt>
      <trkpt lat="41.7971900" lon="2.0365210">
        <ele>614.4450000</ele>
        <time>2010-09-26T07:53:21Z</time>
      </trkpt>
      <trkpt lat="41.7974140" lon="2.0365120">
        <ele>615.2020000</ele>
        <time>2010-09-26T07:53:28Z</time>
      </trkpt>
      <trkpt lat="41.7975380" lon="2.0364580">
        <ele>616.4600000</ele>
        <time>2010-09-26T07:53:34Z</time>
      </trkpt>
      <trkpt lat="41.7976210" lon="2.0364040">
        <ele>618.4580000</ele>
        <time>2010-09-26T07:53:40Z</time>
      </trkpt>
      <trkpt lat="41.7977390" lon="2.0363260">
        <ele>620.8440000</ele>
        <time>2010-09-26T07:53:48Z</time>
      </trkpt>
      <trkpt lat="41.7978660" lon="2.0362870">
        <ele>623.2620000</ele>
        <time>2010-09-26T07:53:56Z</time>
      </trkpt>
      <trkpt lat="41.7980130" lon="2.0362810">
        <ele>624.5780000</ele>
        <time>2010-09-26T07:54:04Z</time>
      </trkpt>
      <trkpt lat="41.7981400" lon="2.0362910">
        <ele>626.1550000</ele>
        <time>2010-09-26T07:54:11Z</time>
      </trkpt>
      <trkpt lat="41.7982530" lon="2.0363740">
        <ele>627.4050000</ele>
        <time>2010-09-26T07:54:18Z</time>
      </trkpt>
      <trkpt lat="41.7983620" lon="2.0365540">
        <ele>628.7390000</ele>
        <time>2010-09-26T07:54:26Z</time>
      </trkpt>
      <trkpt lat="41.7984800" lon="2.0368080">
        <ele>629.2040000</ele>
        <time>2010-09-26T07:54:35Z</time>
      </trkpt>
      <trkpt lat="41.7985550" lon="2.0370570">
        <ele>629.3280000</ele>
        <time>2010-09-26T07:54:43Z</time>
      </trkpt>
      <trkpt lat="41.7984440" lon="2.0371930">
        <ele>629.8230000</ele>
        <time>2010-09-26T07:54:49Z</time>
      </trkpt>
      <trkpt lat="41.7982550" lon="2.0372910">
        <ele>630.7140000</ele>
        <time>2010-09-26T07:54:57Z</time>
      </trkpt>
      <trkpt lat="41.7981190" lon="2.0373930">
        <ele>632.0980000</ele>
        <time>2010-09-26T07:55:04Z</time>
      </trkpt>
      <trkpt lat="41.7979310" lon="2.0375070">
        <ele>633.2360000</ele>
        <time>2010-09-26T07:55:12Z</time>
      </trkpt>
      <trkpt lat="41.7977010" lon="2.0376450">
        <ele>634.5710000</ele>
        <time>2010-09-26T07:55:22Z</time>
      </trkpt>
      <trkpt lat="41.7975220" lon="2.0377860">
        <ele>636.7120000</ele>
        <time>2010-09-26T07:55:31Z</time>
      </trkpt>
      <trkpt lat="41.7973410" lon="2.0379200">
        <ele>638.5350000</ele>
        <time>2010-09-26T07:55:41Z</time>
      </trkpt>
      <trkpt lat="41.7972040" lon="2.0380360">
        <ele>640.4760000</ele>
        <time>2010-09-26T07:55:50Z</time>
      </trkpt>
      <trkpt lat="41.7970970" lon="2.0381810">
        <ele>642.1960000</ele>
        <time>2010-09-26T07:55:58Z</time>
      </trkpt>
      <trkpt lat="41.7970160" lon="2.0383760">
        <ele>643.6960000</ele>
        <time>2010-09-26T07:56:07Z</time>
      </trkpt>
      <trkpt lat="41.7969690" lon="2.0385040">
        <ele>644.5410000</ele>
        <time>2010-09-26T07:56:13Z</time>
      </trkpt>
      <trkpt lat="41.7969040" lon="2.0386260">
        <ele>645.3000000</ele>
        <time>2010-09-26T07:56:19Z</time>
      </trkpt>
      <trkpt lat="41.7967930" lon="2.0387990">
        <ele>646.9810000</ele>
        <time>2010-09-26T07:56:27Z</time>
      </trkpt>
      <trkpt lat="41.7967220" lon="2.0389610">
        <ele>648.4370000</ele>
        <time>2010-09-26T07:56:34Z</time>
      </trkpt>
      <trkpt lat="41.7967510" lon="2.0390520">
        <ele>649.5130000</ele>
        <time>2010-09-26T07:56:39Z</time>
      </trkpt>
      <trkpt lat="41.7968280" lon="2.0390100">
        <ele>650.6190000</ele>
        <time>2010-09-26T07:56:44Z</time>
      </trkpt>
      <trkpt lat="41.7968430" lon="2.0389940">
        <ele>650.7730000</ele>
        <time>2010-09-26T07:56:45Z</time>
      </trkpt>
      <trkpt lat="41.7969620" lon="2.0389010">
        <ele>651.7360000</ele>
        <time>2010-09-26T07:56:52Z</time>
      </trkpt>
      <trkpt lat="41.7971030" lon="2.0388560">
        <ele>653.1840000</ele>
        <time>2010-09-26T07:56:59Z</time>
      </trkpt>
      <trkpt lat="41.7972850" lon="2.0387920">
        <ele>654.4290000</ele>
        <time>2010-09-26T07:57:08Z</time>
      </trkpt>
      <trkpt lat="41.7974400" lon="2.0388150">
        <ele>656.2750000</ele>
        <time>2010-09-26T07:57:16Z</time>
      </trkpt>
      <trkpt lat="41.7975710" lon="2.0388630">
        <ele>657.0460000</ele>
        <time>2010-09-26T07:57:22Z</time>
      </trkpt>
      <trkpt lat="41.7977360" lon="2.0389540">
        <ele>658.4710000</ele>
        <time>2010-09-26T07:57:30Z</time>
      </trkpt>
      <trkpt lat="41.7978490" lon="2.0391150">
        <ele>659.5740000</ele>
        <time>2010-09-26T07:57:37Z</time>
      </trkpt>
      <trkpt lat="41.7979790" lon="2.0392780">
        <ele>660.2440000</ele>
        <time>2010-09-26T07:57:45Z</time>
      </trkpt>
      <trkpt lat="41.7981340" lon="2.0395120">
        <ele>661.5530000</ele>
        <time>2010-09-26T07:57:55Z</time>
      </trkpt>
      <trkpt lat="41.7982740" lon="2.0396300">
        <ele>663.4080000</ele>
        <time>2010-09-26T07:58:02Z</time>
      </trkpt>
      <trkpt lat="41.7984340" lon="2.0397460">
        <ele>663.8890000</ele>
        <time>2010-09-26T07:58:09Z</time>
      </trkpt>
      <trkpt lat="41.7986440" lon="2.0399660">
        <ele>664.9830000</ele>
        <time>2010-09-26T07:58:19Z</time>
      </trkpt>
      <trkpt lat="41.7988090" lon="2.0401510">
        <ele>665.0070000</ele>
        <time>2010-09-26T07:58:25Z</time>
      </trkpt>
      <trkpt lat="41.7990480" lon="2.0404500">
        <ele>664.7190000</ele>
        <time>2010-09-26T07:58:34Z</time>
      </trkpt>
      <trkpt lat="41.7991740" lon="2.0406610">
        <ele>665.6670000</ele>
        <time>2010-09-26T07:58:40Z</time>
      </trkpt>
      <trkpt lat="41.7993250" lon="2.0408760">
        <ele>666.8080000</ele>
        <time>2010-09-26T07:58:47Z</time>
      </trkpt>
      <trkpt lat="41.7995650" lon="2.0411960">
        <ele>667.5620000</ele>
        <time>2010-09-26T07:58:57Z</time>
      </trkpt>
      <trkpt lat="41.7998110" lon="2.0415040">
        <ele>668.1360000</ele>
        <time>2010-09-26T07:59:06Z</time>
      </trkpt>
      <trkpt lat="41.8000390" lon="2.0417410">
        <ele>668.5540000</ele>
        <time>2010-09-26T07:59:14Z</time>
      </trkpt>
      <trkpt lat="41.8002610" lon="2.0419440">
        <ele>669.8950000</ele>
        <time>2010-09-26T07:59:22Z</time>
      </trkpt>
      <trkpt lat="41.8004240" lon="2.0421410">
        <ele>669.9540000</ele>
        <time>2010-09-26T07:59:28Z</time>
      </trkpt>
      <trkpt lat="41.8005520" lon="2.0423930">
        <ele>670.9920000</ele>
        <time>2010-09-26T07:59:35Z</time>
      </trkpt>
      <trkpt lat="41.8006820" lon="2.0426870">
        <ele>672.1980000</ele>
        <time>2010-09-26T07:59:43Z</time>
      </trkpt>
      <trkpt lat="41.8007640" lon="2.0429130">
        <ele>672.6910000</ele>
        <time>2010-09-26T07:59:48Z</time>
      </trkpt>
      <trkpt lat="41.8008070" lon="2.0430080">
        <ele>672.5800000</ele>
        <time>2010-09-26T07:59:50Z</time>
      </trkpt>
      <trkpt lat="41.8009290" lon="2.0431770">
        <ele>672.2250000</ele>
        <time>2010-09-26T07:59:54Z</time>
      </trkpt>
      <trkpt lat="41.8011990" lon="2.0433730">
        <ele>672.2260000</ele>
        <time>2010-09-26T08:00:01Z</time>
      </trkpt>
      <trkpt lat="41.8013810" lon="2.0435720">
        <ele>672.1310000</ele>
        <time>2010-09-26T08:00:06Z</time>
      </trkpt>
      <trkpt lat="41.8016920" lon="2.0438360">
        <ele>671.3090000</ele>
        <time>2010-09-26T08:00:13Z</time>
      </trkpt>
      <trkpt lat="41.8019220" lon="2.0439120">
        <ele>670.2830000</ele>
        <time>2010-09-26T08:00:17Z</time>
      </trkpt>
      <trkpt lat="41.8024180" lon="2.0439000">
        <ele>668.4000000</ele>
        <time>2010-09-26T08:00:24Z</time>
      </trkpt>
      <trkpt lat="41.8024900" lon="2.0439070">
        <ele>667.9670000</ele>
        <time>2010-09-26T08:00:25Z</time>
      </trkpt>
      <trkpt lat="41.8030160" lon="2.0438410">
        <ele>665.3600000</ele>
        <time>2010-09-26T08:00:31Z</time>
      </trkpt>
      <trkpt lat="41.8034930" lon="2.0437760">
        <ele>663.5690000</ele>
        <time>2010-09-26T08:00:37Z</time>
      </trkpt>
      <trkpt lat="41.8035680" lon="2.0437710">
        <ele>663.4270000</ele>
        <time>2010-09-26T08:00:38Z</time>
      </trkpt>
      <trkpt lat="41.8038470" lon="2.0439370">
        <ele>661.4110000</ele>
        <time>2010-09-26T08:00:42Z</time>
      </trkpt>
      <trkpt lat="41.8041770" lon="2.0441900">
        <ele>658.0380000</ele>
        <time>2010-09-26T08:00:46Z</time>
      </trkpt>
      <trkpt lat="41.8044430" lon="2.0444330">
        <ele>657.3320000</ele>
        <time>2010-09-26T08:00:50Z</time>
      </trkpt>
      <trkpt lat="41.8045370" lon="2.0445210">
        <ele>658.0880000</ele>
        <time>2010-09-26T08:00:53Z</time>
      </trkpt>
      <trkpt lat="41.8047410" lon="2.0446730">
        <ele>660.2500000</ele>
        <time>2010-09-26T08:01:00Z</time>
      </trkpt>
      <trkpt lat="41.8050030" lon="2.0448390">
        <ele>661.9030000</ele>
        <time>2010-09-26T08:01:08Z</time>
      </trkpt>
      <trkpt lat="41.8051910" lon="2.0449860">
        <ele>662.8520000</ele>
        <time>2010-09-26T08:01:14Z</time>
      </trkpt>
      <trkpt lat="41.8054070" lon="2.0451520">
        <ele>662.9160000</ele>
        <time>2010-09-26T08:01:20Z</time>
      </trkpt>
      <trkpt lat="41.8056560" lon="2.0451960">
        <ele>663.7740000</ele>
        <time>2010-09-26T08:01:26Z</time>
      </trkpt>
      <trkpt lat="41.8059720" lon="2.0452700">
        <ele>663.5850000</ele>
        <time>2010-09-26T08:01:33Z</time>
      </trkpt>
      <trkpt lat="41.8061800" lon="2.0451200">
        <ele>663.9010000</ele>
        <time>2010-09-26T08:01:38Z</time>
      </trkpt>
      <trkpt lat="41.8063010" lon="2.0450080">
        <ele>663.7560000</ele>
        <time>2010-09-26T08:01:41Z</time>
      </trkpt>
      <trkpt lat="41.8064500" lon="2.0449120">
        <ele>662.8470000</ele>
        <time>2010-09-26T08:01:44Z</time>
      </trkpt>
      <trkpt lat="41.8066840" lon="2.0448650">
        <ele>660.2460000</ele>
        <time>2010-09-26T08:01:48Z</time>
      </trkpt>
      <trkpt lat="41.8067380" lon="2.0449790">
        <ele>658.1630000</ele>
        <time>2010-09-26T08:01:51Z</time>
      </trkpt>
      <trkpt lat="41.8067380" lon="2.0450910">
        <ele>657.6550000</ele>
        <time>2010-09-26T08:01:53Z</time>
      </trkpt>
      <trkpt lat="41.8068350" lon="2.0454030">
        <ele>656.7930000</ele>
        <time>2010-09-26T08:01:58Z</time>
      </trkpt>
      <trkpt lat="41.8069980" lon="2.0455350">
        <ele>655.6100000</ele>
        <time>2010-09-26T08:02:01Z</time>
      </trkpt>
      <trkpt lat="41.8071690" lon="2.0456900">
        <ele>653.6830000</ele>
        <time>2010-09-26T08:02:04Z</time>
      </trkpt>
      <trkpt lat="41.8072040" lon="2.0457550">
        <ele>653.6830000</ele>
        <time>2010-09-26T08:02:05Z</time>
      </trkpt>
      <trkpt lat="41.8072250" lon="2.0459080">
        <ele>652.2580000</ele>
        <time>2010-09-26T08:02:07Z</time>
      </trkpt>
      <trkpt lat="41.8072330" lon="2.0461240">
        <ele>650.6990000</ele>
        <time>2010-09-26T08:02:09Z</time>
      </trkpt>
      <trkpt lat="41.8072600" lon="2.0463570">
        <ele>649.5370000</ele>
        <time>2010-09-26T08:02:11Z</time>
      </trkpt>
      <trkpt lat="41.8072400" lon="2.0467930">
        <ele>647.8100000</ele>
        <time>2010-09-26T08:02:15Z</time>
      </trkpt>
      <trkpt lat="41.8071740" lon="2.0469770">
        <ele>646.8920000</ele>
        <time>2010-09-26T08:02:17Z</time>
      </trkpt>
      <trkpt lat="41.8070500" lon="2.0472510">
        <ele>645.4960000</ele>
        <time>2010-09-26T08:02:20Z</time>
      </trkpt>
      <trkpt lat="41.8068020" lon="2.0475660">
        <ele>643.2940000</ele>
        <time>2010-09-26T08:02:24Z</time>
      </trkpt>
      <trkpt lat="41.8064710" lon="2.0477830">
        <ele>641.9010000</ele>
        <time>2010-09-26T08:02:28Z</time>
      </trkpt>
      <trkpt lat="41.8061920" lon="2.0477580">
        <ele>640.1960000</ele>
        <time>2010-09-26T08:02:32Z</time>
      </trkpt>
      <trkpt lat="41.8060710" lon="2.0476550">
        <ele>639.3180000</ele>
        <time>2010-09-26T08:02:34Z</time>
      </trkpt>
      <trkpt lat="41.8058590" lon="2.0473640">
        <ele>638.2300000</ele>
        <time>2010-09-26T08:02:38Z</time>
      </trkpt>
      <trkpt lat="41.8055710" lon="2.0469600">
        <ele>635.9420000</ele>
        <time>2010-09-26T08:02:43Z</time>
      </trkpt>
      <trkpt lat="41.8054230" lon="2.0468430">
        <ele>635.1320000</ele>
        <time>2010-09-26T08:02:45Z</time>
      </trkpt>
      <trkpt lat="41.8049790" lon="2.0464560">
        <ele>632.5180000</ele>
        <time>2010-09-26T08:02:51Z</time>
      </trkpt>
      <trkpt lat="41.8047710" lon="2.0462720">
        <ele>632.2010000</ele>
        <time>2010-09-26T08:02:54Z</time>
      </trkpt>
      <trkpt lat="41.8042250" lon="2.0458990">
        <ele>630.5300000</ele>
        <time>2010-09-26T08:03:02Z</time>
      </trkpt>
      <trkpt lat="41.8037580" lon="2.0455950">
        <ele>629.7600000</ele>
        <time>2010-09-26T08:03:09Z</time>
      </trkpt>
      <trkpt lat="41.8034490" lon="2.0453740">
        <ele>627.7490000</ele>
        <time>2010-09-26T08:03:13Z</time>
      </trkpt>
      <trkpt lat="41.8031370" lon="2.0453410">
        <ele>626.7160000</ele>
        <time>2010-09-26T08:03:17Z</time>
      </trkpt>
      <trkpt lat="41.8026350" lon="2.0456020">
        <ele>623.4420000</ele>
        <time>2010-09-26T08:03:24Z</time>
      </trkpt>
      <trkpt lat="41.8021650" lon="2.0457690">
        <ele>619.9790000</ele>
        <time>2010-09-26T08:03:30Z</time>
      </trkpt>
      <trkpt lat="41.8020120" lon="2.0458460">
        <ele>618.9370000</ele>
        <time>2010-09-26T08:03:32Z</time>
      </trkpt>
      <trkpt lat="41.8017750" lon="2.0459220">
        <ele>616.8000000</ele>
        <time>2010-09-26T08:03:35Z</time>
      </trkpt>
      <trkpt lat="41.8014450" lon="2.0460100">
        <ele>613.1420000</ele>
        <time>2010-09-26T08:03:39Z</time>
      </trkpt>
      <trkpt lat="41.8007700" lon="2.0460840">
        <ele>610.1880000</ele>
        <time>2010-09-26T08:03:46Z</time>
      </trkpt>
      <trkpt lat="41.8003490" lon="2.0461450">
        <ele>607.7500000</ele>
        <time>2010-09-26T08:03:51Z</time>
      </trkpt>
      <trkpt lat="41.8002830" lon="2.0461510">
        <ele>607.3730000</ele>
        <time>2010-09-26T08:03:52Z</time>
      </trkpt>
      <trkpt lat="41.8001430" lon="2.0462940">
        <ele>606.1040000</ele>
        <time>2010-09-26T08:03:56Z</time>
      </trkpt>
      <trkpt lat="41.8001740" lon="2.0464960">
        <ele>604.2510000</ele>
        <time>2010-09-26T08:03:59Z</time>
      </trkpt>
      <trkpt lat="41.8002680" lon="2.0467860">
        <ele>603.0480000</ele>
        <time>2010-09-26T08:04:03Z</time>
      </trkpt>
      <trkpt lat="41.8003830" lon="2.0470250">
        <ele>603.1010000</ele>
        <time>2010-09-26T08:04:07Z</time>
      </trkpt>
      <trkpt lat="41.8006050" lon="2.0474430">
        <ele>602.0960000</ele>
        <time>2010-09-26T08:04:13Z</time>
      </trkpt>
      <trkpt lat="41.8007300" lon="2.0478210">
        <ele>601.2920000</ele>
        <time>2010-09-26T08:04:18Z</time>
      </trkpt>
      <trkpt lat="41.8007610" lon="2.0479430">
        <ele>601.7410000</ele>
        <time>2010-09-26T08:04:21Z</time>
      </trkpt>
      <trkpt lat="41.8006870" lon="2.0479600">
        <ele>603.3780000</ele>
        <time>2010-09-26T08:04:25Z</time>
      </trkpt>
      <trkpt lat="41.8006620" lon="2.0479350">
        <ele>603.5540000</ele>
        <time>2010-09-26T08:04:26Z</time>
      </trkpt>
      <trkpt lat="41.8004590" lon="2.0477120">
        <ele>603.6810000</ele>
        <time>2010-09-26T08:04:33Z</time>
      </trkpt>
      <trkpt lat="41.8001950" lon="2.0474370">
        <ele>603.9570000</ele>
        <time>2010-09-26T08:04:41Z</time>
      </trkpt>
      <trkpt lat="41.7999980" lon="2.0471050">
        <ele>603.8020000</ele>
        <time>2010-09-26T08:04:48Z</time>
      </trkpt>
      <trkpt lat="41.7998020" lon="2.0468010">
        <ele>604.3300000</ele>
        <time>2010-09-26T08:04:55Z</time>
      </trkpt>
      <trkpt lat="41.7996330" lon="2.0466100">
        <ele>604.6780000</ele>
        <time>2010-09-26T08:05:01Z</time>
      </trkpt>
      <trkpt lat="41.7994880" lon="2.0465440">
        <ele>605.9990000</ele>
        <time>2010-09-26T08:05:06Z</time>
      </trkpt>
      <trkpt lat="41.7992640" lon="2.0464710">
        <ele>609.2930000</ele>
        <time>2010-09-26T08:05:15Z</time>
      </trkpt>
      <trkpt lat="41.7990800" lon="2.0463660">
        <ele>611.3800000</ele>
        <time>2010-09-26T08:05:23Z</time>
      </trkpt>
      <trkpt lat="41.7989140" lon="2.0462380">
        <ele>612.0860000</ele>
        <time>2010-09-26T08:05:30Z</time>
      </trkpt>
      <trkpt lat="41.7987520" lon="2.0461900">
        <ele>612.7930000</ele>
        <time>2010-09-26T08:05:36Z</time>
      </trkpt>
      <trkpt lat="41.7985430" lon="2.0461480">
        <ele>614.6160000</ele>
        <time>2010-09-26T08:05:45Z</time>
      </trkpt>
      <trkpt lat="41.7983860" lon="2.0461600">
        <ele>615.6470000</ele>
        <time>2010-09-26T08:05:51Z</time>
      </trkpt>
      <trkpt lat="41.7982070" lon="2.0462050">
        <ele>617.0930000</ele>
        <time>2010-09-26T08:05:58Z</time>
      </trkpt>
      <trkpt lat="41.7981240" lon="2.0462430">
        <ele>618.4800000</ele>
        <time>2010-09-26T08:06:02Z</time>
      </trkpt>
      <trkpt lat="41.7981190" lon="2.0463180">
        <ele>619.8150000</ele>
        <time>2010-09-26T08:06:06Z</time>
      </trkpt>
      <trkpt lat="41.7982910" lon="2.0463870">
        <ele>621.8870000</ele>
        <time>2010-09-26T08:06:16Z</time>
      </trkpt>
      <trkpt lat="41.7984570" lon="2.0464980">
        <ele>623.7820000</ele>
        <time>2010-09-26T08:06:25Z</time>
      </trkpt>
      <trkpt lat="41.7986540" lon="2.0466270">
        <ele>623.7590000</ele>
        <time>2010-09-26T08:06:33Z</time>
      </trkpt>
      <trkpt lat="41.7987550" lon="2.0467690">
        <ele>624.2660000</ele>
        <time>2010-09-26T08:06:39Z</time>
      </trkpt>
      <trkpt lat="41.7988310" lon="2.0469400">
        <ele>626.8720000</ele>
        <time>2010-09-26T08:06:47Z</time>
      </trkpt>
      <trkpt lat="41.7989090" lon="2.0471480">
        <ele>629.5570000</ele>
        <time>2010-09-26T08:06:57Z</time>
      </trkpt>
      <trkpt lat="41.7989930" lon="2.0473400">
        <ele>631.1150000</ele>
        <time>2010-09-26T08:07:06Z</time>
      </trkpt>
      <trkpt lat="41.7990780" lon="2.0475440">
        <ele>632.0030000</ele>
        <time>2010-09-26T08:07:15Z</time>
      </trkpt>
      <trkpt lat="41.7991320" lon="2.0477350">
        <ele>633.6870000</ele>
        <time>2010-09-26T08:07:24Z</time>
      </trkpt>
      <trkpt lat="41.7992030" lon="2.0479260">
        <ele>635.6960000</ele>
        <time>2010-09-26T08:07:33Z</time>
      </trkpt>
      <trkpt lat="41.7992760" lon="2.0480890">
        <ele>637.3660000</ele>
        <time>2010-09-26T08:07:42Z</time>
      </trkpt>
      <trkpt lat="41.7993360" lon="2.0482430">
        <ele>638.9060000</ele>
        <time>2010-09-26T08:07:50Z</time>
      </trkpt>
      <trkpt lat="41.7994060" lon="2.0483920">
        <ele>640.8860000</ele>
        <time>2010-09-26T08:07:59Z</time>
      </trkpt>
      <trkpt lat="41.7994180" lon="2.0484280">
        <ele>641.3460000</ele>
        <time>2010-09-26T08:08:01Z</time>
      </trkpt>
      <trkpt lat="41.7993700" lon="2.0484420">
        <ele>643.0030000</ele>
        <time>2010-09-26T08:08:06Z</time>
      </trkpt>
      <trkpt lat="41.7992060" lon="2.0482320">
        <ele>642.6070000</ele>
        <time>2010-09-26T08:08:13Z</time>
      </trkpt>
      <trkpt lat="41.7990250" lon="2.0480010">
        <ele>641.9350000</ele>
        <time>2010-09-26T08:08:19Z</time>
      </trkpt>
      <trkpt lat="41.7988330" lon="2.0478100">
        <ele>642.8780000</ele>
        <time>2010-09-26T08:08:26Z</time>
      </trkpt>
      <trkpt lat="41.7986370" lon="2.0475940">
        <ele>643.9750000</ele>
        <time>2010-09-26T08:08:34Z</time>
      </trkpt>
      <trkpt lat="41.7984560" lon="2.0474560">
        <ele>645.1910000</ele>
        <time>2010-09-26T08:08:41Z</time>
      </trkpt>
      <trkpt lat="41.7983160" lon="2.0473510">
        <ele>646.3320000</ele>
        <time>2010-09-26T08:08:47Z</time>
      </trkpt>
      <trkpt lat="41.7981260" lon="2.0472290">
        <ele>646.6770000</ele>
        <time>2010-09-26T08:08:54Z</time>
      </trkpt>
      <trkpt lat="41.7979530" lon="2.0472550">
        <ele>647.0390000</ele>
        <time>2010-09-26T08:09:00Z</time>
      </trkpt>
      <trkpt lat="41.7978930" lon="2.0473790">
        <ele>648.1210000</ele>
        <time>2010-09-26T08:09:06Z</time>
      </trkpt>
      <trkpt lat="41.7979120" lon="2.0475190">
        <ele>649.9710000</ele>
        <time>2010-09-26T08:09:12Z</time>
      </trkpt>
      <trkpt lat="41.7979720" lon="2.0476460">
        <ele>651.3060000</ele>
        <time>2010-09-26T08:09:18Z</time>
      </trkpt>
      <trkpt lat="41.7980840" lon="2.0478550">
        <ele>654.3470000</ele>
        <time>2010-09-26T08:09:29Z</time>
      </trkpt>
      <trkpt lat="41.7981710" lon="2.0480070">
        <ele>656.2950000</ele>
        <time>2010-09-26T08:09:37Z</time>
      </trkpt>
      <trkpt lat="41.7982550" lon="2.0481480">
        <ele>657.9450000</ele>
        <time>2010-09-26T08:09:45Z</time>
      </trkpt>
      <trkpt lat="41.7983250" lon="2.0483140">
        <ele>660.7840000</ele>
        <time>2010-09-26T08:09:54Z</time>
      </trkpt>
      <trkpt lat="41.7983590" lon="2.0485220">
        <ele>662.1850000</ele>
        <time>2010-09-26T08:10:03Z</time>
      </trkpt>
      <trkpt lat="41.7984180" lon="2.0487480">
        <ele>662.4340000</ele>
        <time>2010-09-26T08:10:11Z</time>
      </trkpt>
      <trkpt lat="41.7985260" lon="2.0490130">
        <ele>663.4310000</ele>
        <time>2010-09-26T08:10:21Z</time>
      </trkpt>
      <trkpt lat="41.7986440" lon="2.0492320">
        <ele>664.4280000</ele>
        <time>2010-09-26T08:10:30Z</time>
      </trkpt>
      <trkpt lat="41.7987420" lon="2.0494210">
        <ele>665.8710000</ele>
        <time>2010-09-26T08:10:38Z</time>
      </trkpt>
      <trkpt lat="41.7988140" lon="2.0496490">
        <ele>668.1890000</ele>
        <time>2010-09-26T08:10:47Z</time>
      </trkpt>
      <trkpt lat="41.7988940" lon="2.0498630">
        <ele>670.8140000</ele>
        <time>2010-09-26T08:10:56Z</time>
      </trkpt>
      <trkpt lat="41.7989300" lon="2.0500120">
        <ele>673.0070000</ele>
        <time>2010-09-26T08:11:03Z</time>
      </trkpt>
      <trkpt lat="41.7989010" lon="2.0501880">
        <ele>673.8130000</ele>
        <time>2010-09-26T08:11:10Z</time>
      </trkpt>
      <trkpt lat="41.7988660" lon="2.0504350">
        <ele>675.5460000</ele>
        <time>2010-09-26T08:11:20Z</time>
      </trkpt>
      <trkpt lat="41.7988130" lon="2.0506520">
        <ele>677.4650000</ele>
        <time>2010-09-26T08:11:29Z</time>
      </trkpt>
      <trkpt lat="41.7987480" lon="2.0508220">
        <ele>678.5630000</ele>
        <time>2010-09-26T08:11:36Z</time>
      </trkpt>
      <trkpt lat="41.7986480" lon="2.0510110">
        <ele>679.2010000</ele>
        <time>2010-09-26T08:11:43Z</time>
      </trkpt>
      <trkpt lat="41.7986060" lon="2.0511950">
        <ele>680.6170000</ele>
        <time>2010-09-26T08:11:50Z</time>
      </trkpt>
      <trkpt lat="41.7985390" lon="2.0513490">
        <ele>682.0230000</ele>
        <time>2010-09-26T08:11:56Z</time>
      </trkpt>
      <trkpt lat="41.7984950" lon="2.0515610">
        <ele>682.5880000</ele>
        <time>2010-09-26T08:12:03Z</time>
      </trkpt>
      <trkpt lat="41.7985010" lon="2.0518200">
        <ele>684.1360000</ele>
        <time>2010-09-26T08:12:12Z</time>
      </trkpt>
      <trkpt lat="41.7985270" lon="2.0520080">
        <ele>685.2500000</ele>
        <time>2010-09-26T08:12:19Z</time>
      </trkpt>
      <trkpt lat="41.7985570" lon="2.0520960">
        <ele>685.9560000</ele>
        <time>2010-09-26T08:12:23Z</time>
      </trkpt>
      <trkpt lat="41.7985630" lon="2.0522770">
        <ele>686.6960000</ele>
        <time>2010-09-26T08:12:29Z</time>
      </trkpt>
      <trkpt lat="41.7986160" lon="2.0525930">
        <ele>686.6950000</ele>
        <time>2010-09-26T08:12:37Z</time>
      </trkpt>
      <trkpt lat="41.7986940" lon="2.0529250">
        <ele>686.9490000</ele>
        <time>2010-09-26T08:12:45Z</time>
      </trkpt>
      <trkpt lat="41.7987800" lon="2.0531200">
        <ele>687.4750000</ele>
        <time>2010-09-26T08:12:51Z</time>
      </trkpt>
      <trkpt lat="41.7987810" lon="2.0532980">
        <ele>687.8170000</ele>
        <time>2010-09-26T08:12:55Z</time>
      </trkpt>
      <trkpt lat="41.7988250" lon="2.0536240">
        <ele>687.4290000</ele>
        <time>2010-09-26T08:13:01Z</time>
      </trkpt>
      <trkpt lat="41.7988940" lon="2.0540150">
        <ele>687.8160000</ele>
        <time>2010-09-26T08:13:09Z</time>
      </trkpt>
      <trkpt lat="41.7989680" lon="2.0544540">
        <ele>688.6820000</ele>
        <time>2010-09-26T08:13:19Z</time>
      </trkpt>
      <trkpt lat="41.7989560" lon="2.0548120">
        <ele>689.8480000</ele>
        <time>2010-09-26T08:13:27Z</time>
      </trkpt>
      <trkpt lat="41.7988730" lon="2.0551450">
        <ele>690.3920000</ele>
        <time>2010-09-26T08:13:35Z</time>
      </trkpt>
      <trkpt lat="41.7988960" lon="2.0553810">
        <ele>691.2370000</ele>
        <time>2010-09-26T08:13:41Z</time>
      </trkpt>
      <trkpt lat="41.7989890" lon="2.0556300">
        <ele>692.5190000</ele>
        <time>2010-09-26T08:13:48Z</time>
      </trkpt>
      <trkpt lat="41.7991260" lon="2.0559380">
        <ele>694.0250000</ele>
        <time>2010-09-26T08:13:57Z</time>
      </trkpt>
      <trkpt lat="41.7993100" lon="2.0563060">
        <ele>695.4670000</ele>
        <time>2010-09-26T08:14:08Z</time>
      </trkpt>
      <trkpt lat="41.7993910" lon="2.0566160">
        <ele>695.5210000</ele>
        <time>2010-09-26T08:14:15Z</time>
      </trkpt>
      <trkpt lat="41.7994370" lon="2.0568160">
        <ele>695.1170000</ele>
        <time>2010-09-26T08:14:18Z</time>
      </trkpt>
      <trkpt lat="41.7996490" lon="2.0571070">
        <ele>693.0440000</ele>
        <time>2010-09-26T08:14:23Z</time>
      </trkpt>
      <trkpt lat="41.8000050" lon="2.0574150">
        <ele>692.1700000</ele>
        <time>2010-09-26T08:14:30Z</time>
      </trkpt>
      <trkpt lat="41.8002880" lon="2.0577610">
        <ele>691.2250000</ele>
        <time>2010-09-26T08:14:37Z</time>
      </trkpt>
      <trkpt lat="41.8004510" lon="2.0580260">
        <ele>690.2310000</ele>
        <time>2010-09-26T08:14:42Z</time>
      </trkpt>
      <trkpt lat="41.8005480" lon="2.0583600">
        <ele>690.6380000</ele>
        <time>2010-09-26T08:14:48Z</time>
      </trkpt>
      <trkpt lat="41.8004920" lon="2.0585420">
        <ele>691.3780000</ele>
        <time>2010-09-26T08:14:52Z</time>
      </trkpt>
      <trkpt lat="41.8003230" lon="2.0587230">
        <ele>692.2490000</ele>
        <time>2010-09-26T08:14:58Z</time>
      </trkpt>
      <trkpt lat="41.8002510" lon="2.0588150">
        <ele>692.4960000</ele>
        <time>2010-09-26T08:15:01Z</time>
      </trkpt>
      <trkpt lat="41.7999880" lon="2.0589110">
        <ele>691.2850000</ele>
        <time>2010-09-26T08:15:06Z</time>
      </trkpt>
      <trkpt lat="41.7997980" lon="2.0591380">
        <ele>689.5620000</ele>
        <time>2010-09-26T08:15:10Z</time>
      </trkpt>
      <trkpt lat="41.7997730" lon="2.0594160">
        <ele>687.1850000</ele>
        <time>2010-09-26T08:15:13Z</time>
      </trkpt>
      <trkpt lat="41.7997820" lon="2.0595120">
        <ele>685.8820000</ele>
        <time>2010-09-26T08:15:14Z</time>
      </trkpt>
      <trkpt lat="41.7998090" lon="2.0596850">
        <ele>684.0940000</ele>
        <time>2010-09-26T08:15:16Z</time>
      </trkpt>
      <trkpt lat="41.7997350" lon="2.0599340">
        <ele>680.0270000</ele>
        <time>2010-09-26T08:15:20Z</time>
      </trkpt>
      <trkpt lat="41.7996690" lon="2.0599750">
        <ele>678.9340000</ele>
        <time>2010-09-26T08:15:21Z</time>
      </trkpt>
      <trkpt lat="41.7991820" lon="2.0601940">
        <ele>674.0330000</ele>
        <time>2010-09-26T08:15:27Z</time>
      </trkpt>
      <trkpt lat="41.7989650" lon="2.0602650">
        <ele>672.3600000</ele>
        <time>2010-09-26T08:15:30Z</time>
      </trkpt>
      <trkpt lat="41.7988120" lon="2.0604300">
        <ele>668.8650000</ele>
        <time>2010-09-26T08:15:34Z</time>
      </trkpt>
      <trkpt lat="41.7988820" lon="2.0606200">
        <ele>667.0780000</ele>
        <time>2010-09-26T08:15:37Z</time>
      </trkpt>
      <trkpt lat="41.7989810" lon="2.0608680">
        <ele>665.4930000</ele>
        <time>2010-09-26T08:15:41Z</time>
      </trkpt>
      <trkpt lat="41.7989380" lon="2.0609800">
        <ele>663.8880000</ele>
        <time>2010-09-26T08:15:43Z</time>
      </trkpt>
      <trkpt lat="41.7988960" lon="2.0610190">
        <ele>663.2570000</ele>
        <time>2010-09-26T08:15:44Z</time>
      </trkpt>
      <trkpt lat="41.7987380" lon="2.0612280">
        <ele>661.6360000</ele>
        <time>2010-09-26T08:15:48Z</time>
      </trkpt>
      <trkpt lat="41.7985540" lon="2.0614810">
        <ele>661.3330000</ele>
        <time>2010-09-26T08:15:54Z</time>
      </trkpt>
      <trkpt lat="41.7984480" lon="2.0617220">
        <ele>662.8570000</ele>
        <time>2010-09-26T08:16:01Z</time>
      </trkpt>
      <trkpt lat="41.7983570" lon="2.0619650">
        <ele>663.9640000</ele>
        <time>2010-09-26T08:16:09Z</time>
      </trkpt>
      <trkpt lat="41.7983180" lon="2.0621710">
        <ele>666.5990000</ele>
        <time>2010-09-26T08:16:17Z</time>
      </trkpt>
      <trkpt lat="41.7982980" lon="2.0623730">
        <ele>668.5680000</ele>
        <time>2010-09-26T08:16:25Z</time>
      </trkpt>
      <trkpt lat="41.7982660" lon="2.0625230">
        <ele>670.3120000</ele>
        <time>2010-09-26T08:16:32Z</time>
      </trkpt>
      <trkpt lat="41.7981560" lon="2.0627020">
        <ele>672.3590000</ele>
        <time>2010-09-26T08:16:41Z</time>
      </trkpt>
      <trkpt lat="41.7980410" lon="2.0628170">
        <ele>674.0860000</ele>
        <time>2010-09-26T08:16:49Z</time>
      </trkpt>
      <trkpt lat="41.7979040" lon="2.0628940">
        <ele>676.3460000</ele>
        <time>2010-09-26T08:16:58Z</time>
      </trkpt>
      <trkpt lat="41.7978080" lon="2.0629570">
        <ele>677.9520000</ele>
        <time>2010-09-26T08:17:05Z</time>
      </trkpt>
      <trkpt lat="41.7976280" lon="2.0630240">
        <ele>680.9100000</ele>
        <time>2010-09-26T08:17:17Z</time>
      </trkpt>
      <trkpt lat="41.7975000" lon="2.0630340">
        <ele>682.4250000</ele>
        <time>2010-09-26T08:17:25Z</time>
      </trkpt>
      <trkpt lat="41.7973940" lon="2.0630280">
        <ele>682.8030000</ele>
        <time>2010-09-26T08:17:32Z</time>
      </trkpt>
      <trkpt lat="41.7972850" lon="2.0630400">
        <ele>684.5980000</ele>
        <time>2010-09-26T08:17:39Z</time>
      </trkpt>
      <trkpt lat="41.7971430" lon="2.0630970">
        <ele>686.7910000</ele>
        <time>2010-09-26T08:17:49Z</time>
      </trkpt>
      <trkpt lat="41.7970230" lon="2.0631590">
        <ele>688.1910000</ele>
        <time>2010-09-26T08:17:57Z</time>
      </trkpt>
      <trkpt lat="41.7969070" lon="2.0632060">
        <ele>689.2210000</ele>
        <time>2010-09-26T08:18:05Z</time>
      </trkpt>
      <trkpt lat="41.7967700" lon="2.0632450">
        <ele>691.4720000</ele>
        <time>2010-09-26T08:18:14Z</time>
      </trkpt>
      <trkpt lat="41.7966150" lon="2.0632550">
        <ele>693.5760000</ele>
        <time>2010-09-26T08:18:23Z</time>
      </trkpt>
      <trkpt lat="41.7964690" lon="2.0632620">
        <ele>694.3660000</ele>
        <time>2010-09-26T08:18:31Z</time>
      </trkpt>
      <trkpt lat="41.7962870" lon="2.0633030">
        <ele>696.1250000</ele>
        <time>2010-09-26T08:18:41Z</time>
      </trkpt>
      <trkpt lat="41.7961590" lon="2.0633380">
        <ele>698.1490000</ele>
        <time>2010-09-26T08:18:48Z</time>
      </trkpt>
      <trkpt lat="41.7959820" lon="2.0634110">
        <ele>698.8220000</ele>
        <time>2010-09-26T08:18:57Z</time>
      </trkpt>
      <trkpt lat="41.7958320" lon="2.0634500">
        <ele>698.6510000</ele>
        <time>2010-09-26T08:19:02Z</time>
      </trkpt>
      <trkpt lat="41.7957370" lon="2.0636180">
        <ele>697.9060000</ele>
        <time>2010-09-26T08:19:06Z</time>
      </trkpt>
      <trkpt lat="41.7957020" lon="2.0639440">
        <ele>697.8050000</ele>
        <time>2010-09-26T08:19:14Z</time>
      </trkpt>
      <trkpt lat="41.7956920" lon="2.0642110">
        <ele>698.5740000</ele>
        <time>2010-09-26T08:19:22Z</time>
      </trkpt>
      <trkpt lat="41.7956890" lon="2.0645460">
        <ele>701.0130000</ele>
        <time>2010-09-26T08:19:32Z</time>
      </trkpt>
      <trkpt lat="41.7956920" lon="2.0648000">
        <ele>703.5110000</ele>
        <time>2010-09-26T08:19:40Z</time>
      </trkpt>
      <trkpt lat="41.7957320" lon="2.0650930">
        <ele>704.5640000</ele>
        <time>2010-09-26T08:19:49Z</time>
      </trkpt>
      <trkpt lat="41.7958060" lon="2.0654060">
        <ele>705.8940000</ele>
        <time>2010-09-26T08:19:58Z</time>
      </trkpt>
      <trkpt lat="41.7958270" lon="2.0657670">
        <ele>707.5600000</ele>
        <time>2010-09-26T08:20:08Z</time>
      </trkpt>
      <trkpt lat="41.7957840" lon="2.0660740">
        <ele>708.9490000</ele>
        <time>2010-09-26T08:20:17Z</time>
      </trkpt>
      <trkpt lat="41.7957500" lon="2.0664340">
        <ele>710.2190000</ele>
        <time>2010-09-26T08:20:28Z</time>
      </trkpt>
      <trkpt lat="41.7957920" lon="2.0666380">
        <ele>710.6730000</ele>
        <time>2010-09-26T08:20:34Z</time>
      </trkpt>
      <trkpt lat="41.7959120" lon="2.0668170">
        <ele>711.9060000</ele>
        <time>2010-09-26T08:20:41Z</time>
      </trkpt>
      <trkpt lat="41.7960960" lon="2.0669780">
        <ele>713.9070000</ele>
        <time>2010-09-26T08:20:51Z</time>
      </trkpt>
      <trkpt lat="41.7961950" lon="2.0671110">
        <ele>715.4810000</ele>
        <time>2010-09-26T08:20:58Z</time>
      </trkpt>
      <trkpt lat="41.7963080" lon="2.0673120">
        <ele>717.6210000</ele>
        <time>2010-09-26T08:21:07Z</time>
      </trkpt>
      <trkpt lat="41.7964100" lon="2.0674890">
        <ele>719.6100000</ele>
        <time>2010-09-26T08:21:15Z</time>
      </trkpt>
      <trkpt lat="41.7965380" lon="2.0676940">
        <ele>720.3240000</ele>
        <time>2010-09-26T08:21:23Z</time>
      </trkpt>
      <trkpt lat="41.7966540" lon="2.0678980">
        <ele>720.9300000</ele>
        <time>2010-09-26T08:21:30Z</time>
      </trkpt>
      <trkpt lat="41.7967470" lon="2.0680790">
        <ele>720.8650000</ele>
        <time>2010-09-26T08:21:36Z</time>
      </trkpt>
      <trkpt lat="41.7968430" lon="2.0683770">
        <ele>722.1600000</ele>
        <time>2010-09-26T08:21:44Z</time>
      </trkpt>
      <trkpt lat="41.7969300" lon="2.0687540">
        <ele>722.7370000</ele>
        <time>2010-09-26T08:21:53Z</time>
      </trkpt>
      <trkpt lat="41.7970330" lon="2.0692120">
        <ele>723.2010000</ele>
        <time>2010-09-26T08:22:03Z</time>
      </trkpt>
      <trkpt lat="41.7970130" lon="2.0694760">
        <ele>723.1250000</ele>
        <time>2010-09-26T08:22:09Z</time>
      </trkpt>
      <trkpt lat="41.7969860" lon="2.0697870">
        <ele>725.4860000</ele>
        <time>2010-09-26T08:22:17Z</time>
      </trkpt>
      <trkpt lat="41.7970160" lon="2.0700660">
        <ele>726.8550000</ele>
        <time>2010-09-26T08:22:24Z</time>
      </trkpt>
      <trkpt lat="41.7971290" lon="2.0704210">
        <ele>727.4150000</ele>
        <time>2010-09-26T08:22:32Z</time>
      </trkpt>
      <trkpt lat="41.7972450" lon="2.0706610">
        <ele>727.8790000</ele>
        <time>2010-09-26T08:22:38Z</time>
      </trkpt>
      <trkpt lat="41.7974590" lon="2.0709480">
        <ele>728.0610000</ele>
        <time>2010-09-26T08:22:46Z</time>
      </trkpt>
      <trkpt lat="41.7975020" lon="2.0710310">
        <ele>728.0920000</ele>
        <time>2010-09-26T08:22:48Z</time>
      </trkpt>
      <trkpt lat="41.7975240" lon="2.0712090">
        <ele>727.3750000</ele>
        <time>2010-09-26T08:22:51Z</time>
      </trkpt>
      <trkpt lat="41.7976040" lon="2.0716030">
        <ele>724.5530000</ele>
        <time>2010-09-26T08:22:56Z</time>
      </trkpt>
      <trkpt lat="41.7975680" lon="2.0718110">
        <ele>722.8770000</ele>
        <time>2010-09-26T08:22:58Z</time>
      </trkpt>
      <trkpt lat="41.7975080" lon="2.0720380">
        <ele>721.0290000</ele>
        <time>2010-09-26T08:23:00Z</time>
      </trkpt>
      <trkpt lat="41.7973510" lon="2.0722610">
        <ele>718.4340000</ele>
        <time>2010-09-26T08:23:03Z</time>
      </trkpt>
      <trkpt lat="41.7972910" lon="2.0723110">
        <ele>718.4350000</ele>
        <time>2010-09-26T08:23:04Z</time>
      </trkpt>
      <trkpt lat="41.7972300" lon="2.0724270">
        <ele>716.2870000</ele>
        <time>2010-09-26T08:23:06Z</time>
      </trkpt>
      <trkpt lat="41.7972930" lon="2.0726170">
        <ele>714.0760000</ele>
        <time>2010-09-26T08:23:09Z</time>
      </trkpt>
      <trkpt lat="41.7973720" lon="2.0727210">
        <ele>713.4460000</ele>
        <time>2010-09-26T08:23:11Z</time>
      </trkpt>
      <trkpt lat="41.7975690" lon="2.0729480">
        <ele>712.8580000</ele>
        <time>2010-09-26T08:23:16Z</time>
      </trkpt>
      <trkpt lat="41.7977550" lon="2.0732740">
        <ele>712.0970000</ele>
        <time>2010-09-26T08:23:21Z</time>
      </trkpt>
      <trkpt lat="41.7978530" lon="2.0734090">
        <ele>711.1710000</ele>
        <time>2010-09-26T08:23:23Z</time>
      </trkpt>
      <trkpt lat="41.7980520" lon="2.0738010">
        <ele>709.5950000</ele>
        <time>2010-09-26T08:23:28Z</time>
      </trkpt>
      <trkpt lat="41.7980990" lon="2.0738730">
        <ele>709.5940000</ele>
        <time>2010-09-26T08:23:29Z</time>
      </trkpt>
      <trkpt lat="41.7982780" lon="2.0741560">
        <ele>708.7440000</ele>
        <time>2010-09-26T08:23:33Z</time>
      </trkpt>
      <trkpt lat="41.7983180" lon="2.0744800">
        <ele>707.9280000</ele>
        <time>2010-09-26T08:23:37Z</time>
      </trkpt>
      <trkpt lat="41.7982350" lon="2.0745650">
        <ele>707.9410000</ele>
        <time>2010-09-26T08:23:39Z</time>
      </trkpt>
      <trkpt lat="41.7981510" lon="2.0746690">
        <ele>708.5050000</ele>
        <time>2010-09-26T08:23:43Z</time>
      </trkpt>
      <trkpt lat="41.7981400" lon="2.0746970">
        <ele>708.7980000</ele>
        <time>2010-09-26T08:23:44Z</time>
      </trkpt>
      <trkpt lat="41.7980120" lon="2.0749220">
        <ele>712.1920000</ele>
        <time>2010-09-26T08:23:53Z</time>
      </trkpt>
      <trkpt lat="41.7978940" lon="2.0749690">
        <ele>713.0620000</ele>
        <time>2010-09-26T08:23:58Z</time>
      </trkpt>
      <trkpt lat="41.7977810" lon="2.0748520">
        <ele>714.0080000</ele>
        <time>2010-09-26T08:24:03Z</time>
      </trkpt>
      <trkpt lat="41.7977250" lon="2.0746280">
        <ele>714.0760000</ele>
        <time>2010-09-26T08:24:08Z</time>
      </trkpt>
      <trkpt lat="41.7976890" lon="2.0743930">
        <ele>713.3720000</ele>
        <time>2010-09-26T08:24:12Z</time>
      </trkpt>
      <trkpt lat="41.7976240" lon="2.0741810">
        <ele>712.4220000</ele>
        <time>2010-09-26T08:24:15Z</time>
      </trkpt>
      <trkpt lat="41.7974310" lon="2.0738770">
        <ele>710.4340000</ele>
        <time>2010-09-26T08:24:19Z</time>
      </trkpt>
      <trkpt lat="41.7972480" lon="2.0736450">
        <ele>708.0980000</ele>
        <time>2010-09-26T08:24:22Z</time>
      </trkpt>
      <trkpt lat="41.7968710" lon="2.0732910">
        <ele>703.0470000</ele>
        <time>2010-09-26T08:24:27Z</time>
      </trkpt>
      <trkpt lat="41.7967110" lon="2.0731240">
        <ele>701.3970000</ele>
        <time>2010-09-26T08:24:29Z</time>
      </trkpt>
      <trkpt lat="41.7963640" lon="2.0729090">
        <ele>698.5810000</ele>
        <time>2010-09-26T08:24:33Z</time>
      </trkpt>
      <trkpt lat="41.7961510" lon="2.0726150">
        <ele>697.1020000</ele>
        <time>2010-09-26T08:24:38Z</time>
      </trkpt>
      <trkpt lat="41.7960550" lon="2.0723640">
        <ele>696.5480000</ele>
        <time>2010-09-26T08:24:42Z</time>
      </trkpt>
      <trkpt lat="41.7960000" lon="2.0723330">
        <ele>696.1560000</ele>
        <time>2010-09-26T08:24:43Z</time>
      </trkpt>
      <trkpt lat="41.7956930" lon="2.0722100">
        <ele>695.6890000</ele>
        <time>2010-09-26T08:24:49Z</time>
      </trkpt>
      <trkpt lat="41.7954570" lon="2.0720420">
        <ele>696.6000000</ele>
        <time>2010-09-26T08:24:55Z</time>
      </trkpt>
      <trkpt lat="41.7952350" lon="2.0718630">
        <ele>697.2880000</ele>
        <time>2010-09-26T08:25:01Z</time>
      </trkpt>
      <trkpt lat="41.7950450" lon="2.0716250">
        <ele>697.5730000</ele>
        <time>2010-09-26T08:25:07Z</time>
      </trkpt>
      <trkpt lat="41.7949990" lon="2.0715330">
        <ele>697.5340000</ele>
        <time>2010-09-26T08:25:09Z</time>
      </trkpt>
      <trkpt lat="41.7949460" lon="2.0714210">
        <ele>697.7960000</ele>
        <time>2010-09-26T08:25:11Z</time>
      </trkpt>
      <trkpt lat="41.7948260" lon="2.0711500">
        <ele>697.0020000</ele>
        <time>2010-09-26T08:25:15Z</time>
      </trkpt>
      <trkpt lat="41.7947480" lon="2.0710230">
        <ele>696.3570000</ele>
        <time>2010-09-26T08:25:17Z</time>
      </trkpt>
      <trkpt lat="41.7946580" lon="2.0708540">
        <ele>695.9680000</ele>
        <time>2010-09-26T08:25:20Z</time>
      </trkpt>
      <trkpt lat="41.7945600" lon="2.0706990">
        <ele>696.8540000</ele>
        <time>2010-09-26T08:25:24Z</time>
      </trkpt>
      <trkpt lat="41.7945110" lon="2.0706030">
        <ele>696.9450000</ele>
        <time>2010-09-26T08:25:26Z</time>
      </trkpt>
      <trkpt lat="41.7943120" lon="2.0704990">
        <ele>697.2460000</ele>
        <time>2010-09-26T08:25:31Z</time>
      </trkpt>
      <trkpt lat="41.7940360" lon="2.0705670">
        <ele>698.1690000</ele>
        <time>2010-09-26T08:25:39Z</time>
      </trkpt>
      <trkpt lat="41.7939170" lon="2.0706730">
        <ele>699.3670000</ele>
        <time>2010-09-26T08:25:44Z</time>
      </trkpt>
      <trkpt lat="41.7937940" lon="2.0708210">
        <ele>700.5820000</ele>
        <time>2010-09-26T08:25:51Z</time>
      </trkpt>
      <trkpt lat="41.7936960" lon="2.0710250">
        <ele>701.8690000</ele>
        <time>2010-09-26T08:25:59Z</time>
      </trkpt>
      <trkpt lat="41.7936360" lon="2.0711320">
        <ele>701.7200000</ele>
        <time>2010-09-26T08:26:02Z</time>
      </trkpt>
      <trkpt lat="41.7934920" lon="2.0714870">
        <ele>700.9070000</ele>
        <time>2010-09-26T08:26:10Z</time>
      </trkpt>
      <trkpt lat="41.7934280" lon="2.0717250">
        <ele>702.3440000</ele>
        <time>2010-09-26T08:26:17Z</time>
      </trkpt>
      <trkpt lat="41.7933990" lon="2.0719520">
        <ele>703.0320000</ele>
        <time>2010-09-26T08:26:23Z</time>
      </trkpt>
      <trkpt lat="41.7933650" lon="2.0720470">
        <ele>703.3240000</ele>
        <time>2010-09-26T08:26:26Z</time>
      </trkpt>
      <trkpt lat="41.7932650" lon="2.0720250">
        <ele>703.7900000</ele>
        <time>2010-09-26T08:26:31Z</time>
      </trkpt>
      <trkpt lat="41.7932040" lon="2.0718950">
        <ele>703.5610000</ele>
        <time>2010-09-26T08:26:35Z</time>
      </trkpt>
      <trkpt lat="41.7930130" lon="2.0716820">
        <ele>704.0020000</ele>
        <time>2010-09-26T08:26:43Z</time>
      </trkpt>
      <trkpt lat="41.7929890" lon="2.0716460">
        <ele>704.0220000</ele>
        <time>2010-09-26T08:26:44Z</time>
      </trkpt>
      <trkpt lat="41.7930190" lon="2.0714410">
        <ele>703.3300000</ele>
        <time>2010-09-26T08:26:48Z</time>
      </trkpt>
      <trkpt lat="41.7930430" lon="2.0713940">
        <ele>703.1160000</ele>
        <time>2010-09-26T08:26:49Z</time>
      </trkpt>
      <trkpt lat="41.7931060" lon="2.0711070">
        <ele>703.5640000</ele>
        <time>2010-09-26T08:26:55Z</time>
      </trkpt>
      <trkpt lat="41.7930950" lon="2.0708190">
        <ele>704.4220000</ele>
        <time>2010-09-26T08:27:02Z</time>
      </trkpt>
      <trkpt lat="41.7930980" lon="2.0705070">
        <ele>704.7720000</ele>
        <time>2010-09-26T08:27:08Z</time>
      </trkpt>
      <trkpt lat="41.7932170" lon="2.0701890">
        <ele>703.9080000</ele>
        <time>2010-09-26T08:27:13Z</time>
      </trkpt>
      <trkpt lat="41.7933640" lon="2.0698360">
        <ele>702.5630000</ele>
        <time>2010-09-26T08:27:18Z</time>
      </trkpt>
      <trkpt lat="41.7935520" lon="2.0694550">
        <ele>701.3270000</ele>
        <time>2010-09-26T08:27:23Z</time>
      </trkpt>
      <trkpt lat="41.7937470" lon="2.0690500">
        <ele>698.4540000</ele>
        <time>2010-09-26T08:27:28Z</time>
      </trkpt>
      <trkpt lat="41.7937950" lon="2.0687450">
        <ele>694.8400000</ele>
        <time>2010-09-26T08:27:33Z</time>
      </trkpt>
      <trkpt lat="41.7937420" lon="2.0686390">
        <ele>693.6890000</ele>
        <time>2010-09-26T08:27:35Z</time>
      </trkpt>
      <trkpt lat="41.7935630" lon="2.0683820">
        <ele>691.1090000</ele>
        <time>2010-09-26T08:27:39Z</time>
      </trkpt>
      <trkpt lat="41.7931970" lon="2.0681710">
        <ele>689.1810000</ele>
        <time>2010-09-26T08:27:45Z</time>
      </trkpt>
      <trkpt lat="41.7930600" lon="2.0679430">
        <ele>687.9050000</ele>
        <time>2010-09-26T08:27:49Z</time>
      </trkpt>
      <trkpt lat="41.7929410" lon="2.0675480">
        <ele>686.9480000</ele>
        <time>2010-09-26T08:27:55Z</time>
      </trkpt>
      <trkpt lat="41.7928500" lon="2.0673980">
        <ele>687.0990000</ele>
        <time>2010-09-26T08:27:58Z</time>
      </trkpt>
      <trkpt lat="41.7925980" lon="2.0671210">
        <ele>687.9580000</ele>
        <time>2010-09-26T08:28:05Z</time>
      </trkpt>
      <trkpt lat="41.7924960" lon="2.0669410">
        <ele>687.4970000</ele>
        <time>2010-09-26T08:28:08Z</time>
      </trkpt>
      <trkpt lat="41.7924620" lon="2.0667280">
        <ele>686.3610000</ele>
        <time>2010-09-26T08:28:12Z</time>
      </trkpt>
      <trkpt lat="41.7924990" lon="2.0666110">
        <ele>686.0750000</ele>
        <time>2010-09-26T08:28:15Z</time>
      </trkpt>
      <trkpt lat="41.7925320" lon="2.0665100">
        <ele>686.0100000</ele>
        <time>2010-09-26T08:28:17Z</time>
      </trkpt>
      <trkpt lat="41.7926160" lon="2.0661880">
        <ele>685.6520000</ele>
        <time>2010-09-26T08:28:22Z</time>
      </trkpt>
      <trkpt lat="41.7925620" lon="2.0658610">
        <ele>685.0240000</ele>
        <time>2010-09-26T08:28:27Z</time>
      </trkpt>
      <trkpt lat="41.7923630" lon="2.0657130">
        <ele>684.3990000</ele>
        <time>2010-09-26T08:28:31Z</time>
      </trkpt>
      <trkpt lat="41.7921750" lon="2.0657060">
        <ele>683.4430000</ele>
        <time>2010-09-26T08:28:34Z</time>
      </trkpt>
      <trkpt lat="41.7917760" lon="2.0656550">
        <ele>681.8510000</ele>
        <time>2010-09-26T08:28:41Z</time>
      </trkpt>
      <trkpt lat="41.7916510" lon="2.0656130">
        <ele>681.2600000</ele>
        <time>2010-09-26T08:28:43Z</time>
      </trkpt>
      <trkpt lat="41.7914290" lon="2.0654400">
        <ele>680.0380000</ele>
        <time>2010-09-26T08:28:47Z</time>
      </trkpt>
      <trkpt lat="41.7912980" lon="2.0654570">
        <ele>679.5690000</ele>
        <time>2010-09-26T08:28:51Z</time>
      </trkpt>
      <trkpt lat="41.7912810" lon="2.0654920">
        <ele>679.4770000</ele>
        <time>2010-09-26T08:28:52Z</time>
      </trkpt>
      <trkpt lat="41.7912010" lon="2.0657340">
        <ele>678.9680000</ele>
        <time>2010-09-26T08:28:57Z</time>
      </trkpt>
      <trkpt lat="41.7910790" lon="2.0659590">
        <ele>679.0560000</ele>
        <time>2010-09-26T08:29:01Z</time>
      </trkpt>
      <trkpt lat="41.7909240" lon="2.0663040">
        <ele>679.2610000</ele>
        <time>2010-09-26T08:29:08Z</time>
      </trkpt>
      <trkpt lat="41.7908330" lon="2.0664920">
        <ele>679.8160000</ele>
        <time>2010-09-26T08:29:14Z</time>
      </trkpt>
      <trkpt lat="41.7908280" lon="2.0665070">
        <ele>679.8820000</ele>
        <time>2010-09-26T08:29:16Z</time>
      </trkpt>
      <trkpt lat="41.7907920" lon="2.0665600">
        <ele>679.0990000</ele>
        <time>2010-09-26T08:29:23Z</time>
      </trkpt>
      <trkpt lat="41.7907780" lon="2.0665740">
        <ele>679.0580000</ele>
        <time>2010-09-26T08:29:27Z</time>
      </trkpt>
      <trkpt lat="41.7905970" lon="2.0664730">
        <ele>672.8500000</ele>
        <time>2010-09-26T08:31:22Z</time>
      </trkpt>
      <trkpt lat="41.7905910" lon="2.0664630">
        <ele>672.6580000</ele>
        <time>2010-09-26T08:31:23Z</time>
      </trkpt>
      <trkpt lat="41.7905690" lon="2.0664230">
        <ele>671.4420000</ele>
        <time>2010-09-26T08:31:29Z</time>
      </trkpt>
      <trkpt lat="41.7905610" lon="2.0664040">
        <ele>670.6400000</ele>
        <time>2010-09-26T08:31:31Z</time>
      </trkpt>
      <trkpt lat="41.7905700" lon="2.0663760">
        <ele>669.9040000</ele>
        <time>2010-09-26T08:31:37Z</time>
      </trkpt>
      <trkpt lat="41.7905650" lon="2.0663010">
        <ele>669.0860000</ele>
        <time>2010-09-26T08:31:44Z</time>
      </trkpt>
      <trkpt lat="41.7905330" lon="2.0662560">
        <ele>664.8210000</ele>
        <time>2010-09-26T08:31:52Z</time>
      </trkpt>
      <trkpt lat="41.7905280" lon="2.0662470">
        <ele>664.8250000</ele>
        <time>2010-09-26T08:31:53Z</time>
      </trkpt>
      <trkpt lat="41.7905130" lon="2.0662200">
        <ele>664.1050000</ele>
        <time>2010-09-26T08:31:56Z</time>
      </trkpt>
      <trkpt lat="41.7905120" lon="2.0661260">
        <ele>661.3360000</ele>
        <time>2010-09-26T08:32:04Z</time>
      </trkpt>
      <trkpt lat="41.7905110" lon="2.0661050">
        <ele>660.5510000</ele>
        <time>2010-09-26T08:32:06Z</time>
      </trkpt>
      <trkpt lat="41.7905120" lon="2.0660240">
        <ele>658.0320000</ele>
        <time>2010-09-26T08:32:13Z</time>
      </trkpt>
      <trkpt lat="41.7905220" lon="2.0659680">
        <ele>657.2940000</ele>
        <time>2010-09-26T08:32:18Z</time>
      </trkpt>
      <trkpt lat="41.7905220" lon="2.0659170">
        <ele>656.5120000</ele>
        <time>2010-09-26T08:32:23Z</time>
      </trkpt>
      <trkpt lat="41.7905630" lon="2.0658380">
        <ele>654.2540000</ele>
        <time>2010-09-26T08:32:30Z</time>
      </trkpt>
      <trkpt lat="41.7905630" lon="2.0657430">
        <ele>653.1180000</ele>
        <time>2010-09-26T08:32:38Z</time>
      </trkpt>
      <trkpt lat="41.7905910" lon="2.0656630">
        <ele>651.3930000</ele>
        <time>2010-09-26T08:32:47Z</time>
      </trkpt>
      <trkpt lat="41.7905970" lon="2.0656170">
        <ele>650.2920000</ele>
        <time>2010-09-26T08:32:51Z</time>
      </trkpt>
      <trkpt lat="41.7905760" lon="2.0655070">
        <ele>648.0970000</ele>
        <time>2010-09-26T08:32:58Z</time>
      </trkpt>
      <trkpt lat="41.7905710" lon="2.0654810">
        <ele>646.3150000</ele>
        <time>2010-09-26T08:33:01Z</time>
      </trkpt>
      <trkpt lat="41.7905440" lon="2.0653830">
        <ele>643.6700000</ele>
        <time>2010-09-26T08:33:06Z</time>
      </trkpt>
      <trkpt lat="41.7905330" lon="2.0653750">
        <ele>642.1600000</ele>
        <time>2010-09-26T08:33:12Z</time>
      </trkpt>
      <trkpt lat="41.7904590" lon="2.0653050">
        <ele>642.0950000</ele>
        <time>2010-09-26T08:33:19Z</time>
      </trkpt>
      <trkpt lat="41.7902690" lon="2.0651030">
        <ele>643.0470000</ele>
        <time>2010-09-26T08:33:27Z</time>
      </trkpt>
      <trkpt lat="41.7901420" lon="2.0649200">
        <ele>643.6640000</ele>
        <time>2010-09-26T08:33:34Z</time>
      </trkpt>
      <trkpt lat="41.7900270" lon="2.0647930">
        <ele>645.5430000</ele>
        <time>2010-09-26T08:33:40Z</time>
      </trkpt>
      <trkpt lat="41.7899420" lon="2.0646930">
        <ele>647.7690000</ele>
        <time>2010-09-26T08:33:46Z</time>
      </trkpt>
      <trkpt lat="41.7898310" lon="2.0645190">
        <ele>649.4250000</ele>
        <time>2010-09-26T08:33:53Z</time>
      </trkpt>
      <trkpt lat="41.7897020" lon="2.0643520">
        <ele>650.6190000</ele>
        <time>2010-09-26T08:34:01Z</time>
      </trkpt>
      <trkpt lat="41.7896180" lon="2.0642990">
        <ele>652.3880000</ele>
        <time>2010-09-26T08:34:05Z</time>
      </trkpt>
      <trkpt lat="41.7895070" lon="2.0642180">
        <ele>653.0090000</ele>
        <time>2010-09-26T08:34:11Z</time>
      </trkpt>
      <trkpt lat="41.7893620" lon="2.0640640">
        <ele>655.2880000</ele>
        <time>2010-09-26T08:34:20Z</time>
      </trkpt>
      <trkpt lat="41.7892230" lon="2.0638680">
        <ele>656.8060000</ele>
        <time>2010-09-26T08:34:29Z</time>
      </trkpt>
      <trkpt lat="41.7891010" lon="2.0638060">
        <ele>658.2990000</ele>
        <time>2010-09-26T08:34:35Z</time>
      </trkpt>
      <trkpt lat="41.7890430" lon="2.0639070">
        <ele>659.5070000</ele>
        <time>2010-09-26T08:34:41Z</time>
      </trkpt>
      <trkpt lat="41.7890570" lon="2.0640900">
        <ele>661.8510000</ele>
        <time>2010-09-26T08:34:49Z</time>
      </trkpt>
      <trkpt lat="41.7890590" lon="2.0642780">
        <ele>663.4400000</ele>
        <time>2010-09-26T08:34:56Z</time>
      </trkpt>
      <trkpt lat="41.7890240" lon="2.0644900">
        <ele>665.3400000</ele>
        <time>2010-09-26T08:35:05Z</time>
      </trkpt>
      <trkpt lat="41.7889890" lon="2.0646550">
        <ele>667.0880000</ele>
        <time>2010-09-26T08:35:12Z</time>
      </trkpt>
      <trkpt lat="41.7889500" lon="2.0648180">
        <ele>668.2290000</ele>
        <time>2010-09-26T08:35:19Z</time>
      </trkpt>
      <trkpt lat="41.7889220" lon="2.0650400">
        <ele>670.5700000</ele>
        <time>2010-09-26T08:35:29Z</time>
      </trkpt>
      <trkpt lat="41.7889040" lon="2.0652420">
        <ele>671.8710000</ele>
        <time>2010-09-26T08:35:37Z</time>
      </trkpt>
      <trkpt lat="41.7888880" lon="2.0654920">
        <ele>673.3840000</ele>
        <time>2010-09-26T08:35:47Z</time>
      </trkpt>
      <trkpt lat="41.7888510" lon="2.0656350">
        <ele>674.1710000</ele>
        <time>2010-09-26T08:35:53Z</time>
      </trkpt>
      <trkpt lat="41.7888000" lon="2.0658330">
        <ele>676.4130000</ele>
        <time>2010-09-26T08:36:02Z</time>
      </trkpt>
      <trkpt lat="41.7887400" lon="2.0660150">
        <ele>677.4420000</ele>
        <time>2010-09-26T08:36:09Z</time>
      </trkpt>
      <trkpt lat="41.7886800" lon="2.0662650">
        <ele>677.7670000</ele>
        <time>2010-09-26T08:36:18Z</time>
      </trkpt>
      <trkpt lat="41.7886370" lon="2.0665850">
        <ele>678.8570000</ele>
        <time>2010-09-26T08:36:27Z</time>
      </trkpt>
      <trkpt lat="41.7885840" lon="2.0668970">
        <ele>678.9490000</ele>
        <time>2010-09-26T08:36:35Z</time>
      </trkpt>
      <trkpt lat="41.7885460" lon="2.0671430">
        <ele>680.4200000</ele>
        <time>2010-09-26T08:36:42Z</time>
      </trkpt>
      <trkpt lat="41.7885000" lon="2.0675070">
        <ele>682.1850000</ele>
        <time>2010-09-26T08:36:52Z</time>
      </trkpt>
      <trkpt lat="41.7885150" lon="2.0678490">
        <ele>682.3700000</ele>
        <time>2010-09-26T08:37:00Z</time>
      </trkpt>
      <trkpt lat="41.7885050" lon="2.0681970">
        <ele>683.3730000</ele>
        <time>2010-09-26T08:37:08Z</time>
      </trkpt>
      <trkpt lat="41.7884710" lon="2.0685810">
        <ele>683.6940000</ele>
        <time>2010-09-26T08:37:17Z</time>
      </trkpt>
      <trkpt lat="41.7884730" lon="2.0689130">
        <ele>684.1050000</ele>
        <time>2010-09-26T08:37:25Z</time>
      </trkpt>
      <trkpt lat="41.7885440" lon="2.0692840">
        <ele>685.1520000</ele>
        <time>2010-09-26T08:37:33Z</time>
      </trkpt>
      <trkpt lat="41.7885260" lon="2.0695280">
        <ele>685.8510000</ele>
        <time>2010-09-26T08:37:38Z</time>
      </trkpt>
      <trkpt lat="41.7884000" lon="2.0698320">
        <ele>686.8570000</ele>
        <time>2010-09-26T08:37:46Z</time>
      </trkpt>
      <trkpt lat="41.7882510" lon="2.0700890">
        <ele>687.8190000</ele>
        <time>2010-09-26T08:37:54Z</time>
      </trkpt>
      <trkpt lat="41.7881440" lon="2.0701480">
        <ele>689.0480000</ele>
        <time>2010-09-26T08:37:58Z</time>
      </trkpt>
      <trkpt lat="41.7880280" lon="2.0701060">
        <ele>689.4660000</ele>
        <time>2010-09-26T08:38:02Z</time>
      </trkpt>
      <trkpt lat="41.7877620" lon="2.0698880">
        <ele>689.9970000</ele>
        <time>2010-09-26T08:38:10Z</time>
      </trkpt>
      <trkpt lat="41.7875280" lon="2.0697170">
        <ele>690.4700000</ele>
        <time>2010-09-26T08:38:17Z</time>
      </trkpt>
      <trkpt lat="41.7872640" lon="2.0696480">
        <ele>690.8030000</ele>
        <time>2010-09-26T08:38:24Z</time>
      </trkpt>
      <trkpt lat="41.7871710" lon="2.0697880">
        <ele>691.2630000</ele>
        <time>2010-09-26T08:38:28Z</time>
      </trkpt>
      <trkpt lat="41.7871280" lon="2.0701010">
        <ele>693.0990000</ele>
        <time>2010-09-26T08:38:35Z</time>
      </trkpt>
      <trkpt lat="41.7871450" lon="2.0703790">
        <ele>694.1750000</ele>
        <time>2010-09-26T08:38:41Z</time>
      </trkpt>
      <trkpt lat="41.7872150" lon="2.0708500">
        <ele>695.9400000</ele>
        <time>2010-09-26T08:38:51Z</time>
      </trkpt>
      <trkpt lat="41.7872190" lon="2.0711680">
        <ele>696.8600000</ele>
        <time>2010-09-26T08:38:58Z</time>
      </trkpt>
      <trkpt lat="41.7872940" lon="2.0714150">
        <ele>697.0800000</ele>
        <time>2010-09-26T08:39:04Z</time>
      </trkpt>
      <trkpt lat="41.7873560" lon="2.0715490">
        <ele>697.4380000</ele>
        <time>2010-09-26T08:39:07Z</time>
      </trkpt>
      <trkpt lat="41.7874280" lon="2.0717490">
        <ele>697.2010000</ele>
        <time>2010-09-26T08:39:11Z</time>
      </trkpt>
      <trkpt lat="41.7874510" lon="2.0719520">
        <ele>697.6430000</ele>
        <time>2010-09-26T08:39:15Z</time>
      </trkpt>
      <trkpt lat="41.7874610" lon="2.0722190">
        <ele>698.4890000</ele>
        <time>2010-09-26T08:39:21Z</time>
      </trkpt>
      <trkpt lat="41.7875540" lon="2.0725200">
        <ele>700.0920000</ele>
        <time>2010-09-26T08:39:28Z</time>
      </trkpt>
      <trkpt lat="41.7875620" lon="2.0728280">
        <ele>701.0160000</ele>
        <time>2010-09-26T08:39:35Z</time>
      </trkpt>
      <trkpt lat="41.7876300" lon="2.0730810">
        <ele>702.1190000</ele>
        <time>2010-09-26T08:39:41Z</time>
      </trkpt>
      <trkpt lat="41.7876750" lon="2.0733670">
        <ele>703.3760000</ele>
        <time>2010-09-26T08:39:48Z</time>
      </trkpt>
      <trkpt lat="41.7876330" lon="2.0736160">
        <ele>703.8300000</ele>
        <time>2010-09-26T08:39:54Z</time>
      </trkpt>
      <trkpt lat="41.7875940" lon="2.0739370">
        <ele>704.6150000</ele>
        <time>2010-09-26T08:40:01Z</time>
      </trkpt>
      <trkpt lat="41.7876860" lon="2.0740570">
        <ele>705.4180000</ele>
        <time>2010-09-26T08:40:05Z</time>
      </trkpt>
      <trkpt lat="41.7878990" lon="2.0741570">
        <ele>705.4170000</ele>
        <time>2010-09-26T08:40:11Z</time>
      </trkpt>
      <trkpt lat="41.7880530" lon="2.0741900">
        <ele>705.0790000</ele>
        <time>2010-09-26T08:40:14Z</time>
      </trkpt>
      <trkpt lat="41.7881620" lon="2.0741910">
        <ele>704.9050000</ele>
        <time>2010-09-26T08:40:16Z</time>
      </trkpt>
      <trkpt lat="41.7885860" lon="2.0741220">
        <ele>703.6680000</ele>
        <time>2010-09-26T08:40:23Z</time>
      </trkpt>
      <trkpt lat="41.7887840" lon="2.0741490">
        <ele>703.3090000</ele>
        <time>2010-09-26T08:40:26Z</time>
      </trkpt>
      <trkpt lat="41.7890360" lon="2.0743530">
        <ele>702.1980000</ele>
        <time>2010-09-26T08:40:30Z</time>
      </trkpt>
      <trkpt lat="41.7890870" lon="2.0745320">
        <ele>701.7760000</ele>
        <time>2010-09-26T08:40:32Z</time>
      </trkpt>
      <trkpt lat="41.7892050" lon="2.0749270">
        <ele>701.3290000</ele>
        <time>2010-09-26T08:40:37Z</time>
      </trkpt>
      <trkpt lat="41.7894510" lon="2.0752930">
        <ele>703.4760000</ele>
        <time>2010-09-26T08:40:45Z</time>
      </trkpt>
      <trkpt lat="41.7894790" lon="2.0753410">
        <ele>703.6390000</ele>
        <time>2010-09-26T08:40:46Z</time>
      </trkpt>
      <trkpt lat="41.7896780" lon="2.0757680">
        <ele>703.8050000</ele>
        <time>2010-09-26T08:40:53Z</time>
      </trkpt>
      <trkpt lat="41.7897570" lon="2.0759100">
        <ele>703.6770000</ele>
        <time>2010-09-26T08:40:55Z</time>
      </trkpt>
      <trkpt lat="41.7900440" lon="2.0761820">
        <ele>703.1440000</ele>
        <time>2010-09-26T08:41:00Z</time>
      </trkpt>
      <trkpt lat="41.7904010" lon="2.0764410">
        <ele>703.4540000</ele>
        <time>2010-09-26T08:41:07Z</time>
      </trkpt>
      <trkpt lat="41.7906760" lon="2.0767350">
        <ele>703.5840000</ele>
        <time>2010-09-26T08:41:13Z</time>
      </trkpt>
      <trkpt lat="41.7909940" lon="2.0771700">
        <ele>701.6550000</ele>
        <time>2010-09-26T08:41:19Z</time>
      </trkpt>
      <trkpt lat="41.7910590" lon="2.0772380">
        <ele>701.4240000</ele>
        <time>2010-09-26T08:41:20Z</time>
      </trkpt>
      <trkpt lat="41.7915020" lon="2.0775970">
        <ele>698.4640000</ele>
        <time>2010-09-26T08:41:26Z</time>
      </trkpt>
      <trkpt lat="41.7917350" lon="2.0778820">
        <ele>698.1320000</ele>
        <time>2010-09-26T08:41:30Z</time>
      </trkpt>
      <trkpt lat="41.7920380" lon="2.0783170">
        <ele>697.9130000</ele>
        <time>2010-09-26T08:41:36Z</time>
      </trkpt>
      <trkpt lat="41.7924230" lon="2.0787530">
        <ele>696.0630000</ele>
        <time>2010-09-26T08:41:42Z</time>
      </trkpt>
      <trkpt lat="41.7927340" lon="2.0791790">
        <ele>692.8730000</ele>
        <time>2010-09-26T08:41:47Z</time>
      </trkpt>
      <trkpt lat="41.7931500" lon="2.0795420">
        <ele>688.6160000</ele>
        <time>2010-09-26T08:41:52Z</time>
      </trkpt>
      <trkpt lat="41.7935480" lon="2.0797400">
        <ele>686.2360000</ele>
        <time>2010-09-26T08:41:56Z</time>
      </trkpt>
      <trkpt lat="41.7939210" lon="2.0798240">
        <ele>685.3230000</ele>
        <time>2010-09-26T08:42:00Z</time>
      </trkpt>
      <trkpt lat="41.7940100" lon="2.0798290">
        <ele>685.1740000</ele>
        <time>2010-09-26T08:42:01Z</time>
      </trkpt>
      <trkpt lat="41.7942640" lon="2.0800050">
        <ele>683.3150000</ele>
        <time>2010-09-26T08:42:05Z</time>
      </trkpt>
      <trkpt lat="41.7942900" lon="2.0802920">
        <ele>681.6830000</ele>
        <time>2010-09-26T08:42:08Z</time>
      </trkpt>
      <trkpt lat="41.7942900" lon="2.0803940">
        <ele>681.1250000</ele>
        <time>2010-09-26T08:42:09Z</time>
      </trkpt>
      <trkpt lat="41.7943800" lon="2.0806790">
        <ele>679.9580000</ele>
        <time>2010-09-26T08:42:13Z</time>
      </trkpt>
      <trkpt lat="41.7944880" lon="2.0806800">
        <ele>680.1590000</ele>
        <time>2010-09-26T08:42:15Z</time>
      </trkpt>
      <trkpt lat="41.7950020" lon="2.0806120">
        <ele>679.3020000</ele>
        <time>2010-09-26T08:42:23Z</time>
      </trkpt>
      <trkpt lat="41.7952710" lon="2.0807390">
        <ele>679.2190000</ele>
        <time>2010-09-26T08:42:28Z</time>
      </trkpt>
      <trkpt lat="41.7953240" lon="2.0809690">
        <ele>679.2600000</ele>
        <time>2010-09-26T08:42:31Z</time>
      </trkpt>
      <trkpt lat="41.7953100" lon="2.0810490">
        <ele>679.2550000</ele>
        <time>2010-09-26T08:42:32Z</time>
      </trkpt>
      <trkpt lat="41.7953550" lon="2.0814020">
        <ele>678.9500000</ele>
        <time>2010-09-26T08:42:37Z</time>
      </trkpt>
      <trkpt lat="41.7955040" lon="2.0813970">
        <ele>678.6280000</ele>
        <time>2010-09-26T08:42:40Z</time>
      </trkpt>
      <trkpt lat="41.7958160" lon="2.0814140">
        <ele>679.0890000</ele>
        <time>2010-09-26T08:42:46Z</time>
      </trkpt>
      <trkpt lat="41.7959280" lon="2.0816390">
        <ele>679.3910000</ele>
        <time>2010-09-26T08:42:50Z</time>
      </trkpt>
      <trkpt lat="41.7960520" lon="2.0820880">
        <ele>680.0480000</ele>
        <time>2010-09-26T08:42:57Z</time>
      </trkpt>
      <trkpt lat="41.7962200" lon="2.0822430">
        <ele>681.2180000</ele>
        <time>2010-09-26T08:43:02Z</time>
      </trkpt>
      <trkpt lat="41.7963580" lon="2.0822310">
        <ele>682.0060000</ele>
        <time>2010-09-26T08:43:05Z</time>
      </trkpt>
      <trkpt lat="41.7967450" lon="2.0821960">
        <ele>684.0140000</ele>
        <time>2010-09-26T08:43:13Z</time>
      </trkpt>
      <trkpt lat="41.7969410" lon="2.0822250">
        <ele>685.2140000</ele>
        <time>2010-09-26T08:43:18Z</time>
      </trkpt>
      <trkpt lat="41.7971450" lon="2.0822950">
        <ele>685.8670000</ele>
        <time>2010-09-26T08:43:23Z</time>
      </trkpt>
      <trkpt lat="41.7971940" lon="2.0823150">
        <ele>685.9700000</ele>
        <time>2010-09-26T08:43:24Z</time>
      </trkpt>
      <trkpt lat="41.7973240" lon="2.0824970">
        <ele>686.0770000</ele>
        <time>2010-09-26T08:43:28Z</time>
      </trkpt>
      <trkpt lat="41.7973590" lon="2.0826240">
        <ele>686.1280000</ele>
        <time>2010-09-26T08:43:30Z</time>
      </trkpt>
      <trkpt lat="41.7973950" lon="2.0828820">
        <ele>686.7200000</ele>
        <time>2010-09-26T08:43:34Z</time>
      </trkpt>
      <trkpt lat="41.7974600" lon="2.0831220">
        <ele>687.0190000</ele>
        <time>2010-09-26T08:43:38Z</time>
      </trkpt>
      <trkpt lat="41.7977070" lon="2.0834960">
        <ele>687.6580000</ele>
        <time>2010-09-26T08:43:46Z</time>
      </trkpt>
      <trkpt lat="41.7978210" lon="2.0836970">
        <ele>687.9130000</ele>
        <time>2010-09-26T08:43:50Z</time>
      </trkpt>
      <trkpt lat="41.7980820" lon="2.0839320">
        <ele>687.4390000</ele>
        <time>2010-09-26T08:43:56Z</time>
      </trkpt>
      <trkpt lat="41.7982610" lon="2.0839930">
        <ele>686.7700000</ele>
        <time>2010-09-26T08:43:59Z</time>
      </trkpt>
      <trkpt lat="41.7984560" lon="2.0842450">
        <ele>686.2400000</ele>
        <time>2010-09-26T08:44:04Z</time>
      </trkpt>
      <trkpt lat="41.7984770" lon="2.0843420">
        <ele>686.1040000</ele>
        <time>2010-09-26T08:44:05Z</time>
      </trkpt>
      <trkpt lat="41.7985300" lon="2.0848370">
        <ele>685.8100000</ele>
        <time>2010-09-26T08:44:11Z</time>
      </trkpt>
      <trkpt lat="41.7986060" lon="2.0852690">
        <ele>685.4880000</ele>
        <time>2010-09-26T08:44:17Z</time>
      </trkpt>
      <trkpt lat="41.7987070" lon="2.0858060">
        <ele>686.9330000</ele>
        <time>2010-09-26T08:44:25Z</time>
      </trkpt>
      <trkpt lat="41.7988300" lon="2.0862540">
        <ele>688.0950000</ele>
        <time>2010-09-26T08:44:32Z</time>
      </trkpt>
      <trkpt lat="41.7989530" lon="2.0867000">
        <ele>688.8240000</ele>
        <time>2010-09-26T08:44:39Z</time>
      </trkpt>
      <trkpt lat="41.7991720" lon="2.0869230">
        <ele>688.1720000</ele>
        <time>2010-09-26T08:44:43Z</time>
      </trkpt>
      <trkpt lat="41.7992990" lon="2.0869720">
        <ele>687.5860000</ele>
        <time>2010-09-26T08:44:45Z</time>
      </trkpt>
      <trkpt lat="41.7997030" lon="2.0871520">
        <ele>687.8840000</ele>
        <time>2010-09-26T08:44:52Z</time>
      </trkpt>
      <trkpt lat="41.7998220" lon="2.0872130">
        <ele>689.1960000</ele>
        <time>2010-09-26T08:44:55Z</time>
      </trkpt>
      <trkpt lat="41.8000000" lon="2.0873370">
        <ele>691.7510000</ele>
        <time>2010-09-26T08:45:01Z</time>
      </trkpt>
      <trkpt lat="41.8002460" lon="2.0876310">
        <ele>691.7110000</ele>
        <time>2010-09-26T08:45:08Z</time>
      </trkpt>
      <trkpt lat="41.8003860" lon="2.0877500">
        <ele>690.5350000</ele>
        <time>2010-09-26T08:45:11Z</time>
      </trkpt>
      <trkpt lat="41.8005830" lon="2.0878230">
        <ele>688.8580000</ele>
        <time>2010-09-26T08:45:14Z</time>
      </trkpt>
      <trkpt lat="41.8008550" lon="2.0879020">
        <ele>686.5870000</ele>
        <time>2010-09-26T08:45:18Z</time>
      </trkpt>
      <trkpt lat="41.8009240" lon="2.0879190">
        <ele>685.7660000</ele>
        <time>2010-09-26T08:45:19Z</time>
      </trkpt>
      <trkpt lat="41.8010740" lon="2.0879340">
        <ele>683.9070000</ele>
        <time>2010-09-26T08:45:21Z</time>
      </trkpt>
      <trkpt lat="41.8014890" lon="2.0878450">
        <ele>679.8040000</ele>
        <time>2010-09-26T08:45:26Z</time>
      </trkpt>
      <trkpt lat="41.8019930" lon="2.0876020">
        <ele>674.0490000</ele>
        <time>2010-09-26T08:45:32Z</time>
      </trkpt>
      <trkpt lat="41.8023490" lon="2.0875590">
        <ele>672.7460000</ele>
        <time>2010-09-26T08:45:36Z</time>
      </trkpt>
      <trkpt lat="41.8027120" lon="2.0875270">
        <ele>674.3620000</ele>
        <time>2010-09-26T08:45:42Z</time>
      </trkpt>
      <trkpt lat="41.8031130" lon="2.0875960">
        <ele>674.3330000</ele>
        <time>2010-09-26T08:45:49Z</time>
      </trkpt>
      <trkpt lat="41.8033420" lon="2.0876730">
        <ele>673.2260000</ele>
        <time>2010-09-26T08:45:53Z</time>
      </trkpt>
      <trkpt lat="41.8033110" lon="2.0877990">
        <ele>672.0660000</ele>
        <time>2010-09-26T08:45:57Z</time>
      </trkpt>
      <trkpt lat="41.8030430" lon="2.0879760">
        <ele>670.1640000</ele>
        <time>2010-09-26T08:46:02Z</time>
      </trkpt>
      <trkpt lat="41.8029240" lon="2.0880400">
        <ele>669.2190000</ele>
        <time>2010-09-26T08:46:04Z</time>
      </trkpt>
      <trkpt lat="41.8028570" lon="2.0882050">
        <ele>667.1760000</ele>
        <time>2010-09-26T08:46:08Z</time>
      </trkpt>
      <trkpt lat="41.8028620" lon="2.0882490">
        <ele>666.4220000</ele>
        <time>2010-09-26T08:46:09Z</time>
      </trkpt>
      <trkpt lat="41.8028600" lon="2.0882930">
        <ele>665.7410000</ele>
        <time>2010-09-26T08:46:11Z</time>
      </trkpt>
      <trkpt lat="41.8028330" lon="2.0883080">
        <ele>664.1550000</ele>
        <time>2010-09-26T08:46:17Z</time>
      </trkpt>
      <trkpt lat="41.8028120" lon="2.0881970">
        <ele>664.1590000</ele>
        <time>2010-09-26T08:46:28Z</time>
      </trkpt>
      <trkpt lat="41.8028120" lon="2.0881970">
        <ele>664.2280000</ele>
        <time>2010-09-26T08:46:29Z</time>
      </trkpt>
      <trkpt lat="41.8028660" lon="2.0881820">
        <ele>666.1890000</ele>
        <time>2010-09-26T08:50:50Z</time>
      </trkpt>
      <trkpt lat="41.8027720" lon="2.0881120">
        <ele>666.4970000</ele>
        <time>2010-09-26T08:50:59Z</time>
      </trkpt>
      <trkpt lat="41.8027690" lon="2.0881140">
        <ele>666.5820000</ele>
        <time>2010-09-26T08:51:00Z</time>
      </trkpt>
      <trkpt lat="41.8027110" lon="2.0880830">
        <ele>666.8740000</ele>
        <time>2010-09-26T08:51:26Z</time>
      </trkpt>
      <trkpt lat="41.8026920" lon="2.0880140">
        <ele>666.7160000</ele>
        <time>2010-09-26T08:51:50Z</time>
      </trkpt>
      <trkpt lat="41.8027350" lon="2.0880700">
        <ele>666.4970000</ele>
        <time>2010-09-26T08:52:02Z</time>
      </trkpt>
      <trkpt lat="41.8027820" lon="2.0881150">
        <ele>666.4380000</ele>
        <time>2010-09-26T08:52:10Z</time>
      </trkpt>
      <trkpt lat="41.8028130" lon="2.0882000">
        <ele>666.9930000</ele>
        <time>2010-09-26T08:59:14Z</time>
      </trkpt>
      <trkpt lat="41.8028180" lon="2.0882230">
        <ele>666.7790000</ele>
        <time>2010-09-26T08:59:19Z</time>
      </trkpt>
      <trkpt lat="41.8029100" lon="2.0883650">
        <ele>666.6180000</ele>
        <time>2010-09-26T08:59:27Z</time>
      </trkpt>
      <trkpt lat="41.8029310" lon="2.0884470">
        <ele>666.4250000</ele>
        <time>2010-09-26T08:59:29Z</time>
      </trkpt>
      <trkpt lat="41.8029080" lon="2.0889050">
        <ele>664.9910000</ele>
        <time>2010-09-26T08:59:36Z</time>
      </trkpt>
      <trkpt lat="41.8028990" lon="2.0889740">
        <ele>664.9920000</ele>
        <time>2010-09-26T08:59:37Z</time>
      </trkpt>
      <trkpt lat="41.8028850" lon="2.0891780">
        <ele>664.7300000</ele>
        <time>2010-09-26T08:59:40Z</time>
      </trkpt>
      <trkpt lat="41.8028670" lon="2.0896830">
        <ele>664.6690000</ele>
        <time>2010-09-26T08:59:48Z</time>
      </trkpt>
      <trkpt lat="41.8028100" lon="2.0898300">
        <ele>665.0520000</ele>
        <time>2010-09-26T08:59:52Z</time>
      </trkpt>
      <trkpt lat="41.8026410" lon="2.0899590">
        <ele>664.0570000</ele>
        <time>2010-09-26T08:59:56Z</time>
      </trkpt>
      <trkpt lat="41.8025300" lon="2.0900520">
        <ele>663.2850000</ele>
        <time>2010-09-26T08:59:58Z</time>
      </trkpt>
      <trkpt lat="41.8022460" lon="2.0901030">
        <ele>661.2240000</ele>
        <time>2010-09-26T09:00:02Z</time>
      </trkpt>
      <trkpt lat="41.8018950" lon="2.0901200">
        <ele>660.4000000</ele>
        <time>2010-09-26T09:00:07Z</time>
      </trkpt>
      <trkpt lat="41.8017130" lon="2.0901320">
        <ele>660.5360000</ele>
        <time>2010-09-26T09:00:10Z</time>
      </trkpt>
      <trkpt lat="41.8014520" lon="2.0901650">
        <ele>660.1380000</ele>
        <time>2010-09-26T09:00:15Z</time>
      </trkpt>
      <trkpt lat="41.8013050" lon="2.0903450">
        <ele>658.8940000</ele>
        <time>2010-09-26T09:00:18Z</time>
      </trkpt>
      <trkpt lat="41.8012690" lon="2.0906140">
        <ele>656.6850000</ele>
        <time>2010-09-26T09:00:21Z</time>
      </trkpt>
      <trkpt lat="41.8012390" lon="2.0908710">
        <ele>651.6010000</ele>
        <time>2010-09-26T09:00:26Z</time>
      </trkpt>
      <trkpt lat="41.8012110" lon="2.0908060">
        <ele>650.9380000</ele>
        <time>2010-09-26T09:00:28Z</time>
      </trkpt>
      <trkpt lat="41.8012100" lon="2.0907160">
        <ele>650.4180000</ele>
        <time>2010-09-26T09:00:30Z</time>
      </trkpt>
      <trkpt lat="41.8011420" lon="2.0904480">
        <ele>650.3770000</ele>
        <time>2010-09-26T09:00:35Z</time>
      </trkpt>
      <trkpt lat="41.8011220" lon="2.0903760">
        <ele>650.2370000</ele>
        <time>2010-09-26T09:00:36Z</time>
      </trkpt>
      <trkpt lat="41.8011370" lon="2.0900270">
        <ele>648.2140000</ele>
        <time>2010-09-26T09:00:40Z</time>
      </trkpt>
      <trkpt lat="41.8012250" lon="2.0898530">
        <ele>646.8390000</ele>
        <time>2010-09-26T09:00:42Z</time>
      </trkpt>
      <trkpt lat="41.8013280" lon="2.0896870">
        <ele>645.4630000</ele>
        <time>2010-09-26T09:00:44Z</time>
      </trkpt>
      <trkpt lat="41.8013310" lon="2.0895030">
        <ele>643.3750000</ele>
        <time>2010-09-26T09:00:48Z</time>
      </trkpt>
      <trkpt lat="41.8011940" lon="2.0896110">
        <ele>641.6110000</ele>
        <time>2010-09-26T09:00:51Z</time>
      </trkpt>
      <trkpt lat="41.8011360" lon="2.0896440">
        <ele>640.8030000</ele>
        <time>2010-09-26T09:00:52Z</time>
      </trkpt>
      <trkpt lat="41.8009060" lon="2.0897650">
        <ele>639.2300000</ele>
        <time>2010-09-26T09:00:55Z</time>
      </trkpt>
      <trkpt lat="41.8006310" lon="2.0897880">
        <ele>637.3290000</ele>
        <time>2010-09-26T09:00:58Z</time>
      </trkpt>
      <trkpt lat="41.8005490" lon="2.0897700">
        <ele>636.6300000</ele>
        <time>2010-09-26T09:00:59Z</time>
      </trkpt>
      <trkpt lat="41.8003020" lon="2.0897230">
        <ele>635.1030000</ele>
        <time>2010-09-26T09:01:02Z</time>
      </trkpt>
      <trkpt lat="41.8000600" lon="2.0897370">
        <ele>634.1480000</ele>
        <time>2010-09-26T09:01:05Z</time>
      </trkpt>
      <trkpt lat="41.7999110" lon="2.0897680">
        <ele>633.7630000</ele>
        <time>2010-09-26T09:01:07Z</time>
      </trkpt>
      <trkpt lat="41.7996090" lon="2.0896490">
        <ele>633.0380000</ele>
        <time>2010-09-26T09:01:11Z</time>
      </trkpt>
      <trkpt lat="41.7994390" lon="2.0894350">
        <ele>631.9550000</ele>
        <time>2010-09-26T09:01:14Z</time>
      </trkpt>
      <trkpt lat="41.7992010" lon="2.0891550">
        <ele>630.2890000</ele>
        <time>2010-09-26T09:01:18Z</time>
      </trkpt>
      <trkpt lat="41.7990800" lon="2.0888370">
        <ele>628.3200000</ele>
        <time>2010-09-26T09:01:22Z</time>
      </trkpt>
      <trkpt lat="41.7989910" lon="2.0885110">
        <ele>626.6580000</ele>
        <time>2010-09-26T09:01:26Z</time>
      </trkpt>
      <trkpt lat="41.7988410" lon="2.0885580">
        <ele>626.0100000</ele>
        <time>2010-09-26T09:01:29Z</time>
      </trkpt>
      <trkpt lat="41.7987430" lon="2.0885820">
        <ele>625.6990000</ele>
        <time>2010-09-26T09:01:31Z</time>
      </trkpt>
      <trkpt lat="41.7985460" lon="2.0885540">
        <ele>625.9510000</ele>
        <time>2010-09-26T09:01:36Z</time>
      </trkpt>
      <trkpt lat="41.7984710" lon="2.0885050">
        <ele>626.4400000</ele>
        <time>2010-09-26T09:01:38Z</time>
      </trkpt>
      <trkpt lat="41.7983530" lon="2.0883230">
        <ele>626.4000000</ele>
        <time>2010-09-26T09:01:42Z</time>
      </trkpt>
      <trkpt lat="41.7982190" lon="2.0880820">
        <ele>626.8470000</ele>
        <time>2010-09-26T09:01:48Z</time>
      </trkpt>
      <trkpt lat="41.7981000" lon="2.0880080">
        <ele>626.3880000</ele>
        <time>2010-09-26T09:01:51Z</time>
      </trkpt>
      <trkpt lat="41.7979530" lon="2.0878920">
        <ele>625.5100000</ele>
        <time>2010-09-26T09:01:54Z</time>
      </trkpt>
      <trkpt lat="41.7977570" lon="2.0875930">
        <ele>623.2130000</ele>
        <time>2010-09-26T09:01:58Z</time>
      </trkpt>
      <trkpt lat="41.7977130" lon="2.0874190">
        <ele>622.4790000</ele>
        <time>2010-09-26T09:02:00Z</time>
      </trkpt>
      <trkpt lat="41.7976730" lon="2.0870710">
        <ele>622.0530000</ele>
        <time>2010-09-26T09:02:04Z</time>
      </trkpt>
      <trkpt lat="41.7976520" lon="2.0869180">
        <ele>620.7640000</ele>
        <time>2010-09-26T09:02:06Z</time>
      </trkpt>
      <trkpt lat="41.7975860" lon="2.0867120">
        <ele>619.0020000</ele>
        <time>2010-09-26T09:02:09Z</time>
      </trkpt>
      <trkpt lat="41.7974570" lon="2.0865140">
        <ele>615.6890000</ele>
        <time>2010-09-26T09:02:12Z</time>
      </trkpt>
      <trkpt lat="41.7972230" lon="2.0860310">
        <ele>608.5120000</ele>
        <time>2010-09-26T09:02:18Z</time>
      </trkpt>
      <trkpt lat="41.7971900" lon="2.0859570">
        <ele>607.4750000</ele>
        <time>2010-09-26T09:02:19Z</time>
      </trkpt>
      <trkpt lat="41.7969990" lon="2.0858270">
        <ele>604.8670000</ele>
        <time>2010-09-26T09:02:24Z</time>
      </trkpt>
      <trkpt lat="41.7969720" lon="2.0858040">
        <ele>604.8810000</ele>
        <time>2010-09-26T09:02:25Z</time>
      </trkpt>
      <trkpt lat="41.7967160" lon="2.0856790">
        <ele>605.5680000</ele>
        <time>2010-09-26T09:02:32Z</time>
      </trkpt>
      <trkpt lat="41.7966600" lon="2.0856620">
        <ele>605.4570000</ele>
        <time>2010-09-26T09:02:33Z</time>
      </trkpt>
      <trkpt lat="41.7962770" lon="2.0856720">
        <ele>603.2830000</ele>
        <time>2010-09-26T09:02:39Z</time>
      </trkpt>
      <trkpt lat="41.7960310" lon="2.0857370">
        <ele>603.2570000</ele>
        <time>2010-09-26T09:02:44Z</time>
      </trkpt>
      <trkpt lat="41.7957320" lon="2.0857960">
        <ele>603.7530000</ele>
        <time>2010-09-26T09:02:51Z</time>
      </trkpt>
      <trkpt lat="41.7954510" lon="2.0858240">
        <ele>604.0110000</ele>
        <time>2010-09-26T09:02:58Z</time>
      </trkpt>
      <trkpt lat="41.7952540" lon="2.0858720">
        <ele>604.5530000</ele>
        <time>2010-09-26T09:03:04Z</time>
      </trkpt>
      <trkpt lat="41.7951130" lon="2.0859730">
        <ele>607.1160000</ele>
        <time>2010-09-26T09:03:10Z</time>
      </trkpt>
      <trkpt lat="41.7949890" lon="2.0861140">
        <ele>608.5190000</ele>
        <time>2010-09-26T09:03:16Z</time>
      </trkpt>
      <trkpt lat="41.7948920" lon="2.0862310">
        <ele>609.2950000</ele>
        <time>2010-09-26T09:03:21Z</time>
      </trkpt>
      <trkpt lat="41.7947640" lon="2.0863640">
        <ele>609.7860000</ele>
        <time>2010-09-26T09:03:27Z</time>
      </trkpt>
      <trkpt lat="41.7947190" lon="2.0864380">
        <ele>609.7360000</ele>
        <time>2010-09-26T09:03:29Z</time>
      </trkpt>
      <trkpt lat="41.7946460" lon="2.0865830">
        <ele>609.3130000</ele>
        <time>2010-09-26T09:03:32Z</time>
      </trkpt>
      <trkpt lat="41.7945470" lon="2.0867650">
        <ele>607.7400000</ele>
        <time>2010-09-26T09:03:36Z</time>
      </trkpt>
      <trkpt lat="41.7944990" lon="2.0866770">
        <ele>606.1190000</ele>
        <time>2010-09-26T09:03:39Z</time>
      </trkpt>
      <trkpt lat="41.7945340" lon="2.0864750">
        <ele>604.1310000</ele>
        <time>2010-09-26T09:03:42Z</time>
      </trkpt>
      <trkpt lat="41.7945320" lon="2.0862080">
        <ele>600.5970000</ele>
        <time>2010-09-26T09:03:46Z</time>
      </trkpt>
      <trkpt lat="41.7944280" lon="2.0862650">
        <ele>598.7290000</ele>
        <time>2010-09-26T09:03:49Z</time>
      </trkpt>
      <trkpt lat="41.7943550" lon="2.0864000">
        <ele>597.1310000</ele>
        <time>2010-09-26T09:03:51Z</time>
      </trkpt>
      <trkpt lat="41.7943000" lon="2.0865450">
        <ele>596.3180000</ele>
        <time>2010-09-26T09:03:53Z</time>
      </trkpt>
      <trkpt lat="41.7942770" lon="2.0867420">
        <ele>595.6620000</ele>
        <time>2010-09-26T09:03:55Z</time>
      </trkpt>
      <trkpt lat="41.7940740" lon="2.0873130">
        <ele>591.0870000</ele>
        <time>2010-09-26T09:04:01Z</time>
      </trkpt>
      <trkpt lat="41.7939180" lon="2.0874350">
        <ele>589.2320000</ele>
        <time>2010-09-26T09:04:05Z</time>
      </trkpt>
      <trkpt lat="41.7938330" lon="2.0873190">
        <ele>588.8780000</ele>
        <time>2010-09-26T09:04:09Z</time>
      </trkpt>
      <trkpt lat="41.7938040" lon="2.0870540">
        <ele>590.6090000</ele>
        <time>2010-09-26T09:04:16Z</time>
      </trkpt>
      <trkpt lat="41.7937940" lon="2.0867410">
        <ele>592.8100000</ele>
        <time>2010-09-26T09:04:24Z</time>
      </trkpt>
      <trkpt lat="41.7938500" lon="2.0865320">
        <ele>593.2670000</ele>
        <time>2010-09-26T09:04:29Z</time>
      </trkpt>
      <trkpt lat="41.7938620" lon="2.0862650">
        <ele>593.9370000</ele>
        <time>2010-09-26T09:04:35Z</time>
      </trkpt>
      <trkpt lat="41.7939100" lon="2.0860360">
        <ele>594.5700000</ele>
        <time>2010-09-26T09:04:41Z</time>
      </trkpt>
      <trkpt lat="41.7939410" lon="2.0857670">
        <ele>595.8580000</ele>
        <time>2010-09-26T09:04:48Z</time>
      </trkpt>
      <trkpt lat="41.7939210" lon="2.0855450">
        <ele>596.4180000</ele>
        <time>2010-09-26T09:04:53Z</time>
      </trkpt>
      <trkpt lat="41.7938560" lon="2.0852150">
        <ele>595.9550000</ele>
        <time>2010-09-26T09:05:00Z</time>
      </trkpt>
      <trkpt lat="41.7937640" lon="2.0849140">
        <ele>595.8770000</ele>
        <time>2010-09-26T09:05:06Z</time>
      </trkpt>
      <trkpt lat="41.7936210" lon="2.0846570">
        <ele>596.3210000</ele>
        <time>2010-09-26T09:05:12Z</time>
      </trkpt>
      <trkpt lat="41.7934430" lon="2.0844680">
        <ele>596.8130000</ele>
        <time>2010-09-26T09:05:18Z</time>
      </trkpt>
      <trkpt lat="41.7932570" lon="2.0844110">
        <ele>597.0230000</ele>
        <time>2010-09-26T09:05:23Z</time>
      </trkpt>
      <trkpt lat="41.7930380" lon="2.0844290">
        <ele>597.3330000</ele>
        <time>2010-09-26T09:05:29Z</time>
      </trkpt>
      <trkpt lat="41.7927280" lon="2.0844680">
        <ele>597.6300000</ele>
        <time>2010-09-26T09:05:37Z</time>
      </trkpt>
      <trkpt lat="41.7924030" lon="2.0844630">
        <ele>598.2290000</ele>
        <time>2010-09-26T09:05:45Z</time>
      </trkpt>
      <trkpt lat="41.7920990" lon="2.0843600">
        <ele>598.1690000</ele>
        <time>2010-09-26T09:05:53Z</time>
      </trkpt>
      <trkpt lat="41.7918580" lon="2.0842160">
        <ele>598.5670000</ele>
        <time>2010-09-26T09:05:59Z</time>
      </trkpt>
      <trkpt lat="41.7916130" lon="2.0840840">
        <ele>599.5520000</ele>
        <time>2010-09-26T09:06:05Z</time>
      </trkpt>
      <trkpt lat="41.7913740" lon="2.0839090">
        <ele>599.0570000</ele>
        <time>2010-09-26T09:06:11Z</time>
      </trkpt>
      <trkpt lat="41.7910540" lon="2.0836610">
        <ele>597.9690000</ele>
        <time>2010-09-26T09:06:18Z</time>
      </trkpt>
      <trkpt lat="41.7907700" lon="2.0834080">
        <ele>598.1040000</ele>
        <time>2010-09-26T09:06:26Z</time>
      </trkpt>
      <trkpt lat="41.7905570" lon="2.0831360">
        <ele>598.0590000</ele>
        <time>2010-09-26T09:06:33Z</time>
      </trkpt>
      <trkpt lat="41.7904310" lon="2.0830540">
        <ele>599.6200000</ele>
        <time>2010-09-26T09:06:38Z</time>
      </trkpt>
      <trkpt lat="41.7902540" lon="2.0829820">
        <ele>601.2720000</ele>
        <time>2010-09-26T09:06:43Z</time>
      </trkpt>
      <trkpt lat="41.7900110" lon="2.0829500">
        <ele>600.7620000</ele>
        <time>2010-09-26T09:06:48Z</time>
      </trkpt>
      <trkpt lat="41.7896800" lon="2.0828870">
        <ele>599.5750000</ele>
        <time>2010-09-26T09:06:54Z</time>
      </trkpt>
      <trkpt lat="41.7895610" lon="2.0828540">
        <ele>598.9180000</ele>
        <time>2010-09-26T09:06:56Z</time>
      </trkpt>
      <trkpt lat="41.7892680" lon="2.0828700">
        <ele>597.1860000</ele>
        <time>2010-09-26T09:07:01Z</time>
      </trkpt>
      <trkpt lat="41.7889830" lon="2.0830050">
        <ele>595.6710000</ele>
        <time>2010-09-26T09:07:06Z</time>
      </trkpt>
      <trkpt lat="41.7888210" lon="2.0831060">
        <ele>595.5080000</ele>
        <time>2010-09-26T09:07:09Z</time>
      </trkpt>
      <trkpt lat="41.7887320" lon="2.0831830">
        <ele>595.5850000</ele>
        <time>2010-09-26T09:07:11Z</time>
      </trkpt>
      <trkpt lat="41.7885580" lon="2.0833620">
        <ele>595.3470000</ele>
        <time>2010-09-26T09:07:15Z</time>
      </trkpt>
      <trkpt lat="41.7881720" lon="2.0834810">
        <ele>596.1900000</ele>
        <time>2010-09-26T09:07:23Z</time>
      </trkpt>
      <trkpt lat="41.7877610" lon="2.0835770">
        <ele>595.5070000</ele>
        <time>2010-09-26T09:07:31Z</time>
      </trkpt>
      <trkpt lat="41.7877190" lon="2.0835790">
        <ele>595.4960000</ele>
        <time>2010-09-26T09:07:32Z</time>
      </trkpt>
      <trkpt lat="41.7874760" lon="2.0834940">
        <ele>596.1770000</ele>
        <time>2010-09-26T09:07:38Z</time>
      </trkpt>
      <trkpt lat="41.7873260" lon="2.0835130">
        <ele>597.2750000</ele>
        <time>2010-09-26T09:07:43Z</time>
      </trkpt>
      <trkpt lat="41.7871560" lon="2.0836860">
        <ele>599.5170000</ele>
        <time>2010-09-26T09:07:50Z</time>
      </trkpt>
      <trkpt lat="41.7869860" lon="2.0838480">
        <ele>600.7340000</ele>
        <time>2010-09-26T09:07:57Z</time>
      </trkpt>
      <trkpt lat="41.7868070" lon="2.0839600">
        <ele>601.0530000</ele>
        <time>2010-09-26T09:08:03Z</time>
      </trkpt>
      <trkpt lat="41.7866900" lon="2.0838840">
        <ele>601.0800000</ele>
        <time>2010-09-26T09:08:07Z</time>
      </trkpt>
      <trkpt lat="41.7865150" lon="2.0838050">
        <ele>601.0850000</ele>
        <time>2010-09-26T09:08:12Z</time>
      </trkpt>
      <trkpt lat="41.7862610" lon="2.0839330">
        <ele>601.3650000</ele>
        <time>2010-09-26T09:08:20Z</time>
      </trkpt>
      <trkpt lat="41.7859970" lon="2.0840730">
        <ele>603.4970000</ele>
        <time>2010-09-26T09:08:29Z</time>
      </trkpt>
      <trkpt lat="41.7858920" lon="2.0841020">
        <ele>604.8390000</ele>
        <time>2010-09-26T09:08:34Z</time>
      </trkpt>
      <trkpt lat="41.7858830" lon="2.0842010">
        <ele>605.5200000</ele>
        <time>2010-09-26T09:08:39Z</time>
      </trkpt>
      <trkpt lat="41.7859780" lon="2.0844420">
        <ele>607.5930000</ele>
        <time>2010-09-26T09:08:48Z</time>
      </trkpt>
      <trkpt lat="41.7860590" lon="2.0846920">
        <ele>609.1920000</ele>
        <time>2010-09-26T09:08:57Z</time>
      </trkpt>
      <trkpt lat="41.7861520" lon="2.0848900">
        <ele>609.8110000</ele>
        <time>2010-09-26T09:09:04Z</time>
      </trkpt>
      <trkpt lat="41.7862340" lon="2.0850330">
        <ele>611.0140000</ele>
        <time>2010-09-26T09:09:10Z</time>
      </trkpt>
      <trkpt lat="41.7863600" lon="2.0852410">
        <ele>612.1170000</ele>
        <time>2010-09-26T09:09:18Z</time>
      </trkpt>
      <trkpt lat="41.7864210" lon="2.0853860">
        <ele>612.8450000</ele>
        <time>2010-09-26T09:09:23Z</time>
      </trkpt>
      <trkpt lat="41.7864970" lon="2.0856320">
        <ele>614.9330000</ele>
        <time>2010-09-26T09:09:31Z</time>
      </trkpt>
      <trkpt lat="41.7865620" lon="2.0858640">
        <ele>616.8050000</ele>
        <time>2010-09-26T09:09:39Z</time>
      </trkpt>
      <trkpt lat="41.7866500" lon="2.0860020">
        <ele>618.4230000</ele>
        <time>2010-09-26T09:09:46Z</time>
      </trkpt>
      <trkpt lat="41.7866540" lon="2.0860800">
        <ele>619.2260000</ele>
        <time>2010-09-26T09:09:49Z</time>
      </trkpt>
      <trkpt lat="41.7865670" lon="2.0861610">
        <ele>620.9560000</ele>
        <time>2010-09-26T09:09:55Z</time>
      </trkpt>
      <trkpt lat="41.7864800" lon="2.0862060">
        <ele>622.7610000</ele>
        <time>2010-09-26T09:10:00Z</time>
      </trkpt>
      <trkpt lat="41.7863870" lon="2.0862740">
        <ele>623.2820000</ele>
        <time>2010-09-26T09:10:06Z</time>
      </trkpt>
      <trkpt lat="41.7862440" lon="2.0863650">
        <ele>624.3950000</ele>
        <time>2010-09-26T09:10:14Z</time>
      </trkpt>
      <trkpt lat="41.7862070" lon="2.0864850">
        <ele>626.2660000</ele>
        <time>2010-09-26T09:10:20Z</time>
      </trkpt>
      <trkpt lat="41.7863060" lon="2.0865610">
        <ele>627.6340000</ele>
        <time>2010-09-26T09:10:26Z</time>
      </trkpt>
      <trkpt lat="41.7864630" lon="2.0865500">
        <ele>628.6560000</ele>
        <time>2010-09-26T09:10:34Z</time>
      </trkpt>
      <trkpt lat="41.7865770" lon="2.0865530">
        <ele>629.9180000</ele>
        <time>2010-09-26T09:10:40Z</time>
      </trkpt>
      <trkpt lat="41.7867290" lon="2.0865640">
        <ele>632.0600000</ele>
        <time>2010-09-26T09:10:48Z</time>
      </trkpt>
      <trkpt lat="41.7868920" lon="2.0866400">
        <ele>633.5620000</ele>
        <time>2010-09-26T09:10:56Z</time>
      </trkpt>
      <trkpt lat="41.7870230" lon="2.0867230">
        <ele>635.1880000</ele>
        <time>2010-09-26T09:11:04Z</time>
      </trkpt>
      <trkpt lat="41.7871720" lon="2.0868090">
        <ele>636.3580000</ele>
        <time>2010-09-26T09:11:11Z</time>
      </trkpt>
      <trkpt lat="41.7872260" lon="2.0869220">
        <ele>636.6460000</ele>
        <time>2010-09-26T09:11:14Z</time>
      </trkpt>
      <trkpt lat="41.7873880" lon="2.0871700">
        <ele>634.7020000</ele>
        <time>2010-09-26T09:11:19Z</time>
      </trkpt>
      <trkpt lat="41.7875330" lon="2.0873850">
        <ele>634.2230000</ele>
        <time>2010-09-26T09:11:23Z</time>
      </trkpt>
      <trkpt lat="41.7877260" lon="2.0878390">
        <ele>633.1050000</ele>
        <time>2010-09-26T09:11:29Z</time>
      </trkpt>
      <trkpt lat="41.7877620" lon="2.0879210">
        <ele>632.7330000</ele>
        <time>2010-09-26T09:11:30Z</time>
      </trkpt>
      <trkpt lat="41.7877610" lon="2.0882640">
        <ele>631.9500000</ele>
        <time>2010-09-26T09:11:34Z</time>
      </trkpt>
      <trkpt lat="41.7876740" lon="2.0882940">
        <ele>631.7480000</ele>
        <time>2010-09-26T09:11:36Z</time>
      </trkpt>
      <trkpt lat="41.7876280" lon="2.0882940">
        <ele>631.5240000</ele>
        <time>2010-09-26T09:11:37Z</time>
      </trkpt>
      <trkpt lat="41.7873110" lon="2.0882940">
        <ele>632.6110000</ele>
        <time>2010-09-26T09:11:46Z</time>
      </trkpt>
      <trkpt lat="41.7871560" lon="2.0884100">
        <ele>633.1270000</ele>
        <time>2010-09-26T09:11:51Z</time>
      </trkpt>
      <trkpt lat="41.7871290" lon="2.0885870">
        <ele>633.1470000</ele>
        <time>2010-09-26T09:11:55Z</time>
      </trkpt>
      <trkpt lat="41.7871480" lon="2.0889050">
        <ele>634.4010000</ele>
        <time>2010-09-26T09:12:02Z</time>
      </trkpt>
      <trkpt lat="41.7871330" lon="2.0892020">
        <ele>634.9390000</ele>
        <time>2010-09-26T09:12:08Z</time>
      </trkpt>
      <trkpt lat="41.7870790" lon="2.0895900">
        <ele>634.4180000</ele>
        <time>2010-09-26T09:12:14Z</time>
      </trkpt>
      <trkpt lat="41.7871660" lon="2.0900520">
        <ele>632.2260000</ele>
        <time>2010-09-26T09:12:19Z</time>
      </trkpt>
      <trkpt lat="41.7872060" lon="2.0901450">
        <ele>631.5890000</ele>
        <time>2010-09-26T09:12:20Z</time>
      </trkpt>
      <trkpt lat="41.7872970" lon="2.0904260">
        <ele>630.1590000</ele>
        <time>2010-09-26T09:12:23Z</time>
      </trkpt>
      <trkpt lat="41.7873550" lon="2.0908130">
        <ele>629.2350000</ele>
        <time>2010-09-26T09:12:27Z</time>
      </trkpt>
      <trkpt lat="41.7874340" lon="2.0909820">
        <ele>629.5160000</ele>
        <time>2010-09-26T09:12:30Z</time>
      </trkpt>
      <trkpt lat="41.7875450" lon="2.0911740">
        <ele>632.0500000</ele>
        <time>2010-09-26T09:12:38Z</time>
      </trkpt>
      <trkpt lat="41.7876360" lon="2.0913480">
        <ele>632.9420000</ele>
        <time>2010-09-26T09:12:45Z</time>
      </trkpt>
      <trkpt lat="41.7877260" lon="2.0914970">
        <ele>634.2700000</ele>
        <time>2010-09-26T09:12:52Z</time>
      </trkpt>
      <trkpt lat="41.7877830" lon="2.0916540">
        <ele>637.1690000</ele>
        <time>2010-09-26T09:12:59Z</time>
      </trkpt>
      <trkpt lat="41.7877990" lon="2.0918150">
        <ele>639.7130000</ele>
        <time>2010-09-26T09:13:07Z</time>
      </trkpt>
      <trkpt lat="41.7878080" lon="2.0919670">
        <ele>641.5040000</ele>
        <time>2010-09-26T09:13:14Z</time>
      </trkpt>
      <trkpt lat="41.7877900" lon="2.0921360">
        <ele>642.6250000</ele>
        <time>2010-09-26T09:13:21Z</time>
      </trkpt>
      <trkpt lat="41.7877840" lon="2.0923480">
        <ele>643.9520000</ele>
        <time>2010-09-26T09:13:29Z</time>
      </trkpt>
      <trkpt lat="41.7877620" lon="2.0926340">
        <ele>645.0160000</ele>
        <time>2010-09-26T09:13:39Z</time>
      </trkpt>
      <trkpt lat="41.7876700" lon="2.0927820">
        <ele>645.5640000</ele>
        <time>2010-09-26T09:13:45Z</time>
      </trkpt>
      <trkpt lat="41.7875710" lon="2.0930040">
        <ele>646.0560000</ele>
        <time>2010-09-26T09:13:53Z</time>
      </trkpt>
      <trkpt lat="41.7875850" lon="2.0932000">
        <ele>646.6680000</ele>
        <time>2010-09-26T09:14:00Z</time>
      </trkpt>
      <trkpt lat="41.7876410" lon="2.0933980">
        <ele>648.6200000</ele>
        <time>2010-09-26T09:14:08Z</time>
      </trkpt>
      <trkpt lat="41.7876950" lon="2.0935320">
        <ele>650.2770000</ele>
        <time>2010-09-26T09:14:14Z</time>
      </trkpt>
      <trkpt lat="41.7877710" lon="2.0937070">
        <ele>652.7260000</ele>
        <time>2010-09-26T09:14:23Z</time>
      </trkpt>
      <trkpt lat="41.7878520" lon="2.0938680">
        <ele>654.4400000</ele>
        <time>2010-09-26T09:14:31Z</time>
      </trkpt>
      <trkpt lat="41.7879080" lon="2.0939940">
        <ele>656.8630000</ele>
        <time>2010-09-26T09:14:38Z</time>
      </trkpt>
      <trkpt lat="41.7879550" lon="2.0942020">
        <ele>658.0940000</ele>
        <time>2010-09-26T09:14:47Z</time>
      </trkpt>
      <trkpt lat="41.7879880" lon="2.0943590">
        <ele>658.9270000</ele>
        <time>2010-09-26T09:14:53Z</time>
      </trkpt>
      <trkpt lat="41.7879440" lon="2.0945000">
        <ele>658.8920000</ele>
        <time>2010-09-26T09:14:57Z</time>
      </trkpt>
      <trkpt lat="41.7878380" lon="2.0945240">
        <ele>659.2250000</ele>
        <time>2010-09-26T09:15:01Z</time>
      </trkpt>
      <trkpt lat="41.7876540" lon="2.0944240">
        <ele>660.1230000</ele>
        <time>2010-09-26T09:15:09Z</time>
      </trkpt>
      <trkpt lat="41.7874920" lon="2.0942200">
        <ele>659.6080000</ele>
        <time>2010-09-26T09:15:14Z</time>
      </trkpt>
      <trkpt lat="41.7873420" lon="2.0939530">
        <ele>658.4980000</ele>
        <time>2010-09-26T09:15:18Z</time>
      </trkpt>
      <trkpt lat="41.7871360" lon="2.0936390">
        <ele>657.2750000</ele>
        <time>2010-09-26T09:15:23Z</time>
      </trkpt>
      <trkpt lat="41.7868610" lon="2.0934570">
        <ele>656.0210000</ele>
        <time>2010-09-26T09:15:28Z</time>
      </trkpt>
      <trkpt lat="41.7867310" lon="2.0932770">
        <ele>655.4700000</ele>
        <time>2010-09-26T09:15:32Z</time>
      </trkpt>
      <trkpt lat="41.7868070" lon="2.0931210">
        <ele>654.7370000</ele>
        <time>2010-09-26T09:15:35Z</time>
      </trkpt>
      <trkpt lat="41.7868460" lon="2.0930870">
        <ele>654.2520000</ele>
        <time>2010-09-26T09:15:36Z</time>
      </trkpt>
      <trkpt lat="41.7871050" lon="2.0927700">
        <ele>652.5680000</ele>
        <time>2010-09-26T09:15:42Z</time>
      </trkpt>
      <trkpt lat="41.7871500" lon="2.0925240">
        <ele>651.3850000</ele>
        <time>2010-09-26T09:15:45Z</time>
      </trkpt>
      <trkpt lat="41.7871440" lon="2.0919410">
        <ele>648.4790000</ele>
        <time>2010-09-26T09:15:51Z</time>
      </trkpt>
      <trkpt lat="41.7870330" lon="2.0915140">
        <ele>645.0100000</ele>
        <time>2010-09-26T09:15:55Z</time>
      </trkpt>
      <trkpt lat="41.7869330" lon="2.0912710">
        <ele>642.4860000</ele>
        <time>2010-09-26T09:15:57Z</time>
      </trkpt>
      <trkpt lat="41.7867590" lon="2.0909450">
        <ele>639.9550000</ele>
        <time>2010-09-26T09:16:00Z</time>
      </trkpt>
      <trkpt lat="41.7866050" lon="2.0908230">
        <ele>638.3690000</ele>
        <time>2010-09-26T09:16:02Z</time>
      </trkpt>
      <trkpt lat="41.7863320" lon="2.0905560">
        <ele>637.6430000</ele>
        <time>2010-09-26T09:16:07Z</time>
      </trkpt>
      <trkpt lat="41.7861550" lon="2.0903710">
        <ele>639.0320000</ele>
        <time>2010-09-26T09:16:13Z</time>
      </trkpt>
      <trkpt lat="41.7859730" lon="2.0901880">
        <ele>641.8880000</ele>
        <time>2010-09-26T09:16:21Z</time>
      </trkpt>
      <trkpt lat="41.7858110" lon="2.0899740">
        <ele>643.5560000</ele>
        <time>2010-09-26T09:16:29Z</time>
      </trkpt>
      <trkpt lat="41.7856850" lon="2.0898060">
        <ele>644.1430000</ele>
        <time>2010-09-26T09:16:35Z</time>
      </trkpt>
      <trkpt lat="41.7855240" lon="2.0896890">
        <ele>645.2800000</ele>
        <time>2010-09-26T09:16:42Z</time>
      </trkpt>
      <trkpt lat="41.7853090" lon="2.0895310">
        <ele>647.2570000</ele>
        <time>2010-09-26T09:16:51Z</time>
      </trkpt>
      <trkpt lat="41.7850380" lon="2.0892980">
        <ele>647.3630000</ele>
        <time>2010-09-26T09:17:01Z</time>
      </trkpt>
      <trkpt lat="41.7848260" lon="2.0891500">
        <ele>647.1290000</ele>
        <time>2010-09-26T09:17:08Z</time>
      </trkpt>
      <trkpt lat="41.7846470" lon="2.0891030">
        <ele>646.7160000</ele>
        <time>2010-09-26T09:17:14Z</time>
      </trkpt>
      <trkpt lat="41.7845630" lon="2.0890720">
        <ele>646.3640000</ele>
        <time>2010-09-26T09:17:17Z</time>
      </trkpt>
      <trkpt lat="41.7843880" lon="2.0891440">
        <ele>645.0120000</ele>
        <time>2010-09-26T09:17:21Z</time>
      </trkpt>
      <trkpt lat="41.7842320" lon="2.0894490">
        <ele>641.2130000</ele>
        <time>2010-09-26T09:17:27Z</time>
      </trkpt>
      <trkpt lat="41.7842410" lon="2.0895070">
        <ele>640.8250000</ele>
        <time>2010-09-26T09:17:28Z</time>
      </trkpt>
      <trkpt lat="41.7842620" lon="2.0897680">
        <ele>640.3670000</ele>
        <time>2010-09-26T09:17:32Z</time>
      </trkpt>
      <trkpt lat="41.7843350" lon="2.0900900">
        <ele>641.3980000</ele>
        <time>2010-09-26T09:17:38Z</time>
      </trkpt>
      <trkpt lat="41.7843900" lon="2.0904670">
        <ele>641.3340000</ele>
        <time>2010-09-26T09:17:45Z</time>
      </trkpt>
      <trkpt lat="41.7844250" lon="2.0909340">
        <ele>641.8180000</ele>
        <time>2010-09-26T09:17:53Z</time>
      </trkpt>
      <trkpt lat="41.7843290" lon="2.0912560">
        <ele>641.2450000</ele>
        <time>2010-09-26T09:17:58Z</time>
      </trkpt>
      <trkpt lat="41.7841880" lon="2.0916060">
        <ele>638.1160000</ele>
        <time>2010-09-26T09:18:03Z</time>
      </trkpt>
      <trkpt lat="41.7840630" lon="2.0917130">
        <ele>637.8610000</ele>
        <time>2010-09-26T09:18:07Z</time>
      </trkpt>
      <trkpt lat="41.7839990" lon="2.0916300">
        <ele>637.7240000</ele>
        <time>2010-09-26T09:18:09Z</time>
      </trkpt>
      <trkpt lat="41.7837440" lon="2.0912460">
        <ele>635.0930000</ele>
        <time>2010-09-26T09:18:16Z</time>
      </trkpt>
      <trkpt lat="41.7837010" lon="2.0911980">
        <ele>634.8700000</ele>
        <time>2010-09-26T09:18:17Z</time>
      </trkpt>
      <trkpt lat="41.7834440" lon="2.0910210">
        <ele>634.4210000</ele>
        <time>2010-09-26T09:18:23Z</time>
      </trkpt>
      <trkpt lat="41.7832000" lon="2.0908580">
        <ele>633.9780000</ele>
        <time>2010-09-26T09:18:29Z</time>
      </trkpt>
      <trkpt lat="41.7830330" lon="2.0908860">
        <ele>633.2600000</ele>
        <time>2010-09-26T09:18:33Z</time>
      </trkpt>
      <trkpt lat="41.7830100" lon="2.0909180">
        <ele>633.2770000</ele>
        <time>2010-09-26T09:18:34Z</time>
      </trkpt>
      <trkpt lat="41.7829660" lon="2.0911220">
        <ele>634.7700000</ele>
        <time>2010-09-26T09:18:40Z</time>
      </trkpt>
      <trkpt lat="41.7830510" lon="2.0913470">
        <ele>635.5260000</ele>
        <time>2010-09-26T09:18:46Z</time>
      </trkpt>
      <trkpt lat="41.7831540" lon="2.0916060">
        <ele>635.7970000</ele>
        <time>2010-09-26T09:18:52Z</time>
      </trkpt>
      <trkpt lat="41.7832160" lon="2.0918680">
        <ele>636.7950000</ele>
        <time>2010-09-26T09:18:58Z</time>
      </trkpt>
      <trkpt lat="41.7831960" lon="2.0921640">
        <ele>637.1860000</ele>
        <time>2010-09-26T09:19:04Z</time>
      </trkpt>
      <trkpt lat="41.7830840" lon="2.0923550">
        <ele>637.6990000</ele>
        <time>2010-09-26T09:19:09Z</time>
      </trkpt>
      <trkpt lat="41.7829300" lon="2.0924780">
        <ele>638.9590000</ele>
        <time>2010-09-26T09:19:15Z</time>
      </trkpt>
      <trkpt lat="41.7828210" lon="2.0925780">
        <ele>640.1230000</ele>
        <time>2010-09-26T09:19:20Z</time>
      </trkpt>
      <trkpt lat="41.7827120" lon="2.0927670">
        <ele>641.8500000</ele>
        <time>2010-09-26T09:19:28Z</time>
      </trkpt>
      <trkpt lat="41.7826490" lon="2.0929870">
        <ele>643.7580000</ele>
        <time>2010-09-26T09:19:35Z</time>
      </trkpt>
      <trkpt lat="41.7825520" lon="2.0932030">
        <ele>643.8950000</ele>
        <time>2010-09-26T09:19:41Z</time>
      </trkpt>
      <trkpt lat="41.7824460" lon="2.0933410">
        <ele>643.3690000</ele>
        <time>2010-09-26T09:19:45Z</time>
      </trkpt>
      <trkpt lat="41.7823290" lon="2.0933450">
        <ele>643.3450000</ele>
        <time>2010-09-26T09:19:49Z</time>
      </trkpt>
      <trkpt lat="41.7821140" lon="2.0932580">
        <ele>644.0050000</ele>
        <time>2010-09-26T09:19:56Z</time>
      </trkpt>
      <trkpt lat="41.7819070" lon="2.0931260">
        <ele>644.4300000</ele>
        <time>2010-09-26T09:20:03Z</time>
      </trkpt>
      <trkpt lat="41.7817150" lon="2.0930310">
        <ele>644.2750000</ele>
        <time>2010-09-26T09:20:08Z</time>
      </trkpt>
      <trkpt lat="41.7815590" lon="2.0930820">
        <ele>644.2920000</ele>
        <time>2010-09-26T09:20:13Z</time>
      </trkpt>
      <trkpt lat="41.7813700" lon="2.0932370">
        <ele>645.7710000</ele>
        <time>2010-09-26T09:20:20Z</time>
      </trkpt>
      <trkpt lat="41.7812640" lon="2.0933180">
        <ele>646.7390000</ele>
        <time>2010-09-26T09:20:25Z</time>
      </trkpt>
      <trkpt lat="41.7811620" lon="2.0933980">
        <ele>648.9600000</ele>
        <time>2010-09-26T09:20:31Z</time>
      </trkpt>
      <trkpt lat="41.7809890" lon="2.0934670">
        <ele>649.5550000</ele>
        <time>2010-09-26T09:20:38Z</time>
      </trkpt>
      <trkpt lat="41.7808060" lon="2.0935420">
        <ele>649.2000000</ele>
        <time>2010-09-26T09:20:43Z</time>
      </trkpt>
      <trkpt lat="41.7807710" lon="2.0935650">
        <ele>649.1420000</ele>
        <time>2010-09-26T09:20:44Z</time>
      </trkpt>
      <trkpt lat="41.7805630" lon="2.0937560">
        <ele>648.7340000</ele>
        <time>2010-09-26T09:20:50Z</time>
      </trkpt>
      <trkpt lat="41.7803830" lon="2.0938330">
        <ele>649.6690000</ele>
        <time>2010-09-26T09:20:56Z</time>
      </trkpt>
      <trkpt lat="41.7802230" lon="2.0938460">
        <ele>652.0120000</ele>
        <time>2010-09-26T09:21:03Z</time>
      </trkpt>
      <trkpt lat="41.7800990" lon="2.0938260">
        <ele>653.8000000</ele>
        <time>2010-09-26T09:21:09Z</time>
      </trkpt>
      <trkpt lat="41.7798680" lon="2.0937360">
        <ele>654.3320000</ele>
        <time>2010-09-26T09:21:17Z</time>
      </trkpt>
      <trkpt lat="41.7797010" lon="2.0937450">
        <ele>653.9190000</ele>
        <time>2010-09-26T09:21:22Z</time>
      </trkpt>
      <trkpt lat="41.7796600" lon="2.0938130">
        <ele>653.9590000</ele>
        <time>2010-09-26T09:21:24Z</time>
      </trkpt>
      <trkpt lat="41.7796920" lon="2.0939760">
        <ele>653.9150000</ele>
        <time>2010-09-26T09:21:28Z</time>
      </trkpt>
      <trkpt lat="41.7797510" lon="2.0940510">
        <ele>653.7810000</ele>
        <time>2010-09-26T09:21:30Z</time>
      </trkpt>
      <trkpt lat="41.7800970" lon="2.0944030">
        <ele>653.0260000</ele>
        <time>2010-09-26T09:21:40Z</time>
      </trkpt>
      <trkpt lat="41.7802880" lon="2.0945860">
        <ele>653.5080000</ele>
        <time>2010-09-26T09:21:46Z</time>
      </trkpt>
      <trkpt lat="41.7804580" lon="2.0948210">
        <ele>653.9750000</ele>
        <time>2010-09-26T09:21:53Z</time>
      </trkpt>
      <trkpt lat="41.7805950" lon="2.0950880">
        <ele>654.3350000</ele>
        <time>2010-09-26T09:22:00Z</time>
      </trkpt>
      <trkpt lat="41.7807550" lon="2.0953770">
        <ele>654.7980000</ele>
        <time>2010-09-26T09:22:08Z</time>
      </trkpt>
      <trkpt lat="41.7809350" lon="2.0955840">
        <ele>655.1500000</ele>
        <time>2010-09-26T09:22:15Z</time>
      </trkpt>
      <trkpt lat="41.7810970" lon="2.0957240">
        <ele>655.5100000</ele>
        <time>2010-09-26T09:22:21Z</time>
      </trkpt>
      <trkpt lat="41.7812080" lon="2.0958920">
        <ele>655.9690000</ele>
        <time>2010-09-26T09:22:27Z</time>
      </trkpt>
      <trkpt lat="41.7811830" lon="2.0960760">
        <ele>656.4490000</ele>
        <time>2010-09-26T09:22:31Z</time>
      </trkpt>
      <trkpt lat="41.7810840" lon="2.0962090">
        <ele>656.1600000</ele>
        <time>2010-09-26T09:22:35Z</time>
      </trkpt>
      <trkpt lat="41.7810500" lon="2.0962300">
        <ele>655.9380000</ele>
        <time>2010-09-26T09:22:36Z</time>
      </trkpt>
      <trkpt lat="41.7808700" lon="2.0962710">
        <ele>654.8840000</ele>
        <time>2010-09-26T09:22:40Z</time>
      </trkpt>
      <trkpt lat="41.7807770" lon="2.0962930">
        <ele>654.1440000</ele>
        <time>2010-09-26T09:22:42Z</time>
      </trkpt>
      <trkpt lat="41.7805280" lon="2.0962580">
        <ele>651.7480000</ele>
        <time>2010-09-26T09:22:47Z</time>
      </trkpt>
      <trkpt lat="41.7803050" lon="2.0962840">
        <ele>648.9890000</ele>
        <time>2010-09-26T09:22:51Z</time>
      </trkpt>
      <trkpt lat="41.7798920" lon="2.0962520">
        <ele>644.6250000</ele>
        <time>2010-09-26T09:22:57Z</time>
      </trkpt>
      <trkpt lat="41.7797200" lon="2.0961320">
        <ele>641.2360000</ele>
        <time>2010-09-26T09:23:01Z</time>
      </trkpt>
      <trkpt lat="41.7797480" lon="2.0960210">
        <ele>638.8440000</ele>
        <time>2010-09-26T09:23:04Z</time>
      </trkpt>
      <trkpt lat="41.7798330" lon="2.0959670">
        <ele>637.8000000</ele>
        <time>2010-09-26T09:23:06Z</time>
      </trkpt>
      <trkpt lat="41.7800210" lon="2.0958850">
        <ele>636.1390000</ele>
        <time>2010-09-26T09:23:10Z</time>
      </trkpt>
      <trkpt lat="41.7801320" lon="2.0957040">
        <ele>633.3750000</ele>
        <time>2010-09-26T09:23:14Z</time>
      </trkpt>
      <trkpt lat="41.7800650" lon="2.0956120">
        <ele>631.8020000</ele>
        <time>2010-09-26T09:23:16Z</time>
      </trkpt>
      <trkpt lat="41.7799070" lon="2.0953390">
        <ele>628.6660000</ele>
        <time>2010-09-26T09:23:21Z</time>
      </trkpt>
      <trkpt lat="41.7797650" lon="2.0950850">
        <ele>625.4710000</ele>
        <time>2010-09-26T09:23:26Z</time>
      </trkpt>
      <trkpt lat="41.7797110" lon="2.0950660">
        <ele>624.6620000</ele>
        <time>2010-09-26T09:23:27Z</time>
      </trkpt>
      <trkpt lat="41.7794770" lon="2.0949650">
        <ele>621.8050000</ele>
        <time>2010-09-26T09:23:31Z</time>
      </trkpt>
      <trkpt lat="41.7793460" lon="2.0949210">
        <ele>621.1570000</ele>
        <time>2010-09-26T09:23:33Z</time>
      </trkpt>
      <trkpt lat="41.7792810" lon="2.0949080">
        <ele>620.0460000</ele>
        <time>2010-09-26T09:23:34Z</time>
      </trkpt>
      <trkpt lat="41.7788610" lon="2.0949680">
        <ele>618.2820000</ele>
        <time>2010-09-26T09:23:40Z</time>
      </trkpt>
      <trkpt lat="41.7786330" lon="2.0950520">
        <ele>616.2550000</ele>
        <time>2010-09-26T09:23:43Z</time>
      </trkpt>
      <trkpt lat="41.7783050" lon="2.0951290">
        <ele>613.5130000</ele>
        <time>2010-09-26T09:23:47Z</time>
      </trkpt>
      <trkpt lat="41.7781810" lon="2.0951700">
        <ele>610.5140000</ele>
        <time>2010-09-26T09:23:51Z</time>
      </trkpt>
      <trkpt lat="41.7782290" lon="2.0951900">
        <ele>609.9700000</ele>
        <time>2010-09-26T09:23:53Z</time>
      </trkpt>
      <trkpt lat="41.7785430" lon="2.0952090">
        <ele>609.6660000</ele>
        <time>2010-09-26T09:24:00Z</time>
      </trkpt>
      <trkpt lat="41.7787500" lon="2.0951580">
        <ele>610.1360000</ele>
        <time>2010-09-26T09:24:05Z</time>
      </trkpt>
      <trkpt lat="41.7787820" lon="2.0951700">
        <ele>610.3270000</ele>
        <time>2010-09-26T09:24:06Z</time>
      </trkpt>
      <trkpt lat="41.7788300" lon="2.0953240">
        <ele>610.8740000</ele>
        <time>2010-09-26T09:24:10Z</time>
      </trkpt>
      <trkpt lat="41.7787280" lon="2.0954160">
        <ele>610.6100000</ele>
        <time>2010-09-26T09:24:13Z</time>
      </trkpt>
      <trkpt lat="41.7786610" lon="2.0955050">
        <ele>609.7500000</ele>
        <time>2010-09-26T09:24:16Z</time>
      </trkpt>
      <trkpt lat="41.7786730" lon="2.0955420">
        <ele>609.3840000</ele>
        <time>2010-09-26T09:24:19Z</time>
      </trkpt>
      <trkpt lat="41.7787040" lon="2.0956140">
        <ele>609.8630000</ele>
        <time>2010-09-26T09:24:28Z</time>
      </trkpt>
      <trkpt lat="41.7787290" lon="2.0956690">
        <ele>611.6770000</ele>
        <time>2010-09-26T09:24:34Z</time>
      </trkpt>
      <trkpt lat="41.7787290" lon="2.0956920">
        <ele>612.1770000</ele>
        <time>2010-09-26T09:24:36Z</time>
      </trkpt>
      <trkpt lat="41.7787500" lon="2.0957340">
        <ele>613.6190000</ele>
        <time>2010-09-26T09:24:43Z</time>
      </trkpt>
      <trkpt lat="41.7787510" lon="2.0957410">
        <ele>613.7770000</ele>
        <time>2010-09-26T09:24:45Z</time>
      </trkpt>
      <trkpt lat="41.7787740" lon="2.0957930">
        <ele>613.8910000</ele>
        <time>2010-09-26T09:24:50Z</time>
      </trkpt>
      <trkpt lat="41.7788950" lon="2.0959390">
        <ele>612.8890000</ele>
        <time>2010-09-26T09:24:55Z</time>
      </trkpt>
      <trkpt lat="41.7790620" lon="2.0962030">
        <ele>612.1410000</ele>
        <time>2010-09-26T09:25:02Z</time>
      </trkpt>
      <trkpt lat="41.7791890" lon="2.0964320">
        <ele>610.3860000</ele>
        <time>2010-09-26T09:25:08Z</time>
      </trkpt>
      <trkpt lat="41.7793820" lon="2.0967430">
        <ele>609.1710000</ele>
        <time>2010-09-26T09:25:15Z</time>
      </trkpt>
      <trkpt lat="41.7794390" lon="2.0968320">
        <ele>608.7860000</ele>
        <time>2010-09-26T09:25:17Z</time>
      </trkpt>
      <trkpt lat="41.7796170" lon="2.0969900">
        <ele>605.8920000</ele>
        <time>2010-09-26T09:25:23Z</time>
      </trkpt>
      <trkpt lat="41.7796950" lon="2.0970600">
        <ele>603.8420000</ele>
        <time>2010-09-26T09:25:27Z</time>
      </trkpt>
      <trkpt lat="41.7797410" lon="2.0970350">
        <ele>603.7510000</ele>
        <time>2010-09-26T09:25:30Z</time>
      </trkpt>
      <trkpt lat="41.7797790" lon="2.0970660">
        <ele>603.5970000</ele>
        <time>2010-09-26T09:25:34Z</time>
      </trkpt>
      <trkpt lat="41.7797810" lon="2.0970720">
        <ele>603.5260000</ele>
        <time>2010-09-26T09:25:35Z</time>
      </trkpt>
      <trkpt lat="41.7797790" lon="2.0970940">
        <ele>603.8770000</ele>
        <time>2010-09-26T09:25:39Z</time>
      </trkpt>
      <trkpt lat="41.7797630" lon="2.0972710">
        <ele>604.4250000</ele>
        <time>2010-09-26T09:25:46Z</time>
      </trkpt>
      <trkpt lat="41.7797910" lon="2.0975110">
        <ele>604.2770000</ele>
        <time>2010-09-26T09:25:51Z</time>
      </trkpt>
      <trkpt lat="41.7798300" lon="2.0976690">
        <ele>603.0150000</ele>
        <time>2010-09-26T09:25:56Z</time>
      </trkpt>
      <trkpt lat="41.7798510" lon="2.0977060">
        <ele>602.7780000</ele>
        <time>2010-09-26T09:26:00Z</time>
      </trkpt>
      <trkpt lat="41.7798830" lon="2.0977690">
        <ele>602.8910000</ele>
        <time>2010-09-26T09:26:08Z</time>
      </trkpt>
      <trkpt lat="41.7799230" lon="2.0977980">
        <ele>604.3100000</ele>
        <time>2010-09-26T09:26:14Z</time>
      </trkpt>
      <trkpt lat="41.7799880" lon="2.0978330">
        <ele>606.1100000</ele>
        <time>2010-09-26T09:26:24Z</time>
      </trkpt>
      <trkpt lat="41.7800000" lon="2.0978450">
        <ele>606.4760000</ele>
        <time>2010-09-26T09:26:27Z</time>
      </trkpt>
      <trkpt lat="41.7801130" lon="2.0980400">
        <ele>605.0570000</ele>
        <time>2010-09-26T09:26:34Z</time>
      </trkpt>
      <trkpt lat="41.7801630" lon="2.0981280">
        <ele>605.0130000</ele>
        <time>2010-09-26T09:26:39Z</time>
      </trkpt>
      <trkpt lat="41.7802260" lon="2.0982560">
        <ele>605.3310000</ele>
        <time>2010-09-26T09:26:45Z</time>
      </trkpt>
      <trkpt lat="41.7803010" lon="2.0983290">
        <ele>605.0010000</ele>
        <time>2010-09-26T09:26:50Z</time>
      </trkpt>
      <trkpt lat="41.7803500" lon="2.0984030">
        <ele>604.7210000</ele>
        <time>2010-09-26T09:26:54Z</time>
      </trkpt>
      <trkpt lat="41.7803550" lon="2.0984060">
        <ele>604.6280000</ele>
        <time>2010-09-26T09:26:56Z</time>
      </trkpt>
      <trkpt lat="41.7803960" lon="2.0984490">
        <ele>604.7230000</ele>
        <time>2010-09-26T09:27:14Z</time>
      </trkpt>
      <trkpt lat="41.7804110" lon="2.0984630">
        <ele>604.7190000</ele>
        <time>2010-09-26T09:27:15Z</time>
      </trkpt>
      <trkpt lat="41.7804790" lon="2.0985850">
        <ele>605.5790000</ele>
        <time>2010-09-26T09:27:21Z</time>
      </trkpt>
      <trkpt lat="41.7804960" lon="2.0986740">
        <ele>605.1420000</ele>
        <time>2010-09-26T09:27:24Z</time>
      </trkpt>
      <trkpt lat="41.7805260" lon="2.0988400">
        <ele>604.5900000</ele>
        <time>2010-09-26T09:27:30Z</time>
      </trkpt>
      <trkpt lat="41.7805720" lon="2.0989690">
        <ele>604.7670000</ele>
        <time>2010-09-26T09:27:35Z</time>
      </trkpt>
      <trkpt lat="41.7805330" lon="2.0991700">
        <ele>605.0030000</ele>
        <time>2010-09-26T09:27:42Z</time>
      </trkpt>
      <trkpt lat="41.7805030" lon="2.0993120">
        <ele>605.1230000</ele>
        <time>2010-09-26T09:27:48Z</time>
      </trkpt>
      <trkpt lat="41.7804390" lon="2.0995140">
        <ele>605.7290000</ele>
        <time>2010-09-26T09:27:55Z</time>
      </trkpt>
      <trkpt lat="41.7803770" lon="2.0997220">
        <ele>605.4730000</ele>
        <time>2010-09-26T09:28:00Z</time>
      </trkpt>
      <trkpt lat="41.7802090" lon="2.1000740">
        <ele>602.7400000</ele>
        <time>2010-09-26T09:28:07Z</time>
      </trkpt>
      <trkpt lat="41.7800720" lon="2.1002810">
        <ele>602.4580000</ele>
        <time>2010-09-26T09:28:12Z</time>
      </trkpt>
      <trkpt lat="41.7799130" lon="2.1002990">
        <ele>602.6120000</ele>
        <time>2010-09-26T09:28:16Z</time>
      </trkpt>
      <trkpt lat="41.7796550" lon="2.1002760">
        <ele>602.8530000</ele>
        <time>2010-09-26T09:28:22Z</time>
      </trkpt>
      <trkpt lat="41.7796070" lon="2.1002770">
        <ele>602.6990000</ele>
        <time>2010-09-26T09:28:23Z</time>
      </trkpt>
      <trkpt lat="41.7793640" lon="2.1003920">
        <ele>601.7370000</ele>
        <time>2010-09-26T09:28:28Z</time>
      </trkpt>
      <trkpt lat="41.7793280" lon="2.1004380">
        <ele>601.3600000</ele>
        <time>2010-09-26T09:28:29Z</time>
      </trkpt>
      <trkpt lat="41.7792270" lon="2.1006860">
        <ele>601.8300000</ele>
        <time>2010-09-26T09:28:34Z</time>
      </trkpt>
      <trkpt lat="41.7791590" lon="2.1011300">
        <ele>601.4450000</ele>
        <time>2010-09-26T09:28:41Z</time>
      </trkpt>
      <trkpt lat="41.7790790" lon="2.1013340">
        <ele>601.3660000</ele>
        <time>2010-09-26T09:28:45Z</time>
      </trkpt>
      <trkpt lat="41.7789820" lon="2.1015920">
        <ele>601.6190000</ele>
        <time>2010-09-26T09:28:51Z</time>
      </trkpt>
      <trkpt lat="41.7789020" lon="2.1019130">
        <ele>601.5550000</ele>
        <time>2010-09-26T09:28:58Z</time>
      </trkpt>
      <trkpt lat="41.7788580" lon="2.1020760">
        <ele>601.6620000</ele>
        <time>2010-09-26T09:29:01Z</time>
      </trkpt>
      <trkpt lat="41.7786450" lon="2.1025520">
        <ele>602.6190000</ele>
        <time>2010-09-26T09:29:10Z</time>
      </trkpt>
      <trkpt lat="41.7784150" lon="2.1029340">
        <ele>603.8040000</ele>
        <time>2010-09-26T09:29:18Z</time>
      </trkpt>
      <trkpt lat="41.7782980" lon="2.1032470">
        <ele>603.3500000</ele>
        <time>2010-09-26T09:29:23Z</time>
      </trkpt>
      <trkpt lat="41.7781710" lon="2.1037910">
        <ele>602.3910000</ele>
        <time>2010-09-26T09:29:30Z</time>
      </trkpt>
      <trkpt lat="41.7781270" lon="2.1040140">
        <ele>602.1370000</ele>
        <time>2010-09-26T09:29:34Z</time>
      </trkpt>
      <trkpt lat="41.7780080" lon="2.1042590">
        <ele>601.7850000</ele>
        <time>2010-09-26T09:29:40Z</time>
      </trkpt>
      <trkpt lat="41.7779870" lon="2.1043060">
        <ele>601.7330000</ele>
        <time>2010-09-26T09:29:41Z</time>
      </trkpt>
      <trkpt lat="41.7779760" lon="2.1045090">
        <ele>601.6590000</ele>
        <time>2010-09-26T09:29:45Z</time>
      </trkpt>
      <trkpt lat="41.7780050" lon="2.1045510">
        <ele>601.7260000</ele>
        <time>2010-09-26T09:29:46Z</time>
      </trkpt>
      <trkpt lat="41.7780690" lon="2.1046360">
        <ele>601.9100000</ele>
        <time>2010-09-26T09:29:48Z</time>
      </trkpt>
      <trkpt lat="41.7781660" lon="2.1049280">
        <ele>602.3310000</ele>
        <time>2010-09-26T09:29:54Z</time>
      </trkpt>
      <trkpt lat="41.7781960" lon="2.1053380">
        <ele>603.5660000</ele>
        <time>2010-09-26T09:30:02Z</time>
      </trkpt>
      <trkpt lat="41.7782170" lon="2.1058860">
        <ele>604.8080000</ele>
        <time>2010-09-26T09:30:13Z</time>
      </trkpt>
      <trkpt lat="41.7782560" lon="2.1063270">
        <ele>606.3690000</ele>
        <time>2010-09-26T09:30:22Z</time>
      </trkpt>
      <trkpt lat="41.7783830" lon="2.1066570">
        <ele>607.3240000</ele>
        <time>2010-09-26T09:30:29Z</time>
      </trkpt>
      <trkpt lat="41.7786320" lon="2.1069540">
        <ele>608.7090000</ele>
        <time>2010-09-26T09:30:37Z</time>
      </trkpt>
      <trkpt lat="41.7789440" lon="2.1072420">
        <ele>610.2440000</ele>
        <time>2010-09-26T09:30:46Z</time>
      </trkpt>
      <trkpt lat="41.7792680" lon="2.1075090">
        <ele>611.5230000</ele>
        <time>2010-09-26T09:30:55Z</time>
      </trkpt>
      <trkpt lat="41.7795780" lon="2.1076570">
        <ele>612.8940000</ele>
        <time>2010-09-26T09:31:03Z</time>
      </trkpt>
      <trkpt lat="41.7798980" lon="2.1076840">
        <ele>614.2740000</ele>
        <time>2010-09-26T09:31:11Z</time>
      </trkpt>
      <trkpt lat="41.7802720" lon="2.1075860">
        <ele>616.2280000</ele>
        <time>2010-09-26T09:31:21Z</time>
      </trkpt>
      <trkpt lat="41.7806670" lon="2.1075180">
        <ele>617.5760000</ele>
        <time>2010-09-26T09:31:31Z</time>
      </trkpt>
      <trkpt lat="41.7811010" lon="2.1074310">
        <ele>619.9000000</ele>
        <time>2010-09-26T09:31:42Z</time>
      </trkpt>
      <trkpt lat="41.7815030" lon="2.1073560">
        <ele>621.8740000</ele>
        <time>2010-09-26T09:31:52Z</time>
      </trkpt>
      <trkpt lat="41.7818140" lon="2.1072990">
        <ele>622.8670000</ele>
        <time>2010-09-26T09:32:00Z</time>
      </trkpt>
      <trkpt lat="41.7820780" lon="2.1072250">
        <ele>623.7320000</ele>
        <time>2010-09-26T09:32:08Z</time>
      </trkpt>
      <trkpt lat="41.7821460" lon="2.1071930">
        <ele>623.8450000</ele>
        <time>2010-09-26T09:32:13Z</time>
      </trkpt>
      <trkpt lat="41.7821460" lon="2.1071930">
        <ele>623.9120000</ele>
        <time>2010-09-26T09:32:14Z</time>
      </trkpt>
      <trkpt lat="41.7822200" lon="2.1071950">
        <ele>624.3430000</ele>
        <time>2010-09-26T09:34:44Z</time>
      </trkpt>
      <trkpt lat="41.7822360" lon="2.1071940">
        <ele>624.3410000</ele>
        <time>2010-09-26T09:34:45Z</time>
      </trkpt>
      <trkpt lat="41.7824080" lon="2.1071900">
        <ele>624.8170000</ele>
        <time>2010-09-26T09:34:54Z</time>
      </trkpt>
      <trkpt lat="41.7826070" lon="2.1072130">
        <ele>625.9490000</ele>
        <time>2010-09-26T09:35:02Z</time>
      </trkpt>
      <trkpt lat="41.7828180" lon="2.1072220">
        <ele>626.1190000</ele>
        <time>2010-09-26T09:35:09Z</time>
      </trkpt>
      <trkpt lat="41.7831110" lon="2.1071890">
        <ele>626.6390000</ele>
        <time>2010-09-26T09:35:18Z</time>
      </trkpt>
      <trkpt lat="41.7833380" lon="2.1071340">
        <ele>626.6520000</ele>
        <time>2010-09-26T09:35:25Z</time>
      </trkpt>
      <trkpt lat="41.7836410" lon="2.1071340">
        <ele>627.3550000</ele>
        <time>2010-09-26T09:35:34Z</time>
      </trkpt>
      <trkpt lat="41.7836890" lon="2.1072030">
        <ele>627.5260000</ele>
        <time>2010-09-26T09:35:36Z</time>
      </trkpt>
      <trkpt lat="41.7837220" lon="2.1075640">
        <ele>626.1220000</ele>
        <time>2010-09-26T09:35:41Z</time>
      </trkpt>
      <trkpt lat="41.7837580" lon="2.1078600">
        <ele>624.6730000</ele>
        <time>2010-09-26T09:35:45Z</time>
      </trkpt>
      <trkpt lat="41.7836820" lon="2.1079720">
        <ele>624.0750000</ele>
        <time>2010-09-26T09:35:47Z</time>
      </trkpt>
      <trkpt lat="41.7833120" lon="2.1082310">
        <ele>621.8100000</ele>
        <time>2010-09-26T09:35:53Z</time>
      </trkpt>
      <trkpt lat="41.7831780" lon="2.1083450">
        <ele>621.0040000</ele>
        <time>2010-09-26T09:35:55Z</time>
      </trkpt>
      <trkpt lat="41.7829440" lon="2.1084790">
        <ele>619.5980000</ele>
        <time>2010-09-26T09:35:58Z</time>
      </trkpt>
      <trkpt lat="41.7826380" lon="2.1087730">
        <ele>617.6170000</ele>
        <time>2010-09-26T09:36:02Z</time>
      </trkpt>
      <trkpt lat="41.7821790" lon="2.1090860">
        <ele>614.8410000</ele>
        <time>2010-09-26T09:36:07Z</time>
      </trkpt>
      <trkpt lat="41.7816080" lon="2.1094600">
        <ele>612.4650000</ele>
        <time>2010-09-26T09:36:13Z</time>
      </trkpt>
      <trkpt lat="41.7813510" lon="2.1096500">
        <ele>611.5620000</ele>
        <time>2010-09-26T09:36:16Z</time>
      </trkpt>
      <trkpt lat="41.7811420" lon="2.1098320">
        <ele>608.8520000</ele>
        <time>2010-09-26T09:36:20Z</time>
      </trkpt>
      <trkpt lat="41.7811690" lon="2.1099430">
        <ele>607.3090000</ele>
        <time>2010-09-26T09:36:22Z</time>
      </trkpt>
      <trkpt lat="41.7812560" lon="2.1099900">
        <ele>606.6440000</ele>
        <time>2010-09-26T09:36:24Z</time>
      </trkpt>
      <trkpt lat="41.7813540" lon="2.1100000">
        <ele>606.4170000</ele>
        <time>2010-09-26T09:36:26Z</time>
      </trkpt>
      <trkpt lat="41.7817670" lon="2.1100710">
        <ele>606.2380000</ele>
        <time>2010-09-26T09:36:34Z</time>
      </trkpt>
      <trkpt lat="41.7820960" lon="2.1100560">
        <ele>605.9760000</ele>
        <time>2010-09-26T09:36:40Z</time>
      </trkpt>
      <trkpt lat="41.7823400" lon="2.1100180">
        <ele>606.7020000</ele>
        <time>2010-09-26T09:36:45Z</time>
      </trkpt>
      <trkpt lat="41.7825700" lon="2.1100910">
        <ele>606.9500000</ele>
        <time>2010-09-26T09:36:50Z</time>
      </trkpt>
      <trkpt lat="41.7826330" lon="2.1102440">
        <ele>606.9560000</ele>
        <time>2010-09-26T09:36:53Z</time>
      </trkpt>
      <trkpt lat="41.7825760" lon="2.1103200">
        <ele>606.8280000</ele>
        <time>2010-09-26T09:36:55Z</time>
      </trkpt>
      <trkpt lat="41.7825420" lon="2.1103350">
        <ele>606.7280000</ele>
        <time>2010-09-26T09:36:56Z</time>
      </trkpt>
      <trkpt lat="41.7823610" lon="2.1103800">
        <ele>607.0680000</ele>
        <time>2010-09-26T09:37:01Z</time>
      </trkpt>
      <trkpt lat="41.7823310" lon="2.1105120">
        <ele>608.0710000</ele>
        <time>2010-09-26T09:37:05Z</time>
      </trkpt>
      <trkpt lat="41.7824260" lon="2.1105990">
        <ele>608.9660000</ele>
        <time>2010-09-26T09:37:09Z</time>
      </trkpt>
      <trkpt lat="41.7826400" lon="2.1106470">
        <ele>610.0670000</ele>
        <time>2010-09-26T09:37:16Z</time>
      </trkpt>
      <trkpt lat="41.7826930" lon="2.1107590">
        <ele>611.2300000</ele>
        <time>2010-09-26T09:37:20Z</time>
      </trkpt>
      <trkpt lat="41.7826360" lon="2.1108830">
        <ele>612.5030000</ele>
        <time>2010-09-26T09:37:24Z</time>
      </trkpt>
      <trkpt lat="41.7825570" lon="2.1111140">
        <ele>614.4000000</ele>
        <time>2010-09-26T09:37:31Z</time>
      </trkpt>
      <trkpt lat="41.7825270" lon="2.1115380">
        <ele>616.1040000</ele>
        <time>2010-09-26T09:37:42Z</time>
      </trkpt>
      <trkpt lat="41.7825680" lon="2.1118420">
        <ele>617.0100000</ele>
        <time>2010-09-26T09:37:50Z</time>
      </trkpt>
      <trkpt lat="41.7826380" lon="2.1121240">
        <ele>618.0390000</ele>
        <time>2010-09-26T09:37:59Z</time>
      </trkpt>
      <trkpt lat="41.7827250" lon="2.1123400">
        <ele>619.4320000</ele>
        <time>2010-09-26T09:38:06Z</time>
      </trkpt>
      <trkpt lat="41.7828910" lon="2.1125510">
        <ele>620.5050000</ele>
        <time>2010-09-26T09:38:14Z</time>
      </trkpt>
      <trkpt lat="41.7830200" lon="2.1127030">
        <ele>621.7440000</ele>
        <time>2010-09-26T09:38:20Z</time>
      </trkpt>
      <trkpt lat="41.7830460" lon="2.1129080">
        <ele>621.9890000</ele>
        <time>2010-09-26T09:38:25Z</time>
      </trkpt>
      <trkpt lat="41.7831360" lon="2.1131450">
        <ele>622.4900000</ele>
        <time>2010-09-26T09:38:32Z</time>
      </trkpt>
      <trkpt lat="41.7831590" lon="2.1134120">
        <ele>623.6140000</ele>
        <time>2010-09-26T09:38:39Z</time>
      </trkpt>
      <trkpt lat="41.7831710" lon="2.1137040">
        <ele>624.8820000</ele>
        <time>2010-09-26T09:38:47Z</time>
      </trkpt>
      <trkpt lat="41.7832680" lon="2.1139080">
        <ele>626.2990000</ele>
        <time>2010-09-26T09:38:53Z</time>
      </trkpt>
      <trkpt lat="41.7834370" lon="2.1140460">
        <ele>626.5280000</ele>
        <time>2010-09-26T09:38:59Z</time>
      </trkpt>
      <trkpt lat="41.7837630" lon="2.1141730">
        <ele>627.1770000</ele>
        <time>2010-09-26T09:39:08Z</time>
      </trkpt>
      <trkpt lat="41.7839980" lon="2.1143560">
        <ele>627.4410000</ele>
        <time>2010-09-26T09:39:15Z</time>
      </trkpt>
      <trkpt lat="41.7842260" lon="2.1145920">
        <ele>629.0580000</ele>
        <time>2010-09-26T09:39:23Z</time>
      </trkpt>
      <trkpt lat="41.7843880" lon="2.1148510">
        <ele>629.8160000</ele>
        <time>2010-09-26T09:39:31Z</time>
      </trkpt>
      <trkpt lat="41.7844530" lon="2.1150980">
        <ele>631.0850000</ele>
        <time>2010-09-26T09:39:38Z</time>
      </trkpt>
      <trkpt lat="41.7845380" lon="2.1153110">
        <ele>632.3310000</ele>
        <time>2010-09-26T09:39:44Z</time>
      </trkpt>
      <trkpt lat="41.7847540" lon="2.1155450">
        <ele>632.7390000</ele>
        <time>2010-09-26T09:39:52Z</time>
      </trkpt>
      <trkpt lat="41.7849220" lon="2.1157600">
        <ele>633.5570000</ele>
        <time>2010-09-26T09:39:59Z</time>
      </trkpt>
      <trkpt lat="41.7850980" lon="2.1161550">
        <ele>634.5260000</ele>
        <time>2010-09-26T09:40:09Z</time>
      </trkpt>
      <trkpt lat="41.7852820" lon="2.1164560">
        <ele>635.6240000</ele>
        <time>2010-09-26T09:40:18Z</time>
      </trkpt>
      <trkpt lat="41.7854450" lon="2.1166630">
        <ele>636.2610000</ele>
        <time>2010-09-26T09:40:26Z</time>
      </trkpt>
      <trkpt lat="41.7855630" lon="2.1166480">
        <ele>637.0340000</ele>
        <time>2010-09-26T09:40:32Z</time>
      </trkpt>
      <trkpt lat="41.7857130" lon="2.1165840">
        <ele>638.4190000</ele>
        <time>2010-09-26T09:40:39Z</time>
      </trkpt>
      <trkpt lat="41.7858530" lon="2.1165000">
        <ele>639.7800000</ele>
        <time>2010-09-26T09:40:47Z</time>
      </trkpt>
      <trkpt lat="41.7860160" lon="2.1164310">
        <ele>642.0680000</ele>
        <time>2010-09-26T09:40:56Z</time>
      </trkpt>
      <trkpt lat="41.7861800" lon="2.1164010">
        <ele>645.4080000</ele>
        <time>2010-09-26T09:41:06Z</time>
      </trkpt>
      <trkpt lat="41.7863270" lon="2.1163900">
        <ele>648.3980000</ele>
        <time>2010-09-26T09:41:15Z</time>
      </trkpt>
      <trkpt lat="41.7864920" lon="2.1164370">
        <ele>649.5950000</ele>
        <time>2010-09-26T09:41:24Z</time>
      </trkpt>
      <trkpt lat="41.7867040" lon="2.1165610">
        <ele>650.4560000</ele>
        <time>2010-09-26T09:41:35Z</time>
      </trkpt>
      <trkpt lat="41.7868060" lon="2.1166470">
        <ele>651.4020000</ele>
        <time>2010-09-26T09:41:42Z</time>
      </trkpt>
      <trkpt lat="41.7869220" lon="2.1167330">
        <ele>653.7620000</ele>
        <time>2010-09-26T09:41:50Z</time>
      </trkpt>
      <trkpt lat="41.7869580" lon="2.1167670">
        <ele>654.8980000</ele>
        <time>2010-09-26T09:41:53Z</time>
      </trkpt>
      <trkpt lat="41.7870300" lon="2.1168080">
        <ele>657.1150000</ele>
        <time>2010-09-26T09:42:00Z</time>
      </trkpt>
      <trkpt lat="41.7870570" lon="2.1168500">
        <ele>657.4900000</ele>
        <time>2010-09-26T09:42:04Z</time>
      </trkpt>
      <trkpt lat="41.7871550" lon="2.1169690">
        <ele>659.8340000</ele>
        <time>2010-09-26T09:42:14Z</time>
      </trkpt>
      <trkpt lat="41.7872500" lon="2.1170540">
        <ele>661.3580000</ele>
        <time>2010-09-26T09:42:22Z</time>
      </trkpt>
      <trkpt lat="41.7873850" lon="2.1171630">
        <ele>662.4160000</ele>
        <time>2010-09-26T09:42:31Z</time>
      </trkpt>
      <trkpt lat="41.7875230" lon="2.1172710">
        <ele>662.8850000</ele>
        <time>2010-09-26T09:42:39Z</time>
      </trkpt>
      <trkpt lat="41.7876840" lon="2.1173800">
        <ele>663.4110000</ele>
        <time>2010-09-26T09:42:48Z</time>
      </trkpt>
      <trkpt lat="41.7878750" lon="2.1174990">
        <ele>663.9030000</ele>
        <time>2010-09-26T09:42:58Z</time>
      </trkpt>
      <trkpt lat="41.7880120" lon="2.1176380">
        <ele>663.7300000</ele>
        <time>2010-09-26T09:43:05Z</time>
      </trkpt>
      <trkpt lat="41.7881060" lon="2.1177250">
        <ele>663.6180000</ele>
        <time>2010-09-26T09:43:09Z</time>
      </trkpt>
      <trkpt lat="41.7881400" lon="2.1177580">
        <ele>663.5320000</ele>
        <time>2010-09-26T09:43:10Z</time>
      </trkpt>
      <trkpt lat="41.7882870" lon="2.1179720">
        <ele>662.4690000</ele>
        <time>2010-09-26T09:43:14Z</time>
      </trkpt>
      <trkpt lat="41.7885680" lon="2.1181840">
        <ele>661.3970000</ele>
        <time>2010-09-26T09:43:19Z</time>
      </trkpt>
      <trkpt lat="41.7886750" lon="2.1181350">
        <ele>661.0550000</ele>
        <time>2010-09-26T09:43:21Z</time>
      </trkpt>
      <trkpt lat="41.7889160" lon="2.1179410">
        <ele>660.5450000</ele>
        <time>2010-09-26T09:43:26Z</time>
      </trkpt>
      <trkpt lat="41.7890700" lon="2.1178360">
        <ele>660.0360000</ele>
        <time>2010-09-26T09:43:29Z</time>
      </trkpt>
      <trkpt lat="41.7892760" lon="2.1175930">
        <ele>658.4920000</ele>
        <time>2010-09-26T09:43:33Z</time>
      </trkpt>
      <trkpt lat="41.7895800" lon="2.1173070">
        <ele>655.3990000</ele>
        <time>2010-09-26T09:43:38Z</time>
      </trkpt>
      <trkpt lat="41.7898820" lon="2.1173790">
        <ele>651.2010000</ele>
        <time>2010-09-26T09:43:42Z</time>
      </trkpt>
      <trkpt lat="41.7900580" lon="2.1174580">
        <ele>650.1620000</ele>
        <time>2010-09-26T09:43:44Z</time>
      </trkpt>
      <trkpt lat="41.7902250" lon="2.1175890">
        <ele>648.3670000</ele>
        <time>2010-09-26T09:43:46Z</time>
      </trkpt>
      <trkpt lat="41.7903420" lon="2.1177810">
        <ele>646.3090000</ele>
        <time>2010-09-26T09:43:48Z</time>
      </trkpt>
      <trkpt lat="41.7905410" lon="2.1180070">
        <ele>643.5030000</ele>
        <time>2010-09-26T09:43:52Z</time>
      </trkpt>
      <trkpt lat="41.7905510" lon="2.1178840">
        <ele>642.1700000</ele>
        <time>2010-09-26T09:43:54Z</time>
      </trkpt>
      <trkpt lat="41.7905790" lon="2.1177560">
        <ele>640.3620000</ele>
        <time>2010-09-26T09:43:56Z</time>
      </trkpt>
      <trkpt lat="41.7905860" lon="2.1173300">
        <ele>637.3540000</ele>
        <time>2010-09-26T09:44:00Z</time>
      </trkpt>
      <trkpt lat="41.7904250" lon="2.1169890">
        <ele>635.7390000</ele>
        <time>2010-09-26T09:44:03Z</time>
      </trkpt>
      <trkpt lat="41.7902780" lon="2.1168190">
        <ele>634.7020000</ele>
        <time>2010-09-26T09:44:05Z</time>
      </trkpt>
      <trkpt lat="41.7901590" lon="2.1166870">
        <ele>633.6970000</ele>
        <time>2010-09-26T09:44:07Z</time>
      </trkpt>
      <trkpt lat="41.7901670" lon="2.1165130">
        <ele>630.7630000</ele>
        <time>2010-09-26T09:44:11Z</time>
      </trkpt>
      <trkpt lat="41.7902130" lon="2.1165090">
        <ele>630.7570000</ele>
        <time>2010-09-26T09:44:12Z</time>
      </trkpt>
      <trkpt lat="41.7906180" lon="2.1163950">
        <ele>626.4750000</ele>
        <time>2010-09-26T09:44:19Z</time>
      </trkpt>
      <trkpt lat="41.7907350" lon="2.1163680">
        <ele>625.2340000</ele>
        <time>2010-09-26T09:44:22Z</time>
      </trkpt>
      <trkpt lat="41.7908450" lon="2.1164060">
        <ele>623.7220000</ele>
        <time>2010-09-26T09:44:27Z</time>
      </trkpt>
      <trkpt lat="41.7909020" lon="2.1165390">
        <ele>624.3090000</ele>
        <time>2010-09-26T09:44:33Z</time>
      </trkpt>
      <trkpt lat="41.7909780" lon="2.1166770">
        <ele>626.2160000</ele>
        <time>2010-09-26T09:44:41Z</time>
      </trkpt>
      <trkpt lat="41.7910580" lon="2.1168140">
        <ele>628.8830000</ele>
        <time>2010-09-26T09:44:49Z</time>
      </trkpt>
      <trkpt lat="41.7911230" lon="2.1168890">
        <ele>630.4350000</ele>
        <time>2010-09-26T09:44:54Z</time>
      </trkpt>
      <trkpt lat="41.7911970" lon="2.1170450">
        <ele>631.9580000</ele>
        <time>2010-09-26T09:45:01Z</time>
      </trkpt>
      <trkpt lat="41.7913670" lon="2.1173500">
        <ele>632.7150000</ele>
        <time>2010-09-26T09:45:13Z</time>
      </trkpt>
      <trkpt lat="41.7915260" lon="2.1175450">
        <ele>633.5290000</ele>
        <time>2010-09-26T09:45:22Z</time>
      </trkpt>
      <trkpt lat="41.7916910" lon="2.1177050">
        <ele>635.1240000</ele>
        <time>2010-09-26T09:45:31Z</time>
      </trkpt>
      <trkpt lat="41.7918390" lon="2.1177890">
        <ele>635.9620000</ele>
        <time>2010-09-26T09:45:38Z</time>
      </trkpt>
      <trkpt lat="41.7920000" lon="2.1178200">
        <ele>637.8780000</ele>
        <time>2010-09-26T09:45:47Z</time>
      </trkpt>
      <trkpt lat="41.7920310" lon="2.1177970">
        <ele>638.3440000</ele>
        <time>2010-09-26T09:45:49Z</time>
      </trkpt>
      <trkpt lat="41.7920560" lon="2.1176330">
        <ele>639.8370000</ele>
        <time>2010-09-26T09:45:55Z</time>
      </trkpt>
      <trkpt lat="41.7920500" lon="2.1175740">
        <ele>640.1900000</ele>
        <time>2010-09-26T09:45:57Z</time>
      </trkpt>
      <trkpt lat="41.7919910" lon="2.1172560">
        <ele>640.7780000</ele>
        <time>2010-09-26T09:46:07Z</time>
      </trkpt>
      <trkpt lat="41.7919330" lon="2.1169590">
        <ele>641.5800000</ele>
        <time>2010-09-26T09:46:17Z</time>
      </trkpt>
      <trkpt lat="41.7919120" lon="2.1167450">
        <ele>642.5500000</ele>
        <time>2010-09-26T09:46:24Z</time>
      </trkpt>
      <trkpt lat="41.7918600" lon="2.1165020">
        <ele>643.9930000</ele>
        <time>2010-09-26T09:46:32Z</time>
      </trkpt>
      <trkpt lat="41.7918090" lon="2.1163080">
        <ele>645.8880000</ele>
        <time>2010-09-26T09:46:39Z</time>
      </trkpt>
      <trkpt lat="41.7917810" lon="2.1161030">
        <ele>647.3660000</ele>
        <time>2010-09-26T09:46:47Z</time>
      </trkpt>
      <trkpt lat="41.7917990" lon="2.1158920">
        <ele>648.1540000</ele>
        <time>2010-09-26T09:46:55Z</time>
      </trkpt>
      <trkpt lat="41.7918080" lon="2.1156970">
        <ele>650.6070000</ele>
        <time>2010-09-26T09:47:04Z</time>
      </trkpt>
      <trkpt lat="41.7918160" lon="2.1156050">
        <ele>651.1310000</ele>
        <time>2010-09-26T09:47:08Z</time>
      </trkpt>
      <trkpt lat="41.7918910" lon="2.1156130">
        <ele>652.5220000</ele>
        <time>2010-09-26T09:47:14Z</time>
      </trkpt>
      <trkpt lat="41.7920060" lon="2.1157900">
        <ele>653.8640000</ele>
        <time>2010-09-26T09:47:23Z</time>
      </trkpt>
      <trkpt lat="41.7921350" lon="2.1159660">
        <ele>654.8330000</ele>
        <time>2010-09-26T09:47:32Z</time>
      </trkpt>
      <trkpt lat="41.7922770" lon="2.1161520">
        <ele>655.2670000</ele>
        <time>2010-09-26T09:47:41Z</time>
      </trkpt>
      <trkpt lat="41.7924040" lon="2.1163100">
        <ele>656.2140000</ele>
        <time>2010-09-26T09:47:49Z</time>
      </trkpt>
      <trkpt lat="41.7925120" lon="2.1163000">
        <ele>657.2370000</ele>
        <time>2010-09-26T09:47:55Z</time>
      </trkpt>
      <trkpt lat="41.7926760" lon="2.1162890">
        <ele>659.3900000</ele>
        <time>2010-09-26T09:48:04Z</time>
      </trkpt>
      <trkpt lat="41.7928410" lon="2.1163220">
        <ele>660.1990000</ele>
        <time>2010-09-26T09:48:12Z</time>
      </trkpt>
      <trkpt lat="41.7930180" lon="2.1163430">
        <ele>661.4430000</ele>
        <time>2010-09-26T09:48:21Z</time>
      </trkpt>
      <trkpt lat="41.7931880" lon="2.1163690">
        <ele>663.5450000</ele>
        <time>2010-09-26T09:48:31Z</time>
      </trkpt>
      <trkpt lat="41.7933270" lon="2.1164300">
        <ele>665.8600000</ele>
        <time>2010-09-26T09:48:40Z</time>
      </trkpt>
      <trkpt lat="41.7934090" lon="2.1165370">
        <ele>667.3950000</ele>
        <time>2010-09-26T09:48:47Z</time>
      </trkpt>
      <trkpt lat="41.7935360" lon="2.1166840">
        <ele>668.5290000</ele>
        <time>2010-09-26T09:48:56Z</time>
      </trkpt>
      <trkpt lat="41.7937250" lon="2.1168170">
        <ele>670.4110000</ele>
        <time>2010-09-26T09:49:07Z</time>
      </trkpt>
      <trkpt lat="41.7939440" lon="2.1169820">
        <ele>672.1110000</ele>
        <time>2010-09-26T09:49:19Z</time>
      </trkpt>
      <trkpt lat="41.7940900" lon="2.1171520">
        <ele>673.2660000</ele>
        <time>2010-09-26T09:49:28Z</time>
      </trkpt>
      <trkpt lat="41.7942370" lon="2.1173130">
        <ele>674.3270000</ele>
        <time>2010-09-26T09:49:36Z</time>
      </trkpt>
      <trkpt lat="41.7944200" lon="2.1174250">
        <ele>675.7790000</ele>
        <time>2010-09-26T09:49:45Z</time>
      </trkpt>
      <trkpt lat="41.7946050" lon="2.1174050">
        <ele>677.4680000</ele>
        <time>2010-09-26T09:49:54Z</time>
      </trkpt>
      <trkpt lat="41.7947690" lon="2.1173820">
        <ele>678.2850000</ele>
        <time>2010-09-26T09:50:02Z</time>
      </trkpt>
      <trkpt lat="41.7949310" lon="2.1173360">
        <ele>679.3850000</ele>
        <time>2010-09-26T09:50:11Z</time>
      </trkpt>
      <trkpt lat="41.7950040" lon="2.1173120">
        <ele>680.5080000</ele>
        <time>2010-09-26T09:50:16Z</time>
      </trkpt>
      <trkpt lat="41.7951210" lon="2.1172530">
        <ele>682.4120000</ele>
        <time>2010-09-26T09:50:23Z</time>
      </trkpt>
      <trkpt lat="41.7952810" lon="2.1172080">
        <ele>682.6630000</ele>
        <time>2010-09-26T09:50:30Z</time>
      </trkpt>
      <trkpt lat="41.7954600" lon="2.1172120">
        <ele>682.7130000</ele>
        <time>2010-09-26T09:50:37Z</time>
      </trkpt>
      <trkpt lat="41.7957020" lon="2.1172210">
        <ele>683.1070000</ele>
        <time>2010-09-26T09:50:46Z</time>
      </trkpt>
      <trkpt lat="41.7958850" lon="2.1172430">
        <ele>683.8850000</ele>
        <time>2010-09-26T09:50:53Z</time>
      </trkpt>
      <trkpt lat="41.7960110" lon="2.1173300">
        <ele>684.2110000</ele>
        <time>2010-09-26T09:50:58Z</time>
      </trkpt>
      <trkpt lat="41.7962090" lon="2.1174060">
        <ele>684.9720000</ele>
        <time>2010-09-26T09:51:05Z</time>
      </trkpt>
      <trkpt lat="41.7963790" lon="2.1174070">
        <ele>685.2400000</ele>
        <time>2010-09-26T09:51:10Z</time>
      </trkpt>
      <trkpt lat="41.7966720" lon="2.1174560">
        <ele>685.0630000</ele>
        <time>2010-09-26T09:51:17Z</time>
      </trkpt>
      <trkpt lat="41.7969430" lon="2.1174370">
        <ele>684.2180000</ele>
        <time>2010-09-26T09:51:23Z</time>
      </trkpt>
      <trkpt lat="41.7970300" lon="2.1174470">
        <ele>684.3960000</ele>
        <time>2010-09-26T09:51:25Z</time>
      </trkpt>
      <trkpt lat="41.7972730" lon="2.1174350">
        <ele>683.9510000</ele>
        <time>2010-09-26T09:51:30Z</time>
      </trkpt>
      <trkpt lat="41.7976470" lon="2.1173110">
        <ele>682.6090000</ele>
        <time>2010-09-26T09:51:37Z</time>
      </trkpt>
      <trkpt lat="41.7981170" lon="2.1172610">
        <ele>681.7320000</ele>
        <time>2010-09-26T09:51:45Z</time>
      </trkpt>
      <trkpt lat="41.7984210" lon="2.1172470">
        <ele>680.8050000</ele>
        <time>2010-09-26T09:51:50Z</time>
      </trkpt>
      <trkpt lat="41.7985810" lon="2.1173750">
        <ele>680.6220000</ele>
        <time>2010-09-26T09:51:54Z</time>
      </trkpt>
      <trkpt lat="41.7985260" lon="2.1175110">
        <ele>680.4220000</ele>
        <time>2010-09-26T09:51:57Z</time>
      </trkpt>
      <trkpt lat="41.7985060" lon="2.1175530">
        <ele>680.8400000</ele>
        <time>2010-09-26T09:51:58Z</time>
      </trkpt>
      <trkpt lat="41.7983260" lon="2.1179660">
        <ele>683.7680000</ele>
        <time>2010-09-26T09:52:08Z</time>
      </trkpt>
      <trkpt lat="41.7981370" lon="2.1182850">
        <ele>685.3210000</ele>
        <time>2010-09-26T09:52:17Z</time>
      </trkpt>
      <trkpt lat="41.7979760" lon="2.1184890">
        <ele>686.7400000</ele>
        <time>2010-09-26T09:52:24Z</time>
      </trkpt>
      <trkpt lat="41.7977900" lon="2.1186550">
        <ele>688.1900000</ele>
        <time>2010-09-26T09:52:31Z</time>
      </trkpt>
      <trkpt lat="41.7975960" lon="2.1188440">
        <ele>689.0330000</ele>
        <time>2010-09-26T09:52:39Z</time>
      </trkpt>
      <trkpt lat="41.7975480" lon="2.1188880">
        <ele>689.1320000</ele>
        <time>2010-09-26T09:52:41Z</time>
      </trkpt>
      <trkpt lat="41.7973900" lon="2.1192100">
        <ele>687.3170000</ele>
        <time>2010-09-26T09:52:46Z</time>
      </trkpt>
      <trkpt lat="41.7973510" lon="2.1192910">
        <ele>687.0380000</ele>
        <time>2010-09-26T09:52:47Z</time>
      </trkpt>
      <trkpt lat="41.7973100" lon="2.1193760">
        <ele>686.6720000</ele>
        <time>2010-09-26T09:52:48Z</time>
      </trkpt>
      <trkpt lat="41.7970200" lon="2.1197490">
        <ele>684.0590000</ele>
        <time>2010-09-26T09:52:53Z</time>
      </trkpt>
      <trkpt lat="41.7968280" lon="2.1199400">
        <ele>682.9040000</ele>
        <time>2010-09-26T09:52:56Z</time>
      </trkpt>
      <trkpt lat="41.7964300" lon="2.1201760">
        <ele>682.5410000</ele>
        <time>2010-09-26T09:53:02Z</time>
      </trkpt>
      <trkpt lat="41.7963660" lon="2.1202130">
        <ele>682.4290000</ele>
        <time>2010-09-26T09:53:03Z</time>
      </trkpt>
      <trkpt lat="41.7961730" lon="2.1202910">
        <ele>681.7580000</ele>
        <time>2010-09-26T09:53:06Z</time>
      </trkpt>
      <trkpt lat="41.7959540" lon="2.1203870">
        <ele>681.2440000</ele>
        <time>2010-09-26T09:53:10Z</time>
      </trkpt>
      <trkpt lat="41.7959400" lon="2.1205640">
        <ele>680.5850000</ele>
        <time>2010-09-26T09:53:13Z</time>
      </trkpt>
      <trkpt lat="41.7959710" lon="2.1206290">
        <ele>680.1010000</ele>
        <time>2010-09-26T09:53:14Z</time>
      </trkpt>
      <trkpt lat="41.7960350" lon="2.1209170">
        <ele>676.9620000</ele>
        <time>2010-09-26T09:53:18Z</time>
      </trkpt>
      <trkpt lat="41.7960110" lon="2.1209990">
        <ele>676.3460000</ele>
        <time>2010-09-26T09:53:19Z</time>
      </trkpt>
      <trkpt lat="41.7958950" lon="2.1213500">
        <ele>673.8040000</ele>
        <time>2010-09-26T09:53:23Z</time>
      </trkpt>
      <trkpt lat="41.7958750" lon="2.1215580">
        <ele>671.0640000</ele>
        <time>2010-09-26T09:53:26Z</time>
      </trkpt>
      <trkpt lat="41.7959820" lon="2.1217470">
        <ele>668.3320000</ele>
        <time>2010-09-26T09:53:29Z</time>
      </trkpt>
      <trkpt lat="41.7960580" lon="2.1218390">
        <ele>666.3430000</ele>
        <time>2010-09-26T09:53:31Z</time>
      </trkpt>
      <trkpt lat="41.7959660" lon="2.1219620">
        <ele>663.8730000</ele>
        <time>2010-09-26T09:53:35Z</time>
      </trkpt>
      <trkpt lat="41.7957970" lon="2.1218940">
        <ele>662.0860000</ele>
        <time>2010-09-26T09:53:38Z</time>
      </trkpt>
      <trkpt lat="41.7956610" lon="2.1217880">
        <ele>660.0330000</ele>
        <time>2010-09-26T09:53:41Z</time>
      </trkpt>
      <trkpt lat="41.7956150" lon="2.1218470">
        <ele>659.2660000</ele>
        <time>2010-09-26T09:53:43Z</time>
      </trkpt>
      <trkpt lat="41.7956820" lon="2.1219540">
        <ele>658.4010000</ele>
        <time>2010-09-26T09:53:46Z</time>
      </trkpt>
      <trkpt lat="41.7959530" lon="2.1221820">
        <ele>656.0650000</ele>
        <time>2010-09-26T09:53:52Z</time>
      </trkpt>
      <trkpt lat="41.7959860" lon="2.1222160">
        <ele>655.8670000</ele>
        <time>2010-09-26T09:53:53Z</time>
      </trkpt>
      <trkpt lat="41.7959470" lon="2.1223850">
        <ele>654.2050000</ele>
        <time>2010-09-26T09:53:57Z</time>
      </trkpt>
      <trkpt lat="41.7958520" lon="2.1224600">
        <ele>653.1080000</ele>
        <time>2010-09-26T09:53:59Z</time>
      </trkpt>
      <trkpt lat="41.7956040" lon="2.1226640">
        <ele>650.6190000</ele>
        <time>2010-09-26T09:54:03Z</time>
      </trkpt>
      <trkpt lat="41.7952980" lon="2.1227630">
        <ele>647.0050000</ele>
        <time>2010-09-26T09:54:07Z</time>
      </trkpt>
      <trkpt lat="41.7952190" lon="2.1227530">
        <ele>646.1510000</ele>
        <time>2010-09-26T09:54:08Z</time>
      </trkpt>
      <trkpt lat="41.7950090" lon="2.1226960">
        <ele>645.2590000</ele>
        <time>2010-09-26T09:54:11Z</time>
      </trkpt>
      <trkpt lat="41.7948000" lon="2.1225470">
        <ele>644.5310000</ele>
        <time>2010-09-26T09:54:15Z</time>
      </trkpt>
      <trkpt lat="41.7946430" lon="2.1223820">
        <ele>642.4220000</ele>
        <time>2010-09-26T09:54:19Z</time>
      </trkpt>
      <trkpt lat="41.7944760" lon="2.1223030">
        <ele>640.6090000</ele>
        <time>2010-09-26T09:54:24Z</time>
      </trkpt>
      <trkpt lat="41.7943360" lon="2.1222520">
        <ele>642.3310000</ele>
        <time>2010-09-26T09:54:32Z</time>
      </trkpt>
      <trkpt lat="41.7942430" lon="2.1223160">
        <ele>644.0650000</ele>
        <time>2010-09-26T09:54:38Z</time>
      </trkpt>
      <trkpt lat="41.7942500" lon="2.1224430">
        <ele>644.9280000</ele>
        <time>2010-09-26T09:54:43Z</time>
      </trkpt>
      <trkpt lat="41.7943210" lon="2.1225950">
        <ele>646.4230000</ele>
        <time>2010-09-26T09:54:50Z</time>
      </trkpt>
      <trkpt lat="41.7943560" lon="2.1227330">
        <ele>647.8880000</ele>
        <time>2010-09-26T09:54:56Z</time>
      </trkpt>
      <trkpt lat="41.7944170" lon="2.1229020">
        <ele>648.9760000</ele>
        <time>2010-09-26T09:55:04Z</time>
      </trkpt>
      <trkpt lat="41.7944490" lon="2.1230450">
        <ele>650.6640000</ele>
        <time>2010-09-26T09:55:11Z</time>
      </trkpt>
      <trkpt lat="41.7944530" lon="2.1230820">
        <ele>651.3660000</ele>
        <time>2010-09-26T09:55:13Z</time>
      </trkpt>
      <trkpt lat="41.7944730" lon="2.1231900">
        <ele>652.4440000</ele>
        <time>2010-09-26T09:55:18Z</time>
      </trkpt>
      <trkpt lat="41.7944980" lon="2.1233350">
        <ele>654.7250000</ele>
        <time>2010-09-26T09:55:25Z</time>
      </trkpt>
      <trkpt lat="41.7945520" lon="2.1235230">
        <ele>657.3030000</ele>
        <time>2010-09-26T09:55:34Z</time>
      </trkpt>
      <trkpt lat="41.7945960" lon="2.1236960">
        <ele>658.8680000</ele>
        <time>2010-09-26T09:55:42Z</time>
      </trkpt>
      <trkpt lat="41.7946340" lon="2.1238200">
        <ele>658.3550000</ele>
        <time>2010-09-26T09:55:45Z</time>
      </trkpt>
      <trkpt lat="41.7947240" lon="2.1239950">
        <ele>657.4830000</ele>
        <time>2010-09-26T09:55:48Z</time>
      </trkpt>
      <trkpt lat="41.7950160" lon="2.1244300">
        <ele>655.3330000</ele>
        <time>2010-09-26T09:55:54Z</time>
      </trkpt>
      <trkpt lat="41.7951150" lon="2.1248150">
        <ele>654.9410000</ele>
        <time>2010-09-26T09:55:59Z</time>
      </trkpt>
      <trkpt lat="41.7951250" lon="2.1252530">
        <ele>656.0550000</ele>
        <time>2010-09-26T09:56:07Z</time>
      </trkpt>
      <trkpt lat="41.7952060" lon="2.1254440">
        <ele>656.5490000</ele>
        <time>2010-09-26T09:56:11Z</time>
      </trkpt>
      <trkpt lat="41.7954040" lon="2.1257770">
        <ele>657.1090000</ele>
        <time>2010-09-26T09:56:19Z</time>
      </trkpt>
      <trkpt lat="41.7954890" lon="2.1261660">
        <ele>656.8810000</ele>
        <time>2010-09-26T09:56:27Z</time>
      </trkpt>
      <trkpt lat="41.7955500" lon="2.1264310">
        <ele>657.8530000</ele>
        <time>2010-09-26T09:56:34Z</time>
      </trkpt>
      <trkpt lat="41.7956250" lon="2.1266790">
        <ele>659.5740000</ele>
        <time>2010-09-26T09:56:41Z</time>
      </trkpt>
      <trkpt lat="41.7956790" lon="2.1268870">
        <ele>661.1260000</ele>
        <time>2010-09-26T09:56:47Z</time>
      </trkpt>
      <trkpt lat="41.7956960" lon="2.1271220">
        <ele>663.1380000</ele>
        <time>2010-09-26T09:56:54Z</time>
      </trkpt>
      <trkpt lat="41.7957290" lon="2.1273110">
        <ele>663.2590000</ele>
        <time>2010-09-26T09:56:59Z</time>
      </trkpt>
      <trkpt lat="41.7957240" lon="2.1276090">
        <ele>663.2460000</ele>
        <time>2010-09-26T09:57:06Z</time>
      </trkpt>
      <trkpt lat="41.7956970" lon="2.1278620">
        <ele>663.3810000</ele>
        <time>2010-09-26T09:57:12Z</time>
      </trkpt>
      <trkpt lat="41.7957310" lon="2.1280630">
        <ele>663.5610000</ele>
        <time>2010-09-26T09:57:17Z</time>
      </trkpt>
      <trkpt lat="41.7958130" lon="2.1283350">
        <ele>664.0960000</ele>
        <time>2010-09-26T09:57:25Z</time>
      </trkpt>
      <trkpt lat="41.7959180" lon="2.1285630">
        <ele>665.0360000</ele>
        <time>2010-09-26T09:57:32Z</time>
      </trkpt>
      <trkpt lat="41.7959470" lon="2.1287230">
        <ele>665.7240000</ele>
        <time>2010-09-26T09:57:38Z</time>
      </trkpt>
      <trkpt lat="41.7959420" lon="2.1288390">
        <ele>666.7460000</ele>
        <time>2010-09-26T09:57:43Z</time>
      </trkpt>
      <trkpt lat="41.7958840" lon="2.1290210">
        <ele>668.7260000</ele>
        <time>2010-09-26T09:57:52Z</time>
      </trkpt>
      <trkpt lat="41.7957960" lon="2.1291490">
        <ele>670.3060000</ele>
        <time>2010-09-26T09:58:00Z</time>
      </trkpt>
      <trkpt lat="41.7956820" lon="2.1292370">
        <ele>672.1730000</ele>
        <time>2010-09-26T09:58:09Z</time>
      </trkpt>
      <trkpt lat="41.7955410" lon="2.1293510">
        <ele>673.9270000</ele>
        <time>2010-09-26T09:58:19Z</time>
      </trkpt>
      <trkpt lat="41.7954540" lon="2.1294490">
        <ele>675.0020000</ele>
        <time>2010-09-26T09:58:26Z</time>
      </trkpt>
      <trkpt lat="41.7953230" lon="2.1295670">
        <ele>676.4180000</ele>
        <time>2010-09-26T09:58:36Z</time>
      </trkpt>
      <trkpt lat="41.7951960" lon="2.1297020">
        <ele>678.0900000</ele>
        <time>2010-09-26T09:58:47Z</time>
      </trkpt>
      <trkpt lat="41.7951080" lon="2.1298110">
        <ele>679.6710000</ele>
        <time>2010-09-26T09:58:56Z</time>
      </trkpt>
      <trkpt lat="41.7950180" lon="2.1299520">
        <ele>681.6780000</ele>
        <time>2010-09-26T09:59:05Z</time>
      </trkpt>
      <trkpt lat="41.7949340" lon="2.1300970">
        <ele>684.1000000</ele>
        <time>2010-09-26T09:59:15Z</time>
      </trkpt>
      <trkpt lat="41.7948820" lon="2.1302140">
        <ele>685.5680000</ele>
        <time>2010-09-26T09:59:22Z</time>
      </trkpt>
      <trkpt lat="41.7947870" lon="2.1303530">
        <ele>687.3920000</ele>
        <time>2010-09-26T09:59:33Z</time>
      </trkpt>
      <trkpt lat="41.7946890" lon="2.1304480">
        <ele>689.4890000</ele>
        <time>2010-09-26T09:59:43Z</time>
      </trkpt>
      <trkpt lat="41.7945880" lon="2.1305510">
        <ele>691.2600000</ele>
        <time>2010-09-26T09:59:53Z</time>
      </trkpt>
      <trkpt lat="41.7945070" lon="2.1306290">
        <ele>692.4500000</ele>
        <time>2010-09-26T10:00:01Z</time>
      </trkpt>
      <trkpt lat="41.7944420" lon="2.1307050">
        <ele>693.4240000</ele>
        <time>2010-09-26T10:00:08Z</time>
      </trkpt>
      <trkpt lat="41.7943620" lon="2.1308090">
        <ele>695.4340000</ele>
        <time>2010-09-26T10:00:17Z</time>
      </trkpt>
      <trkpt lat="41.7942830" lon="2.1308870">
        <ele>697.8630000</ele>
        <time>2010-09-26T10:00:26Z</time>
      </trkpt>
      <trkpt lat="41.7941800" lon="2.1309900">
        <ele>699.4920000</ele>
        <time>2010-09-26T10:00:36Z</time>
      </trkpt>
      <trkpt lat="41.7940930" lon="2.1311020">
        <ele>701.4000000</ele>
        <time>2010-09-26T10:00:46Z</time>
      </trkpt>
      <trkpt lat="41.7940240" lon="2.1312120">
        <ele>703.2400000</ele>
        <time>2010-09-26T10:00:54Z</time>
      </trkpt>
      <trkpt lat="41.7939710" lon="2.1313240">
        <ele>704.5010000</ele>
        <time>2010-09-26T10:01:03Z</time>
      </trkpt>
      <trkpt lat="41.7939530" lon="2.1313630">
        <ele>705.1470000</ele>
        <time>2010-09-26T10:01:06Z</time>
      </trkpt>
      <trkpt lat="41.7939360" lon="2.1313960">
        <ele>706.0840000</ele>
        <time>2010-09-26T10:01:09Z</time>
      </trkpt>
      <trkpt lat="41.7939110" lon="2.1314660">
        <ele>706.3620000</ele>
        <time>2010-09-26T10:01:14Z</time>
      </trkpt>
      <trkpt lat="41.7938690" lon="2.1316230">
        <ele>708.2040000</ele>
        <time>2010-09-26T10:01:26Z</time>
      </trkpt>
      <trkpt lat="41.7938280" lon="2.1317300">
        <ele>709.0470000</ele>
        <time>2010-09-26T10:01:33Z</time>
      </trkpt>
      <trkpt lat="41.7937970" lon="2.1317670">
        <ele>709.6810000</ele>
        <time>2010-09-26T10:01:37Z</time>
      </trkpt>
      <trkpt lat="41.7937530" lon="2.1318500">
        <ele>711.2270000</ele>
        <time>2010-09-26T10:01:44Z</time>
      </trkpt>
      <trkpt lat="41.7937370" lon="2.1319000">
        <ele>711.9820000</ele>
        <time>2010-09-26T10:01:48Z</time>
      </trkpt>
      <trkpt lat="41.7936840" lon="2.1319820">
        <ele>712.9000000</ele>
        <time>2010-09-26T10:01:55Z</time>
      </trkpt>
      <trkpt lat="41.7936120" lon="2.1321000">
        <ele>714.7200000</ele>
        <time>2010-09-26T10:02:05Z</time>
      </trkpt>
      <trkpt lat="41.7935970" lon="2.1321350">
        <ele>715.4050000</ele>
        <time>2010-09-26T10:02:08Z</time>
      </trkpt>
      <trkpt lat="41.7935560" lon="2.1321940">
        <ele>716.1000000</ele>
        <time>2010-09-26T10:02:13Z</time>
      </trkpt>
      <trkpt lat="41.7934900" lon="2.1323080">
        <ele>717.6010000</ele>
        <time>2010-09-26T10:02:23Z</time>
      </trkpt>
      <trkpt lat="41.7934310" lon="2.1324070">
        <ele>719.2290000</ele>
        <time>2010-09-26T10:02:32Z</time>
      </trkpt>
      <trkpt lat="41.7933670" lon="2.1325170">
        <ele>720.2290000</ele>
        <time>2010-09-26T10:02:40Z</time>
      </trkpt>
      <trkpt lat="41.7932940" lon="2.1325980">
        <ele>721.9050000</ele>
        <time>2010-09-26T10:02:47Z</time>
      </trkpt>
      <trkpt lat="41.7932320" lon="2.1326850">
        <ele>723.2110000</ele>
        <time>2010-09-26T10:02:54Z</time>
      </trkpt>
      <trkpt lat="41.7931390" lon="2.1327720">
        <ele>725.2010000</ele>
        <time>2010-09-26T10:03:03Z</time>
      </trkpt>
      <trkpt lat="41.7930450" lon="2.1328030">
        <ele>726.6510000</ele>
        <time>2010-09-26T10:03:11Z</time>
      </trkpt>
      <trkpt lat="41.7929620" lon="2.1327790">
        <ele>728.4890000</ele>
        <time>2010-09-26T10:03:18Z</time>
      </trkpt>
      <trkpt lat="41.7928680" lon="2.1327460">
        <ele>729.7750000</ele>
        <time>2010-09-26T10:03:26Z</time>
      </trkpt>
      <trkpt lat="41.7927850" lon="2.1327470">
        <ele>730.5890000</ele>
        <time>2010-09-26T10:03:33Z</time>
      </trkpt>
      <trkpt lat="41.7927220" lon="2.1328100">
        <ele>732.3850000</ele>
        <time>2010-09-26T10:03:41Z</time>
      </trkpt>
      <trkpt lat="41.7927130" lon="2.1328740">
        <ele>733.5070000</ele>
        <time>2010-09-26T10:03:45Z</time>
      </trkpt>
      <trkpt lat="41.7927480" lon="2.1329800">
        <ele>734.6090000</ele>
        <time>2010-09-26T10:03:52Z</time>
      </trkpt>
      <trkpt lat="41.7927560" lon="2.1329960">
        <ele>734.7650000</ele>
        <time>2010-09-26T10:03:53Z</time>
      </trkpt>
      <trkpt lat="41.7928560" lon="2.1331330">
        <ele>735.3340000</ele>
        <time>2010-09-26T10:04:02Z</time>
      </trkpt>
      <trkpt lat="41.7928960" lon="2.1331740">
        <ele>735.3840000</ele>
        <time>2010-09-26T10:04:05Z</time>
      </trkpt>
      <trkpt lat="41.7930470" lon="2.1333110">
        <ele>736.5450000</ele>
        <time>2010-09-26T10:04:14Z</time>
      </trkpt>
      <trkpt lat="41.7931710" lon="2.1334120">
        <ele>737.6560000</ele>
        <time>2010-09-26T10:04:21Z</time>
      </trkpt>
      <trkpt lat="41.7933000" lon="2.1335390">
        <ele>737.4550000</ele>
        <time>2010-09-26T10:04:28Z</time>
      </trkpt>
      <trkpt lat="41.7933930" lon="2.1336920">
        <ele>737.4960000</ele>
        <time>2010-09-26T10:04:32Z</time>
      </trkpt>
      <trkpt lat="41.7935260" lon="2.1339470">
        <ele>735.5690000</ele>
        <time>2010-09-26T10:04:36Z</time>
      </trkpt>
      <trkpt lat="41.7936580" lon="2.1342320">
        <ele>733.8440000</ele>
        <time>2010-09-26T10:04:40Z</time>
      </trkpt>
      <trkpt lat="41.7936810" lon="2.1343220">
        <ele>733.3120000</ele>
        <time>2010-09-26T10:04:41Z</time>
      </trkpt>
      <trkpt lat="41.7936620" lon="2.1346930">
        <ele>731.9400000</ele>
        <time>2010-09-26T10:04:45Z</time>
      </trkpt>
      <trkpt lat="41.7934200" lon="2.1354200">
        <ele>730.2800000</ele>
        <time>2010-09-26T10:04:53Z</time>
      </trkpt>
      <trkpt lat="41.7931630" lon="2.1358430">
        <ele>728.6830000</ele>
        <time>2010-09-26T10:04:58Z</time>
      </trkpt>
      <trkpt lat="41.7931230" lon="2.1360970">
        <ele>726.2060000</ele>
        <time>2010-09-26T10:05:02Z</time>
      </trkpt>
      <trkpt lat="41.7932460" lon="2.1361240">
        <ele>725.1200000</ele>
        <time>2010-09-26T10:05:05Z</time>
      </trkpt>
      <trkpt lat="41.7933010" lon="2.1361260">
        <ele>724.7540000</ele>
        <time>2010-09-26T10:05:06Z</time>
      </trkpt>
      <trkpt lat="41.7934230" lon="2.1361210">
        <ele>723.6780000</ele>
        <time>2010-09-26T10:05:08Z</time>
      </trkpt>
      <trkpt lat="41.7937980" lon="2.1361720">
        <ele>721.8350000</ele>
        <time>2010-09-26T10:05:13Z</time>
      </trkpt>
      <trkpt lat="41.7942530" lon="2.1362430">
        <ele>719.1870000</ele>
        <time>2010-09-26T10:05:18Z</time>
      </trkpt>
      <trkpt lat="41.7945510" lon="2.1364500">
        <ele>718.5520000</ele>
        <time>2010-09-26T10:05:22Z</time>
      </trkpt>
      <trkpt lat="41.7946290" lon="2.1366200">
        <ele>717.9250000</ele>
        <time>2010-09-26T10:05:24Z</time>
      </trkpt>
      <trkpt lat="41.7946960" lon="2.1367860">
        <ele>717.4830000</ele>
        <time>2010-09-26T10:05:26Z</time>
      </trkpt>
      <trkpt lat="41.7948750" lon="2.1370690">
        <ele>717.5960000</ele>
        <time>2010-09-26T10:05:31Z</time>
      </trkpt>
      <trkpt lat="41.7950940" lon="2.1372950">
        <ele>718.2500000</ele>
        <time>2010-09-26T10:05:37Z</time>
      </trkpt>
      <trkpt lat="41.7952310" lon="2.1373610">
        <ele>718.5960000</ele>
        <time>2010-09-26T10:05:40Z</time>
      </trkpt>
      <trkpt lat="41.7954190" lon="2.1375690">
        <ele>717.2480000</ele>
        <time>2010-09-26T10:05:44Z</time>
      </trkpt>
      <trkpt lat="41.7954410" lon="2.1377410">
        <ele>716.4640000</ele>
        <time>2010-09-26T10:05:46Z</time>
      </trkpt>
      <trkpt lat="41.7954550" lon="2.1380130">
        <ele>717.2180000</ele>
        <time>2010-09-26T10:05:50Z</time>
      </trkpt>
      <trkpt lat="41.7955670" lon="2.1382460">
        <ele>717.8590000</ele>
        <time>2010-09-26T10:05:55Z</time>
      </trkpt>
      <trkpt lat="41.7958320" lon="2.1383870">
        <ele>717.1010000</ele>
        <time>2010-09-26T10:06:00Z</time>
      </trkpt>
      <trkpt lat="41.7958990" lon="2.1383880">
        <ele>716.6970000</ele>
        <time>2010-09-26T10:06:01Z</time>
      </trkpt>
      <trkpt lat="41.7962120" lon="2.1384970">
        <ele>715.2180000</ele>
        <time>2010-09-26T10:06:06Z</time>
      </trkpt>
      <trkpt lat="41.7963730" lon="2.1387760">
        <ele>713.9930000</ele>
        <time>2010-09-26T10:06:10Z</time>
      </trkpt>
      <trkpt lat="41.7963080" lon="2.1390180">
        <ele>712.8190000</ele>
        <time>2010-09-26T10:06:13Z</time>
      </trkpt>
      <trkpt lat="41.7962320" lon="2.1391960">
        <ele>712.4280000</ele>
        <time>2010-09-26T10:06:16Z</time>
      </trkpt>
      <trkpt lat="41.7962780" lon="2.1393280">
        <ele>712.4720000</ele>
        <time>2010-09-26T10:06:19Z</time>
      </trkpt>
      <trkpt lat="41.7964350" lon="2.1394500">
        <ele>712.8360000</ele>
        <time>2010-09-26T10:06:24Z</time>
      </trkpt>
      <trkpt lat="41.7965460" lon="2.1394750">
        <ele>713.2680000</ele>
        <time>2010-09-26T10:06:27Z</time>
      </trkpt>
      <trkpt lat="41.7968010" lon="2.1396350">
        <ele>714.7120000</ele>
        <time>2010-09-26T10:06:35Z</time>
      </trkpt>
      <trkpt lat="41.7970220" lon="2.1398510">
        <ele>715.5380000</ele>
        <time>2010-09-26T10:06:43Z</time>
      </trkpt>
      <trkpt lat="41.7971010" lon="2.1400830">
        <ele>714.5210000</ele>
        <time>2010-09-26T10:06:48Z</time>
      </trkpt>
      <trkpt lat="41.7971660" lon="2.1404240">
        <ele>713.9780000</ele>
        <time>2010-09-26T10:06:53Z</time>
      </trkpt>
      <trkpt lat="41.7971640" lon="2.1407400">
        <ele>713.2920000</ele>
        <time>2010-09-26T10:06:57Z</time>
      </trkpt>
      <trkpt lat="41.7971430" lon="2.1410430">
        <ele>711.8730000</ele>
        <time>2010-09-26T10:07:00Z</time>
      </trkpt>
      <trkpt lat="41.7971380" lon="2.1411500">
        <ele>711.2570000</ele>
        <time>2010-09-26T10:07:01Z</time>
      </trkpt>
      <trkpt lat="41.7971460" lon="2.1413510">
        <ele>710.5590000</ele>
        <time>2010-09-26T10:07:03Z</time>
      </trkpt>
      <trkpt lat="41.7971880" lon="2.1415270">
        <ele>709.8530000</ele>
        <time>2010-09-26T10:07:05Z</time>
      </trkpt>
      <trkpt lat="41.7973990" lon="2.1420620">
        <ele>708.5910000</ele>
        <time>2010-09-26T10:07:11Z</time>
      </trkpt>
      <trkpt lat="41.7975090" lon="2.1424020">
        <ele>707.0790000</ele>
        <time>2010-09-26T10:07:15Z</time>
      </trkpt>
      <trkpt lat="41.7977120" lon="2.1427520">
        <ele>702.3800000</ele>
        <time>2010-09-26T10:07:20Z</time>
      </trkpt>
      <trkpt lat="41.7978530" lon="2.1428980">
        <ele>700.2220000</ele>
        <time>2010-09-26T10:07:23Z</time>
      </trkpt>
      <trkpt lat="41.7979460" lon="2.1430830">
        <ele>697.6210000</ele>
        <time>2010-09-26T10:07:27Z</time>
      </trkpt>
      <trkpt lat="41.7979960" lon="2.1431650">
        <ele>696.0410000</ele>
        <time>2010-09-26T10:07:30Z</time>
      </trkpt>
      <trkpt lat="41.7981470" lon="2.1432530">
        <ele>696.1430000</ele>
        <time>2010-09-26T10:07:37Z</time>
      </trkpt>
      <trkpt lat="41.7982430" lon="2.1433810">
        <ele>697.2720000</ele>
        <time>2010-09-26T10:07:44Z</time>
      </trkpt>
      <trkpt lat="41.7982940" lon="2.1435120">
        <ele>697.3900000</ele>
        <time>2010-09-26T10:07:49Z</time>
      </trkpt>
      <trkpt lat="41.7983440" lon="2.1436280">
        <ele>697.1390000</ele>
        <time>2010-09-26T10:07:54Z</time>
      </trkpt>
      <trkpt lat="41.7984010" lon="2.1437300">
        <ele>698.7530000</ele>
        <time>2010-09-26T10:08:00Z</time>
      </trkpt>
      <trkpt lat="41.7984650" lon="2.1438660">
        <ele>699.1040000</ele>
        <time>2010-09-26T10:08:05Z</time>
      </trkpt>
      <trkpt lat="41.7985180" lon="2.1440420">
        <ele>699.1090000</ele>
        <time>2010-09-26T10:08:11Z</time>
      </trkpt>
      <trkpt lat="41.7985520" lon="2.1441260">
        <ele>699.8570000</ele>
        <time>2010-09-26T10:08:16Z</time>
      </trkpt>
      <trkpt lat="41.7985600" lon="2.1441370">
        <ele>700.1940000</ele>
        <time>2010-09-26T10:08:18Z</time>
      </trkpt>
      <trkpt lat="41.7985930" lon="2.1442140">
        <ele>700.7910000</ele>
        <time>2010-09-26T10:08:32Z</time>
      </trkpt>
      <trkpt lat="41.7985980" lon="2.1442250">
        <ele>700.8220000</ele>
        <time>2010-09-26T10:08:33Z</time>
      </trkpt>
      <trkpt lat="41.7986180" lon="2.1442600">
        <ele>700.5590000</ele>
        <time>2010-09-26T10:08:36Z</time>
      </trkpt>
      <trkpt lat="41.7986480" lon="2.1443080">
        <ele>700.4360000</ele>
        <time>2010-09-26T10:08:42Z</time>
      </trkpt>
      <trkpt lat="41.7986570" lon="2.1443050">
        <ele>700.4540000</ele>
        <time>2010-09-26T10:08:44Z</time>
      </trkpt>
      <trkpt lat="41.7986910" lon="2.1443510">
        <ele>700.5420000</ele>
        <time>2010-09-26T10:08:54Z</time>
      </trkpt>
      <trkpt lat="41.7987480" lon="2.1444740">
        <ele>701.6280000</ele>
        <time>2010-09-26T10:09:10Z</time>
      </trkpt>
      <trkpt lat="41.7987980" lon="2.1445840">
        <ele>702.7230000</ele>
        <time>2010-09-26T10:09:19Z</time>
      </trkpt>
      <trkpt lat="41.7988160" lon="2.1446110">
        <ele>702.9120000</ele>
        <time>2010-09-26T10:09:25Z</time>
      </trkpt>
      <trkpt lat="41.7988190" lon="2.1446130">
        <ele>703.1270000</ele>
        <time>2010-09-26T10:09:26Z</time>
      </trkpt>
      <trkpt lat="41.7988500" lon="2.1446550">
        <ele>704.5090000</ele>
        <time>2010-09-26T10:09:34Z</time>
      </trkpt>
      <trkpt lat="41.7988500" lon="2.1446540">
        <ele>704.7370000</ele>
        <time>2010-09-26T10:09:35Z</time>
      </trkpt>
      <trkpt lat="41.7988940" lon="2.1446810">
        <ele>705.6110000</ele>
        <time>2010-09-26T10:09:46Z</time>
      </trkpt>
      <trkpt lat="41.7989060" lon="2.1446840">
        <ele>706.5570000</ele>
        <time>2010-09-26T10:09:49Z</time>
      </trkpt>
      <trkpt lat="41.7989400" lon="2.1446930">
        <ele>707.8460000</ele>
        <time>2010-09-26T10:09:56Z</time>
      </trkpt>
      <trkpt lat="41.7989560" lon="2.1447130">
        <ele>708.2740000</ele>
        <time>2010-09-26T10:10:00Z</time>
      </trkpt>
      <trkpt lat="41.7989660" lon="2.1447240">
        <ele>708.3300000</ele>
        <time>2010-09-26T10:10:02Z</time>
      </trkpt>
      <trkpt lat="41.7990380" lon="2.1448310">
        <ele>708.8040000</ele>
        <time>2010-09-26T10:10:09Z</time>
      </trkpt>
      <trkpt lat="41.7991820" lon="2.1449500">
        <ele>709.1980000</ele>
        <time>2010-09-26T10:10:17Z</time>
      </trkpt>
      <trkpt lat="41.7993100" lon="2.1449460">
        <ele>709.8200000</ele>
        <time>2010-09-26T10:10:24Z</time>
      </trkpt>
      <trkpt lat="41.7993720" lon="2.1449490">
        <ele>709.5730000</ele>
        <time>2010-09-26T10:10:27Z</time>
      </trkpt>
      <trkpt lat="41.7995010" lon="2.1448560">
        <ele>708.7270000</ele>
        <time>2010-09-26T10:10:31Z</time>
      </trkpt>
      <trkpt lat="41.7996090" lon="2.1448030">
        <ele>708.5480000</ele>
        <time>2010-09-26T10:10:35Z</time>
      </trkpt>
      <trkpt lat="41.7997020" lon="2.1447530">
        <ele>708.6560000</ele>
        <time>2010-09-26T10:10:41Z</time>
      </trkpt>
      <trkpt lat="41.7997890" lon="2.1447110">
        <ele>709.6370000</ele>
        <time>2010-09-26T10:10:47Z</time>
      </trkpt>
      <trkpt lat="41.7998780" lon="2.1446750">
        <ele>711.2380000</ele>
        <time>2010-09-26T10:10:54Z</time>
      </trkpt>
      <trkpt lat="41.7999660" lon="2.1446610">
        <ele>712.6580000</ele>
        <time>2010-09-26T10:11:02Z</time>
      </trkpt>
      <trkpt lat="41.7999970" lon="2.1446560">
        <ele>712.8500000</ele>
        <time>2010-09-26T10:11:05Z</time>
      </trkpt>
      <trkpt lat="41.8000490" lon="2.1446300">
        <ele>713.6480000</ele>
        <time>2010-09-26T10:11:11Z</time>
      </trkpt>
      <trkpt lat="41.8000590" lon="2.1446270">
        <ele>713.8720000</ele>
        <time>2010-09-26T10:11:13Z</time>
      </trkpt>
      <trkpt lat="41.8001660" lon="2.1446250">
        <ele>715.1230000</ele>
        <time>2010-09-26T10:11:23Z</time>
      </trkpt>
      <trkpt lat="41.8002380" lon="2.1445950">
        <ele>716.1650000</ele>
        <time>2010-09-26T10:11:30Z</time>
      </trkpt>
      <trkpt lat="41.8003030" lon="2.1445730">
        <ele>717.8480000</ele>
        <time>2010-09-26T10:11:39Z</time>
      </trkpt>
      <trkpt lat="41.8003350" lon="2.1445570">
        <ele>718.4700000</ele>
        <time>2010-09-26T10:11:44Z</time>
      </trkpt>
      <trkpt lat="41.8003780" lon="2.1445630">
        <ele>718.6100000</ele>
        <time>2010-09-26T10:11:48Z</time>
      </trkpt>
      <trkpt lat="41.8005000" lon="2.1445830">
        <ele>719.4710000</ele>
        <time>2010-09-26T10:11:56Z</time>
      </trkpt>
      <trkpt lat="41.8006000" lon="2.1445630">
        <ele>719.7780000</ele>
        <time>2010-09-26T10:12:02Z</time>
      </trkpt>
      <trkpt lat="41.8007100" lon="2.1445610">
        <ele>719.8670000</ele>
        <time>2010-09-26T10:12:08Z</time>
      </trkpt>
      <trkpt lat="41.8008100" lon="2.1445350">
        <ele>720.4220000</ele>
        <time>2010-09-26T10:12:13Z</time>
      </trkpt>
      <trkpt lat="41.8009800" lon="2.1445850">
        <ele>721.2160000</ele>
        <time>2010-09-26T10:12:21Z</time>
      </trkpt>
      <trkpt lat="41.8011260" lon="2.1447260">
        <ele>720.3370000</ele>
        <time>2010-09-26T10:12:26Z</time>
      </trkpt>
      <trkpt lat="41.8012370" lon="2.1448980">
        <ele>720.3930000</ele>
        <time>2010-09-26T10:12:33Z</time>
      </trkpt>
      <trkpt lat="41.8013770" lon="2.1450070">
        <ele>720.7880000</ele>
        <time>2010-09-26T10:12:40Z</time>
      </trkpt>
      <trkpt lat="41.8015580" lon="2.1450760">
        <ele>721.9480000</ele>
        <time>2010-09-26T10:12:49Z</time>
      </trkpt>
      <trkpt lat="41.8016180" lon="2.1451960">
        <ele>721.9340000</ele>
        <time>2010-09-26T10:12:54Z</time>
      </trkpt>
      <trkpt lat="41.8016630" lon="2.1454200">
        <ele>722.1470000</ele>
        <time>2010-09-26T10:13:01Z</time>
      </trkpt>
      <trkpt lat="41.8017670" lon="2.1455760">
        <ele>724.3890000</ele>
        <time>2010-09-26T10:13:09Z</time>
      </trkpt>
      <trkpt lat="41.8018220" lon="2.1457590">
        <ele>726.0680000</ele>
        <time>2010-09-26T10:13:16Z</time>
      </trkpt>
      <trkpt lat="41.8018370" lon="2.1458900">
        <ele>726.0660000</ele>
        <time>2010-09-26T10:13:18Z</time>
      </trkpt>
      <trkpt lat="41.8019090" lon="2.1462510">
        <ele>724.7210000</ele>
        <time>2010-09-26T10:13:23Z</time>
      </trkpt>
      <trkpt lat="41.8019420" lon="2.1464590">
        <ele>725.6990000</ele>
        <time>2010-09-26T10:13:28Z</time>
      </trkpt>
      <trkpt lat="41.8019130" lon="2.1468180">
        <ele>724.5280000</ele>
        <time>2010-09-26T10:13:33Z</time>
      </trkpt>
      <trkpt lat="41.8018860" lon="2.1472610">
        <ele>721.6640000</ele>
        <time>2010-09-26T10:13:38Z</time>
      </trkpt>
      <trkpt lat="41.8019200" lon="2.1473420">
        <ele>719.7130000</ele>
        <time>2010-09-26T10:13:41Z</time>
      </trkpt>
      <trkpt lat="41.8020320" lon="2.1473980">
        <ele>721.0690000</ele>
        <time>2010-09-26T10:13:49Z</time>
      </trkpt>
      <trkpt lat="41.8020890" lon="2.1473990">
        <ele>722.3470000</ele>
        <time>2010-09-26T10:13:54Z</time>
      </trkpt>
      <trkpt lat="41.8021410" lon="2.1473940">
        <ele>723.0720000</ele>
        <time>2010-09-26T10:13:59Z</time>
      </trkpt>
      <trkpt lat="41.8022520" lon="2.1473870">
        <ele>725.1120000</ele>
        <time>2010-09-26T10:14:09Z</time>
      </trkpt>
      <trkpt lat="41.8023270" lon="2.1473370">
        <ele>726.7010000</ele>
        <time>2010-09-26T10:14:18Z</time>
      </trkpt>
      <trkpt lat="41.8023380" lon="2.1473220">
        <ele>727.1790000</ele>
        <time>2010-09-26T10:14:20Z</time>
      </trkpt>
      <trkpt lat="41.8023830" lon="2.1472540">
        <ele>729.4750000</ele>
        <time>2010-09-26T10:14:30Z</time>
      </trkpt>
      <trkpt lat="41.8024490" lon="2.1472110">
        <ele>729.1430000</ele>
        <time>2010-09-26T10:14:34Z</time>
      </trkpt>
      <trkpt lat="41.8025630" lon="2.1471550">
        <ele>728.8740000</ele>
        <time>2010-09-26T10:14:40Z</time>
      </trkpt>
      <trkpt lat="41.8027110" lon="2.1471170">
        <ele>728.8370000</ele>
        <time>2010-09-26T10:14:46Z</time>
      </trkpt>
      <trkpt lat="41.8028860" lon="2.1471140">
        <ele>729.0940000</ele>
        <time>2010-09-26T10:14:52Z</time>
      </trkpt>
      <trkpt lat="41.8030330" lon="2.1471460">
        <ele>728.9240000</ele>
        <time>2010-09-26T10:14:56Z</time>
      </trkpt>
      <trkpt lat="41.8032660" lon="2.1472760">
        <ele>728.4090000</ele>
        <time>2010-09-26T10:15:02Z</time>
      </trkpt>
      <trkpt lat="41.8033900" lon="2.1474460">
        <ele>728.8980000</ele>
        <time>2010-09-26T10:15:08Z</time>
      </trkpt>
      <trkpt lat="41.8035610" lon="2.1476090">
        <ele>729.4400000</ele>
        <time>2010-09-26T10:15:15Z</time>
      </trkpt>
      <trkpt lat="41.8037340" lon="2.1477930">
        <ele>730.1440000</ele>
        <time>2010-09-26T10:15:23Z</time>
      </trkpt>
      <trkpt lat="41.8037480" lon="2.1478340">
        <ele>730.0590000</ele>
        <time>2010-09-26T10:15:24Z</time>
      </trkpt>
      <trkpt lat="41.8037910" lon="2.1479460">
        <ele>729.6800000</ele>
        <time>2010-09-26T10:15:26Z</time>
      </trkpt>
      <trkpt lat="41.8038330" lon="2.1480850">
        <ele>729.0380000</ele>
        <time>2010-09-26T10:15:28Z</time>
      </trkpt>
      <trkpt lat="41.8039350" lon="2.1483180">
        <ele>729.1190000</ele>
        <time>2010-09-26T10:15:33Z</time>
      </trkpt>
      <trkpt lat="41.8040270" lon="2.1485260">
        <ele>730.8380000</ele>
        <time>2010-09-26T10:15:40Z</time>
      </trkpt>
      <trkpt lat="41.8041220" lon="2.1487050">
        <ele>732.4300000</ele>
        <time>2010-09-26T10:15:46Z</time>
      </trkpt>
      <trkpt lat="41.8041860" lon="2.1489600">
        <ele>731.5640000</ele>
        <time>2010-09-26T10:15:52Z</time>
      </trkpt>
      <trkpt lat="41.8042650" lon="2.1492860">
        <ele>732.1480000</ele>
        <time>2010-09-26T10:15:59Z</time>
      </trkpt>
      <trkpt lat="41.8043880" lon="2.1495450">
        <ele>731.8100000</ele>
        <time>2010-09-26T10:16:06Z</time>
      </trkpt>
      <trkpt lat="41.8044990" lon="2.1497000">
        <ele>732.4630000</ele>
        <time>2010-09-26T10:16:12Z</time>
      </trkpt>
      <trkpt lat="41.8046230" lon="2.1498830">
        <ele>734.3720000</ele>
        <time>2010-09-26T10:16:20Z</time>
      </trkpt>
      <trkpt lat="41.8047230" lon="2.1498520">
        <ele>736.1400000</ele>
        <time>2010-09-26T10:16:26Z</time>
      </trkpt>
      <trkpt lat="41.8048550" lon="2.1497410">
        <ele>735.9720000</ele>
        <time>2010-09-26T10:16:31Z</time>
      </trkpt>
      <trkpt lat="41.8049690" lon="2.1497460">
        <ele>735.5800000</ele>
        <time>2010-09-26T10:16:35Z</time>
      </trkpt>
      <trkpt lat="41.8050850" lon="2.1496370">
        <ele>738.2770000</ele>
        <time>2010-09-26T10:16:44Z</time>
      </trkpt>
      <trkpt lat="41.8051390" lon="2.1495780">
        <ele>738.4820000</ele>
        <time>2010-09-26T10:16:48Z</time>
      </trkpt>
      <trkpt lat="41.8052090" lon="2.1496140">
        <ele>738.0690000</ele>
        <time>2010-09-26T10:16:52Z</time>
      </trkpt>
      <trkpt lat="41.8052400" lon="2.1496600">
        <ele>737.7260000</ele>
        <time>2010-09-26T10:16:57Z</time>
      </trkpt>
      <trkpt lat="41.8052770" lon="2.1497510">
        <ele>737.2390000</ele>
        <time>2010-09-26T10:17:05Z</time>
      </trkpt>
      <trkpt lat="41.8053050" lon="2.1497880">
        <ele>737.4870000</ele>
        <time>2010-09-26T10:17:12Z</time>
      </trkpt>
      <trkpt lat="41.8053220" lon="2.1498050">
        <ele>738.3410000</ele>
        <time>2010-09-26T10:17:16Z</time>
      </trkpt>
      <trkpt lat="41.8053700" lon="2.1498650">
        <ele>739.8830000</ele>
        <time>2010-09-26T10:17:25Z</time>
      </trkpt>
      <trkpt lat="41.8054150" lon="2.1499510">
        <ele>740.8680000</ele>
        <time>2010-09-26T10:17:33Z</time>
      </trkpt>
      <trkpt lat="41.8054280" lon="2.1499930">
        <ele>741.1810000</ele>
        <time>2010-09-26T10:17:37Z</time>
      </trkpt>
      <trkpt lat="41.8054360" lon="2.1500500">
        <ele>741.1810000</ele>
        <time>2010-09-26T10:17:41Z</time>
      </trkpt>
      <trkpt lat="41.8054550" lon="2.1501880">
        <ele>741.2410000</ele>
        <time>2010-09-26T10:17:48Z</time>
      </trkpt>
      <trkpt lat="41.8054880" lon="2.1503470">
        <ele>741.6400000</ele>
        <time>2010-09-26T10:17:54Z</time>
      </trkpt>
      <trkpt lat="41.8055260" lon="2.1504790">
        <ele>741.6030000</ele>
        <time>2010-09-26T10:17:59Z</time>
      </trkpt>
      <trkpt lat="41.8056040" lon="2.1506860">
        <ele>742.5000000</ele>
        <time>2010-09-26T10:18:07Z</time>
      </trkpt>
      <trkpt lat="41.8056810" lon="2.1508900">
        <ele>742.6590000</ele>
        <time>2010-09-26T10:18:13Z</time>
      </trkpt>
      <trkpt lat="41.8057450" lon="2.1511120">
        <ele>742.2600000</ele>
        <time>2010-09-26T10:18:18Z</time>
      </trkpt>
      <trkpt lat="41.8058360" lon="2.1512800">
        <ele>741.7360000</ele>
        <time>2010-09-26T10:18:22Z</time>
      </trkpt>
      <trkpt lat="41.8059040" lon="2.1514050">
        <ele>741.8080000</ele>
        <time>2010-09-26T10:18:26Z</time>
      </trkpt>
      <trkpt lat="41.8059840" lon="2.1515440">
        <ele>742.2660000</ele>
        <time>2010-09-26T10:18:31Z</time>
      </trkpt>
      <trkpt lat="41.8060600" lon="2.1517530">
        <ele>741.9020000</ele>
        <time>2010-09-26T10:18:36Z</time>
      </trkpt>
      <trkpt lat="41.8061270" lon="2.1519400">
        <ele>742.5610000</ele>
        <time>2010-09-26T10:18:42Z</time>
      </trkpt>
      <trkpt lat="41.8061520" lon="2.1521230">
        <ele>743.1720000</ele>
        <time>2010-09-26T10:18:48Z</time>
      </trkpt>
      <trkpt lat="41.8061360" lon="2.1523440">
        <ele>744.2170000</ele>
        <time>2010-09-26T10:18:55Z</time>
      </trkpt>
      <trkpt lat="41.8061190" lon="2.1525290">
        <ele>744.7810000</ele>
        <time>2010-09-26T10:19:01Z</time>
      </trkpt>
      <trkpt lat="41.8060950" lon="2.1527560">
        <ele>746.1540000</ele>
        <time>2010-09-26T10:19:08Z</time>
      </trkpt>
      <trkpt lat="41.8061110" lon="2.1529820">
        <ele>746.8050000</ele>
        <time>2010-09-26T10:19:15Z</time>
      </trkpt>
      <trkpt lat="41.8061670" lon="2.1532460">
        <ele>747.7060000</ele>
        <time>2010-09-26T10:19:23Z</time>
      </trkpt>
      <trkpt lat="41.8062390" lon="2.1534790">
        <ele>748.0750000</ele>
        <time>2010-09-26T10:19:30Z</time>
      </trkpt>
      <trkpt lat="41.8063270" lon="2.1536030">
        <ele>748.4980000</ele>
        <time>2010-09-26T10:19:36Z</time>
      </trkpt>
      <trkpt lat="41.8063900" lon="2.1535990">
        <ele>749.0000000</ele>
        <time>2010-09-26T10:19:42Z</time>
      </trkpt>
      <trkpt lat="41.8064700" lon="2.1535550">
        <ele>750.6150000</ele>
        <time>2010-09-26T10:19:53Z</time>
      </trkpt>
      <trkpt lat="41.8065230" lon="2.1535610">
        <ele>752.8130000</ele>
        <time>2010-09-26T10:20:01Z</time>
      </trkpt>
      <trkpt lat="41.8065360" lon="2.1535680">
        <ele>752.9240000</ele>
        <time>2010-09-26T10:20:03Z</time>
      </trkpt>
      <trkpt lat="41.8066080" lon="2.1535990">
        <ele>754.3260000</ele>
        <time>2010-09-26T10:20:12Z</time>
      </trkpt>
      <trkpt lat="41.8066810" lon="2.1536430">
        <ele>755.4790000</ele>
        <time>2010-09-26T10:20:20Z</time>
      </trkpt>
      <trkpt lat="41.8067480" lon="2.1536860">
        <ele>756.3650000</ele>
        <time>2010-09-26T10:20:29Z</time>
      </trkpt>
      <trkpt lat="41.8068100" lon="2.1537390">
        <ele>756.8760000</ele>
        <time>2010-09-26T10:20:39Z</time>
      </trkpt>
      <trkpt lat="41.8068170" lon="2.1537460">
        <ele>756.9420000</ele>
        <time>2010-09-26T10:20:41Z</time>
      </trkpt>
      <trkpt lat="41.8069020" lon="2.1538880">
        <ele>756.5490000</ele>
        <time>2010-09-26T10:20:50Z</time>
      </trkpt>
      <trkpt lat="41.8069960" lon="2.1539970">
        <ele>756.4380000</ele>
        <time>2010-09-26T10:20:54Z</time>
      </trkpt>
      <trkpt lat="41.8070670" lon="2.1541480">
        <ele>754.6470000</ele>
        <time>2010-09-26T10:20:59Z</time>
      </trkpt>
      <trkpt lat="41.8071080" lon="2.1542190">
        <ele>753.7290000</ele>
        <time>2010-09-26T10:21:01Z</time>
      </trkpt>
      <trkpt lat="41.8071930" lon="2.1543170">
        <ele>752.7470000</ele>
        <time>2010-09-26T10:21:04Z</time>
      </trkpt>
      <trkpt lat="41.8072430" lon="2.1544250">
        <ele>752.3870000</ele>
        <time>2010-09-26T10:21:08Z</time>
      </trkpt>
      <trkpt lat="41.8072500" lon="2.1545970">
        <ele>752.1380000</ele>
        <time>2010-09-26T10:21:12Z</time>
      </trkpt>
      <trkpt lat="41.8072980" lon="2.1547040">
        <ele>750.9960000</ele>
        <time>2010-09-26T10:21:16Z</time>
      </trkpt>
      <trkpt lat="41.8073380" lon="2.1547290">
        <ele>751.6980000</ele>
        <time>2010-09-26T10:21:18Z</time>
      </trkpt>
      <trkpt lat="41.8074180" lon="2.1548600">
        <ele>752.5880000</ele>
        <time>2010-09-26T10:21:24Z</time>
      </trkpt>
      <trkpt lat="41.8074140" lon="2.1549790">
        <ele>752.9160000</ele>
        <time>2010-09-26T10:21:29Z</time>
      </trkpt>
      <trkpt lat="41.8074460" lon="2.1551070">
        <ele>752.8380000</ele>
        <time>2010-09-26T10:21:34Z</time>
      </trkpt>
      <trkpt lat="41.8074380" lon="2.1551850">
        <ele>753.0900000</ele>
        <time>2010-09-26T10:21:37Z</time>
      </trkpt>
      <trkpt lat="41.8074320" lon="2.1552370">
        <ele>753.0490000</ele>
        <time>2010-09-26T10:21:39Z</time>
      </trkpt>
      <trkpt lat="41.8074670" lon="2.1553270">
        <ele>752.8700000</ele>
        <time>2010-09-26T10:21:43Z</time>
      </trkpt>
      <trkpt lat="41.8075530" lon="2.1554920">
        <ele>754.2340000</ele>
        <time>2010-09-26T10:21:51Z</time>
      </trkpt>
      <trkpt lat="41.8075820" lon="2.1555280">
        <ele>754.4830000</ele>
        <time>2010-09-26T10:21:53Z</time>
      </trkpt>
      <trkpt lat="41.8076450" lon="2.1556940">
        <ele>755.0730000</ele>
        <time>2010-09-26T10:22:00Z</time>
      </trkpt>
      <trkpt lat="41.8077000" lon="2.1557550">
        <ele>755.5900000</ele>
        <time>2010-09-26T10:22:04Z</time>
      </trkpt>
      <trkpt lat="41.8078560" lon="2.1558610">
        <ele>756.7270000</ele>
        <time>2010-09-26T10:22:13Z</time>
      </trkpt>
      <trkpt lat="41.8079650" lon="2.1559320">
        <ele>757.5550000</ele>
        <time>2010-09-26T10:22:19Z</time>
      </trkpt>
      <trkpt lat="41.8080720" lon="2.1560040">
        <ele>757.7120000</ele>
        <time>2010-09-26T10:22:26Z</time>
      </trkpt>
      <trkpt lat="41.8081680" lon="2.1560300">
        <ele>756.2340000</ele>
        <time>2010-09-26T10:22:31Z</time>
      </trkpt>
      <trkpt lat="41.8082110" lon="2.1560800">
        <ele>755.7500000</ele>
        <time>2010-09-26T10:22:35Z</time>
      </trkpt>
      <trkpt lat="41.8082560" lon="2.1561960">
        <ele>756.7200000</ele>
        <time>2010-09-26T10:22:41Z</time>
      </trkpt>
      <trkpt lat="41.8083810" lon="2.1563050">
        <ele>757.3930000</ele>
        <time>2010-09-26T10:22:50Z</time>
      </trkpt>
      <trkpt lat="41.8084820" lon="2.1564790">
        <ele>758.3880000</ele>
        <time>2010-09-26T10:22:58Z</time>
      </trkpt>
      <trkpt lat="41.8085080" lon="2.1565300">
        <ele>758.4280000</ele>
        <time>2010-09-26T10:23:00Z</time>
      </trkpt>
      <trkpt lat="41.8085180" lon="2.1566760">
        <ele>758.6420000</ele>
        <time>2010-09-26T10:23:05Z</time>
      </trkpt>
      <trkpt lat="41.8085420" lon="2.1568480">
        <ele>759.8570000</ele>
        <time>2010-09-26T10:23:12Z</time>
      </trkpt>
      <trkpt lat="41.8085450" lon="2.1569700">
        <ele>759.4550000</ele>
        <time>2010-09-26T10:23:16Z</time>
      </trkpt>
      <trkpt lat="41.8085220" lon="2.1570250">
        <ele>759.4170000</ele>
        <time>2010-09-26T10:23:21Z</time>
      </trkpt>
      <trkpt lat="41.8085010" lon="2.1571130">
        <ele>759.7580000</ele>
        <time>2010-09-26T10:23:30Z</time>
      </trkpt>
      <trkpt lat="41.8084590" lon="2.1572480">
        <ele>760.2210000</ele>
        <time>2010-09-26T10:23:36Z</time>
      </trkpt>
      <trkpt lat="41.8084640" lon="2.1574170">
        <ele>760.5640000</ele>
        <time>2010-09-26T10:23:43Z</time>
      </trkpt>
      <trkpt lat="41.8085000" lon="2.1575430">
        <ele>760.3120000</ele>
        <time>2010-09-26T10:23:48Z</time>
      </trkpt>
      <trkpt lat="41.8085220" lon="2.1576640">
        <ele>761.0490000</ele>
        <time>2010-09-26T10:23:55Z</time>
      </trkpt>
      <trkpt lat="41.8085560" lon="2.1577170">
        <ele>762.2820000</ele>
        <time>2010-09-26T10:24:00Z</time>
      </trkpt>
      <trkpt lat="41.8085740" lon="2.1578850">
        <ele>763.0040000</ele>
        <time>2010-09-26T10:24:14Z</time>
      </trkpt>
      <trkpt lat="41.8085680" lon="2.1579450">
        <ele>763.5200000</ele>
        <time>2010-09-26T10:24:17Z</time>
      </trkpt>
      <trkpt lat="41.8085250" lon="2.1581170">
        <ele>763.3900000</ele>
        <time>2010-09-26T10:24:23Z</time>
      </trkpt>
      <trkpt lat="41.8085220" lon="2.1581650">
        <ele>763.6080000</ele>
        <time>2010-09-26T10:24:27Z</time>
      </trkpt>
      <trkpt lat="41.8085020" lon="2.1582410">
        <ele>763.7200000</ele>
        <time>2010-09-26T10:24:33Z</time>
      </trkpt>
      <trkpt lat="41.8085110" lon="2.1583880">
        <ele>762.4150000</ele>
        <time>2010-09-26T10:24:40Z</time>
      </trkpt>
      <trkpt lat="41.8085080" lon="2.1584890">
        <ele>761.5100000</ele>
        <time>2010-09-26T10:24:45Z</time>
      </trkpt>
      <trkpt lat="41.8085040" lon="2.1585010">
        <ele>761.4940000</ele>
        <time>2010-09-26T10:24:46Z</time>
      </trkpt>
      <trkpt lat="41.8085100" lon="2.1585950">
        <ele>762.4770000</ele>
        <time>2010-09-26T10:24:51Z</time>
      </trkpt>
      <trkpt lat="41.8085410" lon="2.1587490">
        <ele>763.1690000</ele>
        <time>2010-09-26T10:24:57Z</time>
      </trkpt>
      <trkpt lat="41.8085920" lon="2.1588860">
        <ele>763.7960000</ele>
        <time>2010-09-26T10:25:03Z</time>
      </trkpt>
      <trkpt lat="41.8086510" lon="2.1590040">
        <ele>765.4020000</ele>
        <time>2010-09-26T10:25:09Z</time>
      </trkpt>
      <trkpt lat="41.8087250" lon="2.1591200">
        <ele>766.4790000</ele>
        <time>2010-09-26T10:25:15Z</time>
      </trkpt>
      <trkpt lat="41.8088080" lon="2.1592400">
        <ele>766.8410000</ele>
        <time>2010-09-26T10:25:21Z</time>
      </trkpt>
      <trkpt lat="41.8089120" lon="2.1593620">
        <ele>767.3560000</ele>
        <time>2010-09-26T10:25:28Z</time>
      </trkpt>
      <trkpt lat="41.8090250" lon="2.1593850">
        <ele>767.4930000</ele>
        <time>2010-09-26T10:25:34Z</time>
      </trkpt>
      <trkpt lat="41.8091090" lon="2.1594020">
        <ele>767.7790000</ele>
        <time>2010-09-26T10:25:38Z</time>
      </trkpt>
      <trkpt lat="41.8092440" lon="2.1593880">
        <ele>767.6450000</ele>
        <time>2010-09-26T10:25:44Z</time>
      </trkpt>
      <trkpt lat="41.8094260" lon="2.1593350">
        <ele>767.6960000</ele>
        <time>2010-09-26T10:25:52Z</time>
      </trkpt>
      <trkpt lat="41.8094710" lon="2.1593330">
        <ele>767.3160000</ele>
        <time>2010-09-26T10:25:54Z</time>
      </trkpt>
      <trkpt lat="41.8094960" lon="2.1593270">
        <ele>766.7910000</ele>
        <time>2010-09-26T10:25:57Z</time>
      </trkpt>
      <trkpt lat="41.8095410" lon="2.1593120">
        <ele>766.4410000</ele>
        <time>2010-09-26T10:26:04Z</time>
      </trkpt>
      <trkpt lat="41.8095820" lon="2.1593030">
        <ele>767.3600000</ele>
        <time>2010-09-26T10:26:10Z</time>
      </trkpt>
      <trkpt lat="41.8095950" lon="2.1593020">
        <ele>767.2290000</ele>
        <time>2010-09-26T10:26:13Z</time>
      </trkpt>
      <trkpt lat="41.8096180" lon="2.1593040">
        <ele>767.4180000</ele>
        <time>2010-09-26T10:26:17Z</time>
      </trkpt>
      <trkpt lat="41.8096390" lon="2.1593150">
        <ele>767.7900000</ele>
        <time>2010-09-26T10:26:21Z</time>
      </trkpt>
      <trkpt lat="41.8097270" lon="2.1593920">
        <ele>768.2710000</ele>
        <time>2010-09-26T10:26:29Z</time>
      </trkpt>
      <trkpt lat="41.8098440" lon="2.1595000">
        <ele>768.8700000</ele>
        <time>2010-09-26T10:26:37Z</time>
      </trkpt>
      <trkpt lat="41.8099180" lon="2.1596190">
        <ele>769.6600000</ele>
        <time>2010-09-26T10:26:43Z</time>
      </trkpt>
      <trkpt lat="41.8099970" lon="2.1597400">
        <ele>769.5080000</ele>
        <time>2010-09-26T10:26:49Z</time>
      </trkpt>
      <trkpt lat="41.8101160" lon="2.1598300">
        <ele>769.7510000</ele>
        <time>2010-09-26T10:26:55Z</time>
      </trkpt>
      <trkpt lat="41.8102230" lon="2.1599160">
        <ele>770.3880000</ele>
        <time>2010-09-26T10:27:01Z</time>
      </trkpt>
      <trkpt lat="41.8102880" lon="2.1599520">
        <ele>770.9210000</ele>
        <time>2010-09-26T10:27:05Z</time>
      </trkpt>
      <trkpt lat="41.8103690" lon="2.1600000">
        <ele>772.0960000</ele>
        <time>2010-09-26T10:27:10Z</time>
      </trkpt>
      <trkpt lat="41.8103930" lon="2.1600540">
        <ele>772.6550000</ele>
        <time>2010-09-26T10:27:12Z</time>
      </trkpt>
      <trkpt lat="41.8104640" lon="2.1602560">
        <ele>772.0180000</ele>
        <time>2010-09-26T10:27:18Z</time>
      </trkpt>
      <trkpt lat="41.8105520" lon="2.1604030">
        <ele>773.2810000</ele>
        <time>2010-09-26T10:27:25Z</time>
      </trkpt>
      <trkpt lat="41.8105730" lon="2.1604730">
        <ele>773.1820000</ele>
        <time>2010-09-26T10:27:30Z</time>
      </trkpt>
      <trkpt lat="41.8105770" lon="2.1604800">
        <ele>773.2770000</ele>
        <time>2010-09-26T10:27:31Z</time>
      </trkpt>
      <trkpt lat="41.8106330" lon="2.1604630">
        <ele>774.1600000</ele>
        <time>2010-09-26T10:27:38Z</time>
      </trkpt>
      <trkpt lat="41.8106750" lon="2.1604060">
        <ele>775.8230000</ele>
        <time>2010-09-26T10:27:48Z</time>
      </trkpt>
      <trkpt lat="41.8107070" lon="2.1603820">
        <ele>777.2290000</ele>
        <time>2010-09-26T10:27:55Z</time>
      </trkpt>
      <trkpt lat="41.8107330" lon="2.1603640">
        <ele>778.4070000</ele>
        <time>2010-09-26T10:28:01Z</time>
      </trkpt>
      <trkpt lat="41.8107520" lon="2.1603500">
        <ele>779.2760000</ele>
        <time>2010-09-26T10:28:09Z</time>
      </trkpt>
      <trkpt lat="41.8107650" lon="2.1603430">
        <ele>779.6590000</ele>
        <time>2010-09-26T10:28:13Z</time>
      </trkpt>
      <trkpt lat="41.8107870" lon="2.1603390">
        <ele>780.3980000</ele>
        <time>2010-09-26T10:28:19Z</time>
      </trkpt>
      <trkpt lat="41.8108080" lon="2.1603520">
        <ele>781.5770000</ele>
        <time>2010-09-26T10:28:24Z</time>
      </trkpt>
      <trkpt lat="41.8108650" lon="2.1603930">
        <ele>783.2670000</ele>
        <time>2010-09-26T10:28:33Z</time>
      </trkpt>
      <trkpt lat="41.8108860" lon="2.1604190">
        <ele>783.8090000</ele>
        <time>2010-09-26T10:28:37Z</time>
      </trkpt>
      <trkpt lat="41.8109150" lon="2.1605010">
        <ele>784.5630000</ele>
        <time>2010-09-26T10:28:45Z</time>
      </trkpt>
      <trkpt lat="41.8109180" lon="2.1605260">
        <ele>784.7380000</ele>
        <time>2010-09-26T10:28:49Z</time>
      </trkpt>
      <trkpt lat="41.8109210" lon="2.1606050">
        <ele>784.8850000</ele>
        <time>2010-09-26T10:28:55Z</time>
      </trkpt>
      <trkpt lat="41.8109800" lon="2.1608240">
        <ele>786.5260000</ele>
        <time>2010-09-26T10:29:05Z</time>
      </trkpt>
      <trkpt lat="41.8110830" lon="2.1609660">
        <ele>787.0930000</ele>
        <time>2010-09-26T10:29:13Z</time>
      </trkpt>
      <trkpt lat="41.8112450" lon="2.1611280">
        <ele>788.5920000</ele>
        <time>2010-09-26T10:29:24Z</time>
      </trkpt>
      <trkpt lat="41.8114040" lon="2.1612610">
        <ele>790.3030000</ele>
        <time>2010-09-26T10:29:34Z</time>
      </trkpt>
      <trkpt lat="41.8115550" lon="2.1613640">
        <ele>790.4700000</ele>
        <time>2010-09-26T10:29:42Z</time>
      </trkpt>
      <trkpt lat="41.8117110" lon="2.1613680">
        <ele>790.5410000</ele>
        <time>2010-09-26T10:29:49Z</time>
      </trkpt>
      <trkpt lat="41.8118940" lon="2.1614270">
        <ele>790.6040000</ele>
        <time>2010-09-26T10:29:56Z</time>
      </trkpt>
      <trkpt lat="41.8119930" lon="2.1614640">
        <ele>790.3170000</ele>
        <time>2010-09-26T10:29:59Z</time>
      </trkpt>
      <trkpt lat="41.8120750" lon="2.1614950">
        <ele>789.9270000</ele>
        <time>2010-09-26T10:30:01Z</time>
      </trkpt>
      <trkpt lat="41.8122760" lon="2.1617090">
        <ele>788.7700000</ele>
        <time>2010-09-26T10:30:07Z</time>
      </trkpt>
      <trkpt lat="41.8123640" lon="2.1618980">
        <ele>787.1700000</ele>
        <time>2010-09-26T10:30:11Z</time>
      </trkpt>
      <trkpt lat="41.8124240" lon="2.1621060">
        <ele>785.7090000</ele>
        <time>2010-09-26T10:30:15Z</time>
      </trkpt>
      <trkpt lat="41.8124830" lon="2.1622360">
        <ele>785.8290000</ele>
        <time>2010-09-26T10:30:19Z</time>
      </trkpt>
      <trkpt lat="41.8125060" lon="2.1622560">
        <ele>785.8280000</ele>
        <time>2010-09-26T10:30:20Z</time>
      </trkpt>
      <trkpt lat="41.8126340" lon="2.1623890">
        <ele>786.9550000</ele>
        <time>2010-09-26T10:30:27Z</time>
      </trkpt>
      <trkpt lat="41.8126480" lon="2.1625610">
        <ele>787.0160000</ele>
        <time>2010-09-26T10:30:32Z</time>
      </trkpt>
      <trkpt lat="41.8126550" lon="2.1627960">
        <ele>785.0040000</ele>
        <time>2010-09-26T10:30:37Z</time>
      </trkpt>
      <trkpt lat="41.8127090" lon="2.1629330">
        <ele>783.7230000</ele>
        <time>2010-09-26T10:30:42Z</time>
      </trkpt>
      <trkpt lat="41.8127230" lon="2.1630150">
        <ele>784.0490000</ele>
        <time>2010-09-26T10:30:48Z</time>
      </trkpt>
      <trkpt lat="41.8127350" lon="2.1630260">
        <ele>783.9990000</ele>
        <time>2010-09-26T10:30:51Z</time>
      </trkpt>
      <trkpt lat="41.8127740" lon="2.1630490">
        <ele>783.7370000</ele>
        <time>2010-09-26T10:30:57Z</time>
      </trkpt>
      <trkpt lat="41.8127980" lon="2.1630690">
        <ele>784.3780000</ele>
        <time>2010-09-26T10:31:01Z</time>
      </trkpt>
      <trkpt lat="41.8128670" lon="2.1631320">
        <ele>784.5470000</ele>
        <time>2010-09-26T10:31:07Z</time>
      </trkpt>
      <trkpt lat="41.8130290" lon="2.1632190">
        <ele>785.4000000</ele>
        <time>2010-09-26T10:31:16Z</time>
      </trkpt>
      <trkpt lat="41.8132240" lon="2.1633140">
        <ele>786.1580000</ele>
        <time>2010-09-26T10:31:26Z</time>
      </trkpt>
      <trkpt lat="41.8134030" lon="2.1634030">
        <ele>787.8140000</ele>
        <time>2010-09-26T10:31:35Z</time>
      </trkpt>
      <trkpt lat="41.8135600" lon="2.1635330">
        <ele>788.8100000</ele>
        <time>2010-09-26T10:31:44Z</time>
      </trkpt>
      <trkpt lat="41.8136800" lon="2.1635820">
        <ele>789.9750000</ele>
        <time>2010-09-26T10:31:50Z</time>
      </trkpt>
      <trkpt lat="41.8138940" lon="2.1636590">
        <ele>790.2820000</ele>
        <time>2010-09-26T10:32:00Z</time>
      </trkpt>
      <trkpt lat="41.8140000" lon="2.1637050">
        <ele>790.4730000</ele>
        <time>2010-09-26T10:32:05Z</time>
      </trkpt>
      <trkpt lat="41.8142080" lon="2.1637880">
        <ele>791.3900000</ele>
        <time>2010-09-26T10:32:15Z</time>
      </trkpt>
      <trkpt lat="41.8143870" lon="2.1638950">
        <ele>792.7000000</ele>
        <time>2010-09-26T10:32:24Z</time>
      </trkpt>
      <trkpt lat="41.8144720" lon="2.1640350">
        <ele>793.1870000</ele>
        <time>2010-09-26T10:32:30Z</time>
      </trkpt>
      <trkpt lat="41.8145590" lon="2.1642660">
        <ele>793.7960000</ele>
        <time>2010-09-26T10:32:38Z</time>
      </trkpt>
      <trkpt lat="41.8146440" lon="2.1645000">
        <ele>795.7110000</ele>
        <time>2010-09-26T10:32:47Z</time>
      </trkpt>
      <trkpt lat="41.8147500" lon="2.1646050">
        <ele>795.6340000</ele>
        <time>2010-09-26T10:32:51Z</time>
      </trkpt>
      <trkpt lat="41.8148800" lon="2.1647190">
        <ele>795.2300000</ele>
        <time>2010-09-26T10:32:56Z</time>
      </trkpt>
      <trkpt lat="41.8149510" lon="2.1647770">
        <ele>795.6180000</ele>
        <time>2010-09-26T10:33:00Z</time>
      </trkpt>
      <trkpt lat="41.8150620" lon="2.1649230">
        <ele>797.0330000</ele>
        <time>2010-09-26T10:33:08Z</time>
      </trkpt>
      <trkpt lat="41.8151570" lon="2.1650790">
        <ele>797.4260000</ele>
        <time>2010-09-26T10:33:15Z</time>
      </trkpt>
      <trkpt lat="41.8152580" lon="2.1653050">
        <ele>799.1720000</ele>
        <time>2010-09-26T10:33:24Z</time>
      </trkpt>
      <trkpt lat="41.8153020" lon="2.1654840">
        <ele>799.9410000</ele>
        <time>2010-09-26T10:33:31Z</time>
      </trkpt>
      <trkpt lat="41.8153460" lon="2.1656130">
        <ele>800.3430000</ele>
        <time>2010-09-26T10:33:36Z</time>
      </trkpt>
      <trkpt lat="41.8154270" lon="2.1656670">
        <ele>800.5530000</ele>
        <time>2010-09-26T10:33:40Z</time>
      </trkpt>
      <trkpt lat="41.8155460" lon="2.1657460">
        <ele>801.1930000</ele>
        <time>2010-09-26T10:33:47Z</time>
      </trkpt>
      <trkpt lat="41.8157000" lon="2.1658450">
        <ele>802.5490000</ele>
        <time>2010-09-26T10:33:55Z</time>
      </trkpt>
      <trkpt lat="41.8158580" lon="2.1659860">
        <ele>803.5880000</ele>
        <time>2010-09-26T10:34:04Z</time>
      </trkpt>
      <trkpt lat="41.8159830" lon="2.1661580">
        <ele>803.8900000</ele>
        <time>2010-09-26T10:34:12Z</time>
      </trkpt>
      <trkpt lat="41.8161170" lon="2.1662990">
        <ele>804.4990000</ele>
        <time>2010-09-26T10:34:20Z</time>
      </trkpt>
      <trkpt lat="41.8162840" lon="2.1664880">
        <ele>806.1980000</ele>
        <time>2010-09-26T10:34:31Z</time>
      </trkpt>
      <trkpt lat="41.8164190" lon="2.1666860">
        <ele>808.7070000</ele>
        <time>2010-09-26T10:34:42Z</time>
      </trkpt>
      <trkpt lat="41.8164990" lon="2.1668360">
        <ele>810.9480000</ele>
        <time>2010-09-26T10:34:50Z</time>
      </trkpt>
      <trkpt lat="41.8165980" lon="2.1669720">
        <ele>812.8610000</ele>
        <time>2010-09-26T10:34:59Z</time>
      </trkpt>
      <trkpt lat="41.8166970" lon="2.1670920">
        <ele>814.5050000</ele>
        <time>2010-09-26T10:35:08Z</time>
      </trkpt>
      <trkpt lat="41.8168070" lon="2.1671710">
        <ele>816.0690000</ele>
        <time>2010-09-26T10:35:17Z</time>
      </trkpt>
      <trkpt lat="41.8169090" lon="2.1672520">
        <ele>818.0650000</ele>
        <time>2010-09-26T10:35:26Z</time>
      </trkpt>
      <trkpt lat="41.8170030" lon="2.1673500">
        <ele>819.1880000</ele>
        <time>2010-09-26T10:35:34Z</time>
      </trkpt>
      <trkpt lat="41.8171100" lon="2.1674460">
        <ele>819.8500000</ele>
        <time>2010-09-26T10:35:42Z</time>
      </trkpt>
      <trkpt lat="41.8172860" lon="2.1675620">
        <ele>820.9460000</ele>
        <time>2010-09-26T10:35:53Z</time>
      </trkpt>
      <trkpt lat="41.8174220" lon="2.1676600">
        <ele>821.4110000</ele>
        <time>2010-09-26T10:36:01Z</time>
      </trkpt>
      <trkpt lat="41.8175440" lon="2.1677310">
        <ele>821.9670000</ele>
        <time>2010-09-26T10:36:08Z</time>
      </trkpt>
      <trkpt lat="41.8176860" lon="2.1678760">
        <ele>821.9830000</ele>
        <time>2010-09-26T10:36:17Z</time>
      </trkpt>
      <trkpt lat="41.8177960" lon="2.1680520">
        <ele>823.2870000</ele>
        <time>2010-09-26T10:36:26Z</time>
      </trkpt>
      <trkpt lat="41.8179170" lon="2.1682480">
        <ele>824.5980000</ele>
        <time>2010-09-26T10:36:36Z</time>
      </trkpt>
      <trkpt lat="41.8180290" lon="2.1684290">
        <ele>826.0680000</ele>
        <time>2010-09-26T10:36:45Z</time>
      </trkpt>
      <trkpt lat="41.8181320" lon="2.1686200">
        <ele>827.9020000</ele>
        <time>2010-09-26T10:36:54Z</time>
      </trkpt>
      <trkpt lat="41.8182470" lon="2.1688400">
        <ele>829.2830000</ele>
        <time>2010-09-26T10:37:04Z</time>
      </trkpt>
      <trkpt lat="41.8183050" lon="2.1689990">
        <ele>830.9480000</ele>
        <time>2010-09-26T10:37:11Z</time>
      </trkpt>
      <trkpt lat="41.8183450" lon="2.1692360">
        <ele>832.6890000</ele>
        <time>2010-09-26T10:37:21Z</time>
      </trkpt>
      <trkpt lat="41.8183840" lon="2.1695510">
        <ele>832.9520000</ele>
        <time>2010-09-26T10:37:33Z</time>
      </trkpt>
      <trkpt lat="41.8184480" lon="2.1697160">
        <ele>833.6920000</ele>
        <time>2010-09-26T10:37:40Z</time>
      </trkpt>
      <trkpt lat="41.8184940" lon="2.1697100">
        <ele>834.9000000</ele>
        <time>2010-09-26T10:37:45Z</time>
      </trkpt>
      <trkpt lat="41.8184870" lon="2.1696950">
        <ele>834.8460000</ele>
        <time>2010-09-26T10:37:48Z</time>
      </trkpt>
      <trkpt lat="41.8184630" lon="2.1696250">
        <ele>835.7610000</ele>
        <time>2010-09-26T10:37:56Z</time>
      </trkpt>
      <trkpt lat="41.8184440" lon="2.1694960">
        <ele>836.4120000</ele>
        <time>2010-09-26T10:38:04Z</time>
      </trkpt>
      <trkpt lat="41.8184180" lon="2.1692060">
        <ele>836.9310000</ele>
        <time>2010-09-26T10:38:13Z</time>
      </trkpt>
      <trkpt lat="41.8184370" lon="2.1689680">
        <ele>837.5730000</ele>
        <time>2010-09-26T10:38:23Z</time>
      </trkpt>
      <trkpt lat="41.8184360" lon="2.1687970">
        <ele>838.6430000</ele>
        <time>2010-09-26T10:38:31Z</time>
      </trkpt>
      <trkpt lat="41.8184260" lon="2.1686170">
        <ele>839.4970000</ele>
        <time>2010-09-26T10:38:39Z</time>
      </trkpt>
      <trkpt lat="41.8183950" lon="2.1684710">
        <ele>841.5480000</ele>
        <time>2010-09-26T10:38:46Z</time>
      </trkpt>
      <trkpt lat="41.8183560" lon="2.1682730">
        <ele>842.5090000</ele>
        <time>2010-09-26T10:38:54Z</time>
      </trkpt>
      <trkpt lat="41.8182720" lon="2.1681700">
        <ele>843.1150000</ele>
        <time>2010-09-26T10:39:00Z</time>
      </trkpt>
      <trkpt lat="41.8182170" lon="2.1680100">
        <ele>844.1890000</ele>
        <time>2010-09-26T10:39:07Z</time>
      </trkpt>
      <trkpt lat="41.8182600" lon="2.1678400">
        <ele>845.3240000</ele>
        <time>2010-09-26T10:39:14Z</time>
      </trkpt>
      <trkpt lat="41.8182600" lon="2.1675670">
        <ele>846.1170000</ele>
        <time>2010-09-26T10:39:23Z</time>
      </trkpt>
      <trkpt lat="41.8181630" lon="2.1674200">
        <ele>847.2380000</ele>
        <time>2010-09-26T10:39:30Z</time>
      </trkpt>
      <trkpt lat="41.8180140" lon="2.1671920">
        <ele>847.9040000</ele>
        <time>2010-09-26T10:39:39Z</time>
      </trkpt>
      <trkpt lat="41.8178920" lon="2.1669080">
        <ele>847.8770000</ele>
        <time>2010-09-26T10:39:47Z</time>
      </trkpt>
      <trkpt lat="41.8178180" lon="2.1666460">
        <ele>848.3680000</ele>
        <time>2010-09-26T10:39:54Z</time>
      </trkpt>
      <trkpt lat="41.8179260" lon="2.1665270">
        <ele>848.3990000</ele>
        <time>2010-09-26T10:39:59Z</time>
      </trkpt>
      <trkpt lat="41.8180030" lon="2.1665420">
        <ele>848.1410000</ele>
        <time>2010-09-26T10:40:01Z</time>
      </trkpt>
      <trkpt lat="41.8183500" lon="2.1666230">
        <ele>847.3800000</ele>
        <time>2010-09-26T10:40:08Z</time>
      </trkpt>
      <trkpt lat="41.8185420" lon="2.1666870">
        <ele>847.0810000</ele>
        <time>2010-09-26T10:40:12Z</time>
      </trkpt>
      <trkpt lat="41.8187150" lon="2.1666900">
        <ele>846.9700000</ele>
        <time>2010-09-26T10:40:16Z</time>
      </trkpt>
      <trkpt lat="41.8190330" lon="2.1665250">
        <ele>846.4880000</ele>
        <time>2010-09-26T10:40:25Z</time>
      </trkpt>
      <trkpt lat="41.8192590" lon="2.1663850">
        <ele>847.2850000</ele>
        <time>2010-09-26T10:40:32Z</time>
      </trkpt>
      <trkpt lat="41.8194350" lon="2.1663480">
        <ele>848.4170000</ele>
        <time>2010-09-26T10:40:38Z</time>
      </trkpt>
      <trkpt lat="41.8196180" lon="2.1663680">
        <ele>849.1930000</ele>
        <time>2010-09-26T10:40:45Z</time>
      </trkpt>
      <trkpt lat="41.8197520" lon="2.1663810">
        <ele>850.0780000</ele>
        <time>2010-09-26T10:40:51Z</time>
      </trkpt>
      <trkpt lat="41.8199850" lon="2.1664570">
        <ele>850.3790000</ele>
        <time>2010-09-26T10:40:58Z</time>
      </trkpt>
      <trkpt lat="41.8201850" lon="2.1665550">
        <ele>850.2870000</ele>
        <time>2010-09-26T10:41:04Z</time>
      </trkpt>
      <trkpt lat="41.8204220" lon="2.1665980">
        <ele>850.6030000</ele>
        <time>2010-09-26T10:41:11Z</time>
      </trkpt>
      <trkpt lat="41.8205950" lon="2.1665940">
        <ele>850.6540000</ele>
        <time>2010-09-26T10:41:17Z</time>
      </trkpt>
      <trkpt lat="41.8208030" lon="2.1665600">
        <ele>850.2740000</ele>
        <time>2010-09-26T10:41:23Z</time>
      </trkpt>
      <trkpt lat="41.8210020" lon="2.1664560">
        <ele>850.6220000</ele>
        <time>2010-09-26T10:41:29Z</time>
      </trkpt>
      <trkpt lat="41.8211880" lon="2.1663860">
        <ele>850.6950000</ele>
        <time>2010-09-26T10:41:34Z</time>
      </trkpt>
      <trkpt lat="41.8214700" lon="2.1663600">
        <ele>850.5910000</ele>
        <time>2010-09-26T10:41:41Z</time>
      </trkpt>
      <trkpt lat="41.8217350" lon="2.1664190">
        <ele>850.4010000</ele>
        <time>2010-09-26T10:41:48Z</time>
      </trkpt>
      <trkpt lat="41.8220290" lon="2.1664860">
        <ele>851.0460000</ele>
        <time>2010-09-26T10:41:56Z</time>
      </trkpt>
      <trkpt lat="41.8222260" lon="2.1665940">
        <ele>850.6770000</ele>
        <time>2010-09-26T10:42:02Z</time>
      </trkpt>
      <trkpt lat="41.8224430" lon="2.1667880">
        <ele>850.1720000</ele>
        <time>2010-09-26T10:42:08Z</time>
      </trkpt>
      <trkpt lat="41.8226050" lon="2.1669210">
        <ele>849.7340000</ele>
        <time>2010-09-26T10:42:12Z</time>
      </trkpt>
      <trkpt lat="41.8227970" lon="2.1670320">
        <ele>848.9350000</ele>
        <time>2010-09-26T10:42:16Z</time>
      </trkpt>
      <trkpt lat="41.8230700" lon="2.1670640">
        <ele>847.2970000</ele>
        <time>2010-09-26T10:42:21Z</time>
      </trkpt>
      <trkpt lat="41.8231740" lon="2.1669340">
        <ele>847.0780000</ele>
        <time>2010-09-26T10:42:24Z</time>
      </trkpt>
      <trkpt lat="41.8231970" lon="2.1668830">
        <ele>847.3040000</ele>
        <time>2010-09-26T10:42:25Z</time>
      </trkpt>
      <trkpt lat="41.8233610" lon="2.1665030">
        <ele>848.3370000</ele>
        <time>2010-09-26T10:42:33Z</time>
      </trkpt>
      <trkpt lat="41.8234860" lon="2.1662370">
        <ele>849.6370000</ele>
        <time>2010-09-26T10:42:40Z</time>
      </trkpt>
      <trkpt lat="41.8236430" lon="2.1659340">
        <ele>851.7850000</ele>
        <time>2010-09-26T10:42:49Z</time>
      </trkpt>
      <trkpt lat="41.8236850" lon="2.1658820">
        <ele>852.0650000</ele>
        <time>2010-09-26T10:42:51Z</time>
      </trkpt>
      <trkpt lat="41.8237820" lon="2.1659630">
        <ele>852.0070000</ele>
        <time>2010-09-26T10:42:55Z</time>
      </trkpt>
      <trkpt lat="41.8239610" lon="2.1663010">
        <ele>852.2000000</ele>
        <time>2010-09-26T10:43:03Z</time>
      </trkpt>
      <trkpt lat="41.8241800" lon="2.1667050">
        <ele>852.4840000</ele>
        <time>2010-09-26T10:43:12Z</time>
      </trkpt>
      <trkpt lat="41.8244000" lon="2.1671090">
        <ele>852.7350000</ele>
        <time>2010-09-26T10:43:21Z</time>
      </trkpt>
      <trkpt lat="41.8246570" lon="2.1675420">
        <ele>852.7640000</ele>
        <time>2010-09-26T10:43:31Z</time>
      </trkpt>
      <trkpt lat="41.8249120" lon="2.1679250">
        <ele>853.3330000</ele>
        <time>2010-09-26T10:43:41Z</time>
      </trkpt>
      <trkpt lat="41.8251700" lon="2.1682760">
        <ele>854.4500000</ele>
        <time>2010-09-26T10:43:51Z</time>
      </trkpt>
      <trkpt lat="41.8253370" lon="2.1685170">
        <ele>855.4100000</ele>
        <time>2010-09-26T10:43:59Z</time>
      </trkpt>
      <trkpt lat="41.8254160" lon="2.1684740">
        <ele>856.1260000</ele>
        <time>2010-09-26T10:44:03Z</time>
      </trkpt>
      <trkpt lat="41.8255190" lon="2.1684260">
        <ele>856.5670000</ele>
        <time>2010-09-26T10:44:10Z</time>
      </trkpt>
      <trkpt lat="41.8255390" lon="2.1684170">
        <ele>856.7080000</ele>
        <time>2010-09-26T10:44:12Z</time>
      </trkpt>
      <trkpt lat="41.8256030" lon="2.1683670">
        <ele>856.9710000</ele>
        <time>2010-09-26T10:44:20Z</time>
      </trkpt>
      <trkpt lat="41.8256210" lon="2.1683810">
        <ele>857.1700000</ele>
        <time>2010-09-26T10:44:25Z</time>
      </trkpt>
      <trkpt lat="41.8256450" lon="2.1683850">
        <ele>857.2260000</ele>
        <time>2010-09-26T10:44:31Z</time>
      </trkpt>
      <trkpt lat="41.8256450" lon="2.1683810">
        <ele>857.2410000</ele>
        <time>2010-09-26T10:44:32Z</time>
      </trkpt>
      <trkpt lat="41.8256370" lon="2.1684100">
        <ele>857.8260000</ele>
        <time>2010-09-26T10:47:39Z</time>
      </trkpt>
      <trkpt lat="41.8256400" lon="2.1684080">
        <ele>857.7560000</ele>
        <time>2010-09-26T10:47:40Z</time>
      </trkpt>
      <trkpt lat="41.8256570" lon="2.1683870">
        <ele>857.5370000</ele>
        <time>2010-09-26T10:47:45Z</time>
      </trkpt>
      <trkpt lat="41.8256490" lon="2.1684490">
        <ele>857.2060000</ele>
        <time>2010-09-26T10:48:06Z</time>
      </trkpt>
      <trkpt lat="41.8256350" lon="2.1684390">
        <ele>857.0490000</ele>
        <time>2010-09-26T10:48:31Z</time>
      </trkpt>
      <trkpt lat="41.8256460" lon="2.1684660">
        <ele>856.8330000</ele>
        <time>2010-09-26T10:48:36Z</time>
      </trkpt>
      <trkpt lat="41.8256400" lon="2.1684570">
        <ele>856.5050000</ele>
        <time>2010-09-26T10:49:25Z</time>
      </trkpt>
      <trkpt lat="41.8256450" lon="2.1684070">
        <ele>856.4170000</ele>
        <time>2010-09-26T10:49:45Z</time>
      </trkpt>
      <trkpt lat="41.8256670" lon="2.1683660">
        <ele>856.7070000</ele>
        <time>2010-09-26T10:49:51Z</time>
      </trkpt>
      <trkpt lat="41.8256670" lon="2.1683640">
        <ele>856.5220000</ele>
        <time>2010-09-26T10:49:52Z</time>
      </trkpt>
      <trkpt lat="41.8256360" lon="2.1684290">
        <ele>856.1140000</ele>
        <time>2010-09-26T10:50:29Z</time>
      </trkpt>
      <trkpt lat="41.8256310" lon="2.1683460">
        <ele>856.1270000</ele>
        <time>2010-09-26T10:51:31Z</time>
      </trkpt>
      <trkpt lat="41.8256270" lon="2.1683420">
        <ele>856.0440000</ele>
        <time>2010-09-26T10:51:32Z</time>
      </trkpt>
      <trkpt lat="41.8256810" lon="2.1683140">
        <ele>856.3810000</ele>
        <time>2010-09-26T10:53:23Z</time>
      </trkpt>
      <trkpt lat="41.8256350" lon="2.1683680">
        <ele>856.4360000</ele>
        <time>2010-09-26T10:53:58Z</time>
      </trkpt>
      <trkpt lat="41.8256210" lon="2.1683620">
        <ele>856.1630000</ele>
        <time>2010-09-26T10:54:03Z</time>
      </trkpt>
      <trkpt lat="41.8256250" lon="2.1683480">
        <ele>856.2890000</ele>
        <time>2010-09-26T10:54:59Z</time>
      </trkpt>
      <trkpt lat="41.8256280" lon="2.1683450">
        <ele>856.3250000</ele>
        <time>2010-09-26T10:55:00Z</time>
      </trkpt>
      <trkpt lat="41.8256250" lon="2.1683430">
        <ele>856.5930000</ele>
        <time>2010-09-26T10:57:32Z</time>
      </trkpt>
      <trkpt lat="41.8255840" lon="2.1684260">
        <ele>856.5500000</ele>
        <time>2010-09-26T10:57:39Z</time>
      </trkpt>
      <trkpt lat="41.8255950" lon="2.1684560">
        <ele>856.6900000</ele>
        <time>2010-09-26T10:57:43Z</time>
      </trkpt>
      <trkpt lat="41.8256390" lon="2.1684100">
        <ele>856.6610000</ele>
        <time>2010-09-26T10:58:04Z</time>
      </trkpt>
      <trkpt lat="41.8256620" lon="2.1683730">
        <ele>856.8670000</ele>
        <time>2010-09-26T10:58:18Z</time>
      </trkpt>
      <trkpt lat="41.8256360" lon="2.1683500">
        <ele>856.5470000</ele>
        <time>2010-09-26T10:58:24Z</time>
      </trkpt>
      <trkpt lat="41.8256210" lon="2.1683810">
        <ele>856.6890000</ele>
        <time>2010-09-26T10:58:30Z</time>
      </trkpt>
      <trkpt lat="41.8256140" lon="2.1683970">
        <ele>856.4290000</ele>
        <time>2010-09-26T10:58:33Z</time>
      </trkpt>
      <trkpt lat="41.8255940" lon="2.1683900">
        <ele>856.1380000</ele>
        <time>2010-09-26T10:58:36Z</time>
      </trkpt>
      <trkpt lat="41.8255850" lon="2.1683940">
        <ele>856.1450000</ele>
        <time>2010-09-26T10:58:40Z</time>
      </trkpt>
      <trkpt lat="41.8255860" lon="2.1683720">
        <ele>856.5620000</ele>
        <time>2010-09-26T11:00:14Z</time>
      </trkpt>
      <trkpt lat="41.8255850" lon="2.1683770">
        <ele>856.5540000</ele>
        <time>2010-09-26T11:00:15Z</time>
      </trkpt>
      <trkpt lat="41.8255520" lon="2.1683740">
        <ele>856.1570000</ele>
        <time>2010-09-26T11:01:15Z</time>
      </trkpt>
      <trkpt lat="41.8255500" lon="2.1683760">
        <ele>856.3270000</ele>
        <time>2010-09-26T11:01:16Z</time>
      </trkpt>
      <trkpt lat="41.8255630" lon="2.1684110">
        <ele>856.5380000</ele>
        <time>2010-09-26T11:01:46Z</time>
      </trkpt>
      <trkpt lat="41.8256610" lon="2.1683120">
        <ele>855.6200000</ele>
        <time>2010-09-26T11:03:34Z</time>
      </trkpt>
      <trkpt lat="41.8256500" lon="2.1683010">
        <ele>855.6300000</ele>
        <time>2010-09-26T11:03:37Z</time>
      </trkpt>
      <trkpt lat="41.8257550" lon="2.1682380">
        <ele>856.3310000</ele>
        <time>2010-09-26T11:05:01Z</time>
      </trkpt>
      <trkpt lat="41.8257570" lon="2.1682370">
        <ele>856.3660000</ele>
        <time>2010-09-26T11:05:02Z</time>
      </trkpt>
      <trkpt lat="41.8258310" lon="2.1682100">
        <ele>856.8480000</ele>
        <time>2010-09-26T11:05:16Z</time>
      </trkpt>
      <trkpt lat="41.8259690" lon="2.1682730">
        <ele>857.8320000</ele>
        <time>2010-09-26T11:07:18Z</time>
      </trkpt>
      <trkpt lat="41.8260710" lon="2.1682140">
        <ele>858.5000000</ele>
        <time>2010-09-26T11:07:24Z</time>
      </trkpt>
      <trkpt lat="41.8262160" lon="2.1681290">
        <ele>859.6480000</ele>
        <time>2010-09-26T11:07:31Z</time>
      </trkpt>
      <trkpt lat="41.8263450" lon="2.1680650">
        <ele>860.4870000</ele>
        <time>2010-09-26T11:07:38Z</time>
      </trkpt>
      <trkpt lat="41.8264720" lon="2.1680470">
        <ele>861.7160000</ele>
        <time>2010-09-26T11:07:45Z</time>
      </trkpt>
      <trkpt lat="41.8265950" lon="2.1680150">
        <ele>862.4010000</ele>
        <time>2010-09-26T11:07:51Z</time>
      </trkpt>
      <trkpt lat="41.8267460" lon="2.1678840">
        <ele>863.7980000</ele>
        <time>2010-09-26T11:08:00Z</time>
      </trkpt>
      <trkpt lat="41.8267550" lon="2.1677590">
        <ele>865.0270000</ele>
        <time>2010-09-26T11:08:05Z</time>
      </trkpt>
      <trkpt lat="41.8267200" lon="2.1675170">
        <ele>867.4280000</ele>
        <time>2010-09-26T11:08:15Z</time>
      </trkpt>
      <trkpt lat="41.8267000" lon="2.1673350">
        <ele>868.7140000</ele>
        <time>2010-09-26T11:08:22Z</time>
      </trkpt>
      <trkpt lat="41.8266920" lon="2.1671600">
        <ele>869.8080000</ele>
        <time>2010-09-26T11:08:29Z</time>
      </trkpt>
      <trkpt lat="41.8267270" lon="2.1669560">
        <ele>870.6570000</ele>
        <time>2010-09-26T11:08:37Z</time>
      </trkpt>
      <trkpt lat="41.8268290" lon="2.1667900">
        <ele>871.5850000</ele>
        <time>2010-09-26T11:08:45Z</time>
      </trkpt>
      <trkpt lat="41.8269890" lon="2.1666470">
        <ele>873.9630000</ele>
        <time>2010-09-26T11:08:55Z</time>
      </trkpt>
      <trkpt lat="41.8270670" lon="2.1665750">
        <ele>874.5040000</ele>
        <time>2010-09-26T11:09:01Z</time>
      </trkpt>
      <trkpt lat="41.8271650" lon="2.1664400">
        <ele>875.7730000</ele>
        <time>2010-09-26T11:09:09Z</time>
      </trkpt>
      <trkpt lat="41.8272160" lon="2.1663160">
        <ele>876.2110000</ele>
        <time>2010-09-26T11:09:15Z</time>
      </trkpt>
      <trkpt lat="41.8272450" lon="2.1661140">
        <ele>876.5800000</ele>
        <time>2010-09-26T11:09:23Z</time>
      </trkpt>
      <trkpt lat="41.8272310" lon="2.1659610">
        <ele>877.6070000</ele>
        <time>2010-09-26T11:09:30Z</time>
      </trkpt>
      <trkpt lat="41.8272240" lon="2.1658000">
        <ele>879.1920000</ele>
        <time>2010-09-26T11:09:38Z</time>
      </trkpt>
      <trkpt lat="41.8272270" lon="2.1657030">
        <ele>880.4700000</ele>
        <time>2010-09-26T11:09:43Z</time>
      </trkpt>
      <trkpt lat="41.8272870" lon="2.1656910">
        <ele>880.9510000</ele>
        <time>2010-09-26T11:09:47Z</time>
      </trkpt>
      <trkpt lat="41.8274900" lon="2.1657440">
        <ele>882.6720000</ele>
        <time>2010-09-26T11:09:58Z</time>
      </trkpt>
      <trkpt lat="41.8276370" lon="2.1657700">
        <ele>884.1450000</ele>
        <time>2010-09-26T11:10:06Z</time>
      </trkpt>
      <trkpt lat="41.8277980" lon="2.1657520">
        <ele>885.1910000</ele>
        <time>2010-09-26T11:10:15Z</time>
      </trkpt>
      <trkpt lat="41.8279630" lon="2.1656950">
        <ele>886.2180000</ele>
        <time>2010-09-26T11:10:23Z</time>
      </trkpt>
      <trkpt lat="41.8281350" lon="2.1657060">
        <ele>886.6920000</ele>
        <time>2010-09-26T11:10:31Z</time>
      </trkpt>
      <trkpt lat="41.8283170" lon="2.1658450">
        <ele>887.5070000</ele>
        <time>2010-09-26T11:10:40Z</time>
      </trkpt>
      <trkpt lat="41.8284980" lon="2.1658760">
        <ele>887.8300000</ele>
        <time>2010-09-26T11:10:48Z</time>
      </trkpt>
      <trkpt lat="41.8285950" lon="2.1657640">
        <ele>889.0030000</ele>
        <time>2010-09-26T11:10:54Z</time>
      </trkpt>
      <trkpt lat="41.8286430" lon="2.1655600">
        <ele>890.3280000</ele>
        <time>2010-09-26T11:11:01Z</time>
      </trkpt>
      <trkpt lat="41.8287080" lon="2.1653520">
        <ele>890.7020000</ele>
        <time>2010-09-26T11:11:09Z</time>
      </trkpt>
      <trkpt lat="41.8288010" lon="2.1651680">
        <ele>891.6510000</ele>
        <time>2010-09-26T11:11:17Z</time>
      </trkpt>
      <trkpt lat="41.8289640" lon="2.1650520">
        <ele>892.8900000</ele>
        <time>2010-09-26T11:11:25Z</time>
      </trkpt>
      <trkpt lat="41.8290980" lon="2.1650700">
        <ele>893.8350000</ele>
        <time>2010-09-26T11:11:31Z</time>
      </trkpt>
      <trkpt lat="41.8292940" lon="2.1651430">
        <ele>895.5880000</ele>
        <time>2010-09-26T11:11:40Z</time>
      </trkpt>
      <trkpt lat="41.8294600" lon="2.1650800">
        <ele>897.2130000</ele>
        <time>2010-09-26T11:11:48Z</time>
      </trkpt>
      <trkpt lat="41.8296610" lon="2.1650130">
        <ele>898.5970000</ele>
        <time>2010-09-26T11:11:57Z</time>
      </trkpt>
      <trkpt lat="41.8298670" lon="2.1649280">
        <ele>898.6810000</ele>
        <time>2010-09-26T11:12:06Z</time>
      </trkpt>
      <trkpt lat="41.8300240" lon="2.1647490">
        <ele>899.7720000</ele>
        <time>2010-09-26T11:12:15Z</time>
      </trkpt>
      <trkpt lat="41.8301520" lon="2.1644810">
        <ele>901.9440000</ele>
        <time>2010-09-26T11:12:26Z</time>
      </trkpt>
      <trkpt lat="41.8302460" lon="2.1642330">
        <ele>902.9260000</ele>
        <time>2010-09-26T11:12:35Z</time>
      </trkpt>
      <trkpt lat="41.8303140" lon="2.1639750">
        <ele>905.0260000</ele>
        <time>2010-09-26T11:12:44Z</time>
      </trkpt>
      <trkpt lat="41.8304020" lon="2.1637120">
        <ele>905.1310000</ele>
        <time>2010-09-26T11:12:52Z</time>
      </trkpt>
      <trkpt lat="41.8304990" lon="2.1634120">
        <ele>904.7820000</ele>
        <time>2010-09-26T11:13:00Z</time>
      </trkpt>
      <trkpt lat="41.8305960" lon="2.1632070">
        <ele>905.2170000</ele>
        <time>2010-09-26T11:13:07Z</time>
      </trkpt>
      <trkpt lat="41.8307600" lon="2.1630310">
        <ele>906.2450000</ele>
        <time>2010-09-26T11:13:17Z</time>
      </trkpt>
      <trkpt lat="41.8309020" lon="2.1628800">
        <ele>909.0540000</ele>
        <time>2010-09-26T11:13:26Z</time>
      </trkpt>
      <trkpt lat="41.8310030" lon="2.1627060">
        <ele>910.9170000</ele>
        <time>2010-09-26T11:13:34Z</time>
      </trkpt>
      <trkpt lat="41.8311330" lon="2.1625510">
        <ele>911.9630000</ele>
        <time>2010-09-26T11:13:43Z</time>
      </trkpt>
      <trkpt lat="41.8312600" lon="2.1624310">
        <ele>914.0920000</ele>
        <time>2010-09-26T11:13:51Z</time>
      </trkpt>
      <trkpt lat="41.8313520" lon="2.1622780">
        <ele>914.9720000</ele>
        <time>2010-09-26T11:13:58Z</time>
      </trkpt>
      <trkpt lat="41.8314340" lon="2.1621240">
        <ele>916.3620000</ele>
        <time>2010-09-26T11:14:06Z</time>
      </trkpt>
      <trkpt lat="41.8315470" lon="2.1619130">
        <ele>918.9520000</ele>
        <time>2010-09-26T11:14:16Z</time>
      </trkpt>
      <trkpt lat="41.8316540" lon="2.1618000">
        <ele>920.4850000</ele>
        <time>2010-09-26T11:14:24Z</time>
      </trkpt>
      <trkpt lat="41.8317950" lon="2.1616410">
        <ele>921.6150000</ele>
        <time>2010-09-26T11:14:33Z</time>
      </trkpt>
      <trkpt lat="41.8319140" lon="2.1614400">
        <ele>922.1010000</ele>
        <time>2010-09-26T11:14:41Z</time>
      </trkpt>
      <trkpt lat="41.8320790" lon="2.1612440">
        <ele>922.9080000</ele>
        <time>2010-09-26T11:14:51Z</time>
      </trkpt>
      <trkpt lat="41.8322210" lon="2.1610190">
        <ele>923.9750000</ele>
        <time>2010-09-26T11:15:00Z</time>
      </trkpt>
      <trkpt lat="41.8323260" lon="2.1608360">
        <ele>923.8510000</ele>
        <time>2010-09-26T11:15:06Z</time>
      </trkpt>
      <trkpt lat="41.8324360" lon="2.1608260">
        <ele>924.1300000</ele>
        <time>2010-09-26T11:15:11Z</time>
      </trkpt>
      <trkpt lat="41.8325810" lon="2.1608810">
        <ele>925.8640000</ele>
        <time>2010-09-26T11:15:19Z</time>
      </trkpt>
      <trkpt lat="41.8327170" lon="2.1608980">
        <ele>927.9360000</ele>
        <time>2010-09-26T11:15:27Z</time>
      </trkpt>
      <trkpt lat="41.8328710" lon="2.1608710">
        <ele>929.5290000</ele>
        <time>2010-09-26T11:15:36Z</time>
      </trkpt>
      <trkpt lat="41.8330150" lon="2.1608310">
        <ele>930.5020000</ele>
        <time>2010-09-26T11:15:44Z</time>
      </trkpt>
      <trkpt lat="41.8331280" lon="2.1607660">
        <ele>932.4860000</ele>
        <time>2010-09-26T11:15:52Z</time>
      </trkpt>
      <trkpt lat="41.8332620" lon="2.1606430">
        <ele>933.8950000</ele>
        <time>2010-09-26T11:16:00Z</time>
      </trkpt>
      <trkpt lat="41.8334190" lon="2.1605290">
        <ele>935.4540000</ele>
        <time>2010-09-26T11:16:10Z</time>
      </trkpt>
      <trkpt lat="41.8335160" lon="2.1604590">
        <ele>936.4340000</ele>
        <time>2010-09-26T11:16:17Z</time>
      </trkpt>
      <trkpt lat="41.8336600" lon="2.1603910">
        <ele>938.7810000</ele>
        <time>2010-09-26T11:16:27Z</time>
      </trkpt>
      <trkpt lat="41.8337730" lon="2.1602800">
        <ele>940.3740000</ele>
        <time>2010-09-26T11:16:35Z</time>
      </trkpt>
      <trkpt lat="41.8338740" lon="2.1602270">
        <ele>940.5600000</ele>
        <time>2010-09-26T11:16:41Z</time>
      </trkpt>
      <trkpt lat="41.8340360" lon="2.1602480">
        <ele>941.1390000</ele>
        <time>2010-09-26T11:16:49Z</time>
      </trkpt>
      <trkpt lat="41.8342250" lon="2.1601950">
        <ele>941.7490000</ele>
        <time>2010-09-26T11:16:58Z</time>
      </trkpt>
      <trkpt lat="41.8343450" lon="2.1601380">
        <ele>942.7790000</ele>
        <time>2010-09-26T11:17:05Z</time>
      </trkpt>
      <trkpt lat="41.8344880" lon="2.1600850">
        <ele>945.2090000</ele>
        <time>2010-09-26T11:17:14Z</time>
      </trkpt>
      <trkpt lat="41.8346260" lon="2.1600170">
        <ele>946.8750000</ele>
        <time>2010-09-26T11:17:23Z</time>
      </trkpt>
      <trkpt lat="41.8346950" lon="2.1599370">
        <ele>947.7230000</ele>
        <time>2010-09-26T11:17:29Z</time>
      </trkpt>
      <trkpt lat="41.8347930" lon="2.1598070">
        <ele>948.9440000</ele>
        <time>2010-09-26T11:17:36Z</time>
      </trkpt>
      <trkpt lat="41.8348790" lon="2.1597410">
        <ele>949.8660000</ele>
        <time>2010-09-26T11:17:42Z</time>
      </trkpt>
      <trkpt lat="41.8349850" lon="2.1597600">
        <ele>950.4050000</ele>
        <time>2010-09-26T11:17:48Z</time>
      </trkpt>
      <trkpt lat="41.8351320" lon="2.1598730">
        <ele>952.3750000</ele>
        <time>2010-09-26T11:17:58Z</time>
      </trkpt>
      <trkpt lat="41.8352890" lon="2.1598880">
        <ele>954.7450000</ele>
        <time>2010-09-26T11:18:07Z</time>
      </trkpt>
      <trkpt lat="41.8354570" lon="2.1598650">
        <ele>956.5500000</ele>
        <time>2010-09-26T11:18:17Z</time>
      </trkpt>
      <trkpt lat="41.8356090" lon="2.1598400">
        <ele>957.9170000</ele>
        <time>2010-09-26T11:18:26Z</time>
      </trkpt>
      <trkpt lat="41.8357570" lon="2.1597860">
        <ele>959.8560000</ele>
        <time>2010-09-26T11:18:35Z</time>
      </trkpt>
      <trkpt lat="41.8358990" lon="2.1597510">
        <ele>960.9960000</ele>
        <time>2010-09-26T11:18:43Z</time>
      </trkpt>
      <trkpt lat="41.8360510" lon="2.1597460">
        <ele>961.5840000</ele>
        <time>2010-09-26T11:18:51Z</time>
      </trkpt>
      <trkpt lat="41.8362360" lon="2.1597490">
        <ele>961.4840000</ele>
        <time>2010-09-26T11:18:58Z</time>
      </trkpt>
      <trkpt lat="41.8364390" lon="2.1598010">
        <ele>961.6980000</ele>
        <time>2010-09-26T11:19:06Z</time>
      </trkpt>
      <trkpt lat="41.8366210" lon="2.1599330">
        <ele>962.3150000</ele>
        <time>2010-09-26T11:19:15Z</time>
      </trkpt>
      <trkpt lat="41.8366950" lon="2.1601170">
        <ele>962.7190000</ele>
        <time>2010-09-26T11:19:22Z</time>
      </trkpt>
      <trkpt lat="41.8367000" lon="2.1602920">
        <ele>964.7430000</ele>
        <time>2010-09-26T11:19:30Z</time>
      </trkpt>
      <trkpt lat="41.8366190" lon="2.1604350">
        <ele>966.2250000</ele>
        <time>2010-09-26T11:19:38Z</time>
      </trkpt>
      <trkpt lat="41.8365090" lon="2.1605330">
        <ele>967.6020000</ele>
        <time>2010-09-26T11:19:46Z</time>
      </trkpt>
      <trkpt lat="41.8363610" lon="2.1606500">
        <ele>969.0030000</ele>
        <time>2010-09-26T11:19:56Z</time>
      </trkpt>
      <trkpt lat="41.8362470" lon="2.1607790">
        <ele>970.5910000</ele>
        <time>2010-09-26T11:20:05Z</time>
      </trkpt>
      <trkpt lat="41.8361480" lon="2.1608730">
        <ele>972.5160000</ele>
        <time>2010-09-26T11:20:13Z</time>
      </trkpt>
      <trkpt lat="41.8360160" lon="2.1609430">
        <ele>973.3740000</ele>
        <time>2010-09-26T11:20:22Z</time>
      </trkpt>
      <trkpt lat="41.8359880" lon="2.1609630">
        <ele>973.8290000</ele>
        <time>2010-09-26T11:20:24Z</time>
      </trkpt>
      <trkpt lat="41.8360000" lon="2.1610300">
        <ele>974.2780000</ele>
        <time>2010-09-26T11:20:29Z</time>
      </trkpt>
      <trkpt lat="41.8360840" lon="2.1610030">
        <ele>975.3710000</ele>
        <time>2010-09-26T11:20:34Z</time>
      </trkpt>
      <trkpt lat="41.8362180" lon="2.1609930">
        <ele>976.8460000</ele>
        <time>2010-09-26T11:20:43Z</time>
      </trkpt>
      <trkpt lat="41.8363400" lon="2.1610190">
        <ele>978.2380000</ele>
        <time>2010-09-26T11:20:51Z</time>
      </trkpt>
      <trkpt lat="41.8364670" lon="2.1610340">
        <ele>979.7400000</ele>
        <time>2010-09-26T11:20:59Z</time>
      </trkpt>
      <trkpt lat="41.8366190" lon="2.1610630">
        <ele>981.3410000</ele>
        <time>2010-09-26T11:21:09Z</time>
      </trkpt>
      <trkpt lat="41.8367170" lon="2.1611660">
        <ele>982.9290000</ele>
        <time>2010-09-26T11:21:18Z</time>
      </trkpt>
      <trkpt lat="41.8367700" lon="2.1613320">
        <ele>985.3710000</ele>
        <time>2010-09-26T11:21:28Z</time>
      </trkpt>
      <trkpt lat="41.8368890" lon="2.1613680">
        <ele>986.3690000</ele>
        <time>2010-09-26T11:21:36Z</time>
      </trkpt>
      <trkpt lat="41.8370070" lon="2.1613810">
        <ele>987.3160000</ele>
        <time>2010-09-26T11:21:44Z</time>
      </trkpt>
      <trkpt lat="41.8371240" lon="2.1613270">
        <ele>988.9450000</ele>
        <time>2010-09-26T11:21:52Z</time>
      </trkpt>
      <trkpt lat="41.8372590" lon="2.1611930">
        <ele>989.9230000</ele>
        <time>2010-09-26T11:22:01Z</time>
      </trkpt>
      <trkpt lat="41.8373800" lon="2.1611360">
        <ele>991.0140000</ele>
        <time>2010-09-26T11:22:08Z</time>
      </trkpt>
      <trkpt lat="41.8375800" lon="2.1610520">
        <ele>992.5010000</ele>
        <time>2010-09-26T11:22:18Z</time>
      </trkpt>
      <trkpt lat="41.8377050" lon="2.1610020">
        <ele>993.8460000</ele>
        <time>2010-09-26T11:22:25Z</time>
      </trkpt>
      <trkpt lat="41.8378600" lon="2.1609080">
        <ele>994.5830000</ele>
        <time>2010-09-26T11:22:33Z</time>
      </trkpt>
      <trkpt lat="41.8379990" lon="2.1608580">
        <ele>994.7930000</ele>
        <time>2010-09-26T11:22:40Z</time>
      </trkpt>
      <trkpt lat="41.8381390" lon="2.1607940">
        <ele>995.4640000</ele>
        <time>2010-09-26T11:22:47Z</time>
      </trkpt>
      <trkpt lat="41.8382600" lon="2.1607800">
        <ele>996.5930000</ele>
        <time>2010-09-26T11:22:54Z</time>
      </trkpt>
      <trkpt lat="41.8383930" lon="2.1607490">
        <ele>997.7140000</ele>
        <time>2010-09-26T11:23:01Z</time>
      </trkpt>
      <trkpt lat="41.8385600" lon="2.1606650">
        <ele>999.0300000</ele>
        <time>2010-09-26T11:23:10Z</time>
      </trkpt>
      <trkpt lat="41.8387400" lon="2.1605480">
        <ele>999.8210000</ele>
        <time>2010-09-26T11:23:20Z</time>
      </trkpt>
      <trkpt lat="41.8388420" lon="2.1605180">
        <ele>1000.8130000</ele>
        <time>2010-09-26T11:23:26Z</time>
      </trkpt>
      <trkpt lat="41.8388610" lon="2.1605690">
        <ele>1001.9350000</ele>
        <time>2010-09-26T11:23:30Z</time>
      </trkpt>
      <trkpt lat="41.8388480" lon="2.1605890">
        <ele>1002.1130000</ele>
        <time>2010-09-26T11:23:31Z</time>
      </trkpt>
      <trkpt lat="41.8387370" lon="2.1606740">
        <ele>1002.1540000</ele>
        <time>2010-09-26T11:23:37Z</time>
      </trkpt>
      <trkpt lat="41.8386070" lon="2.1607810">
        <ele>1002.3790000</ele>
        <time>2010-09-26T11:23:44Z</time>
      </trkpt>
      <trkpt lat="41.8385240" lon="2.1608710">
        <ele>1002.8710000</ele>
        <time>2010-09-26T11:23:49Z</time>
      </trkpt>
      <trkpt lat="41.8384150" lon="2.1610940">
        <ele>1005.0030000</ele>
        <time>2010-09-26T11:23:59Z</time>
      </trkpt>
      <trkpt lat="41.8383780" lon="2.1611750">
        <ele>1006.0560000</ele>
        <time>2010-09-26T11:24:04Z</time>
      </trkpt>
      <trkpt lat="41.8382930" lon="2.1613120">
        <ele>1008.0250000</ele>
        <time>2010-09-26T11:24:13Z</time>
      </trkpt>
      <trkpt lat="41.8382910" lon="2.1613320">
        <ele>1008.2120000</ele>
        <time>2010-09-26T11:24:14Z</time>
      </trkpt>
      <trkpt lat="41.8383530" lon="2.1614190">
        <ele>1009.7570000</ele>
        <time>2010-09-26T11:24:21Z</time>
      </trkpt>
      <trkpt lat="41.8384150" lon="2.1614050">
        <ele>1010.7910000</ele>
        <time>2010-09-26T11:24:26Z</time>
      </trkpt>
      <trkpt lat="41.8385240" lon="2.1613280">
        <ele>1012.2290000</ele>
        <time>2010-09-26T11:24:35Z</time>
      </trkpt>
      <trkpt lat="41.8386260" lon="2.1613100">
        <ele>1014.0670000</ele>
        <time>2010-09-26T11:24:43Z</time>
      </trkpt>
      <trkpt lat="41.8387190" lon="2.1613240">
        <ele>1015.4780000</ele>
        <time>2010-09-26T11:24:50Z</time>
      </trkpt>
      <trkpt lat="41.8388330" lon="2.1613780">
        <ele>1016.0120000</ele>
        <time>2010-09-26T11:24:58Z</time>
      </trkpt>
      <trkpt lat="41.8389990" lon="2.1614970">
        <ele>1017.1930000</ele>
        <time>2010-09-26T11:25:09Z</time>
      </trkpt>
      <trkpt lat="41.8391460" lon="2.1616170">
        <ele>1018.3360000</ele>
        <time>2010-09-26T11:25:19Z</time>
      </trkpt>
      <trkpt lat="41.8392680" lon="2.1617030">
        <ele>1019.2080000</ele>
        <time>2010-09-26T11:25:27Z</time>
      </trkpt>
      <trkpt lat="41.8393520" lon="2.1618520">
        <ele>1020.9060000</ele>
        <time>2010-09-26T11:25:36Z</time>
      </trkpt>
      <trkpt lat="41.8394390" lon="2.1620450">
        <ele>1024.1630000</ele>
        <time>2010-09-26T11:25:47Z</time>
      </trkpt>
      <trkpt lat="41.8394380" lon="2.1622290">
        <ele>1024.9540000</ele>
        <time>2010-09-26T11:25:56Z</time>
      </trkpt>
      <trkpt lat="41.8394290" lon="2.1624780">
        <ele>1025.8570000</ele>
        <time>2010-09-26T11:26:06Z</time>
      </trkpt>
      <trkpt lat="41.8394490" lon="2.1627320">
        <ele>1025.1500000</ele>
        <time>2010-09-26T11:26:11Z</time>
      </trkpt>
      <trkpt lat="41.8395540" lon="2.1629900">
        <ele>1023.5200000</ele>
        <time>2010-09-26T11:26:15Z</time>
      </trkpt>
      <trkpt lat="41.8396740" lon="2.1632130">
        <ele>1019.0870000</ele>
        <time>2010-09-26T11:26:19Z</time>
      </trkpt>
      <trkpt lat="41.8396800" lon="2.1632950">
        <ele>1017.9060000</ele>
        <time>2010-09-26T11:26:20Z</time>
      </trkpt>
      <trkpt lat="41.8397250" lon="2.1636660">
        <ele>1013.5340000</ele>
        <time>2010-09-26T11:26:24Z</time>
      </trkpt>
      <trkpt lat="41.8397740" lon="2.1640920">
        <ele>1009.0680000</ele>
        <time>2010-09-26T11:26:28Z</time>
      </trkpt>
      <trkpt lat="41.8399850" lon="2.1645810">
        <ele>1003.6150000</ele>
        <time>2010-09-26T11:26:33Z</time>
      </trkpt>
      <trkpt lat="41.8401980" lon="2.1648090">
        <ele>1000.5620000</ele>
        <time>2010-09-26T11:26:36Z</time>
      </trkpt>
      <trkpt lat="41.8403520" lon="2.1649390">
        <ele>999.4440000</ele>
        <time>2010-09-26T11:26:38Z</time>
      </trkpt>
      <trkpt lat="41.8404270" lon="2.1650010">
        <ele>998.1460000</ele>
        <time>2010-09-26T11:26:39Z</time>
      </trkpt>
      <trkpt lat="41.8406570" lon="2.1653280">
        <ele>992.6010000</ele>
        <time>2010-09-26T11:26:43Z</time>
      </trkpt>
      <trkpt lat="41.8408840" lon="2.1658930">
        <ele>982.7670000</ele>
        <time>2010-09-26T11:26:49Z</time>
      </trkpt>
      <trkpt lat="41.8408580" lon="2.1661550">
        <ele>978.3960000</ele>
        <time>2010-09-26T11:26:52Z</time>
      </trkpt>
      <trkpt lat="41.8408000" lon="2.1664170">
        <ele>976.7730000</ele>
        <time>2010-09-26T11:26:55Z</time>
      </trkpt>
      <trkpt lat="41.8407240" lon="2.1666900">
        <ele>976.2980000</ele>
        <time>2010-09-26T11:26:59Z</time>
      </trkpt>
      <trkpt lat="41.8407080" lon="2.1669490">
        <ele>976.0350000</ele>
        <time>2010-09-26T11:27:03Z</time>
      </trkpt>
      <trkpt lat="41.8407570" lon="2.1671710">
        <ele>975.5960000</ele>
        <time>2010-09-26T11:27:06Z</time>
      </trkpt>
      <trkpt lat="41.8409170" lon="2.1675220">
        <ele>974.8810000</ele>
        <time>2010-09-26T11:27:12Z</time>
      </trkpt>
      <trkpt lat="41.8410270" lon="2.1677560">
        <ele>975.6510000</ele>
        <time>2010-09-26T11:27:18Z</time>
      </trkpt>
      <trkpt lat="41.8411700" lon="2.1681970">
        <ele>977.8460000</ele>
        <time>2010-09-26T11:27:30Z</time>
      </trkpt>
      <trkpt lat="41.8412820" lon="2.1685310">
        <ele>979.8550000</ele>
        <time>2010-09-26T11:27:40Z</time>
      </trkpt>
      <trkpt lat="41.8415010" lon="2.1688600">
        <ele>981.2630000</ele>
        <time>2010-09-26T11:27:51Z</time>
      </trkpt>
      <trkpt lat="41.8416770" lon="2.1691400">
        <ele>982.1070000</ele>
        <time>2010-09-26T11:28:00Z</time>
      </trkpt>
      <trkpt lat="41.8418430" lon="2.1693740">
        <ele>982.4970000</ele>
        <time>2010-09-26T11:28:08Z</time>
      </trkpt>
      <trkpt lat="41.8420670" lon="2.1695630">
        <ele>984.6670000</ele>
        <time>2010-09-26T11:28:17Z</time>
      </trkpt>
      <trkpt lat="41.8422670" lon="2.1697670">
        <ele>986.4490000</ele>
        <time>2010-09-26T11:28:26Z</time>
      </trkpt>
      <trkpt lat="41.8423970" lon="2.1699560">
        <ele>986.6110000</ele>
        <time>2010-09-26T11:28:33Z</time>
      </trkpt>
      <trkpt lat="41.8424340" lon="2.1700570">
        <ele>986.8230000</ele>
        <time>2010-09-26T11:28:36Z</time>
      </trkpt>
      <trkpt lat="41.8424940" lon="2.1700270">
        <ele>986.5950000</ele>
        <time>2010-09-26T11:28:39Z</time>
      </trkpt>
      <trkpt lat="41.8425490" lon="2.1698240">
        <ele>986.5410000</ele>
        <time>2010-09-26T11:28:43Z</time>
      </trkpt>
      <trkpt lat="41.8427000" lon="2.1696070">
        <ele>985.8590000</ele>
        <time>2010-09-26T11:28:48Z</time>
      </trkpt>
      <trkpt lat="41.8426810" lon="2.1693760">
        <ele>984.2430000</ele>
        <time>2010-09-26T11:28:54Z</time>
      </trkpt>
      <trkpt lat="41.8425920" lon="2.1691380">
        <ele>983.1000000</ele>
        <time>2010-09-26T11:29:01Z</time>
      </trkpt>
      <trkpt lat="41.8424800" lon="2.1690150">
        <ele>982.6270000</ele>
        <time>2010-09-26T11:29:07Z</time>
      </trkpt>
      <trkpt lat="41.8423410" lon="2.1688540">
        <ele>982.1970000</ele>
        <time>2010-09-26T11:29:14Z</time>
      </trkpt>
      <trkpt lat="41.8422380" lon="2.1686240">
        <ele>980.7020000</ele>
        <time>2010-09-26T11:29:20Z</time>
      </trkpt>
      <trkpt lat="41.8421960" lon="2.1683560">
        <ele>978.9850000</ele>
        <time>2010-09-26T11:29:25Z</time>
      </trkpt>
      <trkpt lat="41.8422200" lon="2.1679610">
        <ele>976.3460000</ele>
        <time>2010-09-26T11:29:31Z</time>
      </trkpt>
      <trkpt lat="41.8422250" lon="2.1675780">
        <ele>974.5360000</ele>
        <time>2010-09-26T11:29:36Z</time>
      </trkpt>
      <trkpt lat="41.8421730" lon="2.1671100">
        <ele>971.6410000</ele>
        <time>2010-09-26T11:29:41Z</time>
      </trkpt>
      <trkpt lat="41.8420500" lon="2.1664920">
        <ele>968.0400000</ele>
        <time>2010-09-26T11:29:47Z</time>
      </trkpt>
      <trkpt lat="41.8419140" lon="2.1657990">
        <ele>964.0680000</ele>
        <time>2010-09-26T11:29:53Z</time>
      </trkpt>
      <trkpt lat="41.8418110" lon="2.1650820">
        <ele>960.3190000</ele>
        <time>2010-09-26T11:29:59Z</time>
      </trkpt>
      <trkpt lat="41.8417930" lon="2.1649650">
        <ele>960.3190000</ele>
        <time>2010-09-26T11:30:00Z</time>
      </trkpt>
      <trkpt lat="41.8417610" lon="2.1647340">
        <ele>959.3500000</ele>
        <time>2010-09-26T11:30:02Z</time>
      </trkpt>
      <trkpt lat="41.8417070" lon="2.1645150">
        <ele>958.3470000</ele>
        <time>2010-09-26T11:30:04Z</time>
      </trkpt>
      <trkpt lat="41.8417190" lon="2.1641180">
        <ele>957.4210000</ele>
        <time>2010-09-26T11:30:08Z</time>
      </trkpt>
      <trkpt lat="41.8418260" lon="2.1638170">
        <ele>958.7120000</ele>
        <time>2010-09-26T11:30:13Z</time>
      </trkpt>
      <trkpt lat="41.8419450" lon="2.1635240">
        <ele>960.3700000</ele>
        <time>2010-09-26T11:30:20Z</time>
      </trkpt>
      <trkpt lat="41.8419740" lon="2.1632040">
        <ele>961.2380000</ele>
        <time>2010-09-26T11:30:27Z</time>
      </trkpt>
      <trkpt lat="41.8419400" lon="2.1628540">
        <ele>962.6730000</ele>
        <time>2010-09-26T11:30:35Z</time>
      </trkpt>
      <trkpt lat="41.8419230" lon="2.1625570">
        <ele>963.5400000</ele>
        <time>2010-09-26T11:30:42Z</time>
      </trkpt>
      <trkpt lat="41.8419150" lon="2.1622440">
        <ele>964.7230000</ele>
        <time>2010-09-26T11:30:50Z</time>
      </trkpt>
      <trkpt lat="41.8419070" lon="2.1620010">
        <ele>966.8700000</ele>
        <time>2010-09-26T11:30:57Z</time>
      </trkpt>
      <trkpt lat="41.8418780" lon="2.1617780">
        <ele>967.5450000</ele>
        <time>2010-09-26T11:31:03Z</time>
      </trkpt>
      <trkpt lat="41.8418720" lon="2.1613470">
        <ele>969.2640000</ele>
        <time>2010-09-26T11:31:14Z</time>
      </trkpt>
      <trkpt lat="41.8418990" lon="2.1609240">
        <ele>970.1620000</ele>
        <time>2010-09-26T11:31:24Z</time>
      </trkpt>
      <trkpt lat="41.8419160" lon="2.1606160">
        <ele>970.6570000</ele>
        <time>2010-09-26T11:31:31Z</time>
      </trkpt>
      <trkpt lat="41.8419100" lon="2.1602520">
        <ele>971.1190000</ele>
        <time>2010-09-26T11:31:39Z</time>
      </trkpt>
      <trkpt lat="41.8419460" lon="2.1598150">
        <ele>972.0090000</ele>
        <time>2010-09-26T11:31:49Z</time>
      </trkpt>
      <trkpt lat="41.8419070" lon="2.1594860">
        <ele>972.1080000</ele>
        <time>2010-09-26T11:31:56Z</time>
      </trkpt>
      <trkpt lat="41.8417740" lon="2.1592840">
        <ele>971.4840000</ele>
        <time>2010-09-26T11:32:01Z</time>
      </trkpt>
      <trkpt lat="41.8417130" lon="2.1590190">
        <ele>971.0670000</ele>
        <time>2010-09-26T11:32:06Z</time>
      </trkpt>
      <trkpt lat="41.8417750" lon="2.1588310">
        <ele>971.0550000</ele>
        <time>2010-09-26T11:32:10Z</time>
      </trkpt>
      <trkpt lat="41.8419930" lon="2.1585320">
        <ele>971.7400000</ele>
        <time>2010-09-26T11:32:19Z</time>
      </trkpt>
      <trkpt lat="41.8421460" lon="2.1582890">
        <ele>973.6300000</ele>
        <time>2010-09-26T11:32:27Z</time>
      </trkpt>
      <trkpt lat="41.8423140" lon="2.1579150">
        <ele>974.5890000</ele>
        <time>2010-09-26T11:32:37Z</time>
      </trkpt>
      <trkpt lat="41.8424980" lon="2.1575880">
        <ele>975.2450000</ele>
        <time>2010-09-26T11:32:46Z</time>
      </trkpt>
      <trkpt lat="41.8426710" lon="2.1572820">
        <ele>976.3880000</ele>
        <time>2010-09-26T11:32:54Z</time>
      </trkpt>
      <trkpt lat="41.8427900" lon="2.1569160">
        <ele>976.2730000</ele>
        <time>2010-09-26T11:33:02Z</time>
      </trkpt>
      <trkpt lat="41.8429120" lon="2.1564900">
        <ele>975.5970000</ele>
        <time>2010-09-26T11:33:09Z</time>
      </trkpt>
      <trkpt lat="41.8429460" lon="2.1563290">
        <ele>974.7170000</ele>
        <time>2010-09-26T11:33:11Z</time>
      </trkpt>
      <trkpt lat="41.8429540" lon="2.1558460">
        <ele>971.4890000</ele>
        <time>2010-09-26T11:33:16Z</time>
      </trkpt>
      <trkpt lat="41.8429820" lon="2.1553050">
        <ele>969.0890000</ele>
        <time>2010-09-26T11:33:21Z</time>
      </trkpt>
      <trkpt lat="41.8429980" lon="2.1545450">
        <ele>965.9760000</ele>
        <time>2010-09-26T11:33:28Z</time>
      </trkpt>
      <trkpt lat="41.8429920" lon="2.1536940">
        <ele>964.1790000</ele>
        <time>2010-09-26T11:33:36Z</time>
      </trkpt>
      <trkpt lat="41.8429980" lon="2.1534540">
        <ele>963.3910000</ele>
        <time>2010-09-26T11:33:38Z</time>
      </trkpt>
      <trkpt lat="41.8429630" lon="2.1527880">
        <ele>960.5910000</ele>
        <time>2010-09-26T11:33:43Z</time>
      </trkpt>
      <trkpt lat="41.8429510" lon="2.1523860">
        <ele>959.2000000</ele>
        <time>2010-09-26T11:33:46Z</time>
      </trkpt>
      <trkpt lat="41.8430490" lon="2.1518330">
        <ele>958.5730000</ele>
        <time>2010-09-26T11:33:51Z</time>
      </trkpt>
      <trkpt lat="41.8431840" lon="2.1513200">
        <ele>958.9140000</ele>
        <time>2010-09-26T11:33:57Z</time>
      </trkpt>
      <trkpt lat="41.8432240" lon="2.1511700">
        <ele>958.8850000</ele>
        <time>2010-09-26T11:33:59Z</time>
      </trkpt>
      <trkpt lat="41.8434170" lon="2.1508830">
        <ele>958.5530000</ele>
        <time>2010-09-26T11:34:04Z</time>
      </trkpt>
      <trkpt lat="41.8439020" lon="2.1504840">
        <ele>959.0590000</ele>
        <time>2010-09-26T11:34:15Z</time>
      </trkpt>
      <trkpt lat="41.8442220" lon="2.1502050">
        <ele>959.1950000</ele>
        <time>2010-09-26T11:34:23Z</time>
      </trkpt>
      <trkpt lat="41.8442880" lon="2.1501210">
        <ele>959.1770000</ele>
        <time>2010-09-26T11:34:25Z</time>
      </trkpt>
      <trkpt lat="41.8443800" lon="2.1498150">
        <ele>959.2380000</ele>
        <time>2010-09-26T11:34:30Z</time>
      </trkpt>
      <trkpt lat="41.8444060" lon="2.1496600">
        <ele>959.0950000</ele>
        <time>2010-09-26T11:34:32Z</time>
      </trkpt>
      <trkpt lat="41.8443770" lon="2.1493210">
        <ele>957.9620000</ele>
        <time>2010-09-26T11:34:36Z</time>
      </trkpt>
      <trkpt lat="41.8443280" lon="2.1491750">
        <ele>957.6570000</ele>
        <time>2010-09-26T11:34:38Z</time>
      </trkpt>
      <trkpt lat="41.8442520" lon="2.1489960">
        <ele>957.1170000</ele>
        <time>2010-09-26T11:34:41Z</time>
      </trkpt>
      <trkpt lat="41.8440530" lon="2.1485500">
        <ele>958.3410000</ele>
        <time>2010-09-26T11:34:50Z</time>
      </trkpt>
      <trkpt lat="41.8439650" lon="2.1483550">
        <ele>958.6780000</ele>
        <time>2010-09-26T11:34:54Z</time>
      </trkpt>
      <trkpt lat="41.8437290" lon="2.1480500">
        <ele>960.4390000</ele>
        <time>2010-09-26T11:35:02Z</time>
      </trkpt>
      <trkpt lat="41.8436020" lon="2.1478570">
        <ele>961.6400000</ele>
        <time>2010-09-26T11:35:08Z</time>
      </trkpt>
      <trkpt lat="41.8435790" lon="2.1476410">
        <ele>962.5590000</ele>
        <time>2010-09-26T11:35:13Z</time>
      </trkpt>
      <trkpt lat="41.8436290" lon="2.1474300">
        <ele>964.0840000</ele>
        <time>2010-09-26T11:35:19Z</time>
      </trkpt>
      <trkpt lat="41.8436850" lon="2.1471650">
        <ele>965.2790000</ele>
        <time>2010-09-26T11:35:26Z</time>
      </trkpt>
      <trkpt lat="41.8437410" lon="2.1468560">
        <ele>966.7020000</ele>
        <time>2010-09-26T11:35:34Z</time>
      </trkpt>
      <trkpt lat="41.8438090" lon="2.1464280">
        <ele>967.3850000</ele>
        <time>2010-09-26T11:35:44Z</time>
      </trkpt>
      <trkpt lat="41.8438260" lon="2.1460310">
        <ele>967.4230000</ele>
        <time>2010-09-26T11:35:52Z</time>
      </trkpt>
      <trkpt lat="41.8437890" lon="2.1457780">
        <ele>967.5130000</ele>
        <time>2010-09-26T11:35:57Z</time>
      </trkpt>
      <trkpt lat="41.8436620" lon="2.1454940">
        <ele>967.8890000</ele>
        <time>2010-09-26T11:36:04Z</time>
      </trkpt>
      <trkpt lat="41.8435480" lon="2.1453780">
        <ele>969.3770000</ele>
        <time>2010-09-26T11:36:09Z</time>
      </trkpt>
      <trkpt lat="41.8434240" lon="2.1452800">
        <ele>971.4250000</ele>
        <time>2010-09-26T11:36:16Z</time>
      </trkpt>
      <trkpt lat="41.8432950" lon="2.1451700">
        <ele>972.4860000</ele>
        <time>2010-09-26T11:36:21Z</time>
      </trkpt>
      <trkpt lat="41.8432160" lon="2.1449920">
        <ele>973.6440000</ele>
        <time>2010-09-26T11:36:27Z</time>
      </trkpt>
      <trkpt lat="41.8433260" lon="2.1447070">
        <ele>975.1580000</ele>
        <time>2010-09-26T11:36:35Z</time>
      </trkpt>
      <trkpt lat="41.8434300" lon="2.1445130">
        <ele>975.7640000</ele>
        <time>2010-09-26T11:36:41Z</time>
      </trkpt>
      <trkpt lat="41.8435660" lon="2.1442560">
        <ele>976.8750000</ele>
        <time>2010-09-26T11:36:49Z</time>
      </trkpt>
      <trkpt lat="41.8437170" lon="2.1439820">
        <ele>978.0710000</ele>
        <time>2010-09-26T11:36:58Z</time>
      </trkpt>
      <trkpt lat="41.8438290" lon="2.1437710">
        <ele>979.1310000</ele>
        <time>2010-09-26T11:37:05Z</time>
      </trkpt>
      <trkpt lat="41.8439400" lon="2.1435660">
        <ele>979.8720000</ele>
        <time>2010-09-26T11:37:11Z</time>
      </trkpt>
      <trkpt lat="41.8440920" lon="2.1434320">
        <ele>979.5840000</ele>
        <time>2010-09-26T11:37:15Z</time>
      </trkpt>
      <trkpt lat="41.8442500" lon="2.1434250">
        <ele>978.7760000</ele>
        <time>2010-09-26T11:37:18Z</time>
      </trkpt>
      <trkpt lat="41.8444750" lon="2.1434630">
        <ele>977.7080000</ele>
        <time>2010-09-26T11:37:22Z</time>
      </trkpt>
      <trkpt lat="41.8448220" lon="2.1434070">
        <ele>975.3510000</ele>
        <time>2010-09-26T11:37:27Z</time>
      </trkpt>
      <trkpt lat="41.8449760" lon="2.1433520">
        <ele>974.2910000</ele>
        <time>2010-09-26T11:37:29Z</time>
      </trkpt>
      <trkpt lat="41.8452230" lon="2.1433010">
        <ele>972.5460000</ele>
        <time>2010-09-26T11:37:32Z</time>
      </trkpt>
      <trkpt lat="41.8453690" lon="2.1432150">
        <ele>971.7290000</ele>
        <time>2010-09-26T11:37:34Z</time>
      </trkpt>
      <trkpt lat="41.8454450" lon="2.1430410">
        <ele>970.3650000</ele>
        <time>2010-09-26T11:37:36Z</time>
      </trkpt>
      <trkpt lat="41.8454550" lon="2.1429360">
        <ele>969.7760000</ele>
        <time>2010-09-26T11:37:37Z</time>
      </trkpt>
      <trkpt lat="41.8455590" lon="2.1423990">
        <ele>966.1730000</ele>
        <time>2010-09-26T11:37:42Z</time>
      </trkpt>
      <trkpt lat="41.8457720" lon="2.1421610">
        <ele>963.5750000</ele>
        <time>2010-09-26T11:37:45Z</time>
      </trkpt>
      <trkpt lat="41.8459470" lon="2.1420830">
        <ele>962.2450000</ele>
        <time>2010-09-26T11:37:47Z</time>
      </trkpt>
      <trkpt lat="41.8462180" lon="2.1420230">
        <ele>960.5880000</ele>
        <time>2010-09-26T11:37:50Z</time>
      </trkpt>
      <trkpt lat="41.8465030" lon="2.1420320">
        <ele>958.8900000</ele>
        <time>2010-09-26T11:37:53Z</time>
      </trkpt>
      <trkpt lat="41.8470120" lon="2.1418920">
        <ele>955.8410000</ele>
        <time>2010-09-26T11:37:58Z</time>
      </trkpt>
      <trkpt lat="41.8474010" lon="2.1419590">
        <ele>954.0080000</ele>
        <time>2010-09-26T11:38:02Z</time>
      </trkpt>
      <trkpt lat="41.8477390" lon="2.1419390">
        <ele>950.3370000</ele>
        <time>2010-09-26T11:38:06Z</time>
      </trkpt>
      <trkpt lat="41.8477920" lon="2.1418480">
        <ele>949.3790000</ele>
        <time>2010-09-26T11:38:07Z</time>
      </trkpt>
      <trkpt lat="41.8480770" lon="2.1414690">
        <ele>945.2610000</ele>
        <time>2010-09-26T11:38:12Z</time>
      </trkpt>
      <trkpt lat="41.8479640" lon="2.1412850">
        <ele>942.1430000</ele>
        <time>2010-09-26T11:38:15Z</time>
      </trkpt>
      <trkpt lat="41.8478080" lon="2.1412700">
        <ele>940.6980000</ele>
        <time>2010-09-26T11:38:17Z</time>
      </trkpt>
      <trkpt lat="41.8475840" lon="2.1412650">
        <ele>939.3970000</ele>
        <time>2010-09-26T11:38:20Z</time>
      </trkpt>
      <trkpt lat="41.8473680" lon="2.1412350">
        <ele>939.0040000</ele>
        <time>2010-09-26T11:38:23Z</time>
      </trkpt>
      <trkpt lat="41.8470670" lon="2.1412090">
        <ele>938.9770000</ele>
        <time>2010-09-26T11:38:27Z</time>
      </trkpt>
      <trkpt lat="41.8465210" lon="2.1412210">
        <ele>936.9540000</ele>
        <time>2010-09-26T11:38:35Z</time>
      </trkpt>
      <trkpt lat="41.8461170" lon="2.1412160">
        <ele>935.7040000</ele>
        <time>2010-09-26T11:38:41Z</time>
      </trkpt>
      <trkpt lat="41.8456810" lon="2.1412930">
        <ele>935.0280000</ele>
        <time>2010-09-26T11:38:48Z</time>
      </trkpt>
      <trkpt lat="41.8452210" lon="2.1413750">
        <ele>933.7030000</ele>
        <time>2010-09-26T11:38:55Z</time>
      </trkpt>
      <trkpt lat="41.8449430" lon="2.1413770">
        <ele>932.7000000</ele>
        <time>2010-09-26T11:38:59Z</time>
      </trkpt>
      <trkpt lat="41.8448140" lon="2.1413550">
        <ele>932.1880000</ele>
        <time>2010-09-26T11:39:01Z</time>
      </trkpt>
      <trkpt lat="41.8447140" lon="2.1411830">
        <ele>930.8900000</ele>
        <time>2010-09-26T11:39:05Z</time>
      </trkpt>
      <trkpt lat="41.8447800" lon="2.1408510">
        <ele>928.0950000</ele>
        <time>2010-09-26T11:39:09Z</time>
      </trkpt>
      <trkpt lat="41.8447750" lon="2.1407430">
        <ele>927.4430000</ele>
        <time>2010-09-26T11:39:10Z</time>
      </trkpt>
      <trkpt lat="41.8446880" lon="2.1401570">
        <ele>925.1400000</ele>
        <time>2010-09-26T11:39:15Z</time>
      </trkpt>
      <trkpt lat="41.8446260" lon="2.1395360">
        <ele>922.4280000</ele>
        <time>2010-09-26T11:39:20Z</time>
      </trkpt>
      <trkpt lat="41.8446390" lon="2.1392920">
        <ele>921.7620000</ele>
        <time>2010-09-26T11:39:22Z</time>
      </trkpt>
      <trkpt lat="41.8446790" lon="2.1387730">
        <ele>921.3630000</ele>
        <time>2010-09-26T11:39:27Z</time>
      </trkpt>
      <trkpt lat="41.8446960" lon="2.1385830">
        <ele>921.8380000</ele>
        <time>2010-09-26T11:39:30Z</time>
      </trkpt>
      <trkpt lat="41.8446910" lon="2.1383510">
        <ele>924.0810000</ele>
        <time>2010-09-26T11:39:36Z</time>
      </trkpt>
      <trkpt lat="41.8446630" lon="2.1381620">
        <ele>925.3070000</ele>
        <time>2010-09-26T11:39:41Z</time>
      </trkpt>
      <trkpt lat="41.8446240" lon="2.1379510">
        <ele>926.7030000</ele>
        <time>2010-09-26T11:39:47Z</time>
      </trkpt>
      <trkpt lat="41.8445860" lon="2.1377750">
        <ele>927.7820000</ele>
        <time>2010-09-26T11:39:52Z</time>
      </trkpt>
      <trkpt lat="41.8445380" lon="2.1375590">
        <ele>928.1260000</ele>
        <time>2010-09-26T11:39:58Z</time>
      </trkpt>
      <trkpt lat="41.8444690" lon="2.1372940">
        <ele>928.6720000</ele>
        <time>2010-09-26T11:40:05Z</time>
      </trkpt>
      <trkpt lat="41.8444100" lon="2.1369680">
        <ele>929.3770000</ele>
        <time>2010-09-26T11:40:13Z</time>
      </trkpt>
      <trkpt lat="41.8444190" lon="2.1366540">
        <ele>929.8740000</ele>
        <time>2010-09-26T11:40:21Z</time>
      </trkpt>
      <trkpt lat="41.8444980" lon="2.1365190">
        <ele>931.0240000</ele>
        <time>2010-09-26T11:40:26Z</time>
      </trkpt>
      <trkpt lat="41.8446210" lon="2.1364500">
        <ele>931.9620000</ele>
        <time>2010-09-26T11:40:32Z</time>
      </trkpt>
      <trkpt lat="41.8447740" lon="2.1363450">
        <ele>933.7490000</ele>
        <time>2010-09-26T11:40:39Z</time>
      </trkpt>
      <trkpt lat="41.8449330" lon="2.1361660">
        <ele>935.2910000</ele>
        <time>2010-09-26T11:40:47Z</time>
      </trkpt>
      <trkpt lat="41.8450420" lon="2.1359740">
        <ele>936.0060000</ele>
        <time>2010-09-26T11:40:54Z</time>
      </trkpt>
      <trkpt lat="41.8451000" lon="2.1357250">
        <ele>936.5830000</ele>
        <time>2010-09-26T11:41:01Z</time>
      </trkpt>
      <trkpt lat="41.8451770" lon="2.1353760">
        <ele>937.7490000</ele>
        <time>2010-09-26T11:41:11Z</time>
      </trkpt>
      <trkpt lat="41.8452370" lon="2.1350720">
        <ele>938.8070000</ele>
        <time>2010-09-26T11:41:20Z</time>
      </trkpt>
      <trkpt lat="41.8453320" lon="2.1348220">
        <ele>939.6480000</ele>
        <time>2010-09-26T11:41:29Z</time>
      </trkpt>
      <trkpt lat="41.8454320" lon="2.1347780">
        <ele>941.3450000</ele>
        <time>2010-09-26T11:41:35Z</time>
      </trkpt>
      <trkpt lat="41.8455600" lon="2.1347490">
        <ele>943.8930000</ele>
        <time>2010-09-26T11:41:44Z</time>
      </trkpt>
      <trkpt lat="41.8456890" lon="2.1347400">
        <ele>945.6130000</ele>
        <time>2010-09-26T11:41:52Z</time>
      </trkpt>
      <trkpt lat="41.8457980" lon="2.1347230">
        <ele>947.7140000</ele>
        <time>2010-09-26T11:41:59Z</time>
      </trkpt>
      <trkpt lat="41.8458540" lon="2.1347100">
        <ele>948.7750000</ele>
        <time>2010-09-26T11:42:03Z</time>
      </trkpt>
      <trkpt lat="41.8459750" lon="2.1346750">
        <ele>950.7830000</ele>
        <time>2010-09-26T11:42:11Z</time>
      </trkpt>
      <trkpt lat="41.8460510" lon="2.1346470">
        <ele>952.1520000</ele>
        <time>2010-09-26T11:42:18Z</time>
      </trkpt>
      <trkpt lat="41.8461430" lon="2.1346070">
        <ele>952.8430000</ele>
        <time>2010-09-26T11:42:25Z</time>
      </trkpt>
      <trkpt lat="41.8462310" lon="2.1345590">
        <ele>953.4380000</ele>
        <time>2010-09-26T11:42:30Z</time>
      </trkpt>
      <trkpt lat="41.8463140" lon="2.1344650">
        <ele>954.1010000</ele>
        <time>2010-09-26T11:42:37Z</time>
      </trkpt>
      <trkpt lat="41.8464310" lon="2.1344100">
        <ele>954.7630000</ele>
        <time>2010-09-26T11:42:43Z</time>
      </trkpt>
      <trkpt lat="41.8465380" lon="2.1343310">
        <ele>956.1980000</ele>
        <time>2010-09-26T11:42:52Z</time>
      </trkpt>
      <trkpt lat="41.8466350" lon="2.1342860">
        <ele>957.6760000</ele>
        <time>2010-09-26T11:42:59Z</time>
      </trkpt>
      <trkpt lat="41.8467220" lon="2.1342370">
        <ele>958.6040000</ele>
        <time>2010-09-26T11:43:05Z</time>
      </trkpt>
      <trkpt lat="41.8468000" lon="2.1341800">
        <ele>959.9160000</ele>
        <time>2010-09-26T11:43:11Z</time>
      </trkpt>
      <trkpt lat="41.8469360" lon="2.1340980">
        <ele>961.1960000</ele>
        <time>2010-09-26T11:43:18Z</time>
      </trkpt>
      <trkpt lat="41.8470440" lon="2.1339860">
        <ele>961.7440000</ele>
        <time>2010-09-26T11:43:26Z</time>
      </trkpt>
      <trkpt lat="41.8471550" lon="2.1339070">
        <ele>962.5880000</ele>
        <time>2010-09-26T11:43:33Z</time>
      </trkpt>
      <trkpt lat="41.8472490" lon="2.1337940">
        <ele>962.9660000</ele>
        <time>2010-09-26T11:43:41Z</time>
      </trkpt>
      <trkpt lat="41.8473440" lon="2.1336700">
        <ele>963.9080000</ele>
        <time>2010-09-26T11:43:49Z</time>
      </trkpt>
      <trkpt lat="41.8474180" lon="2.1335700">
        <ele>964.4660000</ele>
        <time>2010-09-26T11:43:55Z</time>
      </trkpt>
      <trkpt lat="41.8475010" lon="2.1334320">
        <ele>965.9940000</ele>
        <time>2010-09-26T11:44:02Z</time>
      </trkpt>
      <trkpt lat="41.8476270" lon="2.1333030">
        <ele>967.5010000</ele>
        <time>2010-09-26T11:44:10Z</time>
      </trkpt>
      <trkpt lat="41.8477720" lon="2.1331800">
        <ele>969.4140000</ele>
        <time>2010-09-26T11:44:19Z</time>
      </trkpt>
      <trkpt lat="41.8479200" lon="2.1330520">
        <ele>971.8180000</ele>
        <time>2010-09-26T11:44:29Z</time>
      </trkpt>
      <trkpt lat="41.8480170" lon="2.1330090">
        <ele>972.3590000</ele>
        <time>2010-09-26T11:44:35Z</time>
      </trkpt>
      <trkpt lat="41.8481440" lon="2.1330160">
        <ele>973.1650000</ele>
        <time>2010-09-26T11:44:43Z</time>
      </trkpt>
      <trkpt lat="41.8482770" lon="2.1330050">
        <ele>974.4280000</ele>
        <time>2010-09-26T11:44:51Z</time>
      </trkpt>
      <trkpt lat="41.8484150" lon="2.1329610">
        <ele>975.4140000</ele>
        <time>2010-09-26T11:44:59Z</time>
      </trkpt>
      <trkpt lat="41.8485560" lon="2.1329490">
        <ele>976.3300000</ele>
        <time>2010-09-26T11:45:07Z</time>
      </trkpt>
      <trkpt lat="41.8486750" lon="2.1329300">
        <ele>976.4350000</ele>
        <time>2010-09-26T11:45:13Z</time>
      </trkpt>
      <trkpt lat="41.8487680" lon="2.1329270">
        <ele>976.5790000</ele>
        <time>2010-09-26T11:45:19Z</time>
      </trkpt>
      <trkpt lat="41.8488990" lon="2.1329220">
        <ele>976.6650000</ele>
        <time>2010-09-26T11:45:27Z</time>
      </trkpt>
      <trkpt lat="41.8490540" lon="2.1329340">
        <ele>977.1840000</ele>
        <time>2010-09-26T11:45:34Z</time>
      </trkpt>
      <trkpt lat="41.8491450" lon="2.1329360">
        <ele>977.6700000</ele>
        <time>2010-09-26T11:45:39Z</time>
      </trkpt>
      <trkpt lat="41.8492730" lon="2.1329450">
        <ele>977.9190000</ele>
        <time>2010-09-26T11:45:45Z</time>
      </trkpt>
      <trkpt lat="41.8493600" lon="2.1329800">
        <ele>979.1080000</ele>
        <time>2010-09-26T11:45:51Z</time>
      </trkpt>
      <trkpt lat="41.8494360" lon="2.1330570">
        <ele>981.0240000</ele>
        <time>2010-09-26T11:45:58Z</time>
      </trkpt>
      <trkpt lat="41.8495380" lon="2.1331580">
        <ele>983.8860000</ele>
        <time>2010-09-26T11:46:06Z</time>
      </trkpt>
      <trkpt lat="41.8496300" lon="2.1332720">
        <ele>985.2980000</ele>
        <time>2010-09-26T11:46:13Z</time>
      </trkpt>
      <trkpt lat="41.8496590" lon="2.1333850">
        <ele>986.5340000</ele>
        <time>2010-09-26T11:46:19Z</time>
      </trkpt>
      <trkpt lat="41.8497520" lon="2.1335710">
        <ele>988.2190000</ele>
        <time>2010-09-26T11:46:29Z</time>
      </trkpt>
      <trkpt lat="41.8497480" lon="2.1337100">
        <ele>989.1650000</ele>
        <time>2010-09-26T11:46:36Z</time>
      </trkpt>
      <trkpt lat="41.8497310" lon="2.1338640">
        <ele>989.6140000</ele>
        <time>2010-09-26T11:46:43Z</time>
      </trkpt>
      <trkpt lat="41.8497490" lon="2.1338890">
        <ele>989.7600000</ele>
        <time>2010-09-26T11:46:45Z</time>
      </trkpt>
      <trkpt lat="41.8498460" lon="2.1338630">
        <ele>990.4030000</ele>
        <time>2010-09-26T11:46:52Z</time>
      </trkpt>
      <trkpt lat="41.8499780" lon="2.1338090">
        <ele>991.4470000</ele>
        <time>2010-09-26T11:47:00Z</time>
      </trkpt>
      <trkpt lat="41.8500800" lon="2.1337480">
        <ele>992.4090000</ele>
        <time>2010-09-26T11:47:07Z</time>
      </trkpt>
      <trkpt lat="41.8501890" lon="2.1336820">
        <ele>993.3790000</ele>
        <time>2010-09-26T11:47:14Z</time>
      </trkpt>
      <trkpt lat="41.8503050" lon="2.1335640">
        <ele>995.4630000</ele>
        <time>2010-09-26T11:47:23Z</time>
      </trkpt>
      <trkpt lat="41.8503930" lon="2.1334380">
        <ele>996.7940000</ele>
        <time>2010-09-26T11:47:31Z</time>
      </trkpt>
      <trkpt lat="41.8504770" lon="2.1333730">
        <ele>997.3970000</ele>
        <time>2010-09-26T11:47:38Z</time>
      </trkpt>
      <trkpt lat="41.8505680" lon="2.1334270">
        <ele>999.2080000</ele>
        <time>2010-09-26T11:47:45Z</time>
      </trkpt>
      <trkpt lat="41.8506790" lon="2.1335210">
        <ele>1000.7580000</ele>
        <time>2010-09-26T11:47:53Z</time>
      </trkpt>
      <trkpt lat="41.8508740" lon="2.1335500">
        <ele>1000.0430000</ele>
        <time>2010-09-26T11:47:58Z</time>
      </trkpt>
      <trkpt lat="41.8511800" lon="2.1336000">
        <ele>998.5790000</ele>
        <time>2010-09-26T11:48:03Z</time>
      </trkpt>
      <trkpt lat="41.8512400" lon="2.1336210">
        <ele>998.5780000</ele>
        <time>2010-09-26T11:48:04Z</time>
      </trkpt>
      <trkpt lat="41.8515950" lon="2.1336440">
        <ele>997.3540000</ele>
        <time>2010-09-26T11:48:09Z</time>
      </trkpt>
      <trkpt lat="41.8518760" lon="2.1335220">
        <ele>995.7320000</ele>
        <time>2010-09-26T11:48:13Z</time>
      </trkpt>
      <trkpt lat="41.8522180" lon="2.1333850">
        <ele>994.8990000</ele>
        <time>2010-09-26T11:48:18Z</time>
      </trkpt>
      <trkpt lat="41.8528810" lon="2.1333520">
        <ele>993.3340000</ele>
        <time>2010-09-26T11:48:27Z</time>
      </trkpt>
      <trkpt lat="41.8531820" lon="2.1333230">
        <ele>992.9810000</ele>
        <time>2010-09-26T11:48:32Z</time>
      </trkpt>
      <trkpt lat="41.8534520" lon="2.1332870">
        <ele>993.2410000</ele>
        <time>2010-09-26T11:48:38Z</time>
      </trkpt>
      <trkpt lat="41.8536990" lon="2.1332190">
        <ele>994.6410000</ele>
        <time>2010-09-26T11:48:45Z</time>
      </trkpt>
      <trkpt lat="41.8538110" lon="2.1330950">
        <ele>996.1700000</ele>
        <time>2010-09-26T11:48:50Z</time>
      </trkpt>
      <trkpt lat="41.8539620" lon="2.1329670">
        <ele>997.3860000</ele>
        <time>2010-09-26T11:48:56Z</time>
      </trkpt>
      <trkpt lat="41.8541860" lon="2.1328490">
        <ele>998.3780000</ele>
        <time>2010-09-26T11:49:04Z</time>
      </trkpt>
      <trkpt lat="41.8543850" lon="2.1328080">
        <ele>999.6020000</ele>
        <time>2010-09-26T11:49:11Z</time>
      </trkpt>
      <trkpt lat="41.8546120" lon="2.1328060">
        <ele>999.4170000</ele>
        <time>2010-09-26T11:49:18Z</time>
      </trkpt>
      <trkpt lat="41.8548500" lon="2.1327790">
        <ele>999.7370000</ele>
        <time>2010-09-26T11:49:24Z</time>
      </trkpt>
      <trkpt lat="41.8550480" lon="2.1327620">
        <ele>999.2330000</ele>
        <time>2010-09-26T11:49:29Z</time>
      </trkpt>
      <trkpt lat="41.8553430" lon="2.1326380">
        <ele>999.2140000</ele>
        <time>2010-09-26T11:49:37Z</time>
      </trkpt>
      <trkpt lat="41.8556010" lon="2.1324880">
        <ele>999.9910000</ele>
        <time>2010-09-26T11:49:45Z</time>
      </trkpt>
      <trkpt lat="41.8557740" lon="2.1325010">
        <ele>1001.2130000</ele>
        <time>2010-09-26T11:49:50Z</time>
      </trkpt>
      <trkpt lat="41.8558750" lon="2.1325650">
        <ele>1001.4750000</ele>
        <time>2010-09-26T11:49:53Z</time>
      </trkpt>
      <trkpt lat="41.8560470" lon="2.1326470">
        <ele>1001.5980000</ele>
        <time>2010-09-26T11:49:57Z</time>
      </trkpt>
      <trkpt lat="41.8562830" lon="2.1326190">
        <ele>999.8660000</ele>
        <time>2010-09-26T11:50:01Z</time>
      </trkpt>
      <trkpt lat="41.8563480" lon="2.1325990">
        <ele>999.2780000</ele>
        <time>2010-09-26T11:50:02Z</time>
      </trkpt>
      <trkpt lat="41.8566330" lon="2.1326410">
        <ele>997.1760000</ele>
        <time>2010-09-26T11:50:06Z</time>
      </trkpt>
      <trkpt lat="41.8570480" lon="2.1326350">
        <ele>995.1480000</ele>
        <time>2010-09-26T11:50:11Z</time>
      </trkpt>
      <trkpt lat="41.8572880" lon="2.1324010">
        <ele>993.8140000</ele>
        <time>2010-09-26T11:50:15Z</time>
      </trkpt>
      <trkpt lat="41.8573300" lon="2.1323280">
        <ele>993.7570000</ele>
        <time>2010-09-26T11:50:16Z</time>
      </trkpt>
      <trkpt lat="41.8574180" lon="2.1321370">
        <ele>993.7080000</ele>
        <time>2010-09-26T11:50:19Z</time>
      </trkpt>
      <trkpt lat="41.8575380" lon="2.1319620">
        <ele>995.2570000</ele>
        <time>2010-09-26T11:50:24Z</time>
      </trkpt>
      <trkpt lat="41.8577500" lon="2.1318170">
        <ele>997.0950000</ele>
        <time>2010-09-26T11:50:31Z</time>
      </trkpt>
      <trkpt lat="41.8577930" lon="2.1317940">
        <ele>997.0100000</ele>
        <time>2010-09-26T11:50:32Z</time>
      </trkpt>
      <trkpt lat="41.8580270" lon="2.1317400">
        <ele>996.2960000</ele>
        <time>2010-09-26T11:50:36Z</time>
      </trkpt>
      <trkpt lat="41.8582960" lon="2.1315930">
        <ele>995.4740000</ele>
        <time>2010-09-26T11:50:41Z</time>
      </trkpt>
      <trkpt lat="41.8585460" lon="2.1314400">
        <ele>994.5520000</ele>
        <time>2010-09-26T11:50:46Z</time>
      </trkpt>
      <trkpt lat="41.8587840" lon="2.1314760">
        <ele>993.4090000</ele>
        <time>2010-09-26T11:50:50Z</time>
      </trkpt>
      <trkpt lat="41.8588510" lon="2.1315210">
        <ele>993.0330000</ele>
        <time>2010-09-26T11:50:51Z</time>
      </trkpt>
      <trkpt lat="41.8592600" lon="2.1318120">
        <ele>989.6340000</ele>
        <time>2010-09-26T11:50:57Z</time>
      </trkpt>
      <trkpt lat="41.8594590" lon="2.1319080">
        <ele>988.2560000</ele>
        <time>2010-09-26T11:51:00Z</time>
      </trkpt>
      <trkpt lat="41.8595800" lon="2.1320020">
        <ele>986.4430000</ele>
        <time>2010-09-26T11:51:02Z</time>
      </trkpt>
      <trkpt lat="41.8598870" lon="2.1323080">
        <ele>981.7670000</ele>
        <time>2010-09-26T11:51:07Z</time>
      </trkpt>
      <trkpt lat="41.8601290" lon="2.1326060">
        <ele>978.1640000</ele>
        <time>2010-09-26T11:51:11Z</time>
      </trkpt>
      <trkpt lat="41.8601670" lon="2.1326700">
        <ele>977.6340000</ele>
        <time>2010-09-26T11:51:12Z</time>
      </trkpt>
      <trkpt lat="41.8601660" lon="2.1328440">
        <ele>976.0910000</ele>
        <time>2010-09-26T11:51:16Z</time>
      </trkpt>
      <trkpt lat="41.8601620" lon="2.1329490">
        <ele>975.6260000</ele>
        <time>2010-09-26T11:51:18Z</time>
      </trkpt>
      <trkpt lat="41.8601810" lon="2.1330610">
        <ele>975.4340000</ele>
        <time>2010-09-26T11:51:20Z</time>
      </trkpt>
      <trkpt lat="41.8602190" lon="2.1333650">
        <ele>975.0930000</ele>
        <time>2010-09-26T11:51:25Z</time>
      </trkpt>
      <trkpt lat="41.8603270" lon="2.1334360">
        <ele>974.9950000</ele>
        <time>2010-09-26T11:51:28Z</time>
      </trkpt>
      <trkpt lat="41.8603730" lon="2.1334370">
        <ele>975.0100000</ele>
        <time>2010-09-26T11:51:29Z</time>
      </trkpt>
      <trkpt lat="41.8606800" lon="2.1334610">
        <ele>975.2070000</ele>
        <time>2010-09-26T11:51:36Z</time>
      </trkpt>
      <trkpt lat="41.8609330" lon="2.1335170">
        <ele>975.3360000</ele>
        <time>2010-09-26T11:51:42Z</time>
      </trkpt>
      <trkpt lat="41.8610210" lon="2.1335250">
        <ele>975.1190000</ele>
        <time>2010-09-26T11:51:44Z</time>
      </trkpt>
      <trkpt lat="41.8612610" lon="2.1336080">
        <ele>975.6760000</ele>
        <time>2010-09-26T11:51:50Z</time>
      </trkpt>
      <trkpt lat="41.8614350" lon="2.1336390">
        <ele>976.6370000</ele>
        <time>2010-09-26T11:51:55Z</time>
      </trkpt>
      <trkpt lat="41.8616220" lon="2.1336390">
        <ele>976.7410000</ele>
        <time>2010-09-26T11:52:00Z</time>
      </trkpt>
      <trkpt lat="41.8616940" lon="2.1336170">
        <ele>976.9130000</ele>
        <time>2010-09-26T11:52:02Z</time>
      </trkpt>
      <trkpt lat="41.8618170" lon="2.1336510">
        <ele>978.8200000</ele>
        <time>2010-09-26T11:52:07Z</time>
      </trkpt>
      <trkpt lat="41.8618380" lon="2.1336570">
        <ele>979.1210000</ele>
        <time>2010-09-26T11:52:08Z</time>
      </trkpt>
      <trkpt lat="41.8619820" lon="2.1336280">
        <ele>981.7650000</ele>
        <time>2010-09-26T11:52:15Z</time>
      </trkpt>
      <trkpt lat="41.8620590" lon="2.1336090">
        <ele>982.3210000</ele>
        <time>2010-09-26T11:52:19Z</time>
      </trkpt>
      <trkpt lat="41.8622070" lon="2.1336130">
        <ele>983.2940000</ele>
        <time>2010-09-26T11:52:26Z</time>
      </trkpt>
      <trkpt lat="41.8623290" lon="2.1337200">
        <ele>984.6170000</ele>
        <time>2010-09-26T11:52:32Z</time>
      </trkpt>
      <trkpt lat="41.8623890" lon="2.1338920">
        <ele>984.9930000</ele>
        <time>2010-09-26T11:52:37Z</time>
      </trkpt>
      <trkpt lat="41.8624480" lon="2.1341840">
        <ele>985.3850000</ele>
        <time>2010-09-26T11:52:44Z</time>
      </trkpt>
      <trkpt lat="41.8624800" lon="2.1343890">
        <ele>984.9590000</ele>
        <time>2010-09-26T11:52:47Z</time>
      </trkpt>
      <trkpt lat="41.8625240" lon="2.1347830">
        <ele>983.4650000</ele>
        <time>2010-09-26T11:52:52Z</time>
      </trkpt>
      <trkpt lat="41.8626100" lon="2.1349690">
        <ele>979.5320000</ele>
        <time>2010-09-26T11:52:57Z</time>
      </trkpt>
      <trkpt lat="41.8626690" lon="2.1351480">
        <ele>975.9190000</ele>
        <time>2010-09-26T11:53:01Z</time>
      </trkpt>
      <trkpt lat="41.8629180" lon="2.1351840">
        <ele>974.5220000</ele>
        <time>2010-09-26T11:53:05Z</time>
      </trkpt>
      <trkpt lat="41.8631520" lon="2.1352460">
        <ele>972.6330000</ele>
        <time>2010-09-26T11:53:08Z</time>
      </trkpt>
      <trkpt lat="41.8632360" lon="2.1353120">
        <ele>971.7130000</ele>
        <time>2010-09-26T11:53:09Z</time>
      </trkpt>
      <trkpt lat="41.8636390" lon="2.1355090">
        <ele>967.0260000</ele>
        <time>2010-09-26T11:53:14Z</time>
      </trkpt>
      <trkpt lat="41.8639360" lon="2.1356070">
        <ele>964.0630000</ele>
        <time>2010-09-26T11:53:17Z</time>
      </trkpt>
      <trkpt lat="41.8644330" lon="2.1356740">
        <ele>959.7180000</ele>
        <time>2010-09-26T11:53:21Z</time>
      </trkpt>
      <trkpt lat="41.8646930" lon="2.1357590">
        <ele>956.5290000</ele>
        <time>2010-09-26T11:53:25Z</time>
      </trkpt>
      <trkpt lat="41.8647110" lon="2.1358240">
        <ele>955.8560000</ele>
        <time>2010-09-26T11:53:26Z</time>
      </trkpt>
      <trkpt lat="41.8648380" lon="2.1363310">
        <ele>951.2680000</ele>
        <time>2010-09-26T11:53:32Z</time>
      </trkpt>
      <trkpt lat="41.8650980" lon="2.1366560">
        <ele>947.7810000</ele>
        <time>2010-09-26T11:53:36Z</time>
      </trkpt>
      <trkpt lat="41.8651610" lon="2.1367350">
        <ele>946.9500000</ele>
        <time>2010-09-26T11:53:37Z</time>
      </trkpt>
      <trkpt lat="41.8652970" lon="2.1368210">
        <ele>945.0850000</ele>
        <time>2010-09-26T11:53:39Z</time>
      </trkpt>
      <trkpt lat="41.8656030" lon="2.1369020">
        <ele>942.1660000</ele>
        <time>2010-09-26T11:53:43Z</time>
      </trkpt>
      <trkpt lat="41.8656580" lon="2.1369550">
        <ele>941.5400000</ele>
        <time>2010-09-26T11:53:44Z</time>
      </trkpt>
      <trkpt lat="41.8658420" lon="2.1371330">
        <ele>938.6910000</ele>
        <time>2010-09-26T11:53:49Z</time>
      </trkpt>
      <trkpt lat="41.8661250" lon="2.1372940">
        <ele>937.3680000</ele>
        <time>2010-09-26T11:53:54Z</time>
      </trkpt>
      <trkpt lat="41.8663450" lon="2.1373270">
        <ele>936.4710000</ele>
        <time>2010-09-26T11:53:58Z</time>
      </trkpt>
      <trkpt lat="41.8666500" lon="2.1373650">
        <ele>935.1020000</ele>
        <time>2010-09-26T11:54:03Z</time>
      </trkpt>
      <trkpt lat="41.8668010" lon="2.1374080">
        <ele>934.6500000</ele>
        <time>2010-09-26T11:54:05Z</time>
      </trkpt>
      <trkpt lat="41.8671870" lon="2.1373700">
        <ele>933.7000000</ele>
        <time>2010-09-26T11:54:10Z</time>
      </trkpt>
      <trkpt lat="41.8675070" lon="2.1371480">
        <ele>933.4740000</ele>
        <time>2010-09-26T11:54:16Z</time>
      </trkpt>
      <trkpt lat="41.8675470" lon="2.1371280">
        <ele>933.5140000</ele>
        <time>2010-09-26T11:54:17Z</time>
      </trkpt>
      <trkpt lat="41.8676940" lon="2.1371340">
        <ele>933.4660000</ele>
        <time>2010-09-26T11:54:20Z</time>
      </trkpt>
      <trkpt lat="41.8679680" lon="2.1372190">
        <ele>932.1930000</ele>
        <time>2010-09-26T11:54:24Z</time>
      </trkpt>
      <trkpt lat="41.8682290" lon="2.1373430">
        <ele>927.4660000</ele>
        <time>2010-09-26T11:54:29Z</time>
      </trkpt>
      <trkpt lat="41.8685230" lon="2.1374160">
        <ele>924.6080000</ele>
        <time>2010-09-26T11:54:33Z</time>
      </trkpt>
      <trkpt lat="41.8686630" lon="2.1375600">
        <ele>923.5390000</ele>
        <time>2010-09-26T11:54:35Z</time>
      </trkpt>
      <trkpt lat="41.8688090" lon="2.1376970">
        <ele>922.3690000</ele>
        <time>2010-09-26T11:54:37Z</time>
      </trkpt>
      <trkpt lat="41.8690040" lon="2.1377780">
        <ele>921.0110000</ele>
        <time>2010-09-26T11:54:40Z</time>
      </trkpt>
      <trkpt lat="41.8690920" lon="2.1377620">
        <ele>921.1080000</ele>
        <time>2010-09-26T11:54:42Z</time>
      </trkpt>
      <trkpt lat="41.8692310" lon="2.1376370">
        <ele>922.5720000</ele>
        <time>2010-09-26T11:54:48Z</time>
      </trkpt>
      <trkpt lat="41.8692590" lon="2.1375320">
        <ele>922.6800000</ele>
        <time>2010-09-26T11:54:50Z</time>
      </trkpt>
      <trkpt lat="41.8693350" lon="2.1371100">
        <ele>920.4950000</ele>
        <time>2010-09-26T11:54:55Z</time>
      </trkpt>
      <trkpt lat="41.8694600" lon="2.1366600">
        <ele>917.8770000</ele>
        <time>2010-09-26T11:55:01Z</time>
      </trkpt>
      <trkpt lat="41.8694980" lon="2.1364390">
        <ele>917.4740000</ele>
        <time>2010-09-26T11:55:06Z</time>
      </trkpt>
      <trkpt lat="41.8695390" lon="2.1362000">
        <ele>917.2700000</ele>
        <time>2010-09-26T11:55:11Z</time>
      </trkpt>
      <trkpt lat="41.8697260" lon="2.1358920">
        <ele>916.4560000</ele>
        <time>2010-09-26T11:55:17Z</time>
      </trkpt>
      <trkpt lat="41.8697660" lon="2.1358270">
        <ele>915.9270000</ele>
        <time>2010-09-26T11:55:18Z</time>
      </trkpt>
      <trkpt lat="41.8699340" lon="2.1354390">
        <ele>914.1860000</ele>
        <time>2010-09-26T11:55:23Z</time>
      </trkpt>
      <trkpt lat="41.8702540" lon="2.1348900">
        <ele>910.5660000</ele>
        <time>2010-09-26T11:55:30Z</time>
      </trkpt>
      <trkpt lat="41.8704090" lon="2.1345400">
        <ele>908.6650000</ele>
        <time>2010-09-26T11:55:34Z</time>
      </trkpt>
      <trkpt lat="41.8704470" lon="2.1343740">
        <ele>907.7780000</ele>
        <time>2010-09-26T11:55:36Z</time>
      </trkpt>
      <trkpt lat="41.8705770" lon="2.1340940">
        <ele>906.6110000</ele>
        <time>2010-09-26T11:55:40Z</time>
      </trkpt>
      <trkpt lat="41.8706890" lon="2.1336950">
        <ele>905.1750000</ele>
        <time>2010-09-26T11:55:45Z</time>
      </trkpt>
      <trkpt lat="41.8707110" lon="2.1335020">
        <ele>904.3660000</ele>
        <time>2010-09-26T11:55:48Z</time>
      </trkpt>
      <trkpt lat="41.8707720" lon="2.1335210">
        <ele>902.9450000</ele>
        <time>2010-09-26T11:55:51Z</time>
      </trkpt>
      <trkpt lat="41.8707970" lon="2.1336400">
        <ele>902.2950000</ele>
        <time>2010-09-26T11:55:53Z</time>
      </trkpt>
      <trkpt lat="41.8707750" lon="2.1341120">
        <ele>897.8370000</ele>
        <time>2010-09-26T11:55:59Z</time>
      </trkpt>
      <trkpt lat="41.8707710" lon="2.1343630">
        <ele>894.4960000</ele>
        <time>2010-09-26T11:56:02Z</time>
      </trkpt>
      <trkpt lat="41.8707580" lon="2.1347670">
        <ele>891.1970000</ele>
        <time>2010-09-26T11:56:07Z</time>
      </trkpt>
      <trkpt lat="41.8707320" lon="2.1350950">
        <ele>886.9560000</ele>
        <time>2010-09-26T11:56:11Z</time>
      </trkpt>
      <trkpt lat="41.8706190" lon="2.1356330">
        <ele>879.2580000</ele>
        <time>2010-09-26T11:56:18Z</time>
      </trkpt>
      <trkpt lat="41.8705880" lon="2.1357340">
        <ele>877.6130000</ele>
        <time>2010-09-26T11:56:20Z</time>
      </trkpt>
      <trkpt lat="41.8706600" lon="2.1357220">
        <ele>875.8810000</ele>
        <time>2010-09-26T11:56:24Z</time>
      </trkpt>
      <trkpt lat="41.8708170" lon="2.1356720">
        <ele>875.2880000</ele>
        <time>2010-09-26T11:56:26Z</time>
      </trkpt>
      <trkpt lat="41.8710380" lon="2.1353200">
        <ele>873.5110000</ele>
        <time>2010-09-26T11:56:32Z</time>
      </trkpt>
      <trkpt lat="41.8711120" lon="2.1351860">
        <ele>872.5730000</ele>
        <time>2010-09-26T11:56:34Z</time>
      </trkpt>
      <trkpt lat="41.8711390" lon="2.1348700">
        <ele>870.3020000</ele>
        <time>2010-09-26T11:56:38Z</time>
      </trkpt>
      <trkpt lat="41.8711610" lon="2.1344080">
        <ele>865.4170000</ele>
        <time>2010-09-26T11:56:44Z</time>
      </trkpt>
      <trkpt lat="41.8711640" lon="2.1340050">
        <ele>860.6880000</ele>
        <time>2010-09-26T11:56:49Z</time>
      </trkpt>
      <trkpt lat="41.8711940" lon="2.1338300">
        <ele>858.8860000</ele>
        <time>2010-09-26T11:56:52Z</time>
      </trkpt>
      <trkpt lat="41.8712040" lon="2.1336720">
        <ele>857.2890000</ele>
        <time>2010-09-26T11:56:54Z</time>
      </trkpt>
      <trkpt lat="41.8712300" lon="2.1330240">
        <ele>850.3940000</ele>
        <time>2010-09-26T11:57:01Z</time>
      </trkpt>
      <trkpt lat="41.8712470" lon="2.1329360">
        <ele>849.1390000</ele>
        <time>2010-09-26T11:57:02Z</time>
      </trkpt>
      <trkpt lat="41.8713130" lon="2.1325080">
        <ele>843.3470000</ele>
        <time>2010-09-26T11:57:07Z</time>
      </trkpt>
      <trkpt lat="41.8717510" lon="2.1320920">
        <ele>840.4340000</ele>
        <time>2010-09-26T11:57:12Z</time>
      </trkpt>
      <trkpt lat="41.8719220" lon="2.1317480">
        <ele>838.2520000</ele>
        <time>2010-09-26T11:57:16Z</time>
      </trkpt>
      <trkpt lat="41.8718710" lon="2.1315740">
        <ele>837.2520000</ele>
        <time>2010-09-26T11:57:18Z</time>
      </trkpt>
      <trkpt lat="41.8718230" lon="2.1314160">
        <ele>836.7440000</ele>
        <time>2010-09-26T11:57:20Z</time>
      </trkpt>
      <trkpt lat="41.8716660" lon="2.1310790">
        <ele>834.6260000</ele>
        <time>2010-09-26T11:57:24Z</time>
      </trkpt>
      <trkpt lat="41.8716540" lon="2.1308900">
        <ele>833.5160000</ele>
        <time>2010-09-26T11:57:26Z</time>
      </trkpt>
      <trkpt lat="41.8716000" lon="2.1306000">
        <ele>831.5340000</ele>
        <time>2010-09-26T11:57:29Z</time>
      </trkpt>
      <trkpt lat="41.8714500" lon="2.1302570">
        <ele>829.5980000</ele>
        <time>2010-09-26T11:57:33Z</time>
      </trkpt>
      <trkpt lat="41.8711630" lon="2.1300120">
        <ele>830.3510000</ele>
        <time>2010-09-26T11:57:38Z</time>
      </trkpt>
      <trkpt lat="41.8709030" lon="2.1300320">
        <ele>830.0090000</ele>
        <time>2010-09-26T11:57:42Z</time>
      </trkpt>
      <trkpt lat="41.8707060" lon="2.1301280">
        <ele>829.0380000</ele>
        <time>2010-09-26T11:57:45Z</time>
      </trkpt>
      <trkpt lat="41.8703180" lon="2.1304230">
        <ele>825.4100000</ele>
        <time>2010-09-26T11:57:51Z</time>
      </trkpt>
      <trkpt lat="41.8702480" lon="2.1303760">
        <ele>823.7430000</ele>
        <time>2010-09-26T11:57:54Z</time>
      </trkpt>
      <trkpt lat="41.8702510" lon="2.1302350">
        <ele>823.1650000</ele>
        <time>2010-09-26T11:57:57Z</time>
      </trkpt>
      <trkpt lat="41.8701980" lon="2.1299390">
        <ele>824.7830000</ele>
        <time>2010-09-26T11:58:03Z</time>
      </trkpt>
      <trkpt lat="41.8700820" lon="2.1297150">
        <ele>825.5040000</ele>
        <time>2010-09-26T11:58:09Z</time>
      </trkpt>
      <trkpt lat="41.8699360" lon="2.1296550">
        <ele>825.6240000</ele>
        <time>2010-09-26T11:58:13Z</time>
      </trkpt>
      <trkpt lat="41.8697330" lon="2.1295670">
        <ele>825.3670000</ele>
        <time>2010-09-26T11:58:18Z</time>
      </trkpt>
      <trkpt lat="41.8695790" lon="2.1295380">
        <ele>825.0340000</ele>
        <time>2010-09-26T11:58:22Z</time>
      </trkpt>
      <trkpt lat="41.8693740" lon="2.1294380">
        <ele>824.1420000</ele>
        <time>2010-09-26T11:58:26Z</time>
      </trkpt>
      <trkpt lat="41.8692790" lon="2.1293090">
        <ele>823.3980000</ele>
        <time>2010-09-26T11:58:28Z</time>
      </trkpt>
      <trkpt lat="41.8690320" lon="2.1288950">
        <ele>822.3220000</ele>
        <time>2010-09-26T11:58:33Z</time>
      </trkpt>
      <trkpt lat="41.8690010" lon="2.1288190">
        <ele>822.3250000</ele>
        <time>2010-09-26T11:58:34Z</time>
      </trkpt>
      <trkpt lat="41.8688530" lon="2.1286980">
        <ele>822.1970000</ele>
        <time>2010-09-26T11:58:38Z</time>
      </trkpt>
      <trkpt lat="41.8687320" lon="2.1285450">
        <ele>821.1720000</ele>
        <time>2010-09-26T11:58:41Z</time>
      </trkpt>
      <trkpt lat="41.8683970" lon="2.1281940">
        <ele>816.0140000</ele>
        <time>2010-09-26T11:58:47Z</time>
      </trkpt>
      <trkpt lat="41.8681890" lon="2.1280290">
        <ele>814.3480000</ele>
        <time>2010-09-26T11:58:50Z</time>
      </trkpt>
      <trkpt lat="41.8680720" lon="2.1278860">
        <ele>815.9030000</ele>
        <time>2010-09-26T11:58:54Z</time>
      </trkpt>
      <trkpt lat="41.8680280" lon="2.1277570">
        <ele>818.0290000</ele>
        <time>2010-09-26T11:58:59Z</time>
      </trkpt>
      <trkpt lat="41.8679910" lon="2.1275260">
        <ele>819.8790000</ele>
        <time>2010-09-26T11:59:06Z</time>
      </trkpt>
      <trkpt lat="41.8679180" lon="2.1273520">
        <ele>820.7160000</ele>
        <time>2010-09-26T11:59:11Z</time>
      </trkpt>
      <trkpt lat="41.8677690" lon="2.1271330">
        <ele>821.1700000</ele>
        <time>2010-09-26T11:59:18Z</time>
      </trkpt>
      <trkpt lat="41.8676230" lon="2.1269210">
        <ele>822.1780000</ele>
        <time>2010-09-26T11:59:26Z</time>
      </trkpt>
      <trkpt lat="41.8675200" lon="2.1267430">
        <ele>823.9040000</ele>
        <time>2010-09-26T11:59:33Z</time>
      </trkpt>
      <trkpt lat="41.8674160" lon="2.1265160">
        <ele>825.4090000</ele>
        <time>2010-09-26T11:59:41Z</time>
      </trkpt>
      <trkpt lat="41.8674080" lon="2.1262890">
        <ele>825.7870000</ele>
        <time>2010-09-26T11:59:47Z</time>
      </trkpt>
      <trkpt lat="41.8674800" lon="2.1261280">
        <ele>826.1770000</ele>
        <time>2010-09-26T11:59:52Z</time>
      </trkpt>
      <trkpt lat="41.8676070" lon="2.1259400">
        <ele>827.5370000</ele>
        <time>2010-09-26T11:59:59Z</time>
      </trkpt>
      <trkpt lat="41.8677520" lon="2.1257920">
        <ele>828.6720000</ele>
        <time>2010-09-26T12:00:06Z</time>
      </trkpt>
      <trkpt lat="41.8679400" lon="2.1255990">
        <ele>829.5760000</ele>
        <time>2010-09-26T12:00:14Z</time>
      </trkpt>
      <trkpt lat="41.8681450" lon="2.1253580">
        <ele>830.6990000</ele>
        <time>2010-09-26T12:00:23Z</time>
      </trkpt>
      <trkpt lat="41.8682760" lon="2.1252010">
        <ele>832.0120000</ele>
        <time>2010-09-26T12:00:29Z</time>
      </trkpt>
      <trkpt lat="41.8684280" lon="2.1250640">
        <ele>832.4150000</ele>
        <time>2010-09-26T12:00:35Z</time>
      </trkpt>
      <trkpt lat="41.8685580" lon="2.1249570">
        <ele>832.8390000</ele>
        <time>2010-09-26T12:00:40Z</time>
      </trkpt>
      <trkpt lat="41.8687410" lon="2.1247920">
        <ele>834.4890000</ele>
        <time>2010-09-26T12:00:47Z</time>
      </trkpt>
      <trkpt lat="41.8689160" lon="2.1246570">
        <ele>835.6020000</ele>
        <time>2010-09-26T12:00:54Z</time>
      </trkpt>
      <trkpt lat="41.8690740" lon="2.1245490">
        <ele>837.2340000</ele>
        <time>2010-09-26T12:01:00Z</time>
      </trkpt>
      <trkpt lat="41.8692590" lon="2.1244370">
        <ele>837.9310000</ele>
        <time>2010-09-26T12:01:06Z</time>
      </trkpt>
      <trkpt lat="41.8694370" lon="2.1243000">
        <ele>838.4600000</ele>
        <time>2010-09-26T12:01:12Z</time>
      </trkpt>
      <trkpt lat="41.8696030" lon="2.1241970">
        <ele>838.9580000</ele>
        <time>2010-09-26T12:01:17Z</time>
      </trkpt>
      <trkpt lat="41.8697760" lon="2.1240060">
        <ele>839.2100000</ele>
        <time>2010-09-26T12:01:23Z</time>
      </trkpt>
      <trkpt lat="41.8700320" lon="2.1237690">
        <ele>839.4980000</ele>
        <time>2010-09-26T12:01:31Z</time>
      </trkpt>
      <trkpt lat="41.8700690" lon="2.1237450">
        <ele>839.4980000</ele>
        <time>2010-09-26T12:01:32Z</time>
      </trkpt>
      <trkpt lat="41.8701650" lon="2.1237090">
        <ele>839.2560000</ele>
        <time>2010-09-26T12:01:34Z</time>
      </trkpt>
      <trkpt lat="41.8704650" lon="2.1235200">
        <ele>839.4750000</ele>
        <time>2010-09-26T12:01:42Z</time>
      </trkpt>
      <trkpt lat="41.8705820" lon="2.1234200">
        <ele>839.8060000</ele>
        <time>2010-09-26T12:01:46Z</time>
      </trkpt>
      <trkpt lat="41.8707490" lon="2.1232030">
        <ele>839.8640000</ele>
        <time>2010-09-26T12:01:52Z</time>
      </trkpt>
      <trkpt lat="41.8708670" lon="2.1229940">
        <ele>839.7780000</ele>
        <time>2010-09-26T12:01:57Z</time>
      </trkpt>
      <trkpt lat="41.8709820" lon="2.1228000">
        <ele>839.3240000</ele>
        <time>2010-09-26T12:02:01Z</time>
      </trkpt>
      <trkpt lat="41.8712430" lon="2.1224350">
        <ele>839.0930000</ele>
        <time>2010-09-26T12:02:09Z</time>
      </trkpt>
      <trkpt lat="41.8712780" lon="2.1223830">
        <ele>838.9310000</ele>
        <time>2010-09-26T12:02:10Z</time>
      </trkpt>
      <trkpt lat="41.8716210" lon="2.1219700">
        <ele>838.0440000</ele>
        <time>2010-09-26T12:02:18Z</time>
      </trkpt>
      <trkpt lat="41.8719270" lon="2.1217290">
        <ele>836.6220000</ele>
        <time>2010-09-26T12:02:23Z</time>
      </trkpt>
      <trkpt lat="41.8722040" lon="2.1214760">
        <ele>835.2990000</ele>
        <time>2010-09-26T12:02:27Z</time>
      </trkpt>
      <trkpt lat="41.8725780" lon="2.1211700">
        <ele>833.9660000</ele>
        <time>2010-09-26T12:02:32Z</time>
      </trkpt>
      <trkpt lat="41.8726610" lon="2.1211200">
        <ele>833.6280000</ele>
        <time>2010-09-26T12:02:33Z</time>
      </trkpt>
      <trkpt lat="41.8730930" lon="2.1207530">
        <ele>829.6920000</ele>
        <time>2010-09-26T12:02:39Z</time>
      </trkpt>
      <trkpt lat="41.8733050" lon="2.1205250">
        <ele>827.3750000</ele>
        <time>2010-09-26T12:02:42Z</time>
      </trkpt>
      <trkpt lat="41.8737060" lon="2.1203030">
        <ele>825.8230000</ele>
        <time>2010-09-26T12:02:47Z</time>
      </trkpt>
      <trkpt lat="41.8738430" lon="2.1202530">
        <ele>825.5100000</ele>
        <time>2010-09-26T12:02:49Z</time>
      </trkpt>
      <trkpt lat="41.8739440" lon="2.1200300">
        <ele>824.6800000</ele>
        <time>2010-09-26T12:02:53Z</time>
      </trkpt>
      <trkpt lat="41.8739110" lon="2.1199390">
        <ele>824.0430000</ele>
        <time>2010-09-26T12:02:54Z</time>
      </trkpt>
      <trkpt lat="41.8737370" lon="2.1193790">
        <ele>820.7680000</ele>
        <time>2010-09-26T12:02:59Z</time>
      </trkpt>
      <trkpt lat="41.8736160" lon="2.1190800">
        <ele>819.8150000</ele>
        <time>2010-09-26T12:03:02Z</time>
      </trkpt>
      <trkpt lat="41.8735480" lon="2.1187650">
        <ele>820.5250000</ele>
        <time>2010-09-26T12:03:06Z</time>
      </trkpt>
      <trkpt lat="41.8738080" lon="2.1185610">
        <ele>823.4710000</ele>
        <time>2010-09-26T12:03:14Z</time>
      </trkpt>
      <trkpt lat="41.8738900" lon="2.1183520">
        <ele>825.0240000</ele>
        <time>2010-09-26T12:03:21Z</time>
      </trkpt>
      <trkpt lat="41.8738790" lon="2.1181260">
        <ele>826.4920000</ele>
        <time>2010-09-26T12:03:28Z</time>
      </trkpt>
      <trkpt lat="41.8737670" lon="2.1180400">
        <ele>827.5300000</ele>
        <time>2010-09-26T12:03:33Z</time>
      </trkpt>
      <trkpt lat="41.8736420" lon="2.1179620">
        <ele>828.3710000</ele>
        <time>2010-09-26T12:03:38Z</time>
      </trkpt>
      <trkpt lat="41.8735200" lon="2.1178740">
        <ele>829.6580000</ele>
        <time>2010-09-26T12:03:45Z</time>
      </trkpt>
      <trkpt lat="41.8733820" lon="2.1177950">
        <ele>831.1970000</ele>
        <time>2010-09-26T12:03:52Z</time>
      </trkpt>
      <trkpt lat="41.8732130" lon="2.1176440">
        <ele>833.0170000</ele>
        <time>2010-09-26T12:04:01Z</time>
      </trkpt>
      <trkpt lat="41.8730190" lon="2.1174150">
        <ele>835.0370000</ele>
        <time>2010-09-26T12:04:13Z</time>
      </trkpt>
      <trkpt lat="41.8729360" lon="2.1172540">
        <ele>836.0850000</ele>
        <time>2010-09-26T12:04:20Z</time>
      </trkpt>
      <trkpt lat="41.8728910" lon="2.1170680">
        <ele>838.1500000</ele>
        <time>2010-09-26T12:04:28Z</time>
      </trkpt>
      <trkpt lat="41.8728160" lon="2.1168610">
        <ele>840.0790000</ele>
        <time>2010-09-26T12:04:37Z</time>
      </trkpt>
      <trkpt lat="41.8727010" lon="2.1167070">
        <ele>840.8790000</ele>
        <time>2010-09-26T12:04:45Z</time>
      </trkpt>
      <trkpt lat="41.8725910" lon="2.1166250">
        <ele>841.9390000</ele>
        <time>2010-09-26T12:04:51Z</time>
      </trkpt>
      <trkpt lat="41.8725730" lon="2.1166160">
        <ele>842.0360000</ele>
        <time>2010-09-26T12:04:52Z</time>
      </trkpt>
      <trkpt lat="41.8725080" lon="2.1164820">
        <ele>843.4240000</ele>
        <time>2010-09-26T12:04:59Z</time>
      </trkpt>
      <trkpt lat="41.8724180" lon="2.1163580">
        <ele>844.2220000</ele>
        <time>2010-09-26T12:05:05Z</time>
      </trkpt>
      <trkpt lat="41.8722990" lon="2.1163110">
        <ele>844.9930000</ele>
        <time>2010-09-26T12:05:10Z</time>
      </trkpt>
      <trkpt lat="41.8721850" lon="2.1162840">
        <ele>845.1740000</ele>
        <time>2010-09-26T12:05:15Z</time>
      </trkpt>
      <trkpt lat="41.8720610" lon="2.1162600">
        <ele>845.4780000</ele>
        <time>2010-09-26T12:05:21Z</time>
      </trkpt>
      <trkpt lat="41.8718760" lon="2.1161890">
        <ele>846.3910000</ele>
        <time>2010-09-26T12:05:27Z</time>
      </trkpt>
      <trkpt lat="41.8716610" lon="2.1160170">
        <ele>846.6770000</ele>
        <time>2010-09-26T12:05:35Z</time>
      </trkpt>
      <trkpt lat="41.8715540" lon="2.1159160">
        <ele>847.0610000</ele>
        <time>2010-09-26T12:05:41Z</time>
      </trkpt>
      <trkpt lat="41.8714250" lon="2.1158830">
        <ele>848.0010000</ele>
        <time>2010-09-26T12:05:47Z</time>
      </trkpt>
      <trkpt lat="41.8712270" lon="2.1158600">
        <ele>848.8880000</ele>
        <time>2010-09-26T12:05:52Z</time>
      </trkpt>
      <trkpt lat="41.8710230" lon="2.1158450">
        <ele>850.0280000</ele>
        <time>2010-09-26T12:05:58Z</time>
      </trkpt>
      <trkpt lat="41.8708100" lon="2.1158220">
        <ele>851.3980000</ele>
        <time>2010-09-26T12:06:05Z</time>
      </trkpt>
      <trkpt lat="41.8706560" lon="2.1157260">
        <ele>851.2390000</ele>
        <time>2010-09-26T12:06:11Z</time>
      </trkpt>
      <trkpt lat="41.8705790" lon="2.1155340">
        <ele>852.8180000</ele>
        <time>2010-09-26T12:06:17Z</time>
      </trkpt>
      <trkpt lat="41.8705380" lon="2.1153310">
        <ele>853.1870000</ele>
        <time>2010-09-26T12:06:22Z</time>
      </trkpt>
      <trkpt lat="41.8704080" lon="2.1152400">
        <ele>853.6390000</ele>
        <time>2010-09-26T12:06:27Z</time>
      </trkpt>
      <trkpt lat="41.8701750" lon="2.1151140">
        <ele>855.2780000</ele>
        <time>2010-09-26T12:06:35Z</time>
      </trkpt>
      <trkpt lat="41.8699040" lon="2.1150070">
        <ele>856.3320000</ele>
        <time>2010-09-26T12:06:43Z</time>
      </trkpt>
      <trkpt lat="41.8695700" lon="2.1149220">
        <ele>855.6380000</ele>
        <time>2010-09-26T12:06:51Z</time>
      </trkpt>
      <trkpt lat="41.8693320" lon="2.1148880">
        <ele>855.3420000</ele>
        <time>2010-09-26T12:06:56Z</time>
      </trkpt>
      <trkpt lat="41.8690130" lon="2.1148040">
        <ele>855.0240000</ele>
        <time>2010-09-26T12:07:03Z</time>
      </trkpt>
      <trkpt lat="41.8689660" lon="2.1147940">
        <ele>854.8510000</ele>
        <time>2010-09-26T12:07:04Z</time>
      </trkpt>
      <trkpt lat="41.8688170" lon="2.1146820">
        <ele>854.6310000</ele>
        <time>2010-09-26T12:07:08Z</time>
      </trkpt>
      <trkpt lat="41.8687690" lon="2.1145860">
        <ele>854.8460000</ele>
        <time>2010-09-26T12:07:10Z</time>
      </trkpt>
      <trkpt lat="41.8686370" lon="2.1144400">
        <ele>854.9790000</ele>
        <time>2010-09-26T12:07:14Z</time>
      </trkpt>
      <trkpt lat="41.8682210" lon="2.1142400">
        <ele>855.0400000</ele>
        <time>2010-09-26T12:07:23Z</time>
      </trkpt>
      <trkpt lat="41.8676760" lon="2.1140250">
        <ele>854.3480000</ele>
        <time>2010-09-26T12:07:34Z</time>
      </trkpt>
      <trkpt lat="41.8675750" lon="2.1139830">
        <ele>854.4650000</ele>
        <time>2010-09-26T12:07:36Z</time>
      </trkpt>
      <trkpt lat="41.8674700" lon="2.1137660">
        <ele>854.3510000</ele>
        <time>2010-09-26T12:07:40Z</time>
      </trkpt>
      <trkpt lat="41.8674820" lon="2.1136970">
        <ele>854.4210000</ele>
        <time>2010-09-26T12:07:41Z</time>
      </trkpt>
      <trkpt lat="41.8676010" lon="2.1133110">
        <ele>854.1950000</ele>
        <time>2010-09-26T12:07:47Z</time>
      </trkpt>
      <trkpt lat="41.8677260" lon="2.1131200">
        <ele>854.0130000</ele>
        <time>2010-09-26T12:07:51Z</time>
      </trkpt>
      <trkpt lat="41.8680780" lon="2.1128410">
        <ele>854.8650000</ele>
        <time>2010-09-26T12:08:00Z</time>
      </trkpt>
      <trkpt lat="41.8684670" lon="2.1125490">
        <ele>856.0310000</ele>
        <time>2010-09-26T12:08:09Z</time>
      </trkpt>
      <trkpt lat="41.8685730" lon="2.1124950">
        <ele>856.3820000</ele>
        <time>2010-09-26T12:08:13Z</time>
      </trkpt>
      <trkpt lat="41.8686090" lon="2.1125000">
        <ele>856.2120000</ele>
        <time>2010-09-26T12:08:17Z</time>
      </trkpt>
      <trkpt lat="41.8686380" lon="2.1125100">
        <ele>856.1580000</ele>
        <time>2010-09-26T12:08:24Z</time>
      </trkpt>
      <trkpt lat="41.8686920" lon="2.1125240">
        <ele>856.2480000</ele>
        <time>2010-09-26T12:08:31Z</time>
      </trkpt>
      <trkpt lat="41.8687040" lon="2.1125130">
        <ele>856.2570000</ele>
        <time>2010-09-26T12:08:35Z</time>
      </trkpt>
      <trkpt lat="41.8687190" lon="2.1125240">
        <ele>856.3380000</ele>
        <time>2010-09-26T12:08:54Z</time>
      </trkpt>
      <trkpt lat="41.8687210" lon="2.1125220">
        <ele>856.3220000</ele>
        <time>2010-09-26T12:08:55Z</time>
      </trkpt>
      <trkpt lat="41.8687510" lon="2.1124560">
        <ele>857.7860000</ele>
        <time>2010-09-26T12:11:36Z</time>
      </trkpt>
      <trkpt lat="41.8687400" lon="2.1124530">
        <ele>857.7480000</ele>
        <time>2010-09-26T12:11:37Z</time>
      </trkpt>
      <trkpt lat="41.8686730" lon="2.1123540">
        <ele>855.6620000</ele>
        <time>2010-09-26T12:27:57Z</time>
      </trkpt>
      <trkpt lat="41.8687510" lon="2.1122550">
        <ele>856.3770000</ele>
        <time>2010-09-26T12:28:03Z</time>
      </trkpt>
      <trkpt lat="41.8688450" lon="2.1121540">
        <ele>856.9570000</ele>
        <time>2010-09-26T12:28:10Z</time>
      </trkpt>
      <trkpt lat="41.8688870" lon="2.1120910">
        <ele>857.2230000</ele>
        <time>2010-09-26T12:28:15Z</time>
      </trkpt>
      <trkpt lat="41.8688880" lon="2.1120670">
        <ele>857.3210000</ele>
        <time>2010-09-26T12:28:18Z</time>
      </trkpt>
      <trkpt lat="41.8688820" lon="2.1120260">
        <ele>857.2310000</ele>
        <time>2010-09-26T12:28:22Z</time>
      </trkpt>
      <trkpt lat="41.8688260" lon="2.1118690">
        <ele>857.2690000</ele>
        <time>2010-09-26T12:28:30Z</time>
      </trkpt>
      <trkpt lat="41.8687980" lon="2.1117330">
        <ele>857.4300000</ele>
        <time>2010-09-26T12:28:37Z</time>
      </trkpt>
      <trkpt lat="41.8688020" lon="2.1115680">
        <ele>858.0100000</ele>
        <time>2010-09-26T12:28:43Z</time>
      </trkpt>
      <trkpt lat="41.8687950" lon="2.1115290">
        <ele>858.0850000</ele>
        <time>2010-09-26T12:28:45Z</time>
      </trkpt>
      <trkpt lat="41.8688610" lon="2.1114410">
        <ele>858.2880000</ele>
        <time>2010-09-26T12:28:51Z</time>
      </trkpt>
      <trkpt lat="41.8689520" lon="2.1113530">
        <ele>859.1450000</ele>
        <time>2010-09-26T12:28:58Z</time>
      </trkpt>
      <trkpt lat="41.8690300" lon="2.1113160">
        <ele>860.0510000</ele>
        <time>2010-09-26T12:29:03Z</time>
      </trkpt>
      <trkpt lat="41.8691560" lon="2.1113270">
        <ele>862.2370000</ele>
        <time>2010-09-26T12:29:11Z</time>
      </trkpt>
      <trkpt lat="41.8692500" lon="2.1113550">
        <ele>863.8050000</ele>
        <time>2010-09-26T12:29:18Z</time>
      </trkpt>
      <trkpt lat="41.8693730" lon="2.1113760">
        <ele>865.0920000</ele>
        <time>2010-09-26T12:29:25Z</time>
      </trkpt>
      <trkpt lat="41.8695010" lon="2.1114100">
        <ele>866.2080000</ele>
        <time>2010-09-26T12:29:31Z</time>
      </trkpt>
      <trkpt lat="41.8695850" lon="2.1114610">
        <ele>867.4080000</ele>
        <time>2010-09-26T12:29:37Z</time>
      </trkpt>
      <trkpt lat="41.8697250" lon="2.1115140">
        <ele>869.7760000</ele>
        <time>2010-09-26T12:29:47Z</time>
      </trkpt>
      <trkpt lat="41.8697950" lon="2.1114460">
        <ele>871.3990000</ele>
        <time>2010-09-26T12:29:53Z</time>
      </trkpt>
      <trkpt lat="41.8698580" lon="2.1113310">
        <ele>872.9350000</ele>
        <time>2010-09-26T12:30:00Z</time>
      </trkpt>
      <trkpt lat="41.8699000" lon="2.1112430">
        <ele>873.8970000</ele>
        <time>2010-09-26T12:30:06Z</time>
      </trkpt>
      <trkpt lat="41.8699480" lon="2.1111610">
        <ele>875.0020000</ele>
        <time>2010-09-26T12:30:12Z</time>
      </trkpt>
      <trkpt lat="41.8700510" lon="2.1110280">
        <ele>876.3310000</ele>
        <time>2010-09-26T12:30:22Z</time>
      </trkpt>
      <trkpt lat="41.8701450" lon="2.1108990">
        <ele>879.2500000</ele>
        <time>2010-09-26T12:30:32Z</time>
      </trkpt>
      <trkpt lat="41.8702340" lon="2.1107710">
        <ele>881.3080000</ele>
        <time>2010-09-26T12:30:41Z</time>
      </trkpt>
      <trkpt lat="41.8703440" lon="2.1106390">
        <ele>884.5340000</ele>
        <time>2010-09-26T12:30:51Z</time>
      </trkpt>
      <trkpt lat="41.8704470" lon="2.1105560">
        <ele>886.5690000</ele>
        <time>2010-09-26T12:31:00Z</time>
      </trkpt>
      <trkpt lat="41.8705720" lon="2.1105100">
        <ele>887.9290000</ele>
        <time>2010-09-26T12:31:08Z</time>
      </trkpt>
      <trkpt lat="41.8706860" lon="2.1104900">
        <ele>889.6990000</ele>
        <time>2010-09-26T12:31:16Z</time>
      </trkpt>
      <trkpt lat="41.8707900" lon="2.1104270">
        <ele>890.9580000</ele>
        <time>2010-09-26T12:31:24Z</time>
      </trkpt>
      <trkpt lat="41.8708800" lon="2.1103050">
        <ele>891.7190000</ele>
        <time>2010-09-26T12:31:32Z</time>
      </trkpt>
      <trkpt lat="41.8710020" lon="2.1100890">
        <ele>892.8950000</ele>
        <time>2010-09-26T12:31:43Z</time>
      </trkpt>
      <trkpt lat="41.8710670" lon="2.1098580">
        <ele>894.8030000</ele>
        <time>2010-09-26T12:31:53Z</time>
      </trkpt>
      <trkpt lat="41.8710900" lon="2.1096940">
        <ele>896.3450000</ele>
        <time>2010-09-26T12:32:00Z</time>
      </trkpt>
      <trkpt lat="41.8711200" lon="2.1094960">
        <ele>898.4010000</ele>
        <time>2010-09-26T12:32:09Z</time>
      </trkpt>
      <trkpt lat="41.8711800" lon="2.1093130">
        <ele>900.3850000</ele>
        <time>2010-09-26T12:32:18Z</time>
      </trkpt>
      <trkpt lat="41.8712480" lon="2.1091040">
        <ele>902.5580000</ele>
        <time>2010-09-26T12:32:28Z</time>
      </trkpt>
      <trkpt lat="41.8713470" lon="2.1089040">
        <ele>904.6900000</ele>
        <time>2010-09-26T12:32:38Z</time>
      </trkpt>
      <trkpt lat="41.8714810" lon="2.1087050">
        <ele>906.8260000</ele>
        <time>2010-09-26T12:32:50Z</time>
      </trkpt>
      <trkpt lat="41.8715970" lon="2.1085860">
        <ele>908.9430000</ele>
        <time>2010-09-26T12:32:59Z</time>
      </trkpt>
      <trkpt lat="41.8717200" lon="2.1084540">
        <ele>911.7290000</ele>
        <time>2010-09-26T12:33:09Z</time>
      </trkpt>
      <trkpt lat="41.8718110" lon="2.1083550">
        <ele>914.2050000</ele>
        <time>2010-09-26T12:33:18Z</time>
      </trkpt>
      <trkpt lat="41.8718620" lon="2.1082710">
        <ele>915.8910000</ele>
        <time>2010-09-26T12:33:24Z</time>
      </trkpt>
      <trkpt lat="41.8718990" lon="2.1081490">
        <ele>916.1710000</ele>
        <time>2010-09-26T12:33:30Z</time>
      </trkpt>
      <trkpt lat="41.8719640" lon="2.1080090">
        <ele>916.1290000</ele>
        <time>2010-09-26T12:33:36Z</time>
      </trkpt>
      <trkpt lat="41.8720050" lon="2.1079180">
        <ele>915.8700000</ele>
        <time>2010-09-26T12:33:38Z</time>
      </trkpt>
      <trkpt lat="41.8720430" lon="2.1078000">
        <ele>915.2580000</ele>
        <time>2010-09-26T12:33:40Z</time>
      </trkpt>
      <trkpt lat="41.8721090" lon="2.1074310">
        <ele>912.6100000</ele>
        <time>2010-09-26T12:33:45Z</time>
      </trkpt>
      <trkpt lat="41.8722290" lon="2.1071400">
        <ele>911.2080000</ele>
        <time>2010-09-26T12:33:49Z</time>
      </trkpt>
      <trkpt lat="41.8725320" lon="2.1068860">
        <ele>910.0340000</ele>
        <time>2010-09-26T12:33:55Z</time>
      </trkpt>
      <trkpt lat="41.8726520" lon="2.1069140">
        <ele>909.7860000</ele>
        <time>2010-09-26T12:33:57Z</time>
      </trkpt>
      <trkpt lat="41.8727740" lon="2.1069700">
        <ele>909.2060000</ele>
        <time>2010-09-26T12:33:59Z</time>
      </trkpt>
      <trkpt lat="41.8730800" lon="2.1071050">
        <ele>907.8930000</ele>
        <time>2010-09-26T12:34:04Z</time>
      </trkpt>
      <trkpt lat="41.8734020" lon="2.1070870">
        <ele>907.6450000</ele>
        <time>2010-09-26T12:34:09Z</time>
      </trkpt>
      <trkpt lat="41.8736290" lon="2.1069720">
        <ele>907.0690000</ele>
        <time>2010-09-26T12:34:13Z</time>
      </trkpt>
      <trkpt lat="41.8736980" lon="2.1068400">
        <ele>906.9930000</ele>
        <time>2010-09-26T12:34:15Z</time>
      </trkpt>
      <trkpt lat="41.8738540" lon="2.1063710">
        <ele>906.7950000</ele>
        <time>2010-09-26T12:34:21Z</time>
      </trkpt>
      <trkpt lat="41.8740330" lon="2.1060800">
        <ele>906.2160000</ele>
        <time>2010-09-26T12:34:25Z</time>
      </trkpt>
      <trkpt lat="41.8743840" lon="2.1056820">
        <ele>901.9500000</ele>
        <time>2010-09-26T12:34:30Z</time>
      </trkpt>
      <trkpt lat="41.8746220" lon="2.1056730">
        <ele>897.9700000</ele>
        <time>2010-09-26T12:34:34Z</time>
      </trkpt>
      <trkpt lat="41.8746680" lon="2.1057380">
        <ele>897.0190000</ele>
        <time>2010-09-26T12:34:35Z</time>
      </trkpt>
      <trkpt lat="41.8749720" lon="2.1060720">
        <ele>892.4390000</ele>
        <time>2010-09-26T12:34:40Z</time>
      </trkpt>
      <trkpt lat="41.8752160" lon="2.1061920">
        <ele>890.7950000</ele>
        <time>2010-09-26T12:34:43Z</time>
      </trkpt>
      <trkpt lat="41.8753670" lon="2.1061190">
        <ele>889.2520000</ele>
        <time>2010-09-26T12:34:45Z</time>
      </trkpt>
      <trkpt lat="41.8754240" lon="2.1059820">
        <ele>888.7640000</ele>
        <time>2010-09-26T12:34:47Z</time>
      </trkpt>
      <trkpt lat="41.8755450" lon="2.1055030">
        <ele>889.4600000</ele>
        <time>2010-09-26T12:34:54Z</time>
      </trkpt>
      <trkpt lat="41.8755700" lon="2.1054310">
        <ele>889.2820000</ele>
        <time>2010-09-26T12:34:55Z</time>
      </trkpt>
      <trkpt lat="41.8757840" lon="2.1052000">
        <ele>888.1940000</ele>
        <time>2010-09-26T12:35:00Z</time>
      </trkpt>
      <trkpt lat="41.8760300" lon="2.1051800">
        <ele>887.5040000</ele>
        <time>2010-09-26T12:35:04Z</time>
      </trkpt>
      <trkpt lat="41.8761720" lon="2.1052070">
        <ele>886.7210000</ele>
        <time>2010-09-26T12:35:06Z</time>
      </trkpt>
      <trkpt lat="41.8764620" lon="2.1051200">
        <ele>885.3800000</ele>
        <time>2010-09-26T12:35:10Z</time>
      </trkpt>
      <trkpt lat="41.8765820" lon="2.1048860">
        <ele>884.6090000</ele>
        <time>2010-09-26T12:35:13Z</time>
      </trkpt>
      <trkpt lat="41.8766100" lon="2.1047990">
        <ele>884.4120000</ele>
        <time>2010-09-26T12:35:14Z</time>
      </trkpt>
      <trkpt lat="41.8767540" lon="2.1042700">
        <ele>884.5090000</ele>
        <time>2010-09-26T12:35:20Z</time>
      </trkpt>
      <trkpt lat="41.8769400" lon="2.1039900">
        <ele>883.7860000</ele>
        <time>2010-09-26T12:35:24Z</time>
      </trkpt>
      <trkpt lat="41.8771530" lon="2.1039210">
        <ele>883.0480000</ele>
        <time>2010-09-26T12:35:27Z</time>
      </trkpt>
      <trkpt lat="41.8772860" lon="2.1040050">
        <ele>882.3420000</ele>
        <time>2010-09-26T12:35:29Z</time>
      </trkpt>
      <trkpt lat="41.8777070" lon="2.1045240">
        <ele>880.1630000</ele>
        <time>2010-09-26T12:35:36Z</time>
      </trkpt>
      <trkpt lat="41.8780290" lon="2.1049460">
        <ele>876.4120000</ele>
        <time>2010-09-26T12:35:41Z</time>
      </trkpt>
      <trkpt lat="41.8781990" lon="2.1053980">
        <ele>874.2710000</ele>
        <time>2010-09-26T12:35:45Z</time>
      </trkpt>
      <trkpt lat="41.8783900" lon="2.1057250">
        <ele>871.6940000</ele>
        <time>2010-09-26T12:35:50Z</time>
      </trkpt>
      <trkpt lat="41.8785530" lon="2.1055760">
        <ele>870.5410000</ele>
        <time>2010-09-26T12:35:53Z</time>
      </trkpt>
      <trkpt lat="41.8786220" lon="2.1055430">
        <ele>870.3460000</ele>
        <time>2010-09-26T12:35:54Z</time>
      </trkpt>
      <trkpt lat="41.8789230" lon="2.1052630">
        <ele>868.5640000</ele>
        <time>2010-09-26T12:35:59Z</time>
      </trkpt>
      <trkpt lat="41.8789180" lon="2.1050200">
        <ele>867.3180000</ele>
        <time>2010-09-26T12:36:01Z</time>
      </trkpt>
      <trkpt lat="41.8789170" lon="2.1046530">
        <ele>864.9310000</ele>
        <time>2010-09-26T12:36:04Z</time>
      </trkpt>
      <trkpt lat="41.8789540" lon="2.1041560">
        <ele>861.2350000</ele>
        <time>2010-09-26T12:36:09Z</time>
      </trkpt>
      <trkpt lat="41.8789030" lon="2.1040780">
        <ele>860.5400000</ele>
        <time>2010-09-26T12:36:10Z</time>
      </trkpt>
      <trkpt lat="41.8787240" lon="2.1036710">
        <ele>859.7690000</ele>
        <time>2010-09-26T12:36:15Z</time>
      </trkpt>
      <trkpt lat="41.8786570" lon="2.1030710">
        <ele>858.7330000</ele>
        <time>2010-09-26T12:36:21Z</time>
      </trkpt>
      <trkpt lat="41.8786160" lon="2.1024850">
        <ele>858.4690000</ele>
        <time>2010-09-26T12:36:27Z</time>
      </trkpt>
      <trkpt lat="41.8786140" lon="2.1023020">
        <ele>858.4880000</ele>
        <time>2010-09-26T12:36:29Z</time>
      </trkpt>
      <trkpt lat="41.8787240" lon="2.1020120">
        <ele>858.7480000</ele>
        <time>2010-09-26T12:36:33Z</time>
      </trkpt>
      <trkpt lat="41.8787700" lon="2.1019650">
        <ele>858.8800000</ele>
        <time>2010-09-26T12:36:34Z</time>
      </trkpt>
      <trkpt lat="41.8790920" lon="2.1016230">
        <ele>858.4640000</ele>
        <time>2010-09-26T12:36:41Z</time>
      </trkpt>
      <trkpt lat="41.8792330" lon="2.1014660">
        <ele>858.2430000</ele>
        <time>2010-09-26T12:36:44Z</time>
      </trkpt>
      <trkpt lat="41.8793040" lon="2.1012080">
        <ele>858.9500000</ele>
        <time>2010-09-26T12:36:48Z</time>
      </trkpt>
      <trkpt lat="41.8792970" lon="2.1011400">
        <ele>859.2500000</ele>
        <time>2010-09-26T12:36:49Z</time>
      </trkpt>
      <trkpt lat="41.8791470" lon="2.1007910">
        <ele>859.3310000</ele>
        <time>2010-09-26T12:36:54Z</time>
      </trkpt>
      <trkpt lat="41.8787850" lon="2.1004070">
        <ele>857.4700000</ele>
        <time>2010-09-26T12:37:00Z</time>
      </trkpt>
      <trkpt lat="41.8786680" lon="2.1001190">
        <ele>857.8790000</ele>
        <time>2010-09-26T12:37:04Z</time>
      </trkpt>
      <trkpt lat="41.8787130" lon="2.0998320">
        <ele>856.3660000</ele>
        <time>2010-09-26T12:37:07Z</time>
      </trkpt>
      <trkpt lat="41.8787950" lon="2.0996330">
        <ele>854.8440000</ele>
        <time>2010-09-26T12:37:09Z</time>
      </trkpt>
      <trkpt lat="41.8788710" lon="2.0991830">
        <ele>853.3190000</ele>
        <time>2010-09-26T12:37:13Z</time>
      </trkpt>
      <trkpt lat="41.8787860" lon="2.0988720">
        <ele>852.7700000</ele>
        <time>2010-09-26T12:37:16Z</time>
      </trkpt>
      <trkpt lat="41.8786290" lon="2.0986260">
        <ele>852.5070000</ele>
        <time>2010-09-26T12:37:19Z</time>
      </trkpt>
      <trkpt lat="41.8782780" lon="2.0982380">
        <ele>852.2760000</ele>
        <time>2010-09-26T12:37:25Z</time>
      </trkpt>
      <trkpt lat="41.8780460" lon="2.0980110">
        <ele>852.4790000</ele>
        <time>2010-09-26T12:37:29Z</time>
      </trkpt>
      <trkpt lat="41.8779040" lon="2.0977290">
        <ele>852.7390000</ele>
        <time>2010-09-26T12:37:33Z</time>
      </trkpt>
      <trkpt lat="41.8778750" lon="2.0975440">
        <ele>852.3930000</ele>
        <time>2010-09-26T12:37:35Z</time>
      </trkpt>
      <trkpt lat="41.8778470" lon="2.0971490">
        <ele>851.5890000</ele>
        <time>2010-09-26T12:37:39Z</time>
      </trkpt>
      <trkpt lat="41.8778760" lon="2.0967430">
        <ele>850.2080000</ele>
        <time>2010-09-26T12:37:43Z</time>
      </trkpt>
      <trkpt lat="41.8778450" lon="2.0962210">
        <ele>848.2650000</ele>
        <time>2010-09-26T12:37:48Z</time>
      </trkpt>
      <trkpt lat="41.8778670" lon="2.0959170">
        <ele>847.0910000</ele>
        <time>2010-09-26T12:37:51Z</time>
      </trkpt>
      <trkpt lat="41.8780650" lon="2.0957600">
        <ele>845.9280000</ele>
        <time>2010-09-26T12:37:54Z</time>
      </trkpt>
      <trkpt lat="41.8782210" lon="2.0957640">
        <ele>845.3950000</ele>
        <time>2010-09-26T12:37:56Z</time>
      </trkpt>
      <trkpt lat="41.8787040" lon="2.0956890">
        <ele>843.9180000</ele>
        <time>2010-09-26T12:38:02Z</time>
      </trkpt>
      <trkpt lat="41.8787850" lon="2.0956580">
        <ele>843.5060000</ele>
        <time>2010-09-26T12:38:03Z</time>
      </trkpt>
      <trkpt lat="41.8790970" lon="2.0955180">
        <ele>842.5550000</ele>
        <time>2010-09-26T12:38:07Z</time>
      </trkpt>
      <trkpt lat="41.8793560" lon="2.0952400">
        <ele>841.4340000</ele>
        <time>2010-09-26T12:38:11Z</time>
      </trkpt>
      <trkpt lat="41.8793360" lon="2.0949060">
        <ele>840.2860000</ele>
        <time>2010-09-26T12:38:14Z</time>
      </trkpt>
      <trkpt lat="41.8792860" lon="2.0948020">
        <ele>839.6410000</ele>
        <time>2010-09-26T12:38:15Z</time>
      </trkpt>
      <trkpt lat="41.8791170" lon="2.0945070">
        <ele>837.8330000</ele>
        <time>2010-09-26T12:38:18Z</time>
      </trkpt>
      <trkpt lat="41.8790150" lon="2.0940710">
        <ele>836.1870000</ele>
        <time>2010-09-26T12:38:22Z</time>
      </trkpt>
      <trkpt lat="41.8789770" lon="2.0937450">
        <ele>835.0250000</ele>
        <time>2010-09-26T12:38:25Z</time>
      </trkpt>
      <trkpt lat="41.8788900" lon="2.0934330">
        <ele>833.8890000</ele>
        <time>2010-09-26T12:38:28Z</time>
      </trkpt>
      <trkpt lat="41.8788310" lon="2.0930920">
        <ele>833.0460000</ele>
        <time>2010-09-26T12:38:31Z</time>
      </trkpt>
      <trkpt lat="41.8786390" lon="2.0926960">
        <ele>830.7970000</ele>
        <time>2010-09-26T12:38:35Z</time>
      </trkpt>
      <trkpt lat="41.8785100" lon="2.0923860">
        <ele>829.6620000</ele>
        <time>2010-09-26T12:38:38Z</time>
      </trkpt>
      <trkpt lat="41.8784600" lon="2.0920360">
        <ele>827.8940000</ele>
        <time>2010-09-26T12:38:41Z</time>
      </trkpt>
      <trkpt lat="41.8782840" lon="2.0917630">
        <ele>825.4680000</ele>
        <time>2010-09-26T12:38:44Z</time>
      </trkpt>
      <trkpt lat="41.8781330" lon="2.0916350">
        <ele>824.4340000</ele>
        <time>2010-09-26T12:38:46Z</time>
      </trkpt>
      <trkpt lat="41.8777770" lon="2.0914340">
        <ele>822.7950000</ele>
        <time>2010-09-26T12:38:50Z</time>
      </trkpt>
      <trkpt lat="41.8774140" lon="2.0913130">
        <ele>820.8570000</ele>
        <time>2010-09-26T12:38:54Z</time>
      </trkpt>
      <trkpt lat="41.8773220" lon="2.0910870">
        <ele>819.0230000</ele>
        <time>2010-09-26T12:38:57Z</time>
      </trkpt>
      <trkpt lat="41.8774120" lon="2.0909400">
        <ele>817.6060000</ele>
        <time>2010-09-26T12:38:59Z</time>
      </trkpt>
      <trkpt lat="41.8775310" lon="2.0906540">
        <ele>815.2840000</ele>
        <time>2010-09-26T12:39:02Z</time>
      </trkpt>
      <trkpt lat="41.8775880" lon="2.0903120">
        <ele>812.8420000</ele>
        <time>2010-09-26T12:39:05Z</time>
      </trkpt>
      <trkpt lat="41.8775530" lon="2.0898280">
        <ele>809.1260000</ele>
        <time>2010-09-26T12:39:09Z</time>
      </trkpt>
      <trkpt lat="41.8774960" lon="2.0892780">
        <ele>806.6380000</ele>
        <time>2010-09-26T12:39:14Z</time>
      </trkpt>
      <trkpt lat="41.8775360" lon="2.0891630">
        <ele>806.0190000</ele>
        <time>2010-09-26T12:39:15Z</time>
      </trkpt>
      <trkpt lat="41.8776720" lon="2.0888150">
        <ele>803.5100000</ele>
        <time>2010-09-26T12:39:18Z</time>
      </trkpt>
      <trkpt lat="41.8777580" lon="2.0882100">
        <ele>801.8740000</ele>
        <time>2010-09-26T12:39:23Z</time>
      </trkpt>
      <trkpt lat="41.8776760" lon="2.0879310">
        <ele>801.7520000</ele>
        <time>2010-09-26T12:39:26Z</time>
      </trkpt>
      <trkpt lat="41.8774870" lon="2.0877040">
        <ele>802.2180000</ele>
        <time>2010-09-26T12:39:30Z</time>
      </trkpt>
      <trkpt lat="41.8773340" lon="2.0876480">
        <ele>803.5430000</ele>
        <time>2010-09-26T12:39:33Z</time>
      </trkpt>
      <trkpt lat="41.8771780" lon="2.0876140">
        <ele>804.4400000</ele>
        <time>2010-09-26T12:39:36Z</time>
      </trkpt>
      <trkpt lat="41.8769630" lon="2.0874150">
        <ele>805.8850000</ele>
        <time>2010-09-26T12:39:42Z</time>
      </trkpt>
      <trkpt lat="41.8769430" lon="2.0873640">
        <ele>806.1200000</ele>
        <time>2010-09-26T12:39:43Z</time>
      </trkpt>
      <trkpt lat="41.8767730" lon="2.0871380">
        <ele>807.6620000</ele>
        <time>2010-09-26T12:39:49Z</time>
      </trkpt>
      <trkpt lat="41.8767340" lon="2.0871170">
        <ele>807.9250000</ele>
        <time>2010-09-26T12:39:50Z</time>
      </trkpt>
      <trkpt lat="41.8765170" lon="2.0869820">
        <ele>808.2790000</ele>
        <time>2010-09-26T12:39:56Z</time>
      </trkpt>
      <trkpt lat="41.8765440" lon="2.0868020">
        <ele>808.3370000</ele>
        <time>2010-09-26T12:40:00Z</time>
      </trkpt>
      <trkpt lat="41.8765730" lon="2.0867630">
        <ele>808.2290000</ele>
        <time>2010-09-26T12:40:01Z</time>
      </trkpt>
      <trkpt lat="41.8768130" lon="2.0864280">
        <ele>807.5470000</ele>
        <time>2010-09-26T12:40:08Z</time>
      </trkpt>
      <trkpt lat="41.8768450" lon="2.0863710">
        <ele>807.3350000</ele>
        <time>2010-09-26T12:40:09Z</time>
      </trkpt>
      <trkpt lat="41.8769260" lon="2.0861020">
        <ele>807.0020000</ele>
        <time>2010-09-26T12:40:13Z</time>
      </trkpt>
      <trkpt lat="41.8769440" lon="2.0859570">
        <ele>806.8920000</ele>
        <time>2010-09-26T12:40:15Z</time>
      </trkpt>
      <trkpt lat="41.8769080" lon="2.0855970">
        <ele>806.8590000</ele>
        <time>2010-09-26T12:40:20Z</time>
      </trkpt>
      <trkpt lat="41.8768420" lon="2.0853830">
        <ele>806.3400000</ele>
        <time>2010-09-26T12:40:23Z</time>
      </trkpt>
      <trkpt lat="41.8766590" lon="2.0850920">
        <ele>804.9390000</ele>
        <time>2010-09-26T12:40:28Z</time>
      </trkpt>
      <trkpt lat="41.8765350" lon="2.0848600">
        <ele>803.6740000</ele>
        <time>2010-09-26T12:40:31Z</time>
      </trkpt>
      <trkpt lat="41.8763820" lon="2.0844440">
        <ele>801.6280000</ele>
        <time>2010-09-26T12:40:35Z</time>
      </trkpt>
      <trkpt lat="41.8763070" lon="2.0842100">
        <ele>800.3220000</ele>
        <time>2010-09-26T12:40:37Z</time>
      </trkpt>
      <trkpt lat="41.8762030" lon="2.0840090">
        <ele>799.5830000</ele>
        <time>2010-09-26T12:40:39Z</time>
      </trkpt>
      <trkpt lat="41.8759940" lon="2.0838290">
        <ele>798.9560000</ele>
        <time>2010-09-26T12:40:42Z</time>
      </trkpt>
      <trkpt lat="41.8759210" lon="2.0837970">
        <ele>798.8150000</ele>
        <time>2010-09-26T12:40:43Z</time>
      </trkpt>
      <trkpt lat="41.8755910" lon="2.0836800">
        <ele>799.0470000</ele>
        <time>2010-09-26T12:40:48Z</time>
      </trkpt>
      <trkpt lat="41.8753370" lon="2.0836560">
        <ele>801.1010000</ele>
        <time>2010-09-26T12:40:53Z</time>
      </trkpt>
      <trkpt lat="41.8752490" lon="2.0836230">
        <ele>801.8730000</ele>
        <time>2010-09-26T12:40:55Z</time>
      </trkpt>
      <trkpt lat="41.8751370" lon="2.0835020">
        <ele>801.6090000</ele>
        <time>2010-09-26T12:40:58Z</time>
      </trkpt>
      <trkpt lat="41.8751110" lon="2.0832520">
        <ele>800.5260000</ele>
        <time>2010-09-26T12:41:01Z</time>
      </trkpt>
      <trkpt lat="41.8751500" lon="2.0830710">
        <ele>798.9920000</ele>
        <time>2010-09-26T12:41:03Z</time>
      </trkpt>
      <trkpt lat="41.8752380" lon="2.0826980">
        <ele>797.0200000</ele>
        <time>2010-09-26T12:41:07Z</time>
      </trkpt>
      <trkpt lat="41.8753060" lon="2.0821310">
        <ele>794.5450000</ele>
        <time>2010-09-26T12:41:13Z</time>
      </trkpt>
      <trkpt lat="41.8753550" lon="2.0815800">
        <ele>791.8690000</ele>
        <time>2010-09-26T12:41:18Z</time>
      </trkpt>
      <trkpt lat="41.8753710" lon="2.0814710">
        <ele>791.2890000</ele>
        <time>2010-09-26T12:41:19Z</time>
      </trkpt>
      <trkpt lat="41.8753630" lon="2.0811370">
        <ele>789.8400000</ele>
        <time>2010-09-26T12:41:22Z</time>
      </trkpt>
      <trkpt lat="41.8753000" lon="2.0807580">
        <ele>789.9060000</ele>
        <time>2010-09-26T12:41:26Z</time>
      </trkpt>
      <trkpt lat="41.8752500" lon="2.0802290">
        <ele>791.4780000</ele>
        <time>2010-09-26T12:41:33Z</time>
      </trkpt>
      <trkpt lat="41.8752520" lon="2.0797600">
        <ele>789.6640000</ele>
        <time>2010-09-26T12:41:38Z</time>
      </trkpt>
      <trkpt lat="41.8752540" lon="2.0792710">
        <ele>789.0230000</ele>
        <time>2010-09-26T12:41:43Z</time>
      </trkpt>
      <trkpt lat="41.8752440" lon="2.0791010">
        <ele>789.2010000</ele>
        <time>2010-09-26T12:41:45Z</time>
      </trkpt>
      <trkpt lat="41.8751660" lon="2.0788690">
        <ele>789.5320000</ele>
        <time>2010-09-26T12:41:48Z</time>
      </trkpt>
      <trkpt lat="41.8749530" lon="2.0785380">
        <ele>788.7620000</ele>
        <time>2010-09-26T12:41:52Z</time>
      </trkpt>
      <trkpt lat="41.8747430" lon="2.0781870">
        <ele>787.1750000</ele>
        <time>2010-09-26T12:41:56Z</time>
      </trkpt>
      <trkpt lat="41.8744470" lon="2.0777640">
        <ele>786.5440000</ele>
        <time>2010-09-26T12:42:02Z</time>
      </trkpt>
      <trkpt lat="41.8743560" lon="2.0775250">
        <ele>786.6330000</ele>
        <time>2010-09-26T12:42:05Z</time>
      </trkpt>
      <trkpt lat="41.8743180" lon="2.0771340">
        <ele>786.9110000</ele>
        <time>2010-09-26T12:42:10Z</time>
      </trkpt>
      <trkpt lat="41.8743290" lon="2.0770700">
        <ele>787.2220000</ele>
        <time>2010-09-26T12:42:11Z</time>
      </trkpt>
      <trkpt lat="41.8743470" lon="2.0767590">
        <ele>788.5490000</ele>
        <time>2010-09-26T12:42:17Z</time>
      </trkpt>
      <trkpt lat="41.8743310" lon="2.0764820">
        <ele>791.0240000</ele>
        <time>2010-09-26T12:42:23Z</time>
      </trkpt>
      <trkpt lat="41.8743820" lon="2.0761530">
        <ele>793.2000000</ele>
        <time>2010-09-26T12:42:30Z</time>
      </trkpt>
      <trkpt lat="41.8744370" lon="2.0758330">
        <ele>793.1060000</ele>
        <time>2010-09-26T12:42:36Z</time>
      </trkpt>
      <trkpt lat="41.8745390" lon="2.0754360">
        <ele>792.8850000</ele>
        <time>2010-09-26T12:42:43Z</time>
      </trkpt>
      <trkpt lat="41.8745760" lon="2.0752940">
        <ele>793.2350000</ele>
        <time>2010-09-26T12:42:46Z</time>
      </trkpt>
      <trkpt lat="41.8745750" lon="2.0751140">
        <ele>793.5490000</ele>
        <time>2010-09-26T12:42:49Z</time>
      </trkpt>
      <trkpt lat="41.8744910" lon="2.0747360">
        <ele>792.3220000</ele>
        <time>2010-09-26T12:42:54Z</time>
      </trkpt>
      <trkpt lat="41.8744040" lon="2.0742790">
        <ele>790.8810000</ele>
        <time>2010-09-26T12:42:59Z</time>
      </trkpt>
      <trkpt lat="41.8742990" lon="2.0739020">
        <ele>789.1620000</ele>
        <time>2010-09-26T12:43:03Z</time>
      </trkpt>
      <trkpt lat="41.8742630" lon="2.0733900">
        <ele>787.0700000</ele>
        <time>2010-09-26T12:43:08Z</time>
      </trkpt>
      <trkpt lat="41.8741990" lon="2.0728230">
        <ele>784.0590000</ele>
        <time>2010-09-26T12:43:13Z</time>
      </trkpt>
      <trkpt lat="41.8740350" lon="2.0723470">
        <ele>781.1590000</ele>
        <time>2010-09-26T12:43:17Z</time>
      </trkpt>
      <trkpt lat="41.8736490" lon="2.0714270">
        <ele>774.9480000</ele>
        <time>2010-09-26T12:43:25Z</time>
      </trkpt>
      <trkpt lat="41.8735960" lon="2.0713160">
        <ele>773.8480000</ele>
        <time>2010-09-26T12:43:26Z</time>
      </trkpt>
      <trkpt lat="41.8733960" lon="2.0710270">
        <ele>771.0920000</ele>
        <time>2010-09-26T12:43:29Z</time>
      </trkpt>
      <trkpt lat="41.8732910" lon="2.0708540">
        <ele>770.0580000</ele>
        <time>2010-09-26T12:43:31Z</time>
      </trkpt>
      <trkpt lat="41.8732440" lon="2.0706790">
        <ele>768.0360000</ele>
        <time>2010-09-26T12:43:33Z</time>
      </trkpt>
      <trkpt lat="41.8731170" lon="2.0704460">
        <ele>764.9840000</ele>
        <time>2010-09-26T12:43:38Z</time>
      </trkpt>
      <trkpt lat="41.8730420" lon="2.0704290">
        <ele>763.4330000</ele>
        <time>2010-09-26T12:43:40Z</time>
      </trkpt>
      <trkpt lat="41.8728180" lon="2.0704530">
        <ele>758.9820000</ele>
        <time>2010-09-26T12:43:45Z</time>
      </trkpt>
      <trkpt lat="41.8726470" lon="2.0704870">
        <ele>755.6110000</ele>
        <time>2010-09-26T12:43:49Z</time>
      </trkpt>
      <trkpt lat="41.8724520" lon="2.0704460">
        <ele>752.6800000</ele>
        <time>2010-09-26T12:43:53Z</time>
      </trkpt>
      <trkpt lat="41.8722860" lon="2.0702240">
        <ele>751.5520000</ele>
        <time>2010-09-26T12:43:57Z</time>
      </trkpt>
      <trkpt lat="41.8721380" lon="2.0696900">
        <ele>747.7210000</ele>
        <time>2010-09-26T12:44:03Z</time>
      </trkpt>
      <trkpt lat="41.8719500" lon="2.0693980">
        <ele>745.6240000</ele>
        <time>2010-09-26T12:44:07Z</time>
      </trkpt>
      <trkpt lat="41.8716160" lon="2.0690250">
        <ele>742.5180000</ele>
        <time>2010-09-26T12:44:12Z</time>
      </trkpt>
      <trkpt lat="41.8714660" lon="2.0689030">
        <ele>741.7320000</ele>
        <time>2010-09-26T12:44:14Z</time>
      </trkpt>
      <trkpt lat="41.8713950" lon="2.0688380">
        <ele>741.3410000</ele>
        <time>2010-09-26T12:44:15Z</time>
      </trkpt>
      <trkpt lat="41.8712670" lon="2.0686870">
        <ele>740.8900000</ele>
        <time>2010-09-26T12:44:17Z</time>
      </trkpt>
      <trkpt lat="41.8711030" lon="2.0682900">
        <ele>739.0490000</ele>
        <time>2010-09-26T12:44:21Z</time>
      </trkpt>
      <trkpt lat="41.8710920" lon="2.0681790">
        <ele>739.0440000</ele>
        <time>2010-09-26T12:44:22Z</time>
      </trkpt>
      <trkpt lat="41.8709850" lon="2.0673150">
        <ele>734.6310000</ele>
        <time>2010-09-26T12:44:29Z</time>
      </trkpt>
      <trkpt lat="41.8708000" lon="2.0669190">
        <ele>731.6540000</ele>
        <time>2010-09-26T12:44:33Z</time>
      </trkpt>
      <trkpt lat="41.8705460" lon="2.0665770">
        <ele>730.2780000</ele>
        <time>2010-09-26T12:44:37Z</time>
      </trkpt>
      <trkpt lat="41.8704780" lon="2.0662560">
        <ele>728.6900000</ele>
        <time>2010-09-26T12:44:40Z</time>
      </trkpt>
      <trkpt lat="41.8704640" lon="2.0661440">
        <ele>728.1380000</ele>
        <time>2010-09-26T12:44:41Z</time>
      </trkpt>
      <trkpt lat="41.8704130" lon="2.0655800">
        <ele>725.5560000</ele>
        <time>2010-09-26T12:44:46Z</time>
      </trkpt>
      <trkpt lat="41.8702370" lon="2.0652190">
        <ele>724.6090000</ele>
        <time>2010-09-26T12:44:50Z</time>
      </trkpt>
      <trkpt lat="41.8701310" lon="2.0650330">
        <ele>723.1760000</ele>
        <time>2010-09-26T12:44:52Z</time>
      </trkpt>
      <trkpt lat="41.8701130" lon="2.0646990">
        <ele>720.4560000</ele>
        <time>2010-09-26T12:44:56Z</time>
      </trkpt>
      <trkpt lat="41.8701960" lon="2.0642440">
        <ele>717.3710000</ele>
        <time>2010-09-26T12:45:01Z</time>
      </trkpt>
      <trkpt lat="41.8700730" lon="2.0638310">
        <ele>714.8130000</ele>
        <time>2010-09-26T12:45:05Z</time>
      </trkpt>
      <trkpt lat="41.8699790" lon="2.0636420">
        <ele>713.5260000</ele>
        <time>2010-09-26T12:45:07Z</time>
      </trkpt>
      <trkpt lat="41.8699360" lon="2.0632350">
        <ele>710.9770000</ele>
        <time>2010-09-26T12:45:11Z</time>
      </trkpt>
      <trkpt lat="41.8699590" lon="2.0631310">
        <ele>710.9780000</ele>
        <time>2010-09-26T12:45:12Z</time>
      </trkpt>
      <trkpt lat="41.8700150" lon="2.0629150">
        <ele>709.6970000</ele>
        <time>2010-09-26T12:45:14Z</time>
      </trkpt>
      <trkpt lat="41.8700410" lon="2.0627990">
        <ele>709.0090000</ele>
        <time>2010-09-26T12:45:15Z</time>
      </trkpt>
      <trkpt lat="41.8700010" lon="2.0624140">
        <ele>705.9950000</ele>
        <time>2010-09-26T12:45:19Z</time>
      </trkpt>
      <trkpt lat="41.8699350" lon="2.0619600">
        <ele>704.2140000</ele>
        <time>2010-09-26T12:45:24Z</time>
      </trkpt>
      <trkpt lat="41.8701680" lon="2.0612780">
        <ele>702.1000000</ele>
        <time>2010-09-26T12:45:31Z</time>
      </trkpt>
      <trkpt lat="41.8702170" lon="2.0611780">
        <ele>701.6110000</ele>
        <time>2010-09-26T12:45:32Z</time>
      </trkpt>
      <trkpt lat="41.8704090" lon="2.0609360">
        <ele>699.9030000</ele>
        <time>2010-09-26T12:45:35Z</time>
      </trkpt>
      <trkpt lat="41.8705040" lon="2.0606090">
        <ele>698.8110000</ele>
        <time>2010-09-26T12:45:39Z</time>
      </trkpt>
      <trkpt lat="41.8704780" lon="2.0605240">
        <ele>698.7690000</ele>
        <time>2010-09-26T12:45:40Z</time>
      </trkpt>
      <trkpt lat="41.8703080" lon="2.0599480">
        <ele>696.3160000</ele>
        <time>2010-09-26T12:45:46Z</time>
      </trkpt>
      <trkpt lat="41.8702240" lon="2.0595320">
        <ele>695.1390000</ele>
        <time>2010-09-26T12:45:50Z</time>
      </trkpt>
      <trkpt lat="41.8702910" lon="2.0591320">
        <ele>693.5270000</ele>
        <time>2010-09-26T12:45:54Z</time>
      </trkpt>
      <trkpt lat="41.8704890" lon="2.0589540">
        <ele>691.9440000</ele>
        <time>2010-09-26T12:45:57Z</time>
      </trkpt>
      <trkpt lat="41.8705710" lon="2.0589150">
        <ele>691.2720000</ele>
        <time>2010-09-26T12:45:58Z</time>
      </trkpt>
      <trkpt lat="41.8708310" lon="2.0587900">
        <ele>689.7050000</ele>
        <time>2010-09-26T12:46:01Z</time>
      </trkpt>
      <trkpt lat="41.8710430" lon="2.0584640">
        <ele>688.7490000</ele>
        <time>2010-09-26T12:46:05Z</time>
      </trkpt>
      <trkpt lat="41.8710180" lon="2.0581140">
        <ele>687.2230000</ele>
        <time>2010-09-26T12:46:08Z</time>
      </trkpt>
      <trkpt lat="41.8709950" lon="2.0579910">
        <ele>686.5660000</ele>
        <time>2010-09-26T12:46:09Z</time>
      </trkpt>
      <trkpt lat="41.8709370" lon="2.0577440">
        <ele>685.1660000</ele>
        <time>2010-09-26T12:46:11Z</time>
      </trkpt>
      <trkpt lat="41.8706500" lon="2.0572100">
        <ele>682.0310000</ele>
        <time>2010-09-26T12:46:16Z</time>
      </trkpt>
      <trkpt lat="41.8705880" lon="2.0571150">
        <ele>682.0310000</ele>
        <time>2010-09-26T12:46:17Z</time>
      </trkpt>
      <trkpt lat="41.8705290" lon="2.0570210">
        <ele>681.4580000</ele>
        <time>2010-09-26T12:46:18Z</time>
      </trkpt>
      <trkpt lat="41.8702400" lon="2.0564780">
        <ele>679.4820000</ele>
        <time>2010-09-26T12:46:24Z</time>
      </trkpt>
      <trkpt lat="41.8699990" lon="2.0561210">
        <ele>679.7700000</ele>
        <time>2010-09-26T12:46:29Z</time>
      </trkpt>
      <trkpt lat="41.8699530" lon="2.0560370">
        <ele>679.7230000</ele>
        <time>2010-09-26T12:46:30Z</time>
      </trkpt>
      <trkpt lat="41.8697770" lon="2.0554980">
        <ele>677.8940000</ele>
        <time>2010-09-26T12:46:35Z</time>
      </trkpt>
      <trkpt lat="41.8695420" lon="2.0548050">
        <ele>675.6680000</ele>
        <time>2010-09-26T12:46:41Z</time>
      </trkpt>
      <trkpt lat="41.8692950" lon="2.0544660">
        <ele>674.7290000</ele>
        <time>2010-09-26T12:46:45Z</time>
      </trkpt>
      <trkpt lat="41.8688670" lon="2.0539820">
        <ele>674.0790000</ele>
        <time>2010-09-26T12:46:52Z</time>
      </trkpt>
      <trkpt lat="41.8686110" lon="2.0537040">
        <ele>674.7030000</ele>
        <time>2010-09-26T12:46:57Z</time>
      </trkpt>
      <trkpt lat="41.8684960" lon="2.0534370">
        <ele>675.1450000</ele>
        <time>2010-09-26T12:47:01Z</time>
      </trkpt>
      <trkpt lat="41.8683840" lon="2.0529290">
        <ele>674.0770000</ele>
        <time>2010-09-26T12:47:08Z</time>
      </trkpt>
      <trkpt lat="41.8682650" lon="2.0524310">
        <ele>672.1480000</ele>
        <time>2010-09-26T12:47:14Z</time>
      </trkpt>
      <trkpt lat="41.8681350" lon="2.0518260">
        <ele>669.7350000</ele>
        <time>2010-09-26T12:47:20Z</time>
      </trkpt>
      <trkpt lat="41.8679240" lon="2.0513000">
        <ele>666.6260000</ele>
        <time>2010-09-26T12:47:25Z</time>
      </trkpt>
      <trkpt lat="41.8677290" lon="2.0508960">
        <ele>664.8420000</ele>
        <time>2010-09-26T12:47:29Z</time>
      </trkpt>
      <trkpt lat="41.8674050" lon="2.0506760">
        <ele>663.4110000</ele>
        <time>2010-09-26T12:47:33Z</time>
      </trkpt>
      <trkpt lat="41.8670750" lon="2.0505380">
        <ele>661.8090000</ele>
        <time>2010-09-26T12:47:37Z</time>
      </trkpt>
      <trkpt lat="41.8669140" lon="2.0503110">
        <ele>661.1920000</ele>
        <time>2010-09-26T12:47:40Z</time>
      </trkpt>
      <trkpt lat="41.8666780" lon="2.0497450">
        <ele>661.3320000</ele>
        <time>2010-09-26T12:47:47Z</time>
      </trkpt>
      <trkpt lat="41.8665790" lon="2.0493530">
        <ele>661.4650000</ele>
        <time>2010-09-26T12:47:52Z</time>
      </trkpt>
      <trkpt lat="41.8665560" lon="2.0491880">
        <ele>661.7310000</ele>
        <time>2010-09-26T12:47:54Z</time>
      </trkpt>
      <trkpt lat="41.8665480" lon="2.0490160">
        <ele>661.7890000</ele>
        <time>2010-09-26T12:47:56Z</time>
      </trkpt>
      <trkpt lat="41.8665620" lon="2.0486960">
        <ele>661.8920000</ele>
        <time>2010-09-26T12:48:00Z</time>
      </trkpt>
      <trkpt lat="41.8666740" lon="2.0479810">
        <ele>661.9360000</ele>
        <time>2010-09-26T12:48:08Z</time>
      </trkpt>
      <trkpt lat="41.8666830" lon="2.0479050">
        <ele>661.9460000</ele>
        <time>2010-09-26T12:48:09Z</time>
      </trkpt>
      <trkpt lat="41.8666780" lon="2.0475990">
        <ele>662.5350000</ele>
        <time>2010-09-26T12:48:13Z</time>
      </trkpt>
      <trkpt lat="41.8666300" lon="2.0473100">
        <ele>663.4060000</ele>
        <time>2010-09-26T12:48:17Z</time>
      </trkpt>
      <trkpt lat="41.8664690" lon="2.0469310">
        <ele>664.2210000</ele>
        <time>2010-09-26T12:48:24Z</time>
      </trkpt>
      <trkpt lat="41.8664430" lon="2.0468230">
        <ele>664.4900000</ele>
        <time>2010-09-26T12:48:26Z</time>
      </trkpt>
      <trkpt lat="41.8664310" lon="2.0465620">
        <ele>663.9310000</ele>
        <time>2010-09-26T12:48:30Z</time>
      </trkpt>
      <trkpt lat="41.8662970" lon="2.0461930">
        <ele>663.0670000</ele>
        <time>2010-09-26T12:48:35Z</time>
      </trkpt>
      <trkpt lat="41.8662310" lon="2.0460430">
        <ele>662.6210000</ele>
        <time>2010-09-26T12:48:37Z</time>
      </trkpt>
      <trkpt lat="41.8660190" lon="2.0458050">
        <ele>661.5260000</ele>
        <time>2010-09-26T12:48:41Z</time>
      </trkpt>
      <trkpt lat="41.8658700" lon="2.0457980">
        <ele>659.7280000</ele>
        <time>2010-09-26T12:48:43Z</time>
      </trkpt>
      <trkpt lat="41.8656960" lon="2.0458310">
        <ele>657.4130000</ele>
        <time>2010-09-26T12:48:45Z</time>
      </trkpt>
      <trkpt lat="41.8654370" lon="2.0457870">
        <ele>655.7000000</ele>
        <time>2010-09-26T12:48:48Z</time>
      </trkpt>
      <trkpt lat="41.8652140" lon="2.0456620">
        <ele>655.5690000</ele>
        <time>2010-09-26T12:48:51Z</time>
      </trkpt>
      <trkpt lat="41.8649730" lon="2.0455150">
        <ele>656.1400000</ele>
        <time>2010-09-26T12:48:55Z</time>
      </trkpt>
      <trkpt lat="41.8647720" lon="2.0453350">
        <ele>656.8110000</ele>
        <time>2010-09-26T12:48:59Z</time>
      </trkpt>
      <trkpt lat="41.8645030" lon="2.0451290">
        <ele>657.4580000</ele>
        <time>2010-09-26T12:49:04Z</time>
      </trkpt>
      <trkpt lat="41.8643320" lon="2.0448700">
        <ele>657.1670000</ele>
        <time>2010-09-26T12:49:08Z</time>
      </trkpt>
      <trkpt lat="41.8643070" lon="2.0447790">
        <ele>656.8190000</ele>
        <time>2010-09-26T12:49:09Z</time>
      </trkpt>
      <trkpt lat="41.8641540" lon="2.0444720">
        <ele>653.6980000</ele>
        <time>2010-09-26T12:49:14Z</time>
      </trkpt>
      <trkpt lat="41.8640990" lon="2.0444690">
        <ele>653.1540000</ele>
        <time>2010-09-26T12:49:15Z</time>
      </trkpt>
      <trkpt lat="41.8637980" lon="2.0443190">
        <ele>650.2040000</ele>
        <time>2010-09-26T12:49:20Z</time>
      </trkpt>
      <trkpt lat="41.8636590" lon="2.0441190">
        <ele>649.7060000</ele>
        <time>2010-09-26T12:49:23Z</time>
      </trkpt>
      <trkpt lat="41.8633960" lon="2.0438830">
        <ele>648.5240000</ele>
        <time>2010-09-26T12:49:27Z</time>
      </trkpt>
      <trkpt lat="41.8632300" lon="2.0437930">
        <ele>647.4770000</ele>
        <time>2010-09-26T12:49:29Z</time>
      </trkpt>
      <trkpt lat="41.8629850" lon="2.0434980">
        <ele>645.6570000</ele>
        <time>2010-09-26T12:49:33Z</time>
      </trkpt>
      <trkpt lat="41.8629960" lon="2.0432210">
        <ele>643.8720000</ele>
        <time>2010-09-26T12:49:36Z</time>
      </trkpt>
      <trkpt lat="41.8631150" lon="2.0426430">
        <ele>638.7710000</ele>
        <time>2010-09-26T12:49:42Z</time>
      </trkpt>
      <trkpt lat="41.8631390" lon="2.0422470">
        <ele>636.2190000</ele>
        <time>2010-09-26T12:49:47Z</time>
      </trkpt>
      <trkpt lat="41.8631350" lon="2.0419930">
        <ele>635.5030000</ele>
        <time>2010-09-26T12:49:51Z</time>
      </trkpt>
      <trkpt lat="41.8629990" lon="2.0418330">
        <ele>635.4550000</ele>
        <time>2010-09-26T12:49:55Z</time>
      </trkpt>
      <trkpt lat="41.8629570" lon="2.0418040">
        <ele>635.5560000</ele>
        <time>2010-09-26T12:49:56Z</time>
      </trkpt>
      <trkpt lat="41.8626170" lon="2.0415630">
        <ele>636.1390000</ele>
        <time>2010-09-26T12:50:04Z</time>
      </trkpt>
      <trkpt lat="41.8623780" lon="2.0413680">
        <ele>636.8630000</ele>
        <time>2010-09-26T12:50:10Z</time>
      </trkpt>
      <trkpt lat="41.8621220" lon="2.0413030">
        <ele>637.1940000</ele>
        <time>2010-09-26T12:50:16Z</time>
      </trkpt>
      <trkpt lat="41.8620800" lon="2.0413230">
        <ele>637.1110000</ele>
        <time>2010-09-26T12:50:17Z</time>
      </trkpt>
      <trkpt lat="41.8616910" lon="2.0414660">
        <ele>639.2780000</ele>
        <time>2010-09-26T12:50:27Z</time>
      </trkpt>
      <trkpt lat="41.8615570" lon="2.0414610">
        <ele>638.9060000</ele>
        <time>2010-09-26T12:50:30Z</time>
      </trkpt>
      <trkpt lat="41.8613100" lon="2.0413000">
        <ele>637.4670000</ele>
        <time>2010-09-26T12:50:35Z</time>
      </trkpt>
      <trkpt lat="41.8612650" lon="2.0412460">
        <ele>636.9540000</ele>
        <time>2010-09-26T12:50:36Z</time>
      </trkpt>
      <trkpt lat="41.8610830" lon="2.0408470">
        <ele>636.7490000</ele>
        <time>2010-09-26T12:50:42Z</time>
      </trkpt>
      <trkpt lat="41.8609690" lon="2.0402980">
        <ele>637.3350000</ele>
        <time>2010-09-26T12:50:50Z</time>
      </trkpt>
      <trkpt lat="41.8609150" lon="2.0399730">
        <ele>638.7070000</ele>
        <time>2010-09-26T12:50:56Z</time>
      </trkpt>
      <trkpt lat="41.8608500" lon="2.0395330">
        <ele>640.6960000</ele>
        <time>2010-09-26T12:51:04Z</time>
      </trkpt>
      <trkpt lat="41.8607650" lon="2.0393320">
        <ele>641.1290000</ele>
        <time>2010-09-26T12:51:08Z</time>
      </trkpt>
      <trkpt lat="41.8605900" lon="2.0391370">
        <ele>641.5090000</ele>
        <time>2010-09-26T12:51:13Z</time>
      </trkpt>
      <trkpt lat="41.8603620" lon="2.0388910">
        <ele>641.2520000</ele>
        <time>2010-09-26T12:51:19Z</time>
      </trkpt>
      <trkpt lat="41.8601810" lon="2.0385070">
        <ele>640.3860000</ele>
        <time>2010-09-26T12:51:25Z</time>
      </trkpt>
      <trkpt lat="41.8600560" lon="2.0380460">
        <ele>639.0790000</ele>
        <time>2010-09-26T12:51:30Z</time>
      </trkpt>
      <trkpt lat="41.8599840" lon="2.0375290">
        <ele>638.8130000</ele>
        <time>2010-09-26T12:51:36Z</time>
      </trkpt>
      <trkpt lat="41.8599070" lon="2.0372410">
        <ele>638.5800000</ele>
        <time>2010-09-26T12:51:40Z</time>
      </trkpt>
      <trkpt lat="41.8598820" lon="2.0371740">
        <ele>638.4600000</ele>
        <time>2010-09-26T12:51:41Z</time>
      </trkpt>
      <trkpt lat="41.8597370" lon="2.0369140">
        <ele>637.6960000</ele>
        <time>2010-09-26T12:51:45Z</time>
      </trkpt>
      <trkpt lat="41.8595050" lon="2.0366190">
        <ele>636.8120000</ele>
        <time>2010-09-26T12:51:50Z</time>
      </trkpt>
      <trkpt lat="41.8592190" lon="2.0364550">
        <ele>637.7840000</ele>
        <time>2010-09-26T12:51:56Z</time>
      </trkpt>
      <trkpt lat="41.8588100" lon="2.0363240">
        <ele>639.1170000</ele>
        <time>2010-09-26T12:52:05Z</time>
      </trkpt>
      <trkpt lat="41.8585610" lon="2.0361270">
        <ele>639.1760000</ele>
        <time>2010-09-26T12:52:11Z</time>
      </trkpt>
      <trkpt lat="41.8582450" lon="2.0359400">
        <ele>640.6200000</ele>
        <time>2010-09-26T12:52:19Z</time>
      </trkpt>
      <trkpt lat="41.8580820" lon="2.0357980">
        <ele>641.5920000</ele>
        <time>2010-09-26T12:52:24Z</time>
      </trkpt>
      <trkpt lat="41.8579070" lon="2.0357920">
        <ele>641.5710000</ele>
        <time>2010-09-26T12:52:28Z</time>
      </trkpt>
      <trkpt lat="41.8574740" lon="2.0357920">
        <ele>641.0840000</ele>
        <time>2010-09-26T12:52:38Z</time>
      </trkpt>
      <trkpt lat="41.8572980" lon="2.0357500">
        <ele>641.2290000</ele>
        <time>2010-09-26T12:52:42Z</time>
      </trkpt>
      <trkpt lat="41.8570420" lon="2.0355430">
        <ele>641.2130000</ele>
        <time>2010-09-26T12:52:49Z</time>
      </trkpt>
      <trkpt lat="41.8568200" lon="2.0352260">
        <ele>641.3320000</ele>
        <time>2010-09-26T12:52:57Z</time>
      </trkpt>
      <trkpt lat="41.8566750" lon="2.0349440">
        <ele>642.9200000</ele>
        <time>2010-09-26T12:53:05Z</time>
      </trkpt>
      <trkpt lat="41.8565930" lon="2.0347470">
        <ele>644.4210000</ele>
        <time>2010-09-26T12:53:12Z</time>
      </trkpt>
      <trkpt lat="41.8564590" lon="2.0345060">
        <ele>646.6700000</ele>
        <time>2010-09-26T12:53:22Z</time>
      </trkpt>
      <trkpt lat="41.8563430" lon="2.0344010">
        <ele>648.5980000</ele>
        <time>2010-09-26T12:53:29Z</time>
      </trkpt>
      <trkpt lat="41.8562390" lon="2.0343140">
        <ele>650.4360000</ele>
        <time>2010-09-26T12:53:36Z</time>
      </trkpt>
      <trkpt lat="41.8561410" lon="2.0342210">
        <ele>652.2190000</ele>
        <time>2010-09-26T12:53:43Z</time>
      </trkpt>
      <trkpt lat="41.8560550" lon="2.0341470">
        <ele>653.5710000</ele>
        <time>2010-09-26T12:53:49Z</time>
      </trkpt>
      <trkpt lat="41.8559790" lon="2.0340090">
        <ele>655.8010000</ele>
        <time>2010-09-26T12:53:58Z</time>
      </trkpt>
      <trkpt lat="41.8559190" lon="2.0338770">
        <ele>656.9070000</ele>
        <time>2010-09-26T12:54:06Z</time>
      </trkpt>
      <trkpt lat="41.8558570" lon="2.0337700">
        <ele>658.6900000</ele>
        <time>2010-09-26T12:54:13Z</time>
      </trkpt>
      <trkpt lat="41.8558310" lon="2.0336340">
        <ele>659.9530000</ele>
        <time>2010-09-26T12:54:20Z</time>
      </trkpt>
      <trkpt lat="41.8558100" lon="2.0335400">
        <ele>661.0740000</ele>
        <time>2010-09-26T12:54:25Z</time>
      </trkpt>
      <trkpt lat="41.8557910" lon="2.0334310">
        <ele>661.5700000</ele>
        <time>2010-09-26T12:54:31Z</time>
      </trkpt>
      <trkpt lat="41.8557870" lon="2.0333440">
        <ele>662.3400000</ele>
        <time>2010-09-26T12:54:36Z</time>
      </trkpt>
      <trkpt lat="41.8557850" lon="2.0333290">
        <ele>662.4420000</ele>
        <time>2010-09-26T12:54:37Z</time>
      </trkpt>
      <trkpt lat="41.8558160" lon="2.0331950">
        <ele>663.2470000</ele>
        <time>2010-09-26T12:54:44Z</time>
      </trkpt>
      <trkpt lat="41.8558620" lon="2.0330240">
        <ele>663.7540000</ele>
        <time>2010-09-26T12:54:50Z</time>
      </trkpt>
      <trkpt lat="41.8558660" lon="2.0328360">
        <ele>664.4220000</ele>
        <time>2010-09-26T12:54:56Z</time>
      </trkpt>
      <trkpt lat="41.8558760" lon="2.0326360">
        <ele>665.1930000</ele>
        <time>2010-09-26T12:55:03Z</time>
      </trkpt>
      <trkpt lat="41.8558160" lon="2.0324420">
        <ele>666.2890000</ele>
        <time>2010-09-26T12:55:10Z</time>
      </trkpt>
      <trkpt lat="41.8556680" lon="2.0322730">
        <ele>666.1840000</ele>
        <time>2010-09-26T12:55:17Z</time>
      </trkpt>
      <trkpt lat="41.8554770" lon="2.0321490">
        <ele>666.0470000</ele>
        <time>2010-09-26T12:55:23Z</time>
      </trkpt>
      <trkpt lat="41.8552810" lon="2.0320720">
        <ele>665.9210000</ele>
        <time>2010-09-26T12:55:28Z</time>
      </trkpt>
      <trkpt lat="41.8549860" lon="2.0319830">
        <ele>664.5950000</ele>
        <time>2010-09-26T12:55:34Z</time>
      </trkpt>
      <trkpt lat="41.8547340" lon="2.0320960">
        <ele>662.7310000</ele>
        <time>2010-09-26T12:55:38Z</time>
      </trkpt>
      <trkpt lat="41.8546970" lon="2.0321780">
        <ele>662.4560000</ele>
        <time>2010-09-26T12:55:39Z</time>
      </trkpt>
      <trkpt lat="41.8546540" lon="2.0324830">
        <ele>661.6930000</ele>
        <time>2010-09-26T12:55:42Z</time>
      </trkpt>
      <trkpt lat="41.8545530" lon="2.0327200">
        <ele>660.2360000</ele>
        <time>2010-09-26T12:55:45Z</time>
      </trkpt>
      <trkpt lat="41.8543610" lon="2.0327840">
        <ele>659.1380000</ele>
        <time>2010-09-26T12:55:48Z</time>
      </trkpt>
      <trkpt lat="41.8540510" lon="2.0326980">
        <ele>657.6650000</ele>
        <time>2010-09-26T12:55:53Z</time>
      </trkpt>
      <trkpt lat="41.8539260" lon="2.0326180">
        <ele>657.3430000</ele>
        <time>2010-09-26T12:55:55Z</time>
      </trkpt>
      <trkpt lat="41.8534720" lon="2.0324120">
        <ele>654.2160000</ele>
        <time>2010-09-26T12:56:01Z</time>
      </trkpt>
      <trkpt lat="41.8532270" lon="2.0322600">
        <ele>651.9240000</ele>
        <time>2010-09-26T12:56:04Z</time>
      </trkpt>
      <trkpt lat="41.8529770" lon="2.0321590">
        <ele>650.1610000</ele>
        <time>2010-09-26T12:56:07Z</time>
      </trkpt>
      <trkpt lat="41.8528110" lon="2.0320870">
        <ele>648.2370000</ele>
        <time>2010-09-26T12:56:09Z</time>
      </trkpt>
      <trkpt lat="41.8523990" lon="2.0318670">
        <ele>641.9910000</ele>
        <time>2010-09-26T12:56:14Z</time>
      </trkpt>
      <trkpt lat="41.8521060" lon="2.0316650">
        <ele>636.6820000</ele>
        <time>2010-09-26T12:56:18Z</time>
      </trkpt>
      <trkpt lat="41.8518440" lon="2.0315020">
        <ele>633.3250000</ele>
        <time>2010-09-26T12:56:21Z</time>
      </trkpt>
      <trkpt lat="41.8514620" lon="2.0314630">
        <ele>630.7750000</ele>
        <time>2010-09-26T12:56:25Z</time>
      </trkpt>
      <trkpt lat="41.8511890" lon="2.0314160">
        <ele>628.8650000</ele>
        <time>2010-09-26T12:56:28Z</time>
      </trkpt>
      <trkpt lat="41.8511050" lon="2.0313610">
        <ele>628.0990000</ele>
        <time>2010-09-26T12:56:29Z</time>
      </trkpt>
      <trkpt lat="41.8507070" lon="2.0310850">
        <ele>626.4010000</ele>
        <time>2010-09-26T12:56:34Z</time>
      </trkpt>
      <trkpt lat="41.8504610" lon="2.0309830">
        <ele>625.4280000</ele>
        <time>2010-09-26T12:56:37Z</time>
      </trkpt>
      <trkpt lat="41.8500520" lon="2.0307600">
        <ele>623.1210000</ele>
        <time>2010-09-26T12:56:42Z</time>
      </trkpt>
      <trkpt lat="41.8498010" lon="2.0304690">
        <ele>620.6620000</ele>
        <time>2010-09-26T12:56:46Z</time>
      </trkpt>
      <trkpt lat="41.8495130" lon="2.0301100">
        <ele>618.2170000</ele>
        <time>2010-09-26T12:56:51Z</time>
      </trkpt>
      <trkpt lat="41.8492970" lon="2.0299550">
        <ele>616.9380000</ele>
        <time>2010-09-26T12:56:54Z</time>
      </trkpt>
      <trkpt lat="41.8490300" lon="2.0296780">
        <ele>615.6630000</ele>
        <time>2010-09-26T12:56:58Z</time>
      </trkpt>
      <trkpt lat="41.8487790" lon="2.0295890">
        <ele>613.8620000</ele>
        <time>2010-09-26T12:57:01Z</time>
      </trkpt>
      <trkpt lat="41.8486170" lon="2.0295650">
        <ele>613.1370000</ele>
        <time>2010-09-26T12:57:03Z</time>
      </trkpt>
      <trkpt lat="41.8480640" lon="2.0295410">
        <ele>610.8040000</ele>
        <time>2010-09-26T12:57:10Z</time>
      </trkpt>
      <trkpt lat="41.8477970" lon="2.0296690">
        <ele>610.4200000</ele>
        <time>2010-09-26T12:57:14Z</time>
      </trkpt>
      <trkpt lat="41.8474920" lon="2.0301710">
        <ele>609.9690000</ele>
        <time>2010-09-26T12:57:21Z</time>
      </trkpt>
      <trkpt lat="41.8474070" lon="2.0303390">
        <ele>609.2630000</ele>
        <time>2010-09-26T12:57:23Z</time>
      </trkpt>
      <trkpt lat="41.8473260" lon="2.0307320">
        <ele>608.2040000</ele>
        <time>2010-09-26T12:57:27Z</time>
      </trkpt>
      <trkpt lat="41.8472530" lon="2.0311490">
        <ele>607.7780000</ele>
        <time>2010-09-26T12:57:32Z</time>
      </trkpt>
      <trkpt lat="41.8471150" lon="2.0313370">
        <ele>608.0140000</ele>
        <time>2010-09-26T12:57:37Z</time>
      </trkpt>
      <trkpt lat="41.8469840" lon="2.0313740">
        <ele>607.9230000</ele>
        <time>2010-09-26T12:57:40Z</time>
      </trkpt>
      <trkpt lat="41.8465720" lon="2.0313910">
        <ele>607.0190000</ele>
        <time>2010-09-26T12:57:48Z</time>
      </trkpt>
      <trkpt lat="41.8462440" lon="2.0313880">
        <ele>606.7230000</ele>
        <time>2010-09-26T12:57:54Z</time>
      </trkpt>
      <trkpt lat="41.8459590" lon="2.0314160">
        <ele>605.8770000</ele>
        <time>2010-09-26T12:57:59Z</time>
      </trkpt>
      <trkpt lat="41.8455040" lon="2.0314280">
        <ele>604.6000000</ele>
        <time>2010-09-26T12:58:06Z</time>
      </trkpt>
      <trkpt lat="41.8451220" lon="2.0315430">
        <ele>603.5280000</ele>
        <time>2010-09-26T12:58:12Z</time>
      </trkpt>
      <trkpt lat="41.8450660" lon="2.0315590">
        <ele>603.5260000</ele>
        <time>2010-09-26T12:58:13Z</time>
      </trkpt>
      <trkpt lat="41.8447110" lon="2.0315300">
        <ele>603.1120000</ele>
        <time>2010-09-26T12:58:19Z</time>
      </trkpt>
      <trkpt lat="41.8443740" lon="2.0315280">
        <ele>603.1250000</ele>
        <time>2010-09-26T12:58:25Z</time>
      </trkpt>
      <trkpt lat="41.8440780" lon="2.0316530">
        <ele>603.5670000</ele>
        <time>2010-09-26T12:58:31Z</time>
      </trkpt>
      <trkpt lat="41.8438540" lon="2.0317530">
        <ele>604.3890000</ele>
        <time>2010-09-26T12:58:36Z</time>
      </trkpt>
      <trkpt lat="41.8437250" lon="2.0317790">
        <ele>604.6670000</ele>
        <time>2010-09-26T12:58:39Z</time>
      </trkpt>
      <trkpt lat="41.8434530" lon="2.0317870">
        <ele>605.6860000</ele>
        <time>2010-09-26T12:58:45Z</time>
      </trkpt>
      <trkpt lat="41.8432580" lon="2.0318700">
        <ele>605.9180000</ele>
        <time>2010-09-26T12:58:49Z</time>
      </trkpt>
      <trkpt lat="41.8428780" lon="2.0322230">
        <ele>605.6280000</ele>
        <time>2010-09-26T12:58:58Z</time>
      </trkpt>
      <trkpt lat="41.8428330" lon="2.0322550">
        <ele>605.5380000</ele>
        <time>2010-09-26T12:58:59Z</time>
      </trkpt>
      <trkpt lat="41.8427330" lon="2.0323080">
        <ele>605.2270000</ele>
        <time>2010-09-26T12:59:01Z</time>
      </trkpt>
      <trkpt lat="41.8423900" lon="2.0323450">
        <ele>604.5920000</ele>
        <time>2010-09-26T12:59:07Z</time>
      </trkpt>
      <trkpt lat="41.8421270" lon="2.0323520">
        <ele>604.4000000</ele>
        <time>2010-09-26T12:59:12Z</time>
      </trkpt>
      <trkpt lat="41.8420360" lon="2.0324120">
        <ele>604.4170000</ele>
        <time>2010-09-26T12:59:14Z</time>
      </trkpt>
      <trkpt lat="41.8418810" lon="2.0325490">
        <ele>605.4590000</ele>
        <time>2010-09-26T12:59:19Z</time>
      </trkpt>
      <trkpt lat="41.8417390" lon="2.0325920">
        <ele>606.9350000</ele>
        <time>2010-09-26T12:59:24Z</time>
      </trkpt>
      <trkpt lat="41.8415910" lon="2.0326410">
        <ele>608.1990000</ele>
        <time>2010-09-26T12:59:29Z</time>
      </trkpt>
      <trkpt lat="41.8415630" lon="2.0326980">
        <ele>609.0060000</ele>
        <time>2010-09-26T12:59:31Z</time>
      </trkpt>
      <trkpt lat="41.8415430" lon="2.0329660">
        <ele>612.3660000</ele>
        <time>2010-09-26T12:59:40Z</time>
      </trkpt>
      <trkpt lat="41.8415160" lon="2.0330290">
        <ele>612.7000000</ele>
        <time>2010-09-26T12:59:42Z</time>
      </trkpt>
      <trkpt lat="41.8413090" lon="2.0331160">
        <ele>612.7440000</ele>
        <time>2010-09-26T12:59:49Z</time>
      </trkpt>
      <trkpt lat="41.8410110" lon="2.0331660">
        <ele>613.6090000</ele>
        <time>2010-09-26T12:59:59Z</time>
      </trkpt>
      <trkpt lat="41.8408340" lon="2.0331850">
        <ele>614.6620000</ele>
        <time>2010-09-26T13:00:05Z</time>
      </trkpt>
      <trkpt lat="41.8405430" lon="2.0331870">
        <ele>614.6600000</ele>
        <time>2010-09-26T13:00:14Z</time>
      </trkpt>
      <trkpt lat="41.8404610" lon="2.0331820">
        <ele>614.5530000</ele>
        <time>2010-09-26T13:00:16Z</time>
      </trkpt>
      <trkpt lat="41.8402600" lon="2.0331930">
        <ele>614.1170000</ele>
        <time>2010-09-26T13:00:20Z</time>
      </trkpt>
      <trkpt lat="41.8400520" lon="2.0332740">
        <ele>613.1460000</ele>
        <time>2010-09-26T13:00:24Z</time>
      </trkpt>
      <trkpt lat="41.8396440" lon="2.0336430">
        <ele>611.1720000</ele>
        <time>2010-09-26T13:00:31Z</time>
      </trkpt>
      <trkpt lat="41.8392560" lon="2.0340210">
        <ele>609.5200000</ele>
        <time>2010-09-26T13:00:38Z</time>
      </trkpt>
      <trkpt lat="41.8389570" lon="2.0341700">
        <ele>608.6140000</ele>
        <time>2010-09-26T13:00:44Z</time>
      </trkpt>
      <trkpt lat="41.8388770" lon="2.0341530">
        <ele>608.7820000</ele>
        <time>2010-09-26T13:00:46Z</time>
      </trkpt>
      <trkpt lat="41.8386790" lon="2.0340240">
        <ele>611.3480000</ele>
        <time>2010-09-26T13:00:53Z</time>
      </trkpt>
      <trkpt lat="41.8385450" lon="2.0338860">
        <ele>613.2560000</ele>
        <time>2010-09-26T13:00:59Z</time>
      </trkpt>
      <trkpt lat="41.8383960" lon="2.0337150">
        <ele>615.0440000</ele>
        <time>2010-09-26T13:01:06Z</time>
      </trkpt>
      <trkpt lat="41.8382240" lon="2.0335020">
        <ele>615.9260000</ele>
        <time>2010-09-26T13:01:13Z</time>
      </trkpt>
      <trkpt lat="41.8380570" lon="2.0332590">
        <ele>617.1250000</ele>
        <time>2010-09-26T13:01:20Z</time>
      </trkpt>
      <trkpt lat="41.8378760" lon="2.0330700">
        <ele>616.1570000</ele>
        <time>2010-09-26T13:01:26Z</time>
      </trkpt>
      <trkpt lat="41.8377190" lon="2.0329400">
        <ele>616.8620000</ele>
        <time>2010-09-26T13:01:31Z</time>
      </trkpt>
      <trkpt lat="41.8375260" lon="2.0327640">
        <ele>617.8690000</ele>
        <time>2010-09-26T13:01:38Z</time>
      </trkpt>
      <trkpt lat="41.8373260" lon="2.0324960">
        <ele>618.7800000</ele>
        <time>2010-09-26T13:01:46Z</time>
      </trkpt>
      <trkpt lat="41.8371990" lon="2.0323640">
        <ele>619.0600000</ele>
        <time>2010-09-26T13:01:51Z</time>
      </trkpt>
      <trkpt lat="41.8370420" lon="2.0323840">
        <ele>619.3610000</ele>
        <time>2010-09-26T13:01:56Z</time>
      </trkpt>
      <trkpt lat="41.8368590" lon="2.0323830">
        <ele>619.2730000</ele>
        <time>2010-09-26T13:02:02Z</time>
      </trkpt>
      <trkpt lat="41.8366320" lon="2.0323880">
        <ele>618.8370000</ele>
        <time>2010-09-26T13:02:08Z</time>
      </trkpt>
      <trkpt lat="41.8364170" lon="2.0324150">
        <ele>618.8880000</ele>
        <time>2010-09-26T13:02:13Z</time>
      </trkpt>
      <trkpt lat="41.8362700" lon="2.0324810">
        <ele>619.1090000</ele>
        <time>2010-09-26T13:02:17Z</time>
      </trkpt>
      <trkpt lat="41.8360500" lon="2.0324620">
        <ele>618.3840000</ele>
        <time>2010-09-26T13:02:22Z</time>
      </trkpt>
      <trkpt lat="41.8359260" lon="2.0322480">
        <ele>617.6850000</ele>
        <time>2010-09-26T13:02:26Z</time>
      </trkpt>
      <trkpt lat="41.8358390" lon="2.0320870">
        <ele>617.0130000</ele>
        <time>2010-09-26T13:02:29Z</time>
      </trkpt>
      <trkpt lat="41.8358790" lon="2.0318730">
        <ele>614.4760000</ele>
        <time>2010-09-26T13:02:33Z</time>
      </trkpt>
      <trkpt lat="41.8359070" lon="2.0318160">
        <ele>613.9350000</ele>
        <time>2010-09-26T13:02:34Z</time>
      </trkpt>
      <trkpt lat="41.8358940" lon="2.0317210">
        <ele>611.3480000</ele>
        <time>2010-09-26T13:02:38Z</time>
      </trkpt>
      <trkpt lat="41.8357700" lon="2.0318170">
        <ele>609.9070000</ele>
        <time>2010-09-26T13:02:41Z</time>
      </trkpt>
      <trkpt lat="41.8354790" lon="2.0318170">
        <ele>608.4060000</ele>
        <time>2010-09-26T13:02:46Z</time>
      </trkpt>
      <trkpt lat="41.8353240" lon="2.0316900">
        <ele>607.5800000</ele>
        <time>2010-09-26T13:02:49Z</time>
      </trkpt>
      <trkpt lat="41.8351380" lon="2.0314620">
        <ele>606.9190000</ele>
        <time>2010-09-26T13:02:53Z</time>
      </trkpt>
      <trkpt lat="41.8348000" lon="2.0312820">
        <ele>603.8700000</ele>
        <time>2010-09-26T13:02:58Z</time>
      </trkpt>
      <trkpt lat="41.8347240" lon="2.0312840">
        <ele>603.2660000</ele>
        <time>2010-09-26T13:02:59Z</time>
      </trkpt>
      <trkpt lat="41.8345000" lon="2.0312710">
        <ele>602.0240000</ele>
        <time>2010-09-26T13:03:02Z</time>
      </trkpt>
      <trkpt lat="41.8344310" lon="2.0312460">
        <ele>601.9410000</ele>
        <time>2010-09-26T13:03:03Z</time>
      </trkpt>
      <trkpt lat="41.8342310" lon="2.0311320">
        <ele>600.8950000</ele>
        <time>2010-09-26T13:03:06Z</time>
      </trkpt>
      <trkpt lat="41.8339500" lon="2.0307740">
        <ele>597.7300000</ele>
        <time>2010-09-26T13:03:11Z</time>
      </trkpt>
      <trkpt lat="41.8337700" lon="2.0305630">
        <ele>595.7160000</ele>
        <time>2010-09-26T13:03:14Z</time>
      </trkpt>
      <trkpt lat="41.8336480" lon="2.0304600">
        <ele>594.7700000</ele>
        <time>2010-09-26T13:03:16Z</time>
      </trkpt>
      <trkpt lat="41.8335950" lon="2.0304120">
        <ele>593.8850000</ele>
        <time>2010-09-26T13:03:17Z</time>
      </trkpt>
      <trkpt lat="41.8335320" lon="2.0301120">
        <ele>590.2160000</ele>
        <time>2010-09-26T13:03:21Z</time>
      </trkpt>
      <trkpt lat="41.8335250" lon="2.0300260">
        <ele>589.8670000</ele>
        <time>2010-09-26T13:03:22Z</time>
      </trkpt>
      <trkpt lat="41.8334120" lon="2.0295890">
        <ele>588.2990000</ele>
        <time>2010-09-26T13:03:27Z</time>
      </trkpt>
      <trkpt lat="41.8332990" lon="2.0291980">
        <ele>586.5660000</ele>
        <time>2010-09-26T13:03:31Z</time>
      </trkpt>
      <trkpt lat="41.8333250" lon="2.0288280">
        <ele>583.5650000</ele>
        <time>2010-09-26T13:03:35Z</time>
      </trkpt>
      <trkpt lat="41.8334620" lon="2.0286090">
        <ele>580.2470000</ele>
        <time>2010-09-26T13:03:38Z</time>
      </trkpt>
      <trkpt lat="41.8335170" lon="2.0285610">
        <ele>579.0650000</ele>
        <time>2010-09-26T13:03:39Z</time>
      </trkpt>
      <trkpt lat="41.8337450" lon="2.0284010">
        <ele>575.6690000</ele>
        <time>2010-09-26T13:03:43Z</time>
      </trkpt>
      <trkpt lat="41.8338700" lon="2.0281230">
        <ele>571.8550000</ele>
        <time>2010-09-26T13:03:47Z</time>
      </trkpt>
      <trkpt lat="41.8338080" lon="2.0277720">
        <ele>568.9800000</ele>
        <time>2010-09-26T13:03:51Z</time>
      </trkpt>
      <trkpt lat="41.8336070" lon="2.0274700">
        <ele>567.7040000</ele>
        <time>2010-09-26T13:03:55Z</time>
      </trkpt>
      <trkpt lat="41.8335060" lon="2.0272930">
        <ele>566.6920000</ele>
        <time>2010-09-26T13:03:57Z</time>
      </trkpt>
      <trkpt lat="41.8331940" lon="2.0268720">
        <ele>562.8830000</ele>
        <time>2010-09-26T13:04:02Z</time>
      </trkpt>
      <trkpt lat="41.8331280" lon="2.0267850">
        <ele>562.0360000</ele>
        <time>2010-09-26T13:04:03Z</time>
      </trkpt>
      <trkpt lat="41.8329780" lon="2.0264840">
        <ele>560.0340000</ele>
        <time>2010-09-26T13:04:06Z</time>
      </trkpt>
      <trkpt lat="41.8328820" lon="2.0262740">
        <ele>558.5880000</ele>
        <time>2010-09-26T13:04:08Z</time>
      </trkpt>
      <trkpt lat="41.8327370" lon="2.0259710">
        <ele>556.4620000</ele>
        <time>2010-09-26T13:04:11Z</time>
      </trkpt>
      <trkpt lat="41.8324700" lon="2.0257640">
        <ele>552.3890000</ele>
        <time>2010-09-26T13:04:15Z</time>
      </trkpt>
      <trkpt lat="41.8320600" lon="2.0255450">
        <ele>544.9200000</ele>
        <time>2010-09-26T13:04:21Z</time>
      </trkpt>
      <trkpt lat="41.8319890" lon="2.0255230">
        <ele>543.8680000</ele>
        <time>2010-09-26T13:04:22Z</time>
      </trkpt>
      <trkpt lat="41.8315180" lon="2.0255480">
        <ele>539.7900000</ele>
        <time>2010-09-26T13:04:28Z</time>
      </trkpt>
      <trkpt lat="41.8312990" lon="2.0254170">
        <ele>539.1520000</ele>
        <time>2010-09-26T13:04:32Z</time>
      </trkpt>
      <trkpt lat="41.8311890" lon="2.0253380">
        <ele>538.9780000</ele>
        <time>2010-09-26T13:04:34Z</time>
      </trkpt>
      <trkpt lat="41.8308850" lon="2.0252240">
        <ele>539.4510000</ele>
        <time>2010-09-26T13:04:40Z</time>
      </trkpt>
      <trkpt lat="41.8306940" lon="2.0251120">
        <ele>540.0190000</ele>
        <time>2010-09-26T13:04:44Z</time>
      </trkpt>
      <trkpt lat="41.8303960" lon="2.0248160">
        <ele>540.9810000</ele>
        <time>2010-09-26T13:04:51Z</time>
      </trkpt>
      <trkpt lat="41.8302500" lon="2.0246810">
        <ele>542.0400000</ele>
        <time>2010-09-26T13:04:55Z</time>
      </trkpt>
      <trkpt lat="41.8300140" lon="2.0245540">
        <ele>542.7970000</ele>
        <time>2010-09-26T13:05:01Z</time>
      </trkpt>
      <trkpt lat="41.8298770" lon="2.0246400">
        <ele>543.4730000</ele>
        <time>2010-09-26T13:05:05Z</time>
      </trkpt>
      <trkpt lat="41.8298310" lon="2.0247610">
        <ele>544.1060000</ele>
        <time>2010-09-26T13:05:08Z</time>
      </trkpt>
      <trkpt lat="41.8297690" lon="2.0251640">
        <ele>546.1830000</ele>
        <time>2010-09-26T13:05:17Z</time>
      </trkpt>
      <trkpt lat="41.8297060" lon="2.0255000">
        <ele>546.3810000</ele>
        <time>2010-09-26T13:05:23Z</time>
      </trkpt>
      <trkpt lat="41.8296800" lon="2.0256350">
        <ele>545.8240000</ele>
        <time>2010-09-26T13:05:25Z</time>
      </trkpt>
      <trkpt lat="41.8295370" lon="2.0257730">
        <ele>545.2670000</ele>
        <time>2010-09-26T13:05:29Z</time>
      </trkpt>
      <trkpt lat="41.8293770" lon="2.0256480">
        <ele>544.4690000</ele>
        <time>2010-09-26T13:05:32Z</time>
      </trkpt>
      <trkpt lat="41.8292720" lon="2.0256090">
        <ele>544.8250000</ele>
        <time>2010-09-26T13:05:35Z</time>
      </trkpt>
      <trkpt lat="41.8290900" lon="2.0256770">
        <ele>546.0660000</ele>
        <time>2010-09-26T13:05:41Z</time>
      </trkpt>
      <trkpt lat="41.8289900" lon="2.0258060">
        <ele>546.6720000</ele>
        <time>2010-09-26T13:05:46Z</time>
      </trkpt>
      <trkpt lat="41.8288840" lon="2.0259570">
        <ele>547.9660000</ele>
        <time>2010-09-26T13:05:52Z</time>
      </trkpt>
      <trkpt lat="41.8287550" lon="2.0261540">
        <ele>549.4460000</ele>
        <time>2010-09-26T13:05:59Z</time>
      </trkpt>
      <trkpt lat="41.8286100" lon="2.0263690">
        <ele>550.4390000</ele>
        <time>2010-09-26T13:06:06Z</time>
      </trkpt>
      <trkpt lat="41.8284730" lon="2.0264130">
        <ele>550.8070000</ele>
        <time>2010-09-26T13:06:10Z</time>
      </trkpt>
      <trkpt lat="41.8282830" lon="2.0263830">
        <ele>551.3540000</ele>
        <time>2010-09-26T13:06:16Z</time>
      </trkpt>
      <trkpt lat="41.8281920" lon="2.0265000">
        <ele>551.9110000</ele>
        <time>2010-09-26T13:06:20Z</time>
      </trkpt>
      <trkpt lat="41.8281640" lon="2.0267380">
        <ele>552.4030000</ele>
        <time>2010-09-26T13:06:25Z</time>
      </trkpt>
      <trkpt lat="41.8282360" lon="2.0270000">
        <ele>551.5770000</ele>
        <time>2010-09-26T13:06:29Z</time>
      </trkpt>
      <trkpt lat="41.8282430" lon="2.0273320">
        <ele>550.1130000</ele>
        <time>2010-09-26T13:06:34Z</time>
      </trkpt>
      <trkpt lat="41.8281300" lon="2.0273710">
        <ele>550.8110000</ele>
        <time>2010-09-26T13:06:37Z</time>
      </trkpt>
      <trkpt lat="41.8278280" lon="2.0273700">
        <ele>552.8650000</ele>
        <time>2010-09-26T13:06:45Z</time>
      </trkpt>
      <trkpt lat="41.8275550" lon="2.0273780">
        <ele>553.1190000</ele>
        <time>2010-09-26T13:06:52Z</time>
      </trkpt>
      <trkpt lat="41.8273530" lon="2.0274660">
        <ele>554.3870000</ele>
        <time>2010-09-26T13:06:58Z</time>
      </trkpt>
      <trkpt lat="41.8272320" lon="2.0275940">
        <ele>554.7970000</ele>
        <time>2010-09-26T13:07:02Z</time>
      </trkpt>
      <trkpt lat="41.8271210" lon="2.0278660">
        <ele>553.7430000</ele>
        <time>2010-09-26T13:07:06Z</time>
      </trkpt>
      <trkpt lat="41.8269740" lon="2.0283870">
        <ele>550.9040000</ele>
        <time>2010-09-26T13:07:11Z</time>
      </trkpt>
      <trkpt lat="41.8269350" lon="2.0284940">
        <ele>550.2850000</ele>
        <time>2010-09-26T13:07:12Z</time>
      </trkpt>
      <trkpt lat="41.8268400" lon="2.0286710">
        <ele>549.4010000</ele>
        <time>2010-09-26T13:07:14Z</time>
      </trkpt>
      <trkpt lat="41.8266400" lon="2.0289670">
        <ele>549.2290000</ele>
        <time>2010-09-26T13:07:18Z</time>
      </trkpt>
      <trkpt lat="41.8265400" lon="2.0292780">
        <ele>547.8240000</ele>
        <time>2010-09-26T13:07:22Z</time>
      </trkpt>
      <trkpt lat="41.8264560" lon="2.0296080">
        <ele>545.7230000</ele>
        <time>2010-09-26T13:07:28Z</time>
      </trkpt>
      <trkpt lat="41.8263130" lon="2.0296620">
        <ele>544.4160000</ele>
        <time>2010-09-26T13:07:31Z</time>
      </trkpt>
      <trkpt lat="41.8258830" lon="2.0297510">
        <ele>541.8020000</ele>
        <time>2010-09-26T13:07:37Z</time>
      </trkpt>
      <trkpt lat="41.8254830" lon="2.0297820">
        <ele>538.9160000</ele>
        <time>2010-09-26T13:07:42Z</time>
      </trkpt>
      <trkpt lat="41.8253170" lon="2.0299090">
        <ele>534.9300000</ele>
        <time>2010-09-26T13:07:46Z</time>
      </trkpt>
      <trkpt lat="41.8252120" lon="2.0301080">
        <ele>532.5740000</ele>
        <time>2010-09-26T13:07:50Z</time>
      </trkpt>
      <trkpt lat="41.8251520" lon="2.0301280">
        <ele>532.0260000</ele>
        <time>2010-09-26T13:07:51Z</time>
      </trkpt>
      <trkpt lat="41.8248630" lon="2.0301860">
        <ele>529.8450000</ele>
        <time>2010-09-26T13:07:55Z</time>
      </trkpt>
      <trkpt lat="41.8245560" lon="2.0301660">
        <ele>524.7680000</ele>
        <time>2010-09-26T13:07:59Z</time>
      </trkpt>
      <trkpt lat="41.8242340" lon="2.0299240">
        <ele>517.3160000</ele>
        <time>2010-09-26T13:08:04Z</time>
      </trkpt>
      <trkpt lat="41.8240070" lon="2.0296560">
        <ele>511.9950000</ele>
        <time>2010-09-26T13:08:07Z</time>
      </trkpt>
      <trkpt lat="41.8236600" lon="2.0292660">
        <ele>507.4840000</ele>
        <time>2010-09-26T13:08:11Z</time>
      </trkpt>
      <trkpt lat="41.8233910" lon="2.0291210">
        <ele>504.8490000</ele>
        <time>2010-09-26T13:08:15Z</time>
      </trkpt>
      <trkpt lat="41.8231880" lon="2.0289660">
        <ele>503.7040000</ele>
        <time>2010-09-26T13:08:19Z</time>
      </trkpt>
      <trkpt lat="41.8230060" lon="2.0286060">
        <ele>501.1290000</ele>
        <time>2010-09-26T13:08:23Z</time>
      </trkpt>
      <trkpt lat="41.8228840" lon="2.0283150">
        <ele>498.5300000</ele>
        <time>2010-09-26T13:08:26Z</time>
      </trkpt>
      <trkpt lat="41.8226880" lon="2.0280150">
        <ele>494.7780000</ele>
        <time>2010-09-26T13:08:30Z</time>
      </trkpt>
      <trkpt lat="41.8224630" lon="2.0278280">
        <ele>492.3310000</ele>
        <time>2010-09-26T13:08:34Z</time>
      </trkpt>
      <trkpt lat="41.8221130" lon="2.0277030">
        <ele>489.2430000</ele>
        <time>2010-09-26T13:08:38Z</time>
      </trkpt>
      <trkpt lat="41.8216990" lon="2.0273210">
        <ele>486.4400000</ele>
        <time>2010-09-26T13:08:43Z</time>
      </trkpt>
      <trkpt lat="41.8215620" lon="2.0271280">
        <ele>485.7110000</ele>
        <time>2010-09-26T13:08:45Z</time>
      </trkpt>
      <trkpt lat="41.8211550" lon="2.0267890">
        <ele>482.9470000</ele>
        <time>2010-09-26T13:08:50Z</time>
      </trkpt>
      <trkpt lat="41.8207930" lon="2.0265310">
        <ele>480.2430000</ele>
        <time>2010-09-26T13:08:54Z</time>
      </trkpt>
      <trkpt lat="41.8204940" lon="2.0262880">
        <ele>479.9560000</ele>
        <time>2010-09-26T13:08:58Z</time>
      </trkpt>
      <trkpt lat="41.8204460" lon="2.0262340">
        <ele>480.2570000</ele>
        <time>2010-09-26T13:08:59Z</time>
      </trkpt>
      <trkpt lat="41.8202310" lon="2.0261310">
        <ele>482.0520000</ele>
        <time>2010-09-26T13:09:04Z</time>
      </trkpt>
      <trkpt lat="41.8201070" lon="2.0260990">
        <ele>482.5000000</ele>
        <time>2010-09-26T13:09:07Z</time>
      </trkpt>
      <trkpt lat="41.8197980" lon="2.0260550">
        <ele>482.3590000</ele>
        <time>2010-09-26T13:09:14Z</time>
      </trkpt>
      <trkpt lat="41.8195530" lon="2.0259800">
        <ele>483.3340000</ele>
        <time>2010-09-26T13:09:20Z</time>
      </trkpt>
      <trkpt lat="41.8193450" lon="2.0258990">
        <ele>483.9720000</ele>
        <time>2010-09-26T13:09:25Z</time>
      </trkpt>
      <trkpt lat="41.8191950" lon="2.0258720">
        <ele>483.7910000</ele>
        <time>2010-09-26T13:09:28Z</time>
      </trkpt>
      <trkpt lat="41.8188690" lon="2.0259620">
        <ele>483.2210000</ele>
        <time>2010-09-26T13:09:34Z</time>
      </trkpt>
      <trkpt lat="41.8186940" lon="2.0260710">
        <ele>483.2460000</ele>
        <time>2010-09-26T13:09:38Z</time>
      </trkpt>
      <trkpt lat="41.8185220" lon="2.0262290">
        <ele>483.8180000</ele>
        <time>2010-09-26T13:09:43Z</time>
      </trkpt>
      <trkpt lat="41.8183470" lon="2.0265150">
        <ele>484.9620000</ele>
        <time>2010-09-26T13:09:51Z</time>
      </trkpt>
      <trkpt lat="41.8182460" lon="2.0266730">
        <ele>486.0120000</ele>
        <time>2010-09-26T13:09:56Z</time>
      </trkpt>
      <trkpt lat="41.8181000" lon="2.0269470">
        <ele>488.0610000</ele>
        <time>2010-09-26T13:10:04Z</time>
      </trkpt>
      <trkpt lat="41.8180430" lon="2.0270670">
        <ele>489.8750000</ele>
        <time>2010-09-26T13:10:09Z</time>
      </trkpt>
      <trkpt lat="41.8179140" lon="2.0271820">
        <ele>490.6000000</ele>
        <time>2010-09-26T13:10:14Z</time>
      </trkpt>
      <trkpt lat="41.8178750" lon="2.0272000">
        <ele>490.5040000</ele>
        <time>2010-09-26T13:10:15Z</time>
      </trkpt>
      <trkpt lat="41.8177440" lon="2.0272130">
        <ele>489.8910000</ele>
        <time>2010-09-26T13:10:18Z</time>
      </trkpt>
      <trkpt lat="41.8175040" lon="2.0273110">
        <ele>489.1880000</ele>
        <time>2010-09-26T13:10:23Z</time>
      </trkpt>
      <trkpt lat="41.8173910" lon="2.0274130">
        <ele>489.2660000</ele>
        <time>2010-09-26T13:10:26Z</time>
      </trkpt>
      <trkpt lat="41.8172100" lon="2.0275260">
        <ele>488.8200000</ele>
        <time>2010-09-26T13:10:30Z</time>
      </trkpt>
      <trkpt lat="41.8170500" lon="2.0275810">
        <ele>488.5880000</ele>
        <time>2010-09-26T13:10:33Z</time>
      </trkpt>
      <trkpt lat="41.8167830" lon="2.0275290">
        <ele>487.0580000</ele>
        <time>2010-09-26T13:10:38Z</time>
      </trkpt>
      <trkpt lat="41.8166380" lon="2.0273420">
        <ele>485.6590000</ele>
        <time>2010-09-26T13:10:41Z</time>
      </trkpt>
      <trkpt lat="41.8165790" lon="2.0272880">
        <ele>485.3550000</ele>
        <time>2010-09-26T13:10:42Z</time>
      </trkpt>
      <trkpt lat="41.8165200" lon="2.0272480">
        <ele>485.2620000</ele>
        <time>2010-09-26T13:10:43Z</time>
      </trkpt>
      <trkpt lat="41.8163540" lon="2.0271560">
        <ele>484.8250000</ele>
        <time>2010-09-26T13:10:46Z</time>
      </trkpt>
      <trkpt lat="41.8161720" lon="2.0269290">
        <ele>483.7360000</ele>
        <time>2010-09-26T13:10:50Z</time>
      </trkpt>
      <trkpt lat="41.8161410" lon="2.0266340">
        <ele>481.5990000</ele>
        <time>2010-09-26T13:10:53Z</time>
      </trkpt>
      <trkpt lat="41.8160770" lon="2.0263520">
        <ele>480.4570000</ele>
        <time>2010-09-26T13:10:56Z</time>
      </trkpt>
      <trkpt lat="41.8160350" lon="2.0262740">
        <ele>480.3060000</ele>
        <time>2010-09-26T13:10:57Z</time>
      </trkpt>
      <trkpt lat="41.8159100" lon="2.0260380">
        <ele>479.4900000</ele>
        <time>2010-09-26T13:11:00Z</time>
      </trkpt>
      <trkpt lat="41.8157310" lon="2.0258960">
        <ele>476.6250000</ele>
        <time>2010-09-26T13:11:04Z</time>
      </trkpt>
      <trkpt lat="41.8156840" lon="2.0259220">
        <ele>475.7930000</ele>
        <time>2010-09-26T13:11:05Z</time>
      </trkpt>
      <trkpt lat="41.8154000" lon="2.0261070">
        <ele>470.9550000</ele>
        <time>2010-09-26T13:11:10Z</time>
      </trkpt>
      <trkpt lat="41.8152140" lon="2.0263080">
        <ele>466.3040000</ele>
        <time>2010-09-26T13:11:13Z</time>
      </trkpt>
      <trkpt lat="41.8149330" lon="2.0264790">
        <ele>461.1660000</ele>
        <time>2010-09-26T13:11:17Z</time>
      </trkpt>
      <trkpt lat="41.8147620" lon="2.0264540">
        <ele>458.7380000</ele>
        <time>2010-09-26T13:11:19Z</time>
      </trkpt>
      <trkpt lat="41.8144100" lon="2.0263430">
        <ele>455.7320000</ele>
        <time>2010-09-26T13:11:23Z</time>
      </trkpt>
      <trkpt lat="41.8141170" lon="2.0260450">
        <ele>451.3000000</ele>
        <time>2010-09-26T13:11:27Z</time>
      </trkpt>
      <trkpt lat="41.8140070" lon="2.0257350">
        <ele>448.5320000</ele>
        <time>2010-09-26T13:11:30Z</time>
      </trkpt>
      <trkpt lat="41.8138630" lon="2.0252930">
        <ele>443.8000000</ele>
        <time>2010-09-26T13:11:34Z</time>
      </trkpt>
      <trkpt lat="41.8137140" lon="2.0251060">
        <ele>438.8070000</ele>
        <time>2010-09-26T13:11:37Z</time>
      </trkpt>
      <trkpt lat="41.8135480" lon="2.0250490">
        <ele>437.5530000</ele>
        <time>2010-09-26T13:11:39Z</time>
      </trkpt>
      <trkpt lat="41.8133110" lon="2.0248240">
        <ele>433.8520000</ele>
        <time>2010-09-26T13:11:42Z</time>
      </trkpt>
      <trkpt lat="41.8132590" lon="2.0245670">
        <ele>430.0190000</ele>
        <time>2010-09-26T13:11:45Z</time>
      </trkpt>
      <trkpt lat="41.8133510" lon="2.0243250">
        <ele>425.6580000</ele>
        <time>2010-09-26T13:11:48Z</time>
      </trkpt>
      <trkpt lat="41.8135470" lon="2.0240890">
        <ele>422.4300000</ele>
        <time>2010-09-26T13:11:51Z</time>
      </trkpt>
      <trkpt lat="41.8137640" lon="2.0237530">
        <ele>417.3000000</ele>
        <time>2010-09-26T13:11:55Z</time>
      </trkpt>
      <trkpt lat="41.8137730" lon="2.0236530">
        <ele>416.1680000</ele>
        <time>2010-09-26T13:11:56Z</time>
      </trkpt>
      <trkpt lat="41.8138030" lon="2.0230300">
        <ele>411.9680000</ele>
        <time>2010-09-26T13:12:02Z</time>
      </trkpt>
      <trkpt lat="41.8138160" lon="2.0228040">
        <ele>411.0480000</ele>
        <time>2010-09-26T13:12:04Z</time>
      </trkpt>
      <trkpt lat="41.8138020" lon="2.0225800">
        <ele>409.1780000</ele>
        <time>2010-09-26T13:12:06Z</time>
      </trkpt>
      <trkpt lat="41.8136850" lon="2.0224500">
        <ele>405.9350000</ele>
        <time>2010-09-26T13:12:09Z</time>
      </trkpt>
      <trkpt lat="41.8136200" lon="2.0224550">
        <ele>405.2110000</ele>
        <time>2010-09-26T13:12:10Z</time>
      </trkpt>
      <trkpt lat="41.8134780" lon="2.0224730">
        <ele>403.9220000</ele>
        <time>2010-09-26T13:12:12Z</time>
      </trkpt>
      <trkpt lat="41.8132610" lon="2.0224210">
        <ele>402.1370000</ele>
        <time>2010-09-26T13:12:16Z</time>
      </trkpt>
      <trkpt lat="41.8131740" lon="2.0222220">
        <ele>401.7460000</ele>
        <time>2010-09-26T13:12:20Z</time>
      </trkpt>
      <trkpt lat="41.8131650" lon="2.0221390">
        <ele>401.9510000</ele>
        <time>2010-09-26T13:12:22Z</time>
      </trkpt>
      <trkpt lat="41.8131780" lon="2.0219330">
        <ele>402.5630000</ele>
        <time>2010-09-26T13:12:28Z</time>
      </trkpt>
      <trkpt lat="41.8131260" lon="2.0217960">
        <ele>403.2720000</ele>
        <time>2010-09-26T13:12:33Z</time>
      </trkpt>
      <trkpt lat="41.8130260" lon="2.0217610">
        <ele>404.0210000</ele>
        <time>2010-09-26T13:12:38Z</time>
      </trkpt>
      <trkpt lat="41.8128990" lon="2.0217860">
        <ele>405.4370000</ele>
        <time>2010-09-26T13:12:44Z</time>
      </trkpt>
      <trkpt lat="41.8127950" lon="2.0218290">
        <ele>406.3200000</ele>
        <time>2010-09-26T13:12:49Z</time>
      </trkpt>
      <trkpt lat="41.8126340" lon="2.0219400">
        <ele>408.4320000</ele>
        <time>2010-09-26T13:12:59Z</time>
      </trkpt>
      <trkpt lat="41.8124790" lon="2.0220080">
        <ele>410.5690000</ele>
        <time>2010-09-26T13:13:08Z</time>
      </trkpt>
      <trkpt lat="41.8123670" lon="2.0220530">
        <ele>412.2960000</ele>
        <time>2010-09-26T13:13:15Z</time>
      </trkpt>
      <trkpt lat="41.8122450" lon="2.0220280">
        <ele>413.8080000</ele>
        <time>2010-09-26T13:13:23Z</time>
      </trkpt>
      <trkpt lat="41.8121180" lon="2.0219220">
        <ele>415.3920000</ele>
        <time>2010-09-26T13:13:32Z</time>
      </trkpt>
      <trkpt lat="41.8120310" lon="2.0218510">
        <ele>417.2230000</ele>
        <time>2010-09-26T13:13:40Z</time>
      </trkpt>
      <trkpt lat="41.8119240" lon="2.0217460">
        <ele>417.8650000</ele>
        <time>2010-09-26T13:13:47Z</time>
      </trkpt>
      <trkpt lat="41.8118210" lon="2.0216360">
        <ele>418.4200000</ele>
        <time>2010-09-26T13:13:54Z</time>
      </trkpt>
      <trkpt lat="41.8117870" lon="2.0216270">
        <ele>418.6280000</ele>
        <time>2010-09-26T13:13:56Z</time>
      </trkpt>
      <trkpt lat="41.8116470" lon="2.0216730">
        <ele>420.5560000</ele>
        <time>2010-09-26T13:14:05Z</time>
      </trkpt>
      <trkpt lat="41.8115220" lon="2.0216440">
        <ele>420.9100000</ele>
        <time>2010-09-26T13:14:12Z</time>
      </trkpt>
      <trkpt lat="41.8114710" lon="2.0215280">
        <ele>421.7730000</ele>
        <time>2010-09-26T13:14:17Z</time>
      </trkpt>
      <trkpt lat="41.8114710" lon="2.0213220">
        <ele>421.8210000</ele>
        <time>2010-09-26T13:14:23Z</time>
      </trkpt>
      <trkpt lat="41.8114830" lon="2.0212210">
        <ele>421.6730000</ele>
        <time>2010-09-26T13:14:25Z</time>
      </trkpt>
      <trkpt lat="41.8114860" lon="2.0210330">
        <ele>421.1860000</ele>
        <time>2010-09-26T13:14:28Z</time>
      </trkpt>
      <trkpt lat="41.8114330" lon="2.0206950">
        <ele>420.0420000</ele>
        <time>2010-09-26T13:14:33Z</time>
      </trkpt>
      <trkpt lat="41.8113000" lon="2.0206430">
        <ele>419.7050000</ele>
        <time>2010-09-26T13:14:36Z</time>
      </trkpt>
      <trkpt lat="41.8111710" lon="2.0206340">
        <ele>419.6780000</ele>
        <time>2010-09-26T13:14:39Z</time>
      </trkpt>
      <trkpt lat="41.8111360" lon="2.0205560">
        <ele>419.6270000</ele>
        <time>2010-09-26T13:14:41Z</time>
      </trkpt>
      <trkpt lat="41.8111420" lon="2.0203310">
        <ele>419.8820000</ele>
        <time>2010-09-26T13:14:47Z</time>
      </trkpt>
      <trkpt lat="41.8111130" lon="2.0201090">
        <ele>419.9970000</ele>
        <time>2010-09-26T13:14:53Z</time>
      </trkpt>
      <trkpt lat="41.8110330" lon="2.0197730">
        <ele>420.8610000</ele>
        <time>2010-09-26T13:15:02Z</time>
      </trkpt>
      <trkpt lat="41.8108920" lon="2.0194210">
        <ele>422.0700000</ele>
        <time>2010-09-26T13:15:12Z</time>
      </trkpt>
      <trkpt lat="41.8107910" lon="2.0192410">
        <ele>421.4240000</ele>
        <time>2010-09-26T13:15:16Z</time>
      </trkpt>
      <trkpt lat="41.8106520" lon="2.0191310">
        <ele>420.9570000</ele>
        <time>2010-09-26T13:15:20Z</time>
      </trkpt>
      <trkpt lat="41.8105990" lon="2.0191570">
        <ele>421.2750000</ele>
        <time>2010-09-26T13:15:22Z</time>
      </trkpt>
      <trkpt lat="41.8103790" lon="2.0192120">
        <ele>422.9030000</ele>
        <time>2010-09-26T13:15:31Z</time>
      </trkpt>
      <trkpt lat="41.8101520" lon="2.0192090">
        <ele>425.4190000</ele>
        <time>2010-09-26T13:15:42Z</time>
      </trkpt>
      <trkpt lat="41.8099830" lon="2.0191760">
        <ele>427.1090000</ele>
        <time>2010-09-26T13:15:51Z</time>
      </trkpt>
      <trkpt lat="41.8098760" lon="2.0191770">
        <ele>428.5260000</ele>
        <time>2010-09-26T13:15:57Z</time>
      </trkpt>
      <trkpt lat="41.8097690" lon="2.0192460">
        <ele>430.5920000</ele>
        <time>2010-09-26T13:16:04Z</time>
      </trkpt>
      <trkpt lat="41.8096760" lon="2.0194170">
        <ele>432.4270000</ele>
        <time>2010-09-26T13:16:12Z</time>
      </trkpt>
      <trkpt lat="41.8095430" lon="2.0196030">
        <ele>433.5090000</ele>
        <time>2010-09-26T13:16:21Z</time>
      </trkpt>
      <trkpt lat="41.8093790" lon="2.0197090">
        <ele>434.3880000</ele>
        <time>2010-09-26T13:16:29Z</time>
      </trkpt>
      <trkpt lat="41.8092040" lon="2.0198240">
        <ele>434.2220000</ele>
        <time>2010-09-26T13:16:36Z</time>
      </trkpt>
      <trkpt lat="41.8090270" lon="2.0198350">
        <ele>433.9590000</ele>
        <time>2010-09-26T13:16:42Z</time>
      </trkpt>
      <trkpt lat="41.8089050" lon="2.0197680">
        <ele>433.8450000</ele>
        <time>2010-09-26T13:16:46Z</time>
      </trkpt>
      <trkpt lat="41.8087750" lon="2.0195990">
        <ele>432.7380000</ele>
        <time>2010-09-26T13:16:50Z</time>
      </trkpt>
      <trkpt lat="41.8085900" lon="2.0194200">
        <ele>431.6080000</ele>
        <time>2010-09-26T13:16:54Z</time>
      </trkpt>
      <trkpt lat="41.8084520" lon="2.0191950">
        <ele>431.4000000</ele>
        <time>2010-09-26T13:16:58Z</time>
      </trkpt>
      <trkpt lat="41.8085150" lon="2.0190760">
        <ele>431.1400000</ele>
        <time>2010-09-26T13:17:00Z</time>
      </trkpt>
      <trkpt lat="41.8086600" lon="2.0189230">
        <ele>431.3570000</ele>
        <time>2010-09-26T13:17:04Z</time>
      </trkpt>
      <trkpt lat="41.8086860" lon="2.0188940">
        <ele>431.6600000</ele>
        <time>2010-09-26T13:17:05Z</time>
      </trkpt>
      <trkpt lat="41.8088540" lon="2.0188040">
        <ele>433.3350000</ele>
        <time>2010-09-26T13:17:11Z</time>
      </trkpt>
      <trkpt lat="41.8091130" lon="2.0187550">
        <ele>434.1570000</ele>
        <time>2010-09-26T13:17:19Z</time>
      </trkpt>
      <trkpt lat="41.8093310" lon="2.0186180">
        <ele>433.8000000</ele>
        <time>2010-09-26T13:17:25Z</time>
      </trkpt>
      <trkpt lat="41.8095620" lon="2.0183920">
        <ele>434.2130000</ele>
        <time>2010-09-26T13:17:33Z</time>
      </trkpt>
      <trkpt lat="41.8096860" lon="2.0182470">
        <ele>434.6220000</ele>
        <time>2010-09-26T13:17:38Z</time>
      </trkpt>
      <trkpt lat="41.8096770" lon="2.0180670">
        <ele>435.2310000</ele>
        <time>2010-09-26T13:17:42Z</time>
      </trkpt>
      <trkpt lat="41.8095330" lon="2.0178220">
        <ele>435.4720000</ele>
        <time>2010-09-26T13:17:49Z</time>
      </trkpt>
      <trkpt lat="41.8094030" lon="2.0176200">
        <ele>433.6600000</ele>
        <time>2010-09-26T13:17:54Z</time>
      </trkpt>
      <trkpt lat="41.8093270" lon="2.0175190">
        <ele>432.4830000</ele>
        <time>2010-09-26T13:17:56Z</time>
      </trkpt>
      <trkpt lat="41.8090760" lon="2.0174030">
        <ele>430.4200000</ele>
        <time>2010-09-26T13:18:00Z</time>
      </trkpt>
      <trkpt lat="41.8089590" lon="2.0174110">
        <ele>429.8420000</ele>
        <time>2010-09-26T13:18:02Z</time>
      </trkpt>
      <trkpt lat="41.8087800" lon="2.0174890">
        <ele>430.6750000</ele>
        <time>2010-09-26T13:18:07Z</time>
      </trkpt>
      <trkpt lat="41.8086280" lon="2.0176080">
        <ele>432.4760000</ele>
        <time>2010-09-26T13:18:15Z</time>
      </trkpt>
      <trkpt lat="41.8084870" lon="2.0177380">
        <ele>434.3270000</ele>
        <time>2010-09-26T13:18:23Z</time>
      </trkpt>
      <trkpt lat="41.8084420" lon="2.0177760">
        <ele>435.1960000</ele>
        <time>2010-09-26T13:18:26Z</time>
      </trkpt>
      <trkpt lat="41.8084290" lon="2.0178080">
        <ele>435.7560000</ele>
        <time>2010-09-26T13:18:30Z</time>
      </trkpt>
      <trkpt lat="41.8084290" lon="2.0178310">
        <ele>436.3110000</ele>
        <time>2010-09-26T13:18:42Z</time>
      </trkpt>
      <trkpt lat="41.8084290" lon="2.0178600">
        <ele>436.5700000</ele>
        <time>2010-09-26T13:18:52Z</time>
      </trkpt>
      <trkpt lat="41.8084410" lon="2.0178800">
        <ele>436.7380000</ele>
        <time>2010-09-26T13:18:57Z</time>
      </trkpt>
      <trkpt lat="41.8084400" lon="2.0178810">
        <ele>436.7470000</ele>
        <time>2010-09-26T13:18:58Z</time>
      </trkpt>
      <trkpt lat="41.8084100" lon="2.0178980">
        <ele>436.9620000</ele>
        <time>2010-09-26T13:19:06Z</time>
      </trkpt>
      <trkpt lat="41.8083910" lon="2.0179200">
        <ele>435.9890000</ele>
        <time>2010-09-26T13:28:08Z</time>
      </trkpt>
      <trkpt lat="41.8083910" lon="2.0179180">
        <ele>435.9420000</ele>
        <time>2010-09-26T13:28:09Z</time>
      </trkpt>
      <trkpt lat="41.8083820" lon="2.0178710">
        <ele>435.7060000</ele>
        <time>2010-09-26T13:28:17Z</time>
      </trkpt>
      <trkpt lat="41.8083860" lon="2.0178550">
        <ele>435.5590000</ele>
        <time>2010-09-26T13:28:19Z</time>
      </trkpt>
      <trkpt lat="41.8083770" lon="2.0178180">
        <ele>435.3760000</ele>
        <time>2010-09-26T13:28:24Z</time>
      </trkpt>
      <trkpt lat="41.8083910" lon="2.0178140">
        <ele>435.6190000</ele>
        <time>2010-09-26T13:28:31Z</time>
      </trkpt>
      <trkpt lat="41.8083900" lon="2.0178150">
        <ele>435.6370000</ele>
        <time>2010-09-26T13:28:32Z</time>
      </trkpt>
      <trkpt lat="41.8084030" lon="2.0178050">
        <ele>434.9140000</ele>
        <time>2010-09-26T13:29:32Z</time>
      </trkpt>
      <trkpt lat="41.8084010" lon="2.0178030">
        <ele>434.9510000</ele>
        <time>2010-09-26T13:29:33Z</time>
      </trkpt>
      <trkpt lat="41.8084000" lon="2.0178020">
        <ele>434.9330000</ele>
        <time>2010-09-26T13:29:34Z</time>
      </trkpt>
      <trkpt lat="41.8083810" lon="2.0178260">
        <ele>434.4520000</ele>
        <time>2010-09-26T13:32:18Z</time>
      </trkpt>
      <trkpt lat="41.8083780" lon="2.0178270">
        <ele>434.5450000</ele>
        <time>2010-09-26T13:32:19Z</time>
      </trkpt>
      <trkpt lat="41.8083770" lon="2.0178270">
        <ele>434.7200000</ele>
        <time>2010-09-26T13:32:20Z</time>
      </trkpt>
      <trkpt lat="41.8083000" lon="2.0177530">
        <ele>434.6950000</ele>
        <time>2010-09-26T13:32:31Z</time>
      </trkpt>
      <trkpt lat="41.8082780" lon="2.0177100">
        <ele>434.6230000</ele>
        <time>2010-09-26T13:32:32Z</time>
      </trkpt>
      <trkpt lat="41.8080420" lon="2.0173670">
        <ele>432.2410000</ele>
        <time>2010-09-26T13:32:38Z</time>
      </trkpt>
      <trkpt lat="41.8077780" lon="2.0169490">
        <ele>429.7280000</ele>
        <time>2010-09-26T13:32:43Z</time>
      </trkpt>
      <trkpt lat="41.8074280" lon="2.0163840">
        <ele>427.3460000</ele>
        <time>2010-09-26T13:32:49Z</time>
      </trkpt>
      <trkpt lat="41.8073770" lon="2.0160580">
        <ele>428.0670000</ele>
        <time>2010-09-26T13:32:53Z</time>
      </trkpt>
      <trkpt lat="41.8073530" lon="2.0159660">
        <ele>428.3180000</ele>
        <time>2010-09-26T13:32:55Z</time>
      </trkpt>
      <trkpt lat="41.8072580" lon="2.0156920">
        <ele>427.7710000</ele>
        <time>2010-09-26T13:33:02Z</time>
      </trkpt>
      <trkpt lat="41.8071710" lon="2.0153930">
        <ele>427.3080000</ele>
        <time>2010-09-26T13:33:08Z</time>
      </trkpt>
      <trkpt lat="41.8071870" lon="2.0150960">
        <ele>427.4820000</ele>
        <time>2010-09-26T13:33:14Z</time>
      </trkpt>
      <trkpt lat="41.8073070" lon="2.0146930">
        <ele>427.8220000</ele>
        <time>2010-09-26T13:33:23Z</time>
      </trkpt>
      <trkpt lat="41.8073170" lon="2.0144070">
        <ele>427.6380000</ele>
        <time>2010-09-26T13:33:29Z</time>
      </trkpt>
      <trkpt lat="41.8072260" lon="2.0140720">
        <ele>427.2760000</ele>
        <time>2010-09-26T13:33:35Z</time>
      </trkpt>
      <trkpt lat="41.8070850" lon="2.0136640">
        <ele>426.8790000</ele>
        <time>2010-09-26T13:33:42Z</time>
      </trkpt>
      <trkpt lat="41.8070300" lon="2.0134760">
        <ele>426.5350000</ele>
        <time>2010-09-26T13:33:45Z</time>
      </trkpt>
      <trkpt lat="41.8069550" lon="2.0129770">
        <ele>426.2930000</ele>
        <time>2010-09-26T13:33:53Z</time>
      </trkpt>
      <trkpt lat="41.8068480" lon="2.0125820">
        <ele>425.5230000</ele>
        <time>2010-09-26T13:33:59Z</time>
      </trkpt>
      <trkpt lat="41.8066210" lon="2.0122960">
        <ele>423.6510000</ele>
        <time>2010-09-26T13:34:04Z</time>
      </trkpt>
      <trkpt lat="41.8064220" lon="2.0121380">
        <ele>422.2270000</ele>
        <time>2010-09-26T13:34:07Z</time>
      </trkpt>
      <trkpt lat="41.8061660" lon="2.0117930">
        <ele>419.6810000</ele>
        <time>2010-09-26T13:34:11Z</time>
      </trkpt>
      <trkpt lat="41.8059470" lon="2.0113180">
        <ele>418.4130000</ele>
        <time>2010-09-26T13:34:16Z</time>
      </trkpt>
      <trkpt lat="41.8057710" lon="2.0109650">
        <ele>419.0580000</ele>
        <time>2010-09-26T13:34:21Z</time>
      </trkpt>
      <trkpt lat="41.8054980" lon="2.0104620">
        <ele>417.5020000</ele>
        <time>2010-09-26T13:34:29Z</time>
      </trkpt>
      <trkpt lat="41.8053200" lon="2.0099790">
        <ele>416.6030000</ele>
        <time>2010-09-26T13:34:36Z</time>
      </trkpt>
      <trkpt lat="41.8051690" lon="2.0095300">
        <ele>416.8080000</ele>
        <time>2010-09-26T13:34:43Z</time>
      </trkpt>
      <trkpt lat="41.8049370" lon="2.0090930">
        <ele>417.0240000</ele>
        <time>2010-09-26T13:34:51Z</time>
      </trkpt>
      <trkpt lat="41.8048050" lon="2.0086430">
        <ele>416.7900000</ele>
        <time>2010-09-26T13:34:58Z</time>
      </trkpt>
      <trkpt lat="41.8046790" lon="2.0082780">
        <ele>416.6970000</ele>
        <time>2010-09-26T13:35:04Z</time>
      </trkpt>
      <trkpt lat="41.8045100" lon="2.0080720">
        <ele>416.7080000</ele>
        <time>2010-09-26T13:35:09Z</time>
      </trkpt>
      <trkpt lat="41.8043360" lon="2.0080520">
        <ele>416.3330000</ele>
        <time>2010-09-26T13:35:13Z</time>
      </trkpt>
      <trkpt lat="41.8042890" lon="2.0080650">
        <ele>416.1840000</ele>
        <time>2010-09-26T13:35:14Z</time>
      </trkpt>
      <trkpt lat="41.8039720" lon="2.0081710">
        <ele>414.7990000</ele>
        <time>2010-09-26T13:35:20Z</time>
      </trkpt>
      <trkpt lat="41.8037560" lon="2.0080900">
        <ele>414.0310000</ele>
        <time>2010-09-26T13:35:24Z</time>
      </trkpt>
      <trkpt lat="41.8036700" lon="2.0078570">
        <ele>412.5450000</ele>
        <time>2010-09-26T13:35:27Z</time>
      </trkpt>
      <trkpt lat="41.8036670" lon="2.0076780">
        <ele>411.6700000</ele>
        <time>2010-09-26T13:35:29Z</time>
      </trkpt>
      <trkpt lat="41.8037330" lon="2.0071220">
        <ele>409.7780000</ele>
        <time>2010-09-26T13:35:35Z</time>
      </trkpt>
      <trkpt lat="41.8037080" lon="2.0066880">
        <ele>408.8440000</ele>
        <time>2010-09-26T13:35:40Z</time>
      </trkpt>
      <trkpt lat="41.8035710" lon="2.0064210">
        <ele>408.4280000</ele>
        <time>2010-09-26T13:35:44Z</time>
      </trkpt>
      <trkpt lat="41.8034100" lon="2.0062360">
        <ele>408.2040000</ele>
        <time>2010-09-26T13:35:48Z</time>
      </trkpt>
      <trkpt lat="41.8032650" lon="2.0059610">
        <ele>408.3220000</ele>
        <time>2010-09-26T13:35:53Z</time>
      </trkpt>
      <trkpt lat="41.8032000" lon="2.0056120">
        <ele>410.1590000</ele>
        <time>2010-09-26T13:36:00Z</time>
      </trkpt>
      <trkpt lat="41.8031980" lon="2.0053940">
        <ele>411.8160000</ele>
        <time>2010-09-26T13:36:06Z</time>
      </trkpt>
      <trkpt lat="41.8032010" lon="2.0052980">
        <ele>412.6170000</ele>
        <time>2010-09-26T13:36:09Z</time>
      </trkpt>
      <trkpt lat="41.8031850" lon="2.0051770">
        <ele>413.8350000</ele>
        <time>2010-09-26T13:36:13Z</time>
      </trkpt>
      <trkpt lat="41.8031070" lon="2.0049810">
        <ele>415.6560000</ele>
        <time>2010-09-26T13:36:19Z</time>
      </trkpt>
      <trkpt lat="41.8030050" lon="2.0048030">
        <ele>417.2560000</ele>
        <time>2010-09-26T13:36:25Z</time>
      </trkpt>
      <trkpt lat="41.8028430" lon="2.0046640">
        <ele>417.8520000</ele>
        <time>2010-09-26T13:36:32Z</time>
      </trkpt>
      <trkpt lat="41.8026200" lon="2.0045260">
        <ele>418.2200000</ele>
        <time>2010-09-26T13:36:40Z</time>
      </trkpt>
      <trkpt lat="41.8025010" lon="2.0042840">
        <ele>418.4420000</ele>
        <time>2010-09-26T13:36:47Z</time>
      </trkpt>
      <trkpt lat="41.8023580" lon="2.0039490">
        <ele>418.7030000</ele>
        <time>2010-09-26T13:36:55Z</time>
      </trkpt>
      <trkpt lat="41.8021680" lon="2.0037700">
        <ele>418.1510000</ele>
        <time>2010-09-26T13:37:01Z</time>
      </trkpt>
      <trkpt lat="41.8020940" lon="2.0037160">
        <ele>417.9520000</ele>
        <time>2010-09-26T13:37:03Z</time>
      </trkpt>
      <trkpt lat="41.8019240" lon="2.0034750">
        <ele>417.4280000</ele>
        <time>2010-09-26T13:37:09Z</time>
      </trkpt>
      <trkpt lat="41.8018880" lon="2.0033710">
        <ele>417.4290000</ele>
        <time>2010-09-26T13:37:11Z</time>
      </trkpt>
      <trkpt lat="41.8017870" lon="2.0028710">
        <ele>417.6150000</ele>
        <time>2010-09-26T13:37:20Z</time>
      </trkpt>
      <trkpt lat="41.8017500" lon="2.0024900">
        <ele>417.6030000</ele>
        <time>2010-09-26T13:37:26Z</time>
      </trkpt>
      <trkpt lat="41.8017460" lon="2.0020130">
        <ele>416.8190000</ele>
        <time>2010-09-26T13:37:33Z</time>
      </trkpt>
      <trkpt lat="41.8017450" lon="2.0018640">
        <ele>416.5990000</ele>
        <time>2010-09-26T13:37:35Z</time>
      </trkpt>
      <trkpt lat="41.8018180" lon="2.0015380">
        <ele>415.5110000</ele>
        <time>2010-09-26T13:37:39Z</time>
      </trkpt>
      <trkpt lat="41.8019160" lon="2.0012950">
        <ele>414.4010000</ele>
        <time>2010-09-26T13:37:42Z</time>
      </trkpt>
      <trkpt lat="41.8019040" lon="2.0009520">
        <ele>413.8500000</ele>
        <time>2010-09-26T13:37:46Z</time>
      </trkpt>
      <trkpt lat="41.8017800" lon="2.0008510">
        <ele>413.1840000</ele>
        <time>2010-09-26T13:37:48Z</time>
      </trkpt>
      <trkpt lat="41.8015050" lon="2.0005010">
        <ele>410.1560000</ele>
        <time>2010-09-26T13:37:53Z</time>
      </trkpt>
      <trkpt lat="41.8013070" lon="2.0001020">
        <ele>409.1520000</ele>
        <time>2010-09-26T13:37:58Z</time>
      </trkpt>
      <trkpt lat="41.8012040" lon="1.9997580">
        <ele>408.1060000</ele>
        <time>2010-09-26T13:38:02Z</time>
      </trkpt>
      <trkpt lat="41.8011970" lon="1.9996640">
        <ele>407.7940000</ele>
        <time>2010-09-26T13:38:03Z</time>
      </trkpt>
      <trkpt lat="41.8011490" lon="1.9992220">
        <ele>406.9950000</ele>
        <time>2010-09-26T13:38:08Z</time>
      </trkpt>
      <trkpt lat="41.8011020" lon="1.9990600">
        <ele>406.5040000</ele>
        <time>2010-09-26T13:38:10Z</time>
      </trkpt>
      <trkpt lat="41.8010730" lon="1.9986870">
        <ele>405.3260000</ele>
        <time>2010-09-26T13:38:14Z</time>
      </trkpt>
      <trkpt lat="41.8011010" lon="1.9985080">
        <ele>405.1320000</ele>
        <time>2010-09-26T13:38:16Z</time>
      </trkpt>
      <trkpt lat="41.8011670" lon="1.9979910">
        <ele>403.0590000</ele>
        <time>2010-09-26T13:38:22Z</time>
      </trkpt>
      <trkpt lat="41.8011820" lon="1.9977820">
        <ele>402.1590000</ele>
        <time>2010-09-26T13:38:26Z</time>
      </trkpt>
      <trkpt lat="41.8011500" lon="1.9976620">
        <ele>402.0620000</ele>
        <time>2010-09-26T13:38:31Z</time>
      </trkpt>
      <trkpt lat="41.8011160" lon="1.9975370">
        <ele>403.1330000</ele>
        <time>2010-09-26T13:38:37Z</time>
      </trkpt>
      <trkpt lat="41.8010880" lon="1.9974130">
        <ele>404.7480000</ele>
        <time>2010-09-26T13:38:44Z</time>
      </trkpt>
      <trkpt lat="41.8010910" lon="1.9973780">
        <ele>405.0960000</ele>
        <time>2010-09-26T13:38:46Z</time>
      </trkpt>
      <trkpt lat="41.8010580" lon="1.9972860">
        <ele>406.0380000</ele>
        <time>2010-09-26T13:38:52Z</time>
      </trkpt>
      <trkpt lat="41.8010280" lon="1.9972270">
        <ele>406.4160000</ele>
        <time>2010-09-26T13:38:55Z</time>
      </trkpt>
      <trkpt lat="41.8009540" lon="1.9970850">
        <ele>407.6050000</ele>
        <time>2010-09-26T13:39:03Z</time>
      </trkpt>
      <trkpt lat="41.8008830" lon="1.9969660">
        <ele>408.5510000</ele>
        <time>2010-09-26T13:39:10Z</time>
      </trkpt>
      <trkpt lat="41.8007680" lon="1.9968750">
        <ele>410.2280000</ele>
        <time>2010-09-26T13:39:19Z</time>
      </trkpt>
      <trkpt lat="41.8006830" lon="1.9968620">
        <ele>411.3690000</ele>
        <time>2010-09-26T13:39:26Z</time>
      </trkpt>
      <trkpt lat="41.8005760" lon="1.9968980">
        <ele>413.8970000</ele>
        <time>2010-09-26T13:39:35Z</time>
      </trkpt>
      <trkpt lat="41.8004670" lon="1.9969190">
        <ele>416.7840000</ele>
        <time>2010-09-26T13:39:45Z</time>
      </trkpt>
      <trkpt lat="41.8003820" lon="1.9969260">
        <ele>418.5620000</ele>
        <time>2010-09-26T13:39:53Z</time>
      </trkpt>
      <trkpt lat="41.8002980" lon="1.9969120">
        <ele>419.8870000</ele>
        <time>2010-09-26T13:40:00Z</time>
      </trkpt>
      <trkpt lat="41.8002430" lon="1.9969240">
        <ele>421.2290000</ele>
        <time>2010-09-26T13:40:07Z</time>
      </trkpt>
      <trkpt lat="41.8002030" lon="1.9969110">
        <ele>421.7450000</ele>
        <time>2010-09-26T13:40:21Z</time>
      </trkpt>
      <trkpt lat="41.8000980" lon="1.9969510">
        <ele>423.9800000</ele>
        <time>2010-09-26T13:40:34Z</time>
      </trkpt>
      <trkpt lat="41.8000210" lon="1.9969750">
        <ele>425.5270000</ele>
        <time>2010-09-26T13:40:45Z</time>
      </trkpt>
      <trkpt lat="41.8000010" lon="1.9969730">
        <ele>425.5790000</ele>
        <time>2010-09-26T13:40:50Z</time>
      </trkpt>
      <trkpt lat="41.7999270" lon="1.9969580">
        <ele>426.7010000</ele>
        <time>2010-09-26T13:40:57Z</time>
      </trkpt>
      <trkpt lat="41.7997900" lon="1.9969570">
        <ele>429.0830000</ele>
        <time>2010-09-26T13:41:08Z</time>
      </trkpt>
      <trkpt lat="41.7996970" lon="1.9969660">
        <ele>431.0780000</ele>
        <time>2010-09-26T13:41:16Z</time>
      </trkpt>
      <trkpt lat="41.7996190" lon="1.9969750">
        <ele>432.5660000</ele>
        <time>2010-09-26T13:41:23Z</time>
      </trkpt>
      <trkpt lat="41.7995180" lon="1.9969780">
        <ele>434.1670000</ele>
        <time>2010-09-26T13:41:32Z</time>
      </trkpt>
      <trkpt lat="41.7994320" lon="1.9969910">
        <ele>436.0130000</ele>
        <time>2010-09-26T13:41:40Z</time>
      </trkpt>
      <trkpt lat="41.7993460" lon="1.9970080">
        <ele>437.2070000</ele>
        <time>2010-09-26T13:41:47Z</time>
      </trkpt>
      <trkpt lat="41.7992510" lon="1.9970660">
        <ele>438.1320000</ele>
        <time>2010-09-26T13:41:55Z</time>
      </trkpt>
      <trkpt lat="41.7991660" lon="1.9971500">
        <ele>439.1130000</ele>
        <time>2010-09-26T13:42:04Z</time>
      </trkpt>
      <trkpt lat="41.7991160" lon="1.9972700">
        <ele>441.5050000</ele>
        <time>2010-09-26T13:42:13Z</time>
      </trkpt>
      <trkpt lat="41.7991110" lon="1.9972840">
        <ele>441.8510000</ele>
        <time>2010-09-26T13:42:14Z</time>
      </trkpt>
      <trkpt lat="41.7990880" lon="1.9973910">
        <ele>443.3500000</ele>
        <time>2010-09-26T13:42:21Z</time>
      </trkpt>
      <trkpt lat="41.7990330" lon="1.9975400">
        <ele>445.6590000</ele>
        <time>2010-09-26T13:42:32Z</time>
      </trkpt>
      <trkpt lat="41.7989920" lon="1.9976410">
        <ele>447.3420000</ele>
        <time>2010-09-26T13:42:39Z</time>
      </trkpt>
      <trkpt lat="41.7989270" lon="1.9977500">
        <ele>448.5690000</ele>
        <time>2010-09-26T13:42:47Z</time>
      </trkpt>
      <trkpt lat="41.7988280" lon="1.9978170">
        <ele>449.5170000</ele>
        <time>2010-09-26T13:42:56Z</time>
      </trkpt>
      <trkpt lat="41.7987600" lon="1.9978370">
        <ele>450.2320000</ele>
        <time>2010-09-26T13:43:01Z</time>
      </trkpt>
      <trkpt lat="41.7987060" lon="1.9978470">
        <ele>450.8130000</ele>
        <time>2010-09-26T13:43:06Z</time>
      </trkpt>
      <trkpt lat="41.7986030" lon="1.9978550">
        <ele>451.1460000</ele>
        <time>2010-09-26T13:43:14Z</time>
      </trkpt>
      <trkpt lat="41.7985730" lon="1.9978350">
        <ele>451.3920000</ele>
        <time>2010-09-26T13:43:16Z</time>
      </trkpt>
      <trkpt lat="41.7985430" lon="1.9977480">
        <ele>452.0730000</ele>
        <time>2010-09-26T13:43:20Z</time>
      </trkpt>
      <trkpt lat="41.7985120" lon="1.9975680">
        <ele>453.6010000</ele>
        <time>2010-09-26T13:43:29Z</time>
      </trkpt>
      <trkpt lat="41.7984500" lon="1.9974150">
        <ele>454.4360000</ele>
        <time>2010-09-26T13:43:36Z</time>
      </trkpt>
      <trkpt lat="41.7983860" lon="1.9972260">
        <ele>455.1910000</ele>
        <time>2010-09-26T13:43:46Z</time>
      </trkpt>
      <trkpt lat="41.7982960" lon="1.9970320">
        <ele>456.3690000</ele>
        <time>2010-09-26T13:43:58Z</time>
      </trkpt>
      <trkpt lat="41.7982290" lon="1.9968650">
        <ele>457.6000000</ele>
        <time>2010-09-26T13:44:08Z</time>
      </trkpt>
      <trkpt lat="41.7982040" lon="1.9967460">
        <ele>459.2930000</ele>
        <time>2010-09-26T13:44:15Z</time>
      </trkpt>
      <trkpt lat="41.7981930" lon="1.9966620">
        <ele>460.7480000</ele>
        <time>2010-09-26T13:44:20Z</time>
      </trkpt>
      <trkpt lat="41.7981690" lon="1.9965110">
        <ele>461.4920000</ele>
        <time>2010-09-26T13:44:28Z</time>
      </trkpt>
      <trkpt lat="41.7981560" lon="1.9963440">
        <ele>462.8180000</ele>
        <time>2010-09-26T13:44:37Z</time>
      </trkpt>
      <trkpt lat="41.7981440" lon="1.9962300">
        <ele>463.7820000</ele>
        <time>2010-09-26T13:44:44Z</time>
      </trkpt>
      <trkpt lat="41.7981360" lon="1.9960540">
        <ele>464.9160000</ele>
        <time>2010-09-26T13:44:52Z</time>
      </trkpt>
      <trkpt lat="41.7981530" lon="1.9959240">
        <ele>465.4330000</ele>
        <time>2010-09-26T13:44:59Z</time>
      </trkpt>
      <trkpt lat="41.7981840" lon="1.9957690">
        <ele>466.5490000</ele>
        <time>2010-09-26T13:45:06Z</time>
      </trkpt>
      <trkpt lat="41.7982000" lon="1.9955490">
        <ele>467.1440000</ele>
        <time>2010-09-26T13:45:15Z</time>
      </trkpt>
      <trkpt lat="41.7982100" lon="1.9953080">
        <ele>467.4090000</ele>
        <time>2010-09-26T13:45:24Z</time>
      </trkpt>
      <trkpt lat="41.7981740" lon="1.9950880">
        <ele>467.0480000</ele>
        <time>2010-09-26T13:45:30Z</time>
      </trkpt>
      <trkpt lat="41.7981250" lon="1.9949660">
        <ele>467.2900000</ele>
        <time>2010-09-26T13:45:35Z</time>
      </trkpt>
      <trkpt lat="41.7980510" lon="1.9948180">
        <ele>467.9460000</ele>
        <time>2010-09-26T13:45:42Z</time>
      </trkpt>
      <trkpt lat="41.7979660" lon="1.9946780">
        <ele>468.6640000</ele>
        <time>2010-09-26T13:45:49Z</time>
      </trkpt>
      <trkpt lat="41.7978480" lon="1.9945360">
        <ele>469.7960000</ele>
        <time>2010-09-26T13:45:57Z</time>
      </trkpt>
      <trkpt lat="41.7977410" lon="1.9944270">
        <ele>470.6890000</ele>
        <time>2010-09-26T13:46:04Z</time>
      </trkpt>
      <trkpt lat="41.7976120" lon="1.9942880">
        <ele>471.8330000</ele>
        <time>2010-09-26T13:46:14Z</time>
      </trkpt>
      <trkpt lat="41.7975190" lon="1.9943010">
        <ele>473.2040000</ele>
        <time>2010-09-26T13:46:21Z</time>
      </trkpt>
      <trkpt lat="41.7975120" lon="1.9943100">
        <ele>473.5310000</ele>
        <time>2010-09-26T13:46:22Z</time>
      </trkpt>
      <trkpt lat="41.7975330" lon="1.9944760">
        <ele>474.6720000</ele>
        <time>2010-09-26T13:46:30Z</time>
      </trkpt>
      <trkpt lat="41.7975800" lon="1.9945920">
        <ele>474.9170000</ele>
        <time>2010-09-26T13:46:36Z</time>
      </trkpt>
      <trkpt lat="41.7976350" lon="1.9947180">
        <ele>476.1450000</ele>
        <time>2010-09-26T13:46:43Z</time>
      </trkpt>
      <trkpt lat="41.7976820" lon="1.9948260">
        <ele>477.0730000</ele>
        <time>2010-09-26T13:46:48Z</time>
      </trkpt>
      <trkpt lat="41.7977370" lon="1.9949580">
        <ele>477.9890000</ele>
        <time>2010-09-26T13:46:56Z</time>
      </trkpt>
      <trkpt lat="41.7977900" lon="1.9951050">
        <ele>478.8840000</ele>
        <time>2010-09-26T13:47:03Z</time>
      </trkpt>
      <trkpt lat="41.7978400" lon="1.9952670">
        <ele>479.7260000</ele>
        <time>2010-09-26T13:47:11Z</time>
      </trkpt>
      <trkpt lat="41.7978490" lon="1.9953100">
        <ele>480.0570000</ele>
        <time>2010-09-26T13:47:13Z</time>
      </trkpt>
      <trkpt lat="41.7978640" lon="1.9954900">
        <ele>481.3570000</ele>
        <time>2010-09-26T13:47:22Z</time>
      </trkpt>
      <trkpt lat="41.7978700" lon="1.9956680">
        <ele>481.7260000</ele>
        <time>2010-09-26T13:47:30Z</time>
      </trkpt>
      <trkpt lat="41.7978410" lon="1.9957770">
        <ele>483.1950000</ele>
        <time>2010-09-26T13:47:36Z</time>
      </trkpt>
      <trkpt lat="41.7978230" lon="1.9958060">
        <ele>483.5900000</ele>
        <time>2010-09-26T13:47:38Z</time>
      </trkpt>
      <trkpt lat="41.7977870" lon="1.9957970">
        <ele>484.7470000</ele>
        <time>2010-09-26T13:47:42Z</time>
      </trkpt>
      <trkpt lat="41.7977150" lon="1.9956430">
        <ele>486.0020000</ele>
        <time>2010-09-26T13:47:51Z</time>
      </trkpt>
      <trkpt lat="41.7976960" lon="1.9955880">
        <ele>486.6030000</ele>
        <time>2010-09-26T13:47:54Z</time>
      </trkpt>
      <trkpt lat="41.7976480" lon="1.9955050">
        <ele>487.5960000</ele>
        <time>2010-09-26T13:48:00Z</time>
      </trkpt>
      <trkpt lat="41.7975540" lon="1.9954140">
        <ele>487.9890000</ele>
        <time>2010-09-26T13:48:07Z</time>
      </trkpt>
      <trkpt lat="41.7974750" lon="1.9953460">
        <ele>488.7070000</ele>
        <time>2010-09-26T13:48:13Z</time>
      </trkpt>
      <trkpt lat="41.7973670" lon="1.9952890">
        <ele>488.8760000</ele>
        <time>2010-09-26T13:48:20Z</time>
      </trkpt>
      <trkpt lat="41.7972250" lon="1.9951830">
        <ele>489.3170000</ele>
        <time>2010-09-26T13:48:29Z</time>
      </trkpt>
      <trkpt lat="41.7971390" lon="1.9951240">
        <ele>490.1850000</ele>
        <time>2010-09-26T13:48:35Z</time>
      </trkpt>
      <trkpt lat="41.7970900" lon="1.9951320">
        <ele>490.7950000</ele>
        <time>2010-09-26T13:48:39Z</time>
      </trkpt>
      <trkpt lat="41.7970630" lon="1.9951770">
        <ele>492.1190000</ele>
        <time>2010-09-26T13:48:43Z</time>
      </trkpt>
      <trkpt lat="41.7970300" lon="1.9953540">
        <ele>495.0460000</ele>
        <time>2010-09-26T13:48:55Z</time>
      </trkpt>
      <trkpt lat="41.7970090" lon="1.9954620">
        <ele>496.9600000</ele>
        <time>2010-09-26T13:49:04Z</time>
      </trkpt>
      <trkpt lat="41.7970130" lon="1.9955130">
        <ele>497.5910000</ele>
        <time>2010-09-26T13:50:00Z</time>
      </trkpt>
      <trkpt lat="41.7970060" lon="1.9955270">
        <ele>497.7980000</ele>
        <time>2010-09-26T13:50:01Z</time>
      </trkpt>
      <trkpt lat="41.7969880" lon="1.9956490">
        <ele>499.3290000</ele>
        <time>2010-09-26T13:50:09Z</time>
      </trkpt>
      <trkpt lat="41.7969840" lon="1.9958010">
        <ele>500.9860000</ele>
        <time>2010-09-26T13:50:18Z</time>
      </trkpt>
      <trkpt lat="41.7969620" lon="1.9959480">
        <ele>502.4230000</ele>
        <time>2010-09-26T13:50:27Z</time>
      </trkpt>
      <trkpt lat="41.7968960" lon="1.9960930">
        <ele>504.5520000</ele>
        <time>2010-09-26T13:50:37Z</time>
      </trkpt>
      <trkpt lat="41.7968220" lon="1.9961870">
        <ele>505.4050000</ele>
        <time>2010-09-26T13:50:44Z</time>
      </trkpt>
      <trkpt lat="41.7967270" lon="1.9962930">
        <ele>506.0090000</ele>
        <time>2010-09-26T13:50:52Z</time>
      </trkpt>
      <trkpt lat="41.7966890" lon="1.9964210">
        <ele>506.6290000</ele>
        <time>2010-09-26T13:50:59Z</time>
      </trkpt>
      <trkpt lat="41.7967150" lon="1.9965980">
        <ele>507.5470000</ele>
        <time>2010-09-26T13:51:08Z</time>
      </trkpt>
      <trkpt lat="41.7967970" lon="1.9968150">
        <ele>508.9130000</ele>
        <time>2010-09-26T13:51:20Z</time>
      </trkpt>
      <trkpt lat="41.7968180" lon="1.9969580">
        <ele>509.7190000</ele>
        <time>2010-09-26T13:51:28Z</time>
      </trkpt>
      <trkpt lat="41.7967790" lon="1.9970950">
        <ele>510.6000000</ele>
        <time>2010-09-26T13:51:36Z</time>
      </trkpt>
      <trkpt lat="41.7967620" lon="1.9972300">
        <ele>512.3070000</ele>
        <time>2010-09-26T13:51:44Z</time>
      </trkpt>
      <trkpt lat="41.7968150" lon="1.9973630">
        <ele>514.5230000</ele>
        <time>2010-09-26T13:51:54Z</time>
      </trkpt>
      <trkpt lat="41.7968490" lon="1.9974850">
        <ele>516.3200000</ele>
        <time>2010-09-26T13:52:03Z</time>
      </trkpt>
      <trkpt lat="41.7968650" lon="1.9976120">
        <ele>517.6880000</ele>
        <time>2010-09-26T13:52:11Z</time>
      </trkpt>
      <trkpt lat="41.7968540" lon="1.9977100">
        <ele>518.7100000</ele>
        <time>2010-09-26T13:52:18Z</time>
      </trkpt>
      <trkpt lat="41.7968470" lon="1.9978120">
        <ele>520.3600000</ele>
        <time>2010-09-26T13:52:25Z</time>
      </trkpt>
      <trkpt lat="41.7968530" lon="1.9978450">
        <ele>520.6270000</ele>
        <time>2010-09-26T13:52:27Z</time>
      </trkpt>
      <trkpt lat="41.7968490" lon="1.9979260">
        <ele>521.1880000</ele>
        <time>2010-09-26T13:52:32Z</time>
      </trkpt>
      <trkpt lat="41.7968340" lon="1.9981120">
        <ele>523.0000000</ele>
        <time>2010-09-26T13:52:43Z</time>
      </trkpt>
      <trkpt lat="41.7967930" lon="1.9982650">
        <ele>524.9790000</ele>
        <time>2010-09-26T13:52:53Z</time>
      </trkpt>
      <trkpt lat="41.7967620" lon="1.9983720">
        <ele>525.9560000</ele>
        <time>2010-09-26T13:53:00Z</time>
      </trkpt>
      <trkpt lat="41.7967370" lon="1.9984790">
        <ele>527.5020000</ele>
        <time>2010-09-26T13:53:08Z</time>
      </trkpt>
      <trkpt lat="41.7967110" lon="1.9986310">
        <ele>528.7790000</ele>
        <time>2010-09-26T13:53:18Z</time>
      </trkpt>
      <trkpt lat="41.7966810" lon="1.9987750">
        <ele>530.5180000</ele>
        <time>2010-09-26T13:53:27Z</time>
      </trkpt>
      <trkpt lat="41.7966460" lon="1.9988210">
        <ele>531.4900000</ele>
        <time>2010-09-26T13:53:31Z</time>
      </trkpt>
      <trkpt lat="41.7965440" lon="1.9988630">
        <ele>533.0850000</ele>
        <time>2010-09-26T13:53:39Z</time>
      </trkpt>
      <trkpt lat="41.7963800" lon="1.9988370">
        <ele>534.4240000</ele>
        <time>2010-09-26T13:53:50Z</time>
      </trkpt>
      <trkpt lat="41.7962440" lon="1.9987980">
        <ele>534.9120000</ele>
        <time>2010-09-26T13:53:58Z</time>
      </trkpt>
      <trkpt lat="41.7961000" lon="1.9987610">
        <ele>535.0800000</ele>
        <time>2010-09-26T13:54:05Z</time>
      </trkpt>
      <trkpt lat="41.7959120" lon="1.9987970">
        <ele>535.4690000</ele>
        <time>2010-09-26T13:54:13Z</time>
      </trkpt>
      <trkpt lat="41.7957430" lon="1.9988290">
        <ele>536.0770000</ele>
        <time>2010-09-26T13:54:20Z</time>
      </trkpt>
      <trkpt lat="41.7955920" lon="1.9986870">
        <ele>537.4030000</ele>
        <time>2010-09-26T13:54:29Z</time>
      </trkpt>
      <trkpt lat="41.7955550" lon="1.9985110">
        <ele>536.6420000</ele>
        <time>2010-09-26T13:54:34Z</time>
      </trkpt>
      <trkpt lat="41.7955450" lon="1.9984970">
        <ele>535.9430000</ele>
        <time>2010-09-26T13:54:37Z</time>
      </trkpt>
      <trkpt lat="41.7955230" lon="1.9984490">
        <ele>536.2830000</ele>
        <time>2010-09-26T13:58:15Z</time>
      </trkpt>
      <trkpt lat="41.7954990" lon="1.9982960">
        <ele>535.9270000</ele>
        <time>2010-09-26T13:58:19Z</time>
      </trkpt>
      <trkpt lat="41.7954100" lon="1.9980170">
        <ele>533.9810000</ele>
        <time>2010-09-26T13:58:25Z</time>
      </trkpt>
      <trkpt lat="41.7953330" lon="1.9977520">
        <ele>533.6280000</ele>
        <time>2010-09-26T13:58:31Z</time>
      </trkpt>
      <trkpt lat="41.7952610" lon="1.9974660">
        <ele>533.6900000</ele>
        <time>2010-09-26T13:58:38Z</time>
      </trkpt>
      <trkpt lat="41.7952300" lon="1.9974120">
        <ele>534.3040000</ele>
        <time>2010-09-26T13:58:42Z</time>
      </trkpt>
      <trkpt lat="41.7951630" lon="1.9973440">
        <ele>534.1080000</ele>
        <time>2010-09-26T13:58:45Z</time>
      </trkpt>
      <trkpt lat="41.7950050" lon="1.9971630">
        <ele>533.0940000</ele>
        <time>2010-09-26T13:58:51Z</time>
      </trkpt>
      <trkpt lat="41.7948970" lon="1.9969940">
        <ele>532.7790000</ele>
        <time>2010-09-26T13:58:57Z</time>
      </trkpt>
      <trkpt lat="41.7948290" lon="1.9968840">
        <ele>532.7570000</ele>
        <time>2010-09-26T13:59:00Z</time>
      </trkpt>
      <trkpt lat="41.7946210" lon="1.9964770">
        <ele>531.4200000</ele>
        <time>2010-09-26T13:59:07Z</time>
      </trkpt>
      <trkpt lat="41.7944880" lon="1.9960740">
        <ele>529.4300000</ele>
        <time>2010-09-26T13:59:13Z</time>
      </trkpt>
      <trkpt lat="41.7944270" lon="1.9958960">
        <ele>528.1890000</ele>
        <time>2010-09-26T13:59:17Z</time>
      </trkpt>
      <trkpt lat="41.7943860" lon="1.9958060">
        <ele>527.4160000</ele>
        <time>2010-09-26T13:59:22Z</time>
      </trkpt>
      <trkpt lat="41.7943770" lon="1.9957960">
        <ele>527.5200000</ele>
        <time>2010-09-26T13:59:25Z</time>
      </trkpt>
      <trkpt lat="41.7943720" lon="1.9957650">
        <ele>527.5110000</ele>
        <time>2010-09-26T13:59:29Z</time>
      </trkpt>
      <trkpt lat="41.7943730" lon="1.9957220">
        <ele>527.1530000</ele>
        <time>2010-09-26T13:59:35Z</time>
      </trkpt>
      <trkpt lat="41.7943660" lon="1.9957070">
        <ele>527.3520000</ele>
        <time>2010-09-26T13:59:37Z</time>
      </trkpt>
      <trkpt lat="41.7943200" lon="1.9956520">
        <ele>528.0270000</ele>
        <time>2010-09-26T13:59:44Z</time>
      </trkpt>
      <trkpt lat="41.7943130" lon="1.9956410">
        <ele>528.0960000</ele>
        <time>2010-09-26T13:59:45Z</time>
      </trkpt>
      <trkpt lat="41.7942580" lon="1.9955590">
        <ele>528.8650000</ele>
        <time>2010-09-26T13:59:53Z</time>
      </trkpt>
      <trkpt lat="41.7941590" lon="1.9954910">
        <ele>529.2830000</ele>
        <time>2010-09-26T13:59:59Z</time>
      </trkpt>
      <trkpt lat="41.7940230" lon="1.9953940">
        <ele>530.6300000</ele>
        <time>2010-09-26T14:00:06Z</time>
      </trkpt>
      <trkpt lat="41.7939030" lon="1.9953210">
        <ele>530.5900000</ele>
        <time>2010-09-26T14:00:11Z</time>
      </trkpt>
      <trkpt lat="41.7937300" lon="1.9952470">
        <ele>530.8890000</ele>
        <time>2010-09-26T14:00:18Z</time>
      </trkpt>
      <trkpt lat="41.7935250" lon="1.9952080">
        <ele>531.0960000</ele>
        <time>2010-09-26T14:00:25Z</time>
      </trkpt>
      <trkpt lat="41.7933850" lon="1.9952330">
        <ele>531.3460000</ele>
        <time>2010-09-26T14:00:30Z</time>
      </trkpt>
      <trkpt lat="41.7932580" lon="1.9952160">
        <ele>531.2060000</ele>
        <time>2010-09-26T14:00:33Z</time>
      </trkpt>
      <trkpt lat="41.7929230" lon="1.9951310">
        <ele>529.4650000</ele>
        <time>2010-09-26T14:00:39Z</time>
      </trkpt>
      <trkpt lat="41.7927860" lon="1.9949480">
        <ele>528.6020000</ele>
        <time>2010-09-26T14:00:43Z</time>
      </trkpt>
      <trkpt lat="41.7927630" lon="1.9948090">
        <ele>528.5710000</ele>
        <time>2010-09-26T14:00:45Z</time>
      </trkpt>
      <trkpt lat="41.7927940" lon="1.9943980">
        <ele>527.3370000</ele>
        <time>2010-09-26T14:00:50Z</time>
      </trkpt>
      <trkpt lat="41.7927890" lon="1.9942260">
        <ele>526.5130000</ele>
        <time>2010-09-26T14:00:52Z</time>
      </trkpt>
      <trkpt lat="41.7926910" lon="1.9940180">
        <ele>524.9070000</ele>
        <time>2010-09-26T14:00:56Z</time>
      </trkpt>
      <trkpt lat="41.7926610" lon="1.9939910">
        <ele>524.8670000</ele>
        <time>2010-09-26T14:00:57Z</time>
      </trkpt>
      <trkpt lat="41.7924840" lon="1.9938320">
        <ele>525.3310000</ele>
        <time>2010-09-26T14:01:04Z</time>
      </trkpt>
      <trkpt lat="41.7922900" lon="1.9936710">
        <ele>525.7870000</ele>
        <time>2010-09-26T14:01:11Z</time>
      </trkpt>
      <trkpt lat="41.7921710" lon="1.9936230">
        <ele>525.3970000</ele>
        <time>2010-09-26T14:01:15Z</time>
      </trkpt>
      <trkpt lat="41.7919280" lon="1.9936180">
        <ele>526.9220000</ele>
        <time>2010-09-26T14:01:24Z</time>
      </trkpt>
      <trkpt lat="41.7917370" lon="1.9935890">
        <ele>527.4540000</ele>
        <time>2010-09-26T14:01:29Z</time>
      </trkpt>
      <trkpt lat="41.7914570" lon="1.9934840">
        <ele>525.4000000</ele>
        <time>2010-09-26T14:01:33Z</time>
      </trkpt>
      <trkpt lat="41.7911490" lon="1.9934780">
        <ele>523.7900000</ele>
        <time>2010-09-26T14:01:37Z</time>
      </trkpt>
      <trkpt lat="41.7909250" lon="1.9935710">
        <ele>522.8540000</ele>
        <time>2010-09-26T14:01:40Z</time>
      </trkpt>
      <trkpt lat="41.7906670" lon="1.9935060">
        <ele>520.4950000</ele>
        <time>2010-09-26T14:01:44Z</time>
      </trkpt>
      <trkpt lat="41.7906490" lon="1.9932610">
        <ele>517.8800000</ele>
        <time>2010-09-26T14:01:47Z</time>
      </trkpt>
      <trkpt lat="41.7906620" lon="1.9930080">
        <ele>516.5420000</ele>
        <time>2010-09-26T14:01:50Z</time>
      </trkpt>
      <trkpt lat="41.7906500" lon="1.9929300">
        <ele>516.2770000</ele>
        <time>2010-09-26T14:01:51Z</time>
      </trkpt>
      <trkpt lat="41.7905180" lon="1.9923800">
        <ele>515.7130000</ele>
        <time>2010-09-26T14:01:59Z</time>
      </trkpt>
      <trkpt lat="41.7904620" lon="1.9920680">
        <ele>515.7830000</ele>
        <time>2010-09-26T14:02:05Z</time>
      </trkpt>
      <trkpt lat="41.7904650" lon="1.9917660">
        <ele>519.9640000</ele>
        <time>2010-09-26T14:02:15Z</time>
      </trkpt>
      <trkpt lat="41.7904730" lon="1.9915850">
        <ele>521.5960000</ele>
        <time>2010-09-26T14:02:21Z</time>
      </trkpt>
      <trkpt lat="41.7905410" lon="1.9914110">
        <ele>522.5120000</ele>
        <time>2010-09-26T14:02:27Z</time>
      </trkpt>
      <trkpt lat="41.7907330" lon="1.9911260">
        <ele>523.7210000</ele>
        <time>2010-09-26T14:02:38Z</time>
      </trkpt>
      <trkpt lat="41.7908800" lon="1.9909150">
        <ele>524.7760000</ele>
        <time>2010-09-26T14:02:46Z</time>
      </trkpt>
      <trkpt lat="41.7910690" lon="1.9906430">
        <ele>525.1680000</ele>
        <time>2010-09-26T14:02:55Z</time>
      </trkpt>
      <trkpt lat="41.7912650" lon="1.9904320">
        <ele>525.1660000</ele>
        <time>2010-09-26T14:03:02Z</time>
      </trkpt>
      <trkpt lat="41.7913730" lon="1.9903430">
        <ele>524.6930000</ele>
        <time>2010-09-26T14:03:05Z</time>
      </trkpt>
      <trkpt lat="41.7914220" lon="1.9902190">
        <ele>524.0460000</ele>
        <time>2010-09-26T14:03:08Z</time>
      </trkpt>
      <trkpt lat="41.7913760" lon="1.9901850">
        <ele>524.1550000</ele>
        <time>2010-09-26T14:03:11Z</time>
      </trkpt>
      <trkpt lat="41.7913140" lon="1.9902150">
        <ele>525.0110000</ele>
        <time>2010-09-26T14:03:15Z</time>
      </trkpt>
      <trkpt lat="41.7911150" lon="1.9902910">
        <ele>528.4720000</ele>
        <time>2010-09-26T14:03:26Z</time>
      </trkpt>
      <trkpt lat="41.7909450" lon="1.9903360">
        <ele>531.5860000</ele>
        <time>2010-09-26T14:03:35Z</time>
      </trkpt>
      <trkpt lat="41.7909270" lon="1.9903380">
        <ele>531.9670000</ele>
        <time>2010-09-26T14:03:36Z</time>
      </trkpt>
      <trkpt lat="41.7909210" lon="1.9902700">
        <ele>532.8200000</ele>
        <time>2010-09-26T14:03:40Z</time>
      </trkpt>
      <trkpt lat="41.7909450" lon="1.9902460">
        <ele>532.7200000</ele>
        <time>2010-09-26T14:03:41Z</time>
      </trkpt>
      <trkpt lat="41.7911730" lon="1.9900260">
        <ele>531.6610000</ele>
        <time>2010-09-26T14:03:47Z</time>
      </trkpt>
      <trkpt lat="41.7915220" lon="1.9897320">
        <ele>529.9200000</ele>
        <time>2010-09-26T14:03:53Z</time>
      </trkpt>
      <trkpt lat="41.7919470" lon="1.9894200">
        <ele>526.8180000</ele>
        <time>2010-09-26T14:03:59Z</time>
      </trkpt>
      <trkpt lat="41.7920930" lon="1.9893410">
        <ele>525.9410000</ele>
        <time>2010-09-26T14:04:01Z</time>
      </trkpt>
      <trkpt lat="41.7923690" lon="1.9890520">
        <ele>524.6830000</ele>
        <time>2010-09-26T14:04:06Z</time>
      </trkpt>
      <trkpt lat="41.7924020" lon="1.9889790">
        <ele>524.6210000</ele>
        <time>2010-09-26T14:04:07Z</time>
      </trkpt>
      <trkpt lat="41.7924540" lon="1.9888460">
        <ele>524.1610000</ele>
        <time>2010-09-26T14:04:09Z</time>
      </trkpt>
      <trkpt lat="41.7924410" lon="1.9886040">
        <ele>523.4950000</ele>
        <time>2010-09-26T14:04:13Z</time>
      </trkpt>
      <trkpt lat="41.7923670" lon="1.9884470">
        <ele>523.0920000</ele>
        <time>2010-09-26T14:04:17Z</time>
      </trkpt>
      <trkpt lat="41.7921890" lon="1.9883140">
        <ele>524.0150000</ele>
        <time>2010-09-26T14:04:24Z</time>
      </trkpt>
      <trkpt lat="41.7919670" lon="1.9882690">
        <ele>525.1930000</ele>
        <time>2010-09-26T14:04:32Z</time>
      </trkpt>
      <trkpt lat="41.7918040" lon="1.9882460">
        <ele>525.6940000</ele>
        <time>2010-09-26T14:04:38Z</time>
      </trkpt>
      <trkpt lat="41.7916000" lon="1.9881450">
        <ele>527.1170000</ele>
        <time>2010-09-26T14:04:47Z</time>
      </trkpt>
      <trkpt lat="41.7915090" lon="1.9881120">
        <ele>528.0050000</ele>
        <time>2010-09-26T14:04:52Z</time>
      </trkpt>
      <trkpt lat="41.7914340" lon="1.9881620">
        <ele>529.1010000</ele>
        <time>2010-09-26T14:04:57Z</time>
      </trkpt>
      <trkpt lat="41.7913130" lon="1.9882330">
        <ele>530.4130000</ele>
        <time>2010-09-26T14:05:04Z</time>
      </trkpt>
      <trkpt lat="41.7912960" lon="1.9882340">
        <ele>530.8040000</ele>
        <time>2010-09-26T14:05:05Z</time>
      </trkpt>
      <trkpt lat="41.7911680" lon="1.9880710">
        <ele>531.5180000</ele>
        <time>2010-09-26T14:05:13Z</time>
      </trkpt>
      <trkpt lat="41.7909920" lon="1.9877780">
        <ele>532.1170000</ele>
        <time>2010-09-26T14:05:24Z</time>
      </trkpt>
      <trkpt lat="41.7908350" lon="1.9876150">
        <ele>532.4200000</ele>
        <time>2010-09-26T14:05:31Z</time>
      </trkpt>
      <trkpt lat="41.7906820" lon="1.9874810">
        <ele>532.4910000</ele>
        <time>2010-09-26T14:05:38Z</time>
      </trkpt>
      <trkpt lat="41.7905090" lon="1.9872920">
        <ele>532.6820000</ele>
        <time>2010-09-26T14:05:47Z</time>
      </trkpt>
      <trkpt lat="41.7904010" lon="1.9871630">
        <ele>533.2220000</ele>
        <time>2010-09-26T14:05:53Z</time>
      </trkpt>
      <trkpt lat="41.7902420" lon="1.9869660">
        <ele>533.9870000</ele>
        <time>2010-09-26T14:06:01Z</time>
      </trkpt>
      <trkpt lat="41.7902020" lon="1.9868000">
        <ele>534.4060000</ele>
        <time>2010-09-26T14:06:06Z</time>
      </trkpt>
      <trkpt lat="41.7902260" lon="1.9867010">
        <ele>534.4850000</ele>
        <time>2010-09-26T14:06:09Z</time>
      </trkpt>
      <trkpt lat="41.7903080" lon="1.9866590">
        <ele>533.9660000</ele>
        <time>2010-09-26T14:06:14Z</time>
      </trkpt>
      <trkpt lat="41.7903530" lon="1.9866570">
        <ele>534.0420000</ele>
        <time>2010-09-26T14:06:16Z</time>
      </trkpt>
      <trkpt lat="41.7904750" lon="1.9866140">
        <ele>533.7660000</ele>
        <time>2010-09-26T14:06:20Z</time>
      </trkpt>
      <trkpt lat="41.7907400" lon="1.9864910">
        <ele>531.1190000</ele>
        <time>2010-09-26T14:06:26Z</time>
      </trkpt>
      <trkpt lat="41.7910670" lon="1.9863420">
        <ele>526.5310000</ele>
        <time>2010-09-26T14:06:33Z</time>
      </trkpt>
      <trkpt lat="41.7913970" lon="1.9861750">
        <ele>522.0380000</ele>
        <time>2010-09-26T14:06:40Z</time>
      </trkpt>
      <trkpt lat="41.7914980" lon="1.9860340">
        <ele>520.5100000</ele>
        <time>2010-09-26T14:06:43Z</time>
      </trkpt>
      <trkpt lat="41.7915820" lon="1.9858690">
        <ele>517.1290000</ele>
        <time>2010-09-26T14:06:47Z</time>
      </trkpt>
      <trkpt lat="41.7916460" lon="1.9856230">
        <ele>515.9430000</ele>
        <time>2010-09-26T14:06:53Z</time>
      </trkpt>
      <trkpt lat="41.7916630" lon="1.9855510">
        <ele>515.9500000</ele>
        <time>2010-09-26T14:06:55Z</time>
      </trkpt>
      <trkpt lat="41.7916780" lon="1.9854110">
        <ele>515.7990000</ele>
        <time>2010-09-26T14:06:59Z</time>
      </trkpt>
      <trkpt lat="41.7916590" lon="1.9852310">
        <ele>514.1840000</ele>
        <time>2010-09-26T14:07:05Z</time>
      </trkpt>
      <trkpt lat="41.7916640" lon="1.9851880">
        <ele>513.4700000</ele>
        <time>2010-09-26T14:07:09Z</time>
      </trkpt>
      <trkpt lat="41.7916620" lon="1.9851500">
        <ele>513.2150000</ele>
        <time>2010-09-26T14:07:13Z</time>
      </trkpt>
      <trkpt lat="41.7916610" lon="1.9850940">
        <ele>513.5540000</ele>
        <time>2010-09-26T14:07:20Z</time>
      </trkpt>
      <trkpt lat="41.7916400" lon="1.9850190">
        <ele>514.0650000</ele>
        <time>2010-09-26T14:07:35Z</time>
      </trkpt>
      <trkpt lat="41.7916430" lon="1.9849520">
        <ele>513.9000000</ele>
        <time>2010-09-26T14:07:39Z</time>
      </trkpt>
      <trkpt lat="41.7915820" lon="1.9848450">
        <ele>513.7620000</ele>
        <time>2010-09-26T14:07:45Z</time>
      </trkpt>
      <trkpt lat="41.7915840" lon="1.9847700">
        <ele>513.3650000</ele>
        <time>2010-09-26T14:07:49Z</time>
      </trkpt>
      <trkpt lat="41.7915810" lon="1.9847610">
        <ele>513.2840000</ele>
        <time>2010-09-26T14:07:50Z</time>
      </trkpt>
      <trkpt lat="41.7915860" lon="1.9847050">
        <ele>512.5050000</ele>
        <time>2010-09-26T14:07:59Z</time>
      </trkpt>
      <trkpt lat="41.7915740" lon="1.9845940">
        <ele>512.2080000</ele>
        <time>2010-09-26T14:08:05Z</time>
      </trkpt>
      <trkpt lat="41.7915590" lon="1.9845460">
        <ele>510.1980000</ele>
        <time>2010-09-26T14:08:09Z</time>
      </trkpt>
      <trkpt lat="41.7915390" lon="1.9845220">
        <ele>509.9450000</ele>
        <time>2010-09-26T14:08:16Z</time>
      </trkpt>
      <trkpt lat="41.7915290" lon="1.9844750">
        <ele>509.9470000</ele>
        <time>2010-09-26T14:08:23Z</time>
      </trkpt>
      <trkpt lat="41.7915270" lon="1.9844440">
        <ele>508.7700000</ele>
        <time>2010-09-26T14:08:30Z</time>
      </trkpt>
      <trkpt lat="41.7915230" lon="1.9844360">
        <ele>508.5470000</ele>
        <time>2010-09-26T14:08:31Z</time>
      </trkpt>
      <trkpt lat="41.7915060" lon="1.9843390">
        <ele>505.7470000</ele>
        <time>2010-09-26T14:08:37Z</time>
      </trkpt>
      <trkpt lat="41.7914970" lon="1.9843100">
        <ele>505.0160000</ele>
        <time>2010-09-26T14:08:39Z</time>
      </trkpt>
      <trkpt lat="41.7914960" lon="1.9842990">
        <ele>504.5860000</ele>
        <time>2010-09-26T14:08:40Z</time>
      </trkpt>
      <trkpt lat="41.7915290" lon="1.9842460">
        <ele>503.0180000</ele>
        <time>2010-09-26T14:08:45Z</time>
      </trkpt>
      <trkpt lat="41.7915290" lon="1.9842490">
        <ele>502.8970000</ele>
        <time>2010-09-26T14:08:46Z</time>
      </trkpt>
      <trkpt lat="41.7916390" lon="1.9842340">
        <ele>502.5420000</ele>
        <time>2010-09-26T14:08:51Z</time>
      </trkpt>
      <trkpt lat="41.7918390" lon="1.9842210">
        <ele>501.4980000</ele>
        <time>2010-09-26T14:08:56Z</time>
      </trkpt>
      <trkpt lat="41.7919770" lon="1.9841760">
        <ele>500.4150000</ele>
        <time>2010-09-26T14:09:00Z</time>
      </trkpt>
      <trkpt lat="41.7920250" lon="1.9840590">
        <ele>499.5830000</ele>
        <time>2010-09-26T14:09:04Z</time>
      </trkpt>
      <trkpt lat="41.7920420" lon="1.9840290">
        <ele>499.3500000</ele>
        <time>2010-09-26T14:09:05Z</time>
      </trkpt>
      <trkpt lat="41.7921470" lon="1.9838610">
        <ele>497.8880000</ele>
        <time>2010-09-26T14:09:11Z</time>
      </trkpt>
      <trkpt lat="41.7922600" lon="1.9837710">
        <ele>497.1460000</ele>
        <time>2010-09-26T14:09:17Z</time>
      </trkpt>
      <trkpt lat="41.7922630" lon="1.9837600">
        <ele>496.5590000</ele>
        <time>2010-09-26T14:09:19Z</time>
      </trkpt>
      <trkpt lat="41.7923050" lon="1.9837240">
        <ele>496.0020000</ele>
        <time>2010-09-26T14:09:30Z</time>
      </trkpt>
      <trkpt lat="41.7923600" lon="1.9837020">
        <ele>495.2520000</ele>
        <time>2010-09-26T14:09:35Z</time>
      </trkpt>
      <trkpt lat="41.7924100" lon="1.9837010">
        <ele>495.1110000</ele>
        <time>2010-09-26T14:09:40Z</time>
      </trkpt>
      <trkpt lat="41.7924530" lon="1.9837110">
        <ele>495.0640000</ele>
        <time>2010-09-26T14:09:45Z</time>
      </trkpt>
      <trkpt lat="41.7924590" lon="1.9837140">
        <ele>494.9840000</ele>
        <time>2010-09-26T14:09:46Z</time>
      </trkpt>
      <trkpt lat="41.7924930" lon="1.9837010">
        <ele>494.7110000</ele>
        <time>2010-09-26T14:09:51Z</time>
      </trkpt>
      <trkpt lat="41.7925080" lon="1.9836550">
        <ele>493.5960000</ele>
        <time>2010-09-26T14:09:55Z</time>
      </trkpt>
      <trkpt lat="41.7924880" lon="1.9835930">
        <ele>491.7380000</ele>
        <time>2010-09-26T14:10:00Z</time>
      </trkpt>
      <trkpt lat="41.7924410" lon="1.9835400">
        <ele>491.3030000</ele>
        <time>2010-09-26T14:10:04Z</time>
      </trkpt>
      <trkpt lat="41.7923460" lon="1.9835060">
        <ele>490.9090000</ele>
        <time>2010-09-26T14:10:08Z</time>
      </trkpt>
      <trkpt lat="41.7922340" lon="1.9834720">
        <ele>489.9180000</ele>
        <time>2010-09-26T14:10:13Z</time>
      </trkpt>
      <trkpt lat="41.7921490" lon="1.9834700">
        <ele>488.2420000</ele>
        <time>2010-09-26T14:10:18Z</time>
      </trkpt>
      <trkpt lat="41.7920540" lon="1.9834260">
        <ele>485.7030000</ele>
        <time>2010-09-26T14:10:25Z</time>
      </trkpt>
      <trkpt lat="41.7920680" lon="1.9833040">
        <ele>483.8430000</ele>
        <time>2010-09-26T14:10:30Z</time>
      </trkpt>
      <trkpt lat="41.7921330" lon="1.9832410">
        <ele>482.5080000</ele>
        <time>2010-09-26T14:10:34Z</time>
      </trkpt>
      <trkpt lat="41.7921980" lon="1.9831370">
        <ele>481.6880000</ele>
        <time>2010-09-26T14:10:37Z</time>
      </trkpt>
      <trkpt lat="41.7923550" lon="1.9829470">
        <ele>480.1530000</ele>
        <time>2010-09-26T14:10:43Z</time>
      </trkpt>
      <trkpt lat="41.7924940" lon="1.9827580">
        <ele>478.3630000</ele>
        <time>2010-09-26T14:10:49Z</time>
      </trkpt>
      <trkpt lat="41.7925360" lon="1.9826860">
        <ele>477.6020000</ele>
        <time>2010-09-26T14:10:52Z</time>
      </trkpt>
      <trkpt lat="41.7926710" lon="1.9826280">
        <ele>476.1500000</ele>
        <time>2010-09-26T14:10:57Z</time>
      </trkpt>
      <trkpt lat="41.7926900" lon="1.9826240">
        <ele>475.3730000</ele>
        <time>2010-09-26T14:11:00Z</time>
      </trkpt>
      <trkpt lat="41.7927370" lon="1.9826170">
        <ele>474.9580000</ele>
        <time>2010-09-26T14:11:15Z</time>
      </trkpt>
      <trkpt lat="41.7927700" lon="1.9826090">
        <ele>474.5770000</ele>
        <time>2010-09-26T14:11:21Z</time>
      </trkpt>
      <trkpt lat="41.7927700" lon="1.9826090">
        <ele>474.4270000</ele>
        <time>2010-09-26T14:11:22Z</time>
      </trkpt>
      <trkpt lat="41.7927890" lon="1.9825900">
        <ele>474.3630000</ele>
        <time>2010-09-26T14:11:32Z</time>
      </trkpt>
      <trkpt lat="41.7928000" lon="1.9825570">
        <ele>473.9820000</ele>
        <time>2010-09-26T14:11:37Z</time>
      </trkpt>
      <trkpt lat="41.7927790" lon="1.9825170">
        <ele>472.9910000</ele>
        <time>2010-09-26T14:11:43Z</time>
      </trkpt>
      <trkpt lat="41.7927760" lon="1.9825110">
        <ele>472.6410000</ele>
        <time>2010-09-26T14:11:44Z</time>
      </trkpt>
      <trkpt lat="41.7927820" lon="1.9824870">
        <ele>472.0540000</ele>
        <time>2010-09-26T14:11:47Z</time>
      </trkpt>
      <trkpt lat="41.7927870" lon="1.9824580">
        <ele>471.0740000</ele>
        <time>2010-09-26T14:11:50Z</time>
      </trkpt>
      <trkpt lat="41.7927410" lon="1.9823990">
        <ele>470.3020000</ele>
        <time>2010-09-26T14:11:56Z</time>
      </trkpt>
      <trkpt lat="41.7926500" lon="1.9823470">
        <ele>471.9730000</ele>
        <time>2010-09-26T14:12:05Z</time>
      </trkpt>
      <trkpt lat="41.7925630" lon="1.9823540">
        <ele>473.2390000</ele>
        <time>2010-09-26T14:12:15Z</time>
      </trkpt>
      <trkpt lat="41.7924790" lon="1.9824100">
        <ele>474.8920000</ele>
        <time>2010-09-26T14:12:25Z</time>
      </trkpt>
      <trkpt lat="41.7923750" lon="1.9825240">
        <ele>476.0210000</ele>
        <time>2010-09-26T14:12:37Z</time>
      </trkpt>
      <trkpt lat="41.7922830" lon="1.9826120">
        <ele>477.4120000</ele>
        <time>2010-09-26T14:12:48Z</time>
      </trkpt>
      <trkpt lat="41.7921960" lon="1.9826490">
        <ele>478.7250000</ele>
        <time>2010-09-26T14:12:56Z</time>
      </trkpt>
      <trkpt lat="41.7921810" lon="1.9826560">
        <ele>479.0160000</ele>
        <time>2010-09-26T14:12:59Z</time>
      </trkpt>
      <trkpt lat="41.7921410" lon="1.9826810">
        <ele>479.3980000</ele>
        <time>2010-09-26T14:13:05Z</time>
      </trkpt>
      <trkpt lat="41.7920480" lon="1.9827810">
        <ele>480.1120000</ele>
        <time>2010-09-26T14:13:12Z</time>
      </trkpt>
      <trkpt lat="41.7919330" lon="1.9828860">
        <ele>481.1800000</ele>
        <time>2010-09-26T14:13:20Z</time>
      </trkpt>
      <trkpt lat="41.7918080" lon="1.9829850">
        <ele>482.5100000</ele>
        <time>2010-09-26T14:13:29Z</time>
      </trkpt>
      <trkpt lat="41.7916780" lon="1.9830660">
        <ele>484.0670000</ele>
        <time>2010-09-26T14:13:38Z</time>
      </trkpt>
      <trkpt lat="41.7915230" lon="1.9831240">
        <ele>486.1290000</ele>
        <time>2010-09-26T14:13:48Z</time>
      </trkpt>
      <trkpt lat="41.7913970" lon="1.9832070">
        <ele>486.9570000</ele>
        <time>2010-09-26T14:13:57Z</time>
      </trkpt>
      <trkpt lat="41.7912780" lon="1.9832890">
        <ele>487.8490000</ele>
        <time>2010-09-26T14:14:06Z</time>
      </trkpt>
      <trkpt lat="41.7911520" lon="1.9833060">
        <ele>489.1880000</ele>
        <time>2010-09-26T14:14:16Z</time>
      </trkpt>
      <trkpt lat="41.7910190" lon="1.9833010">
        <ele>491.4670000</ele>
        <time>2010-09-26T14:14:27Z</time>
      </trkpt>
      <trkpt lat="41.7909060" lon="1.9832970">
        <ele>493.5040000</ele>
        <time>2010-09-26T14:14:36Z</time>
      </trkpt>
      <trkpt lat="41.7908320" lon="1.9832930">
        <ele>495.1360000</ele>
        <time>2010-09-26T14:14:43Z</time>
      </trkpt>
      <trkpt lat="41.7907580" lon="1.9833020">
        <ele>496.8130000</ele>
        <time>2010-09-26T14:14:51Z</time>
      </trkpt>
      <trkpt lat="41.7907250" lon="1.9832940">
        <ele>497.9390000</ele>
        <time>2010-09-26T14:14:57Z</time>
      </trkpt>
      <trkpt lat="41.7906580" lon="1.9833010">
        <ele>499.2770000</ele>
        <time>2010-09-26T14:15:07Z</time>
      </trkpt>
      <trkpt lat="41.7906560" lon="1.9833030">
        <ele>499.5720000</ele>
        <time>2010-09-26T14:15:08Z</time>
      </trkpt>
      <trkpt lat="41.7905920" lon="1.9833350">
        <ele>499.3390000</ele>
        <time>2010-09-26T14:15:14Z</time>
      </trkpt>
      <trkpt lat="41.7904950" lon="1.9833680">
        <ele>499.7180000</ele>
        <time>2010-09-26T14:15:21Z</time>
      </trkpt>
      <trkpt lat="41.7903960" lon="1.9833940">
        <ele>500.3350000</ele>
        <time>2010-09-26T14:15:28Z</time>
      </trkpt>
      <trkpt lat="41.7902750" lon="1.9834460">
        <ele>501.0960000</ele>
        <time>2010-09-26T14:15:37Z</time>
      </trkpt>
      <trkpt lat="41.7901520" lon="1.9835360">
        <ele>502.2330000</ele>
        <time>2010-09-26T14:15:47Z</time>
      </trkpt>
      <trkpt lat="41.7900580" lon="1.9836430">
        <ele>503.1820000</ele>
        <time>2010-09-26T14:15:56Z</time>
      </trkpt>
      <trkpt lat="41.7899650" lon="1.9837630">
        <ele>504.8640000</ele>
        <time>2010-09-26T14:16:06Z</time>
      </trkpt>
      <trkpt lat="41.7899280" lon="1.9837780">
        <ele>505.4060000</ele>
        <time>2010-09-26T14:16:09Z</time>
      </trkpt>
      <trkpt lat="41.7899170" lon="1.9837100">
        <ele>506.4430000</ele>
        <time>2010-09-26T14:16:14Z</time>
      </trkpt>
      <trkpt lat="41.7899590" lon="1.9836060">
        <ele>507.3560000</ele>
        <time>2010-09-26T14:16:20Z</time>
      </trkpt>
      <trkpt lat="41.7899120" lon="1.9835970">
        <ele>508.2160000</ele>
        <time>2010-09-26T14:16:25Z</time>
      </trkpt>
      <trkpt lat="41.7898960" lon="1.9836010">
        <ele>508.3650000</ele>
        <time>2010-09-26T14:16:26Z</time>
      </trkpt>
      <trkpt lat="41.7898310" lon="1.9836000">
        <ele>508.8130000</ele>
        <time>2010-09-26T14:16:30Z</time>
      </trkpt>
      <trkpt lat="41.7898020" lon="1.9834720">
        <ele>509.7960000</ele>
        <time>2010-09-26T14:16:36Z</time>
      </trkpt>
      <trkpt lat="41.7897940" lon="1.9833070">
        <ele>510.7760000</ele>
        <time>2010-09-26T14:16:43Z</time>
      </trkpt>
      <trkpt lat="41.7898100" lon="1.9831340">
        <ele>510.7380000</ele>
        <time>2010-09-26T14:16:48Z</time>
      </trkpt>
      <trkpt lat="41.7898680" lon="1.9828210">
        <ele>510.0360000</ele>
        <time>2010-09-26T14:16:54Z</time>
      </trkpt>
      <trkpt lat="41.7899730" lon="1.9824470">
        <ele>508.9910000</ele>
        <time>2010-09-26T14:17:00Z</time>
      </trkpt>
      <trkpt lat="41.7899870" lon="1.9819410">
        <ele>507.0270000</ele>
        <time>2010-09-26T14:17:06Z</time>
      </trkpt>
      <trkpt lat="41.7900380" lon="1.9812310">
        <ele>503.9680000</ele>
        <time>2010-09-26T14:17:14Z</time>
      </trkpt>
      <trkpt lat="41.7900860" lon="1.9808750">
        <ele>501.2460000</ele>
        <time>2010-09-26T14:17:18Z</time>
      </trkpt>
      <trkpt lat="41.7901790" lon="1.9806580">
        <ele>499.4670000</ele>
        <time>2010-09-26T14:17:21Z</time>
      </trkpt>
      <trkpt lat="41.7902310" lon="1.9805340">
        <ele>498.0180000</ele>
        <time>2010-09-26T14:17:23Z</time>
      </trkpt>
      <trkpt lat="41.7903560" lon="1.9803280">
        <ele>495.7590000</ele>
        <time>2010-09-26T14:17:27Z</time>
      </trkpt>
      <trkpt lat="41.7904280" lon="1.9800480">
        <ele>493.7310000</ele>
        <time>2010-09-26T14:17:31Z</time>
      </trkpt>
      <trkpt lat="41.7904690" lon="1.9798940">
        <ele>492.7930000</ele>
        <time>2010-09-26T14:17:33Z</time>
      </trkpt>
      <trkpt lat="41.7906240" lon="1.9793360">
        <ele>489.8380000</ele>
        <time>2010-09-26T14:17:39Z</time>
      </trkpt>
      <trkpt lat="41.7906830" lon="1.9791530">
        <ele>488.2140000</ele>
        <time>2010-09-26T14:17:41Z</time>
      </trkpt>
      <trkpt lat="41.7908170" lon="1.9789120">
        <ele>485.4000000</ele>
        <time>2010-09-26T14:17:45Z</time>
      </trkpt>
      <trkpt lat="41.7908360" lon="1.9788490">
        <ele>484.6870000</ele>
        <time>2010-09-26T14:17:46Z</time>
      </trkpt>
      <trkpt lat="41.7909030" lon="1.9786200">
        <ele>482.7320000</ele>
        <time>2010-09-26T14:17:50Z</time>
      </trkpt>
      <trkpt lat="41.7910120" lon="1.9783270">
        <ele>480.4890000</ele>
        <time>2010-09-26T14:17:55Z</time>
      </trkpt>
      <trkpt lat="41.7910330" lon="1.9782580">
        <ele>480.1410000</ele>
        <time>2010-09-26T14:17:56Z</time>
      </trkpt>
      <trkpt lat="41.7911370" lon="1.9779890">
        <ele>477.2780000</ele>
        <time>2010-09-26T14:18:00Z</time>
      </trkpt>
      <trkpt lat="41.7911880" lon="1.9777070">
        <ele>475.3620000</ele>
        <time>2010-09-26T14:18:04Z</time>
      </trkpt>
      <trkpt lat="41.7911780" lon="1.9772020">
        <ele>472.0410000</ele>
        <time>2010-09-26T14:18:10Z</time>
      </trkpt>
      <trkpt lat="41.7911460" lon="1.9765910">
        <ele>469.9570000</ele>
        <time>2010-09-26T14:18:17Z</time>
      </trkpt>
      <trkpt lat="41.7911360" lon="1.9764270">
        <ele>469.6890000</ele>
        <time>2010-09-26T14:18:19Z</time>
      </trkpt>
      <trkpt lat="41.7910240" lon="1.9758880">
        <ele>468.2800000</ele>
        <time>2010-09-26T14:18:27Z</time>
      </trkpt>
      <trkpt lat="41.7909700" lon="1.9756080">
        <ele>468.6450000</ele>
        <time>2010-09-26T14:18:33Z</time>
      </trkpt>
      <trkpt lat="41.7908810" lon="1.9753150">
        <ele>470.0380000</ele>
        <time>2010-09-26T14:18:40Z</time>
      </trkpt>
      <trkpt lat="41.7908770" lon="1.9751680">
        <ele>470.3640000</ele>
        <time>2010-09-26T14:18:45Z</time>
      </trkpt>
      <trkpt lat="41.7908710" lon="1.9751460">
        <ele>470.3380000</ele>
        <time>2010-09-26T14:18:46Z</time>
      </trkpt>
      <trkpt lat="41.7908330" lon="1.9751110">
        <ele>470.2120000</ele>
        <time>2010-09-26T14:18:51Z</time>
      </trkpt>
      <trkpt lat="41.7906890" lon="1.9749180">
        <ele>469.3850000</ele>
        <time>2010-09-26T14:19:16Z</time>
      </trkpt>
      <trkpt lat="41.7906120" lon="1.9747480">
        <ele>468.8970000</ele>
        <time>2010-09-26T14:19:19Z</time>
      </trkpt>
      <trkpt lat="41.7903990" lon="1.9745390">
        <ele>467.8400000</ele>
        <time>2010-09-26T14:19:23Z</time>
      </trkpt>
      <trkpt lat="41.7901780" lon="1.9742510">
        <ele>465.0210000</ele>
        <time>2010-09-26T14:19:27Z</time>
      </trkpt>
      <trkpt lat="41.7899130" lon="1.9735780">
        <ele>461.7140000</ele>
        <time>2010-09-26T14:19:34Z</time>
      </trkpt>
      <trkpt lat="41.7897560" lon="1.9730020">
        <ele>459.8770000</ele>
        <time>2010-09-26T14:19:40Z</time>
      </trkpt>
      <trkpt lat="41.7897260" lon="1.9729160">
        <ele>459.5570000</ele>
        <time>2010-09-26T14:19:41Z</time>
      </trkpt>
      <trkpt lat="41.7895810" lon="1.9725760">
        <ele>458.7060000</ele>
        <time>2010-09-26T14:19:45Z</time>
      </trkpt>
      <trkpt lat="41.7893120" lon="1.9719800">
        <ele>456.6420000</ele>
        <time>2010-09-26T14:19:52Z</time>
      </trkpt>
      <trkpt lat="41.7891060" lon="1.9716060">
        <ele>455.0960000</ele>
        <time>2010-09-26T14:19:57Z</time>
      </trkpt>
      <trkpt lat="41.7890750" lon="1.9715610">
        <ele>454.9290000</ele>
        <time>2010-09-26T14:19:58Z</time>
      </trkpt>
      <trkpt lat="41.7888710" lon="1.9712960">
        <ele>453.8410000</ele>
        <time>2010-09-26T14:20:03Z</time>
      </trkpt>
      <trkpt lat="41.7888500" lon="1.9712470">
        <ele>453.6220000</ele>
        <time>2010-09-26T14:20:04Z</time>
      </trkpt>
      <trkpt lat="41.7888060" lon="1.9711620">
        <ele>453.6460000</ele>
        <time>2010-09-26T14:20:06Z</time>
      </trkpt>
      <trkpt lat="41.7886000" lon="1.9710280">
        <ele>453.6070000</ele>
        <time>2010-09-26T14:20:11Z</time>
      </trkpt>
      <trkpt lat="41.7883440" lon="1.9708260">
        <ele>451.7410000</ele>
        <time>2010-09-26T14:20:15Z</time>
      </trkpt>
      <trkpt lat="41.7880690" lon="1.9704940">
        <ele>449.5720000</ele>
        <time>2010-09-26T14:20:20Z</time>
      </trkpt>
      <trkpt lat="41.7878290" lon="1.9702120">
        <ele>448.9670000</ele>
        <time>2010-09-26T14:20:25Z</time>
      </trkpt>
      <trkpt lat="41.7876240" lon="1.9700790">
        <ele>448.2540000</ele>
        <time>2010-09-26T14:20:29Z</time>
      </trkpt>
      <trkpt lat="41.7873770" lon="1.9700290">
        <ele>446.8460000</ele>
        <time>2010-09-26T14:20:34Z</time>
      </trkpt>
      <trkpt lat="41.7872880" lon="1.9699450">
        <ele>446.1110000</ele>
        <time>2010-09-26T14:20:36Z</time>
      </trkpt>
      <trkpt lat="41.7871900" lon="1.9697540">
        <ele>444.4940000</ele>
        <time>2010-09-26T14:20:39Z</time>
      </trkpt>
      <trkpt lat="41.7870400" lon="1.9693370">
        <ele>442.9970000</ele>
        <time>2010-09-26T14:20:45Z</time>
      </trkpt>
      <trkpt lat="41.7869630" lon="1.9689140">
        <ele>441.8260000</ele>
        <time>2010-09-26T14:20:52Z</time>
      </trkpt>
      <trkpt lat="41.7869090" lon="1.9687330">
        <ele>441.9010000</ele>
        <time>2010-09-26T14:20:55Z</time>
      </trkpt>
      <trkpt lat="41.7867500" lon="1.9683170">
        <ele>440.4640000</ele>
        <time>2010-09-26T14:21:02Z</time>
      </trkpt>
      <trkpt lat="41.7865450" lon="1.9678410">
        <ele>439.4330000</ele>
        <time>2010-09-26T14:21:09Z</time>
      </trkpt>
      <trkpt lat="41.7864910" lon="1.9677170">
        <ele>439.4450000</ele>
        <time>2010-09-26T14:21:11Z</time>
      </trkpt>
      <trkpt lat="41.7864240" lon="1.9676090">
        <ele>439.4090000</ele>
        <time>2010-09-26T14:21:13Z</time>
      </trkpt>
      <trkpt lat="41.7863490" lon="1.9673450">
        <ele>439.2080000</ele>
        <time>2010-09-26T14:21:17Z</time>
      </trkpt>
      <trkpt lat="41.7863360" lon="1.9672760">
        <ele>438.9880000</ele>
        <time>2010-09-26T14:21:18Z</time>
      </trkpt>
      <trkpt lat="41.7862880" lon="1.9670830">
        <ele>438.2590000</ele>
        <time>2010-09-26T14:21:21Z</time>
      </trkpt>
      <trkpt lat="41.7862600" lon="1.9668890">
        <ele>437.4300000</ele>
        <time>2010-09-26T14:21:24Z</time>
      </trkpt>
      <trkpt lat="41.7861790" lon="1.9666400">
        <ele>436.4380000</ele>
        <time>2010-09-26T14:21:28Z</time>
      </trkpt>
      <trkpt lat="41.7861260" lon="1.9664630">
        <ele>435.7700000</ele>
        <time>2010-09-26T14:21:31Z</time>
      </trkpt>
      <trkpt lat="41.7860950" lon="1.9662250">
        <ele>434.5260000</ele>
        <time>2010-09-26T14:21:35Z</time>
      </trkpt>
      <trkpt lat="41.7860670" lon="1.9661010">
        <ele>433.7960000</ele>
        <time>2010-09-26T14:21:37Z</time>
      </trkpt>
      <trkpt lat="41.7859730" lon="1.9658150">
        <ele>432.3900000</ele>
        <time>2010-09-26T14:21:42Z</time>
      </trkpt>
      <trkpt lat="41.7859460" lon="1.9655900">
        <ele>431.5630000</ele>
        <time>2010-09-26T14:21:46Z</time>
      </trkpt>
      <trkpt lat="41.7859010" lon="1.9653710">
        <ele>430.1670000</ele>
        <time>2010-09-26T14:21:50Z</time>
      </trkpt>
      <trkpt lat="41.7858770" lon="1.9652530">
        <ele>429.9500000</ele>
        <time>2010-09-26T14:21:52Z</time>
      </trkpt>
      <trkpt lat="41.7858120" lon="1.9650740">
        <ele>429.5520000</ele>
        <time>2010-09-26T14:21:55Z</time>
      </trkpt>
      <trkpt lat="41.7857300" lon="1.9647890">
        <ele>428.2650000</ele>
        <time>2010-09-26T14:22:00Z</time>
      </trkpt>
      <trkpt lat="41.7856940" lon="1.9645890">
        <ele>426.7040000</ele>
        <time>2010-09-26T14:22:05Z</time>
      </trkpt>
      <trkpt lat="41.7856800" lon="1.9644520">
        <ele>425.7910000</ele>
        <time>2010-09-26T14:22:10Z</time>
      </trkpt>
      <trkpt lat="41.7855650" lon="1.9642950">
        <ele>424.6490000</ele>
        <time>2010-09-26T14:22:16Z</time>
      </trkpt>
      <trkpt lat="41.7854130" lon="1.9641360">
        <ele>424.7360000</ele>
        <time>2010-09-26T14:22:22Z</time>
      </trkpt>
      <trkpt lat="41.7853180" lon="1.9639060">
        <ele>425.4890000</ele>
        <time>2010-09-26T14:22:28Z</time>
      </trkpt>
      <trkpt lat="41.7852270" lon="1.9636670">
        <ele>425.4440000</ele>
        <time>2010-09-26T14:22:33Z</time>
      </trkpt>
      <trkpt lat="41.7851810" lon="1.9635600">
        <ele>425.3530000</ele>
        <time>2010-09-26T14:22:35Z</time>
      </trkpt>
      <trkpt lat="41.7851030" lon="1.9633890">
        <ele>425.3380000</ele>
        <time>2010-09-26T14:22:38Z</time>
      </trkpt>
      <trkpt lat="41.7850280" lon="1.9631400">
        <ele>425.0510000</ele>
        <time>2010-09-26T14:22:42Z</time>
      </trkpt>
      <trkpt lat="41.7849200" lon="1.9628230">
        <ele>423.5920000</ele>
        <time>2010-09-26T14:22:47Z</time>
      </trkpt>
      <trkpt lat="41.7848740" lon="1.9626780">
        <ele>422.9540000</ele>
        <time>2010-09-26T14:22:49Z</time>
      </trkpt>
      <trkpt lat="41.7847300" lon="1.9623890">
        <ele>422.0240000</ele>
        <time>2010-09-26T14:22:53Z</time>
      </trkpt>
      <trkpt lat="41.7846120" lon="1.9621020">
        <ele>420.8860000</ele>
        <time>2010-09-26T14:22:58Z</time>
      </trkpt>
      <trkpt lat="41.7845000" lon="1.9618740">
        <ele>419.9420000</ele>
        <time>2010-09-26T14:23:03Z</time>
      </trkpt>
      <trkpt lat="41.7844090" lon="1.9616880">
        <ele>419.5190000</ele>
        <time>2010-09-26T14:23:06Z</time>
      </trkpt>
      <trkpt lat="41.7843030" lon="1.9615090">
        <ele>418.8460000</ele>
        <time>2010-09-26T14:23:09Z</time>
      </trkpt>
      <trkpt lat="41.7841470" lon="1.9612850">
        <ele>418.0370000</ele>
        <time>2010-09-26T14:23:13Z</time>
      </trkpt>
      <trkpt lat="41.7840750" lon="1.9611670">
        <ele>417.5020000</ele>
        <time>2010-09-26T14:23:15Z</time>
      </trkpt>
      <trkpt lat="41.7839960" lon="1.9610210">
        <ele>416.6520000</ele>
        <time>2010-09-26T14:23:18Z</time>
      </trkpt>
      <trkpt lat="41.7838780" lon="1.9607580">
        <ele>415.6360000</ele>
        <time>2010-09-26T14:23:23Z</time>
      </trkpt>
      <trkpt lat="41.7837850" lon="1.9604830">
        <ele>416.0150000</ele>
        <time>2010-09-26T14:23:28Z</time>
      </trkpt>
      <trkpt lat="41.7835660" lon="1.9600980">
        <ele>414.8310000</ele>
        <time>2010-09-26T14:23:35Z</time>
      </trkpt>
      <trkpt lat="41.7834460" lon="1.9598430">
        <ele>413.8930000</ele>
        <time>2010-09-26T14:23:39Z</time>
      </trkpt>
      <trkpt lat="41.7832520" lon="1.9593720">
        <ele>412.9360000</ele>
        <time>2010-09-26T14:23:46Z</time>
      </trkpt>
      <trkpt lat="41.7831040" lon="1.9590700">
        <ele>412.2720000</ele>
        <time>2010-09-26T14:23:51Z</time>
      </trkpt>
      <trkpt lat="41.7829880" lon="1.9588510">
        <ele>412.0400000</ele>
        <time>2010-09-26T14:23:55Z</time>
      </trkpt>
      <trkpt lat="41.7828400" lon="1.9585440">
        <ele>411.5070000</ele>
        <time>2010-09-26T14:24:01Z</time>
      </trkpt>
      <trkpt lat="41.7827770" lon="1.9584350">
        <ele>411.3240000</ele>
        <time>2010-09-26T14:24:03Z</time>
      </trkpt>
      <trkpt lat="41.7826540" lon="1.9582050">
        <ele>411.0650000</ele>
        <time>2010-09-26T14:24:07Z</time>
      </trkpt>
      <trkpt lat="41.7825500" lon="1.9579210">
        <ele>409.9410000</ele>
        <time>2010-09-26T14:24:12Z</time>
      </trkpt>
      <trkpt lat="41.7825340" lon="1.9576670">
        <ele>408.9120000</ele>
        <time>2010-09-26T14:24:18Z</time>
      </trkpt>
      <trkpt lat="41.7825540" lon="1.9574670">
        <ele>408.3680000</ele>
        <time>2010-09-26T14:24:23Z</time>
      </trkpt>
      <trkpt lat="41.7824910" lon="1.9572920">
        <ele>407.1710000</ele>
        <time>2010-09-26T14:24:28Z</time>
      </trkpt>
      <trkpt lat="41.7824620" lon="1.9572660">
        <ele>406.8420000</ele>
        <time>2010-09-26T14:24:29Z</time>
      </trkpt>
      <trkpt lat="41.7823730" lon="1.9570240">
        <ele>405.2500000</ele>
        <time>2010-09-26T14:24:33Z</time>
      </trkpt>
      <trkpt lat="41.7824010" lon="1.9567580">
        <ele>403.7730000</ele>
        <time>2010-09-26T14:24:36Z</time>
      </trkpt>
      <trkpt lat="41.7823690" lon="1.9563690">
        <ele>402.4830000</ele>
        <time>2010-09-26T14:24:41Z</time>
      </trkpt>
      <trkpt lat="41.7823310" lon="1.9563250">
        <ele>402.4150000</ele>
        <time>2010-09-26T14:24:42Z</time>
      </trkpt>
      <trkpt lat="41.7822050" lon="1.9562110">
        <ele>402.6020000</ele>
        <time>2010-09-26T14:24:45Z</time>
      </trkpt>
      <trkpt lat="41.7821250" lon="1.9561130">
        <ele>402.6300000</ele>
        <time>2010-09-26T14:24:47Z</time>
      </trkpt>
      <trkpt lat="41.7819190" lon="1.9559540">
        <ele>403.2620000</ele>
        <time>2010-09-26T14:24:52Z</time>
      </trkpt>
      <trkpt lat="41.7817620" lon="1.9558720">
        <ele>404.1670000</ele>
        <time>2010-09-26T14:24:56Z</time>
      </trkpt>
      <trkpt lat="41.7813300" lon="1.9555800">
        <ele>403.9400000</ele>
        <time>2010-09-26T14:25:06Z</time>
      </trkpt>
      <trkpt lat="41.7810450" lon="1.9552950">
        <ele>403.9610000</ele>
        <time>2010-09-26T14:25:13Z</time>
      </trkpt>
      <trkpt lat="41.7808850" lon="1.9551810">
        <ele>404.3580000</ele>
        <time>2010-09-26T14:25:17Z</time>
      </trkpt>
      <trkpt lat="41.7806380" lon="1.9551230">
        <ele>404.3050000</ele>
        <time>2010-09-26T14:25:22Z</time>
      </trkpt>
      <trkpt lat="41.7801230" lon="1.9548500">
        <ele>401.0770000</ele>
        <time>2010-09-26T14:25:29Z</time>
      </trkpt>
      <trkpt lat="41.7798540" lon="1.9546350">
        <ele>400.1300000</ele>
        <time>2010-09-26T14:25:33Z</time>
      </trkpt>
      <trkpt lat="41.7796070" lon="1.9542180">
        <ele>398.2430000</ele>
        <time>2010-09-26T14:25:38Z</time>
      </trkpt>
      <trkpt lat="41.7795020" lon="1.9537760">
        <ele>396.3430000</ele>
        <time>2010-09-26T14:25:42Z</time>
      </trkpt>
      <trkpt lat="41.7793880" lon="1.9533330">
        <ele>394.5270000</ele>
        <time>2010-09-26T14:25:46Z</time>
      </trkpt>
      <trkpt lat="41.7793670" lon="1.9531000">
        <ele>393.3870000</ele>
        <time>2010-09-26T14:25:48Z</time>
      </trkpt>
      <trkpt lat="41.7792230" lon="1.9527070">
        <ele>391.4810000</ele>
        <time>2010-09-26T14:25:52Z</time>
      </trkpt>
      <trkpt lat="41.7790240" lon="1.9525250">
        <ele>390.2800000</ele>
        <time>2010-09-26T14:25:55Z</time>
      </trkpt>
      <trkpt lat="41.7787290" lon="1.9521670">
        <ele>387.9020000</ele>
        <time>2010-09-26T14:26:00Z</time>
      </trkpt>
      <trkpt lat="41.7787050" lon="1.9520700">
        <ele>387.5330000</ele>
        <time>2010-09-26T14:26:01Z</time>
      </trkpt>
      <trkpt lat="41.7786670" lon="1.9518790">
        <ele>387.2120000</ele>
        <time>2010-09-26T14:26:03Z</time>
      </trkpt>
      <trkpt lat="41.7786430" lon="1.9516940">
        <ele>386.3780000</ele>
        <time>2010-09-26T14:26:05Z</time>
      </trkpt>
      <trkpt lat="41.7785140" lon="1.9513250">
        <ele>384.0750000</ele>
        <time>2010-09-26T14:26:09Z</time>
      </trkpt>
      <trkpt lat="41.7784000" lon="1.9508810">
        <ele>380.0730000</ele>
        <time>2010-09-26T14:26:14Z</time>
      </trkpt>
      <trkpt lat="41.7784070" lon="1.9505180">
        <ele>381.5120000</ele>
        <time>2010-09-26T14:26:20Z</time>
      </trkpt>
      <trkpt lat="41.7782380" lon="1.9500310">
        <ele>380.5680000</ele>
        <time>2010-09-26T14:26:27Z</time>
      </trkpt>
      <trkpt lat="41.7780410" lon="1.9495750">
        <ele>380.9060000</ele>
        <time>2010-09-26T14:26:34Z</time>
      </trkpt>
      <trkpt lat="41.7779330" lon="1.9492820">
        <ele>382.1680000</ele>
        <time>2010-09-26T14:26:39Z</time>
      </trkpt>
      <trkpt lat="41.7777640" lon="1.9488090">
        <ele>381.4850000</ele>
        <time>2010-09-26T14:26:46Z</time>
      </trkpt>
      <trkpt lat="41.7774880" lon="1.9483900">
        <ele>380.2500000</ele>
        <time>2010-09-26T14:26:53Z</time>
      </trkpt>
      <trkpt lat="41.7773230" lon="1.9481430">
        <ele>379.2120000</ele>
        <time>2010-09-26T14:26:57Z</time>
      </trkpt>
      <trkpt lat="41.7772340" lon="1.9478400">
        <ele>378.6620000</ele>
        <time>2010-09-26T14:27:01Z</time>
      </trkpt>
      <trkpt lat="41.7772450" lon="1.9476710">
        <ele>378.4690000</ele>
        <time>2010-09-26T14:27:03Z</time>
      </trkpt>
      <trkpt lat="41.7773550" lon="1.9467210">
        <ele>376.9690000</ele>
        <time>2010-09-26T14:27:14Z</time>
      </trkpt>
      <trkpt lat="41.7773920" lon="1.9465500">
        <ele>376.9570000</ele>
        <time>2010-09-26T14:27:16Z</time>
      </trkpt>
      <trkpt lat="41.7776490" lon="1.9458930">
        <ele>375.8050000</ele>
        <time>2010-09-26T14:27:24Z</time>
      </trkpt>
      <trkpt lat="41.7777030" lon="1.9457180">
        <ele>375.2100000</ele>
        <time>2010-09-26T14:27:26Z</time>
      </trkpt>
      <trkpt lat="41.7777670" lon="1.9451790">
        <ele>374.7880000</ele>
        <time>2010-09-26T14:27:32Z</time>
      </trkpt>
      <trkpt lat="41.7778300" lon="1.9445450">
        <ele>373.6810000</ele>
        <time>2010-09-26T14:27:39Z</time>
      </trkpt>
      <trkpt lat="41.7778540" lon="1.9443610">
        <ele>372.9830000</ele>
        <time>2010-09-26T14:27:41Z</time>
      </trkpt>
      <trkpt lat="41.7780260" lon="1.9438150">
        <ele>371.8460000</ele>
        <time>2010-09-26T14:27:47Z</time>
      </trkpt>
      <trkpt lat="41.7782380" lon="1.9435240">
        <ele>370.0520000</ele>
        <time>2010-09-26T14:27:51Z</time>
      </trkpt>
      <trkpt lat="41.7785630" lon="1.9432730">
        <ele>367.0750000</ele>
        <time>2010-09-26T14:27:56Z</time>
      </trkpt>
      <trkpt lat="41.7788620" lon="1.9430050">
        <ele>364.0240000</ele>
        <time>2010-09-26T14:28:01Z</time>
      </trkpt>
      <trkpt lat="41.7789150" lon="1.9427290">
        <ele>361.9020000</ele>
        <time>2010-09-26T14:28:04Z</time>
      </trkpt>
      <trkpt lat="41.7788300" lon="1.9424660">
        <ele>360.6970000</ele>
        <time>2010-09-26T14:28:07Z</time>
      </trkpt>
      <trkpt lat="41.7788010" lon="1.9423830">
        <ele>360.3470000</ele>
        <time>2010-09-26T14:28:08Z</time>
      </trkpt>
      <trkpt lat="41.7786960" lon="1.9420670">
        <ele>359.8710000</ele>
        <time>2010-09-26T14:28:12Z</time>
      </trkpt>
      <trkpt lat="41.7786160" lon="1.9418270">
        <ele>359.5440000</ele>
        <time>2010-09-26T14:28:15Z</time>
      </trkpt>
      <trkpt lat="41.7784140" lon="1.9415680">
        <ele>359.1500000</ele>
        <time>2010-09-26T14:28:19Z</time>
      </trkpt>
      <trkpt lat="41.7783520" lon="1.9415070">
        <ele>358.8330000</ele>
        <time>2010-09-26T14:28:20Z</time>
      </trkpt>
      <trkpt lat="41.7782210" lon="1.9411700">
        <ele>356.7950000</ele>
        <time>2010-09-26T14:28:24Z</time>
      </trkpt>
      <trkpt lat="41.7782190" lon="1.9409810">
        <ele>356.0060000</ele>
        <time>2010-09-26T14:28:26Z</time>
      </trkpt>
      <trkpt lat="41.7781760" lon="1.9406400">
        <ele>355.3470000</ele>
        <time>2010-09-26T14:28:30Z</time>
      </trkpt>
      <trkpt lat="41.7780290" lon="1.9402980">
        <ele>355.5350000</ele>
        <time>2010-09-26T14:28:36Z</time>
      </trkpt>
      <trkpt lat="41.7778810" lon="1.9400130">
        <ele>355.8340000</ele>
        <time>2010-09-26T14:28:41Z</time>
      </trkpt>
      <trkpt lat="41.7778510" lon="1.9399450">
        <ele>355.8150000</ele>
        <time>2010-09-26T14:28:42Z</time>
      </trkpt>
      <trkpt lat="41.7776060" lon="1.9393390">
        <ele>355.0990000</ele>
        <time>2010-09-26T14:28:50Z</time>
      </trkpt>
      <trkpt lat="41.7773830" lon="1.9387490">
        <ele>354.4780000</ele>
        <time>2010-09-26T14:28:57Z</time>
      </trkpt>
      <trkpt lat="41.7773180" lon="1.9384720">
        <ele>354.0510000</ele>
        <time>2010-09-26T14:29:00Z</time>
      </trkpt>
      <trkpt lat="41.7770750" lon="1.9380220">
        <ele>353.3760000</ele>
        <time>2010-09-26T14:29:06Z</time>
      </trkpt>
      <trkpt lat="41.7767860" lon="1.9376900">
        <ele>354.1640000</ele>
        <time>2010-09-26T14:29:13Z</time>
      </trkpt>
      <trkpt lat="41.7764670" lon="1.9373760">
        <ele>354.0890000</ele>
        <time>2010-09-26T14:29:20Z</time>
      </trkpt>
      <trkpt lat="41.7763610" lon="1.9372690">
        <ele>353.6330000</ele>
        <time>2010-09-26T14:29:22Z</time>
      </trkpt>
      <trkpt lat="41.7761480" lon="1.9369250">
        <ele>352.8390000</ele>
        <time>2010-09-26T14:29:27Z</time>
      </trkpt>
      <trkpt lat="41.7760090" lon="1.9365970">
        <ele>352.0360000</ele>
        <time>2010-09-26T14:29:31Z</time>
      </trkpt>
      <trkpt lat="41.7759390" lon="1.9362010">
        <ele>351.1710000</ele>
        <time>2010-09-26T14:29:35Z</time>
      </trkpt>
      <trkpt lat="41.7757480" lon="1.9357170">
        <ele>348.7810000</ele>
        <time>2010-09-26T14:29:40Z</time>
      </trkpt>
      <trkpt lat="41.7755670" lon="1.9352230">
        <ele>346.6290000</ele>
        <time>2010-09-26T14:29:45Z</time>
      </trkpt>
      <trkpt lat="41.7754650" lon="1.9346310">
        <ele>345.4070000</ele>
        <time>2010-09-26T14:29:51Z</time>
      </trkpt>
      <trkpt lat="41.7753390" lon="1.9342790">
        <ele>344.0690000</ele>
        <time>2010-09-26T14:29:55Z</time>
      </trkpt>
      <trkpt lat="41.7752240" lon="1.9341630">
        <ele>343.4130000</ele>
        <time>2010-09-26T14:29:57Z</time>
      </trkpt>
      <trkpt lat="41.7747020" lon="1.9336830">
        <ele>341.3590000</ele>
        <time>2010-09-26T14:30:05Z</time>
      </trkpt>
      <trkpt lat="41.7742230" lon="1.9331590">
        <ele>339.9980000</ele>
        <time>2010-09-26T14:30:13Z</time>
      </trkpt>
      <trkpt lat="41.7741700" lon="1.9330920">
        <ele>339.9550000</ele>
        <time>2010-09-26T14:30:14Z</time>
      </trkpt>
      <trkpt lat="41.7738580" lon="1.9328420">
        <ele>339.8670000</ele>
        <time>2010-09-26T14:30:19Z</time>
      </trkpt>
      <trkpt lat="41.7737340" lon="1.9327380">
        <ele>339.7340000</ele>
        <time>2010-09-26T14:30:21Z</time>
      </trkpt>
      <trkpt lat="41.7733560" lon="1.9322280">
        <ele>339.3610000</ele>
        <time>2010-09-26T14:30:29Z</time>
      </trkpt>
      <trkpt lat="41.7733170" lon="1.9321660">
        <ele>339.3670000</ele>
        <time>2010-09-26T14:30:30Z</time>
      </trkpt>
      <trkpt lat="41.7732100" lon="1.9319660">
        <ele>339.3840000</ele>
        <time>2010-09-26T14:30:33Z</time>
      </trkpt>
      <trkpt lat="41.7729780" lon="1.9317230">
        <ele>339.4790000</ele>
        <time>2010-09-26T14:30:38Z</time>
      </trkpt>
      <trkpt lat="41.7728560" lon="1.9316960">
        <ele>339.4160000</ele>
        <time>2010-09-26T14:30:40Z</time>
      </trkpt>
      <trkpt lat="41.7726400" lon="1.9316850">
        <ele>339.5770000</ele>
        <time>2010-09-26T14:30:44Z</time>
      </trkpt>
      <trkpt lat="41.7724730" lon="1.9316520">
        <ele>340.0420000</ele>
        <time>2010-09-26T14:30:47Z</time>
      </trkpt>
      <trkpt lat="41.7721980" lon="1.9315020">
        <ele>340.6660000</ele>
        <time>2010-09-26T14:30:53Z</time>
      </trkpt>
      <trkpt lat="41.7718590" lon="1.9314000">
        <ele>340.5020000</ele>
        <time>2010-09-26T14:30:59Z</time>
      </trkpt>
      <trkpt lat="41.7715280" lon="1.9314040">
        <ele>340.1690000</ele>
        <time>2010-09-26T14:31:04Z</time>
      </trkpt>
      <trkpt lat="41.7712030" lon="1.9315230">
        <ele>339.3090000</ele>
        <time>2010-09-26T14:31:09Z</time>
      </trkpt>
      <trkpt lat="41.7709610" lon="1.9316320">
        <ele>339.2600000</ele>
        <time>2010-09-26T14:31:13Z</time>
      </trkpt>
      <trkpt lat="41.7707160" lon="1.9319040">
        <ele>339.1830000</ele>
        <time>2010-09-26T14:31:18Z</time>
      </trkpt>
      <trkpt lat="41.7704590" lon="1.9321050">
        <ele>336.5650000</ele>
        <time>2010-09-26T14:31:22Z</time>
      </trkpt>
      <trkpt lat="41.7700210" lon="1.9322850">
        <ele>333.8210000</ele>
        <time>2010-09-26T14:31:28Z</time>
      </trkpt>
      <trkpt lat="41.7696930" lon="1.9322670">
        <ele>333.6600000</ele>
        <time>2010-09-26T14:31:33Z</time>
      </trkpt>
      <trkpt lat="41.7695670" lon="1.9320980">
        <ele>333.9910000</ele>
        <time>2010-09-26T14:31:36Z</time>
      </trkpt>
      <trkpt lat="41.7694960" lon="1.9319050">
        <ele>333.5940000</ele>
        <time>2010-09-26T14:31:38Z</time>
      </trkpt>
      <trkpt lat="41.7693870" lon="1.9315670">
        <ele>331.2420000</ele>
        <time>2010-09-26T14:31:41Z</time>
      </trkpt>
      <trkpt lat="41.7692320" lon="1.9313880">
        <ele>329.0270000</ele>
        <time>2010-09-26T14:31:44Z</time>
      </trkpt>
      <trkpt lat="41.7691170" lon="1.9314210">
        <ele>327.0560000</ele>
        <time>2010-09-26T14:31:47Z</time>
      </trkpt>
      <trkpt lat="41.7691080" lon="1.9314370">
        <ele>325.7390000</ele>
        <time>2010-09-26T14:31:49Z</time>
      </trkpt>
      <trkpt lat="41.7691530" lon="1.9314050">
        <ele>325.0590000</ele>
        <time>2010-09-26T14:31:59Z</time>
      </trkpt>
      <trkpt lat="41.7691910" lon="1.9313690">
        <ele>325.7080000</ele>
        <time>2010-09-26T14:32:04Z</time>
      </trkpt>
      <trkpt lat="41.7692130" lon="1.9313580">
        <ele>326.4820000</ele>
        <time>2010-09-26T14:32:08Z</time>
      </trkpt>
      <trkpt lat="41.7692690" lon="1.9313690">
        <ele>326.9850000</ele>
        <time>2010-09-26T14:32:14Z</time>
      </trkpt>
      <trkpt lat="41.7693310" lon="1.9313540">
        <ele>327.0270000</ele>
        <time>2010-09-26T14:32:20Z</time>
      </trkpt>
      <trkpt lat="41.7692940" lon="1.9312580">
        <ele>326.5530000</ele>
        <time>2010-09-26T14:32:23Z</time>
      </trkpt>
      <trkpt lat="41.7692290" lon="1.9311330">
        <ele>325.1660000</ele>
        <time>2010-09-26T14:32:26Z</time>
      </trkpt>
      <trkpt lat="41.7690910" lon="1.9309540">
        <ele>321.8180000</ele>
        <time>2010-09-26T14:32:31Z</time>
      </trkpt>
      <trkpt lat="41.7690440" lon="1.9307860">
        <ele>320.0720000</ele>
        <time>2010-09-26T14:32:35Z</time>
      </trkpt>
      <trkpt lat="41.7689180" lon="1.9307150">
        <ele>318.8620000</ele>
        <time>2010-09-26T14:32:38Z</time>
      </trkpt>
      <trkpt lat="41.7687990" lon="1.9307810">
        <ele>318.2800000</ele>
        <time>2010-09-26T14:32:41Z</time>
      </trkpt>
      <trkpt lat="41.7686020" lon="1.9308970">
        <ele>317.3990000</ele>
        <time>2010-09-26T14:32:47Z</time>
      </trkpt>
      <trkpt lat="41.7684610" lon="1.9309500">
        <ele>317.2100000</ele>
        <time>2010-09-26T14:32:51Z</time>
      </trkpt>
      <trkpt lat="41.7684260" lon="1.9309750">
        <ele>317.0270000</ele>
        <time>2010-09-26T14:32:52Z</time>
      </trkpt>
      <trkpt lat="41.7682880" lon="1.9311240">
        <ele>316.6860000</ele>
        <time>2010-09-26T14:32:57Z</time>
      </trkpt>
      <trkpt lat="41.7682890" lon="1.9312200">
        <ele>317.5440000</ele>
        <time>2010-09-26T14:33:02Z</time>
      </trkpt>
      <trkpt lat="41.7682900" lon="1.9312200">
        <ele>317.6520000</ele>
        <time>2010-09-26T14:33:03Z</time>
      </trkpt>
      <trkpt lat="41.7683190" lon="1.9312740">
        <ele>317.9120000</ele>
        <time>2010-09-26T14:33:24Z</time>
      </trkpt>
      <trkpt lat="41.7683210" lon="1.9312820">
        <ele>318.2350000</ele>
        <time>2010-09-26T14:33:26Z</time>
      </trkpt>
      <trkpt lat="41.7683280" lon="1.9313130">
        <ele>318.0560000</ele>
        <time>2010-09-26T14:33:31Z</time>
      </trkpt>
      <trkpt lat="41.7683290" lon="1.9313960">
        <ele>318.6790000</ele>
        <time>2010-09-26T14:33:37Z</time>
      </trkpt>
      <trkpt lat="41.7683010" lon="1.9315830">
        <ele>319.0020000</ele>
        <time>2010-09-26T14:33:43Z</time>
      </trkpt>
      <trkpt lat="41.7683090" lon="1.9317210">
        <ele>319.0920000</ele>
        <time>2010-09-26T14:33:48Z</time>
      </trkpt>
      <trkpt lat="41.7682980" lon="1.9318990">
        <ele>319.4690000</ele>
        <time>2010-09-26T14:33:54Z</time>
      </trkpt>
      <trkpt lat="41.7682930" lon="1.9320370">
        <ele>320.0540000</ele>
        <time>2010-09-26T14:33:59Z</time>
      </trkpt>
      <trkpt lat="41.7682860" lon="1.9322420">
        <ele>320.3190000</ele>
        <time>2010-09-26T14:34:06Z</time>
      </trkpt>
      <trkpt lat="41.7683000" lon="1.9324040">
        <ele>320.9770000</ele>
        <time>2010-09-26T14:34:11Z</time>
      </trkpt>
      <trkpt lat="41.7683580" lon="1.9325910">
        <ele>322.1680000</ele>
        <time>2010-09-26T14:34:17Z</time>
      </trkpt>
      <trkpt lat="41.7683290" lon="1.9328090">
        <ele>323.3810000</ele>
        <time>2010-09-26T14:34:24Z</time>
      </trkpt>
      <trkpt lat="41.7682560" lon="1.9330290">
        <ele>323.6800000</ele>
        <time>2010-09-26T14:34:31Z</time>
      </trkpt>
      <trkpt lat="41.7681310" lon="1.9332170">
        <ele>323.7160000</ele>
        <time>2010-09-26T14:34:37Z</time>
      </trkpt>
      <trkpt lat="41.7680940" lon="1.9332420">
        <ele>323.6310000</ele>
        <time>2010-09-26T14:34:38Z</time>
      </trkpt>
      <trkpt lat="41.7678370" lon="1.9332930">
        <ele>323.2850000</ele>
        <time>2010-09-26T14:34:44Z</time>
      </trkpt>
      <trkpt lat="41.7674810" lon="1.9333110">
        <ele>323.4530000</ele>
        <time>2010-09-26T14:34:52Z</time>
      </trkpt>
      <trkpt lat="41.7672000" lon="1.9332990">
        <ele>323.4690000</ele>
        <time>2010-09-26T14:34:58Z</time>
      </trkpt>
      <trkpt lat="41.7667730" lon="1.9333030">
        <ele>323.9270000</ele>
        <time>2010-09-26T14:35:07Z</time>
      </trkpt>
      <trkpt lat="41.7665220" lon="1.9332920">
        <ele>323.7650000</ele>
        <time>2010-09-26T14:35:12Z</time>
      </trkpt>
      <trkpt lat="41.7663120" lon="1.9333640">
        <ele>323.3060000</ele>
        <time>2010-09-26T14:35:16Z</time>
      </trkpt>
      <trkpt lat="41.7660890" lon="1.9335030">
        <ele>322.8480000</ele>
        <time>2010-09-26T14:35:20Z</time>
      </trkpt>
      <trkpt lat="41.7658650" lon="1.9335330">
        <ele>323.1620000</ele>
        <time>2010-09-26T14:35:24Z</time>
      </trkpt>
      <trkpt lat="41.7654130" lon="1.9334030">
        <ele>322.0370000</ele>
        <time>2010-09-26T14:35:32Z</time>
      </trkpt>
      <trkpt lat="41.7650380" lon="1.9332450">
        <ele>321.2130000</ele>
        <time>2010-09-26T14:35:38Z</time>
      </trkpt>
      <trkpt lat="41.7647740" lon="1.9331480">
        <ele>319.7720000</ele>
        <time>2010-09-26T14:35:42Z</time>
      </trkpt>
      <trkpt lat="41.7645900" lon="1.9331910">
        <ele>317.6240000</ele>
        <time>2010-09-26T14:35:46Z</time>
      </trkpt>
      <trkpt lat="41.7645560" lon="1.9333490">
        <ele>316.6450000</ele>
        <time>2010-09-26T14:35:49Z</time>
      </trkpt>
      <trkpt lat="41.7645860" lon="1.9339280">
        <ele>315.1720000</ele>
        <time>2010-09-26T14:35:56Z</time>
      </trkpt>
      <trkpt lat="41.7646480" lon="1.9345940">
        <ele>313.9240000</ele>
        <time>2010-09-26T14:36:03Z</time>
      </trkpt>
      <trkpt lat="41.7645900" lon="1.9350020">
        <ele>312.4070000</ele>
        <time>2010-09-26T14:36:07Z</time>
      </trkpt>
      <trkpt lat="41.7645460" lon="1.9350980">
        <ele>312.0820000</ele>
        <time>2010-09-26T14:36:08Z</time>
      </trkpt>
      <trkpt lat="41.7641860" lon="1.9358540">
        <ele>307.7010000</ele>
        <time>2010-09-26T14:36:16Z</time>
      </trkpt>
      <trkpt lat="41.7641110" lon="1.9360310">
        <ele>306.3000000</ele>
        <time>2010-09-26T14:36:18Z</time>
      </trkpt>
      <trkpt lat="41.7638670" lon="1.9363030">
        <ele>302.7760000</ele>
        <time>2010-09-26T14:36:22Z</time>
      </trkpt>
      <trkpt lat="41.7637840" lon="1.9363450">
        <ele>302.0630000</ele>
        <time>2010-09-26T14:36:23Z</time>
      </trkpt>
      <trkpt lat="41.7633340" lon="1.9365850">
        <ele>299.6550000</ele>
        <time>2010-09-26T14:36:28Z</time>
      </trkpt>
      <trkpt lat="41.7630450" lon="1.9367570">
        <ele>296.7950000</ele>
        <time>2010-09-26T14:36:31Z</time>
      </trkpt>
      <trkpt lat="41.7627910" lon="1.9370960">
        <ele>293.8190000</ele>
        <time>2010-09-26T14:36:35Z</time>
      </trkpt>
      <trkpt lat="41.7627510" lon="1.9372120">
        <ele>293.1670000</ele>
        <time>2010-09-26T14:36:36Z</time>
      </trkpt>
      <trkpt lat="41.7626070" lon="1.9376230">
        <ele>290.7620000</ele>
        <time>2010-09-26T14:36:40Z</time>
      </trkpt>
      <trkpt lat="41.7626710" lon="1.9378860">
        <ele>289.5910000</ele>
        <time>2010-09-26T14:36:44Z</time>
      </trkpt>
      <trkpt lat="41.7628730" lon="1.9380210">
        <ele>289.0000000</ele>
        <time>2010-09-26T14:36:47Z</time>
      </trkpt>
      <trkpt lat="41.7629900" lon="1.9383100">
        <ele>287.3240000</ele>
        <time>2010-09-26T14:36:51Z</time>
      </trkpt>
      <trkpt lat="41.7629880" lon="1.9384930">
        <ele>286.5610000</ele>
        <time>2010-09-26T14:36:53Z</time>
      </trkpt>
      <trkpt lat="41.7630040" lon="1.9387090">
        <ele>284.1350000</ele>
        <time>2010-09-26T14:36:56Z</time>
      </trkpt>
      <trkpt lat="41.7631450" lon="1.9388630">
        <ele>282.1680000</ele>
        <time>2010-09-26T14:37:00Z</time>
      </trkpt>
      <trkpt lat="41.7634340" lon="1.9391030">
        <ele>280.9360000</ele>
        <time>2010-09-26T14:37:06Z</time>
      </trkpt>
      <trkpt lat="41.7635800" lon="1.9392640">
        <ele>279.5730000</ele>
        <time>2010-09-26T14:37:09Z</time>
      </trkpt>
      <trkpt lat="41.7636990" lon="1.9395630">
        <ele>277.1530000</ele>
        <time>2010-09-26T14:37:13Z</time>
      </trkpt>
      <trkpt lat="41.7637030" lon="1.9396450">
        <ele>276.8180000</ele>
        <time>2010-09-26T14:37:14Z</time>
      </trkpt>
      <trkpt lat="41.7637030" lon="1.9398000">
        <ele>276.3810000</ele>
        <time>2010-09-26T14:37:16Z</time>
      </trkpt>
      <trkpt lat="41.7636190" lon="1.9400760">
        <ele>276.1760000</ele>
        <time>2010-09-26T14:37:20Z</time>
      </trkpt>
      <trkpt lat="41.7635990" lon="1.9401450">
        <ele>276.2010000</ele>
        <time>2010-09-26T14:37:21Z</time>
      </trkpt>
      <trkpt lat="41.7634390" lon="1.9404450">
        <ele>277.0470000</ele>
        <time>2010-09-26T14:37:27Z</time>
      </trkpt>
      <trkpt lat="41.7632970" lon="1.9404350">
        <ele>277.7840000</ele>
        <time>2010-09-26T14:37:30Z</time>
      </trkpt>
      <trkpt lat="41.7629880" lon="1.9402920">
        <ele>277.8930000</ele>
        <time>2010-09-26T14:37:36Z</time>
      </trkpt>
      <trkpt lat="41.7628830" lon="1.9402220">
        <ele>277.7560000</ele>
        <time>2010-09-26T14:37:38Z</time>
      </trkpt>
      <trkpt lat="41.7626080" lon="1.9399530">
        <ele>277.6070000</ele>
        <time>2010-09-26T14:37:44Z</time>
      </trkpt>
      <trkpt lat="41.7623710" lon="1.9397330">
        <ele>277.5590000</ele>
        <time>2010-09-26T14:37:49Z</time>
      </trkpt>
      <trkpt lat="41.7622380" lon="1.9395670">
        <ele>277.7540000</ele>
        <time>2010-09-26T14:37:52Z</time>
      </trkpt>
      <trkpt lat="41.7621610" lon="1.9394570">
        <ele>277.7240000</ele>
        <time>2010-09-26T14:37:54Z</time>
      </trkpt>
      <trkpt lat="41.7620330" lon="1.9392930">
        <ele>277.5240000</ele>
        <time>2010-09-26T14:37:57Z</time>
      </trkpt>
      <trkpt lat="41.7619270" lon="1.9390320">
        <ele>278.5650000</ele>
        <time>2010-09-26T14:38:02Z</time>
      </trkpt>
      <trkpt lat="41.7618750" lon="1.9388800">
        <ele>279.2540000</ele>
        <time>2010-09-26T14:38:05Z</time>
      </trkpt>
      <trkpt lat="41.7617680" lon="1.9386980">
        <ele>280.0000000</ele>
        <time>2010-09-26T14:38:09Z</time>
      </trkpt>
      <trkpt lat="41.7616930" lon="1.9384960">
        <ele>280.9950000</ele>
        <time>2010-09-26T14:38:13Z</time>
      </trkpt>
      <trkpt lat="41.7615560" lon="1.9380550">
        <ele>280.8680000</ele>
        <time>2010-09-26T14:38:20Z</time>
      </trkpt>
      <trkpt lat="41.7615250" lon="1.9379290">
        <ele>280.5480000</ele>
        <time>2010-09-26T14:38:22Z</time>
      </trkpt>
      <trkpt lat="41.7614710" lon="1.9376820">
        <ele>280.6410000</ele>
        <time>2010-09-26T14:38:26Z</time>
      </trkpt>
      <trkpt lat="41.7613390" lon="1.9374790">
        <ele>280.8160000</ele>
        <time>2010-09-26T14:38:30Z</time>
      </trkpt>
      <trkpt lat="41.7611610" lon="1.9373040">
        <ele>281.7600000</ele>
        <time>2010-09-26T14:38:36Z</time>
      </trkpt>
      <trkpt lat="41.7610190" lon="1.9371490">
        <ele>283.2850000</ele>
        <time>2010-09-26T14:38:42Z</time>
      </trkpt>
      <trkpt lat="41.7609430" lon="1.9369500">
        <ele>283.9720000</ele>
        <time>2010-09-26T14:38:47Z</time>
      </trkpt>
      <trkpt lat="41.7608300" lon="1.9367360">
        <ele>285.0360000</ele>
        <time>2010-09-26T14:38:53Z</time>
      </trkpt>
      <trkpt lat="41.7606540" lon="1.9366690">
        <ele>285.8430000</ele>
        <time>2010-09-26T14:38:58Z</time>
      </trkpt>
      <trkpt lat="41.7605040" lon="1.9366850">
        <ele>286.0480000</ele>
        <time>2010-09-26T14:39:02Z</time>
      </trkpt>
      <trkpt lat="41.7601710" lon="1.9367480">
        <ele>285.6980000</ele>
        <time>2010-09-26T14:39:09Z</time>
      </trkpt>
      <trkpt lat="41.7599890" lon="1.9367900">
        <ele>285.5100000</ele>
        <time>2010-09-26T14:39:13Z</time>
      </trkpt>
      <trkpt lat="41.7598280" lon="1.9369780">
        <ele>285.1050000</ele>
        <time>2010-09-26T14:39:18Z</time>
      </trkpt>
      <trkpt lat="41.7598070" lon="1.9370220">
        <ele>285.3270000</ele>
        <time>2010-09-26T14:39:19Z</time>
      </trkpt>
      <trkpt lat="41.7596500" lon="1.9372440">
        <ele>285.5820000</ele>
        <time>2010-09-26T14:39:24Z</time>
      </trkpt>
      <trkpt lat="41.7594450" lon="1.9376740">
        <ele>284.7010000</ele>
        <time>2010-09-26T14:39:31Z</time>
      </trkpt>
      <trkpt lat="41.7592400" lon="1.9377970">
        <ele>282.6780000</ele>
        <time>2010-09-26T14:39:35Z</time>
      </trkpt>
      <trkpt lat="41.7591760" lon="1.9377840">
        <ele>282.1660000</ele>
        <time>2010-09-26T14:39:36Z</time>
      </trkpt>
      <trkpt lat="41.7588910" lon="1.9377040">
        <ele>280.7550000</ele>
        <time>2010-09-26T14:39:40Z</time>
      </trkpt>
      <trkpt lat="41.7587130" lon="1.9376130">
        <ele>277.8950000</ele>
        <time>2010-09-26T14:39:44Z</time>
      </trkpt>
      <trkpt lat="41.7587020" lon="1.9375550">
        <ele>277.2340000</ele>
        <time>2010-09-26T14:39:45Z</time>
      </trkpt>
      <trkpt lat="41.7588080" lon="1.9373990">
        <ele>274.8810000</ele>
        <time>2010-09-26T14:39:50Z</time>
      </trkpt>
      <trkpt lat="41.7588960" lon="1.9372570">
        <ele>272.4600000</ele>
        <time>2010-09-26T14:39:54Z</time>
      </trkpt>
      <trkpt lat="41.7588360" lon="1.9372540">
        <ele>270.7370000</ele>
        <time>2010-09-26T14:39:58Z</time>
      </trkpt>
      <trkpt lat="41.7586370" lon="1.9373040">
        <ele>269.6250000</ele>
        <time>2010-09-26T14:40:01Z</time>
      </trkpt>
      <trkpt lat="41.7584590" lon="1.9372420">
        <ele>268.2620000</ele>
        <time>2010-09-26T14:40:05Z</time>
      </trkpt>
      <trkpt lat="41.7582910" lon="1.9368660">
        <ele>269.1830000</ele>
        <time>2010-09-26T14:40:12Z</time>
      </trkpt>
      <trkpt lat="41.7580630" lon="1.9363940">
        <ele>270.1940000</ele>
        <time>2010-09-26T14:40:20Z</time>
      </trkpt>
      <trkpt lat="41.7578670" lon="1.9359570">
        <ele>270.6130000</ele>
        <time>2010-09-26T14:40:27Z</time>
      </trkpt>
      <trkpt lat="41.7576830" lon="1.9355660">
        <ele>270.1300000</ele>
        <time>2010-09-26T14:40:33Z</time>
      </trkpt>
      <trkpt lat="41.7576090" lon="1.9353550">
        <ele>270.0680000</ele>
        <time>2010-09-26T14:40:36Z</time>
      </trkpt>
      <trkpt lat="41.7575890" lon="1.9350150">
        <ele>270.1180000</ele>
        <time>2010-09-26T14:40:41Z</time>
      </trkpt>
      <trkpt lat="41.7576900" lon="1.9344940">
        <ele>268.5440000</ele>
        <time>2010-09-26T14:40:47Z</time>
      </trkpt>
      <trkpt lat="41.7578460" lon="1.9340610">
        <ele>267.3980000</ele>
        <time>2010-09-26T14:40:52Z</time>
      </trkpt>
      <trkpt lat="41.7579760" lon="1.9337310">
        <ele>266.5910000</ele>
        <time>2010-09-26T14:40:56Z</time>
      </trkpt>
      <trkpt lat="41.7578830" lon="1.9332060">
        <ele>266.4710000</ele>
        <time>2010-09-26T14:41:02Z</time>
      </trkpt>
      <trkpt lat="41.7578930" lon="1.9328650">
        <ele>266.4310000</ele>
        <time>2010-09-26T14:41:07Z</time>
      </trkpt>
      <trkpt lat="41.7579230" lon="1.9324420">
        <ele>267.8070000</ele>
        <time>2010-09-26T14:41:14Z</time>
      </trkpt>
      <trkpt lat="41.7580240" lon="1.9321440">
        <ele>269.5800000</ele>
        <time>2010-09-26T14:41:21Z</time>
      </trkpt>
      <trkpt lat="41.7581210" lon="1.9320040">
        <ele>270.5480000</ele>
        <time>2010-09-26T14:41:25Z</time>
      </trkpt>
      <trkpt lat="41.7581850" lon="1.9317980">
        <ele>270.3130000</ele>
        <time>2010-09-26T14:41:29Z</time>
      </trkpt>
      <trkpt lat="41.7582180" lon="1.9314050">
        <ele>269.1810000</ele>
        <time>2010-09-26T14:41:34Z</time>
      </trkpt>
      <trkpt lat="41.7582540" lon="1.9309740">
        <ele>266.5550000</ele>
        <time>2010-09-26T14:41:38Z</time>
      </trkpt>
      <trkpt lat="41.7583580" lon="1.9303480">
        <ele>262.0860000</ele>
        <time>2010-09-26T14:41:43Z</time>
      </trkpt>
      <trkpt lat="41.7584320" lon="1.9300980">
        <ele>260.7630000</ele>
        <time>2010-09-26T14:41:45Z</time>
      </trkpt>
      <trkpt lat="41.7586450" lon="1.9294720">
        <ele>258.9230000</ele>
        <time>2010-09-26T14:41:51Z</time>
      </trkpt>
      <trkpt lat="41.7587770" lon="1.9290480">
        <ele>258.7910000</ele>
        <time>2010-09-26T14:41:56Z</time>
      </trkpt>
      <trkpt lat="41.7590050" lon="1.9285550">
        <ele>258.3170000</ele>
        <time>2010-09-26T14:42:03Z</time>
      </trkpt>
      <trkpt lat="41.7591820" lon="1.9279870">
        <ele>256.8150000</ele>
        <time>2010-09-26T14:42:11Z</time>
      </trkpt>
      <trkpt lat="41.7593140" lon="1.9274960">
        <ele>256.2630000</ele>
        <time>2010-09-26T14:42:18Z</time>
      </trkpt>
      <trkpt lat="41.7593340" lon="1.9274230">
        <ele>256.3360000</ele>
        <time>2010-09-26T14:42:19Z</time>
      </trkpt>
      <trkpt lat="41.7595250" lon="1.9269480">
        <ele>255.7940000</ele>
        <time>2010-09-26T14:42:26Z</time>
      </trkpt>
      <trkpt lat="41.7596540" lon="1.9266090">
        <ele>255.9550000</ele>
        <time>2010-09-26T14:42:31Z</time>
      </trkpt>
      <trkpt lat="41.7597280" lon="1.9264090">
        <ele>256.0390000</ele>
        <time>2010-09-26T14:42:34Z</time>
      </trkpt>
      <trkpt lat="41.7597760" lon="1.9260790">
        <ele>256.4850000</ele>
        <time>2010-09-26T14:42:39Z</time>
      </trkpt>
      <trkpt lat="41.7596890" lon="1.9259320">
        <ele>256.8230000</ele>
        <time>2010-09-26T14:42:43Z</time>
      </trkpt>
      <trkpt lat="41.7595800" lon="1.9259580">
        <ele>257.1310000</ele>
        <time>2010-09-26T14:42:46Z</time>
      </trkpt>
      <trkpt lat="41.7593380" lon="1.9260200">
        <ele>258.1460000</ele>
        <time>2010-09-26T14:42:53Z</time>
      </trkpt>
      <trkpt lat="41.7591020" lon="1.9260120">
        <ele>260.4350000</ele>
        <time>2010-09-26T14:43:01Z</time>
      </trkpt>
      <trkpt lat="41.7588990" lon="1.9259890">
        <ele>261.2320000</ele>
        <time>2010-09-26T14:43:08Z</time>
      </trkpt>
      <trkpt lat="41.7587010" lon="1.9259480">
        <ele>262.3050000</ele>
        <time>2010-09-26T14:43:15Z</time>
      </trkpt>
      <trkpt lat="41.7583640" lon="1.9258350">
        <ele>263.6830000</ele>
        <time>2010-09-26T14:43:26Z</time>
      </trkpt>
      <trkpt lat="41.7581210" lon="1.9257350">
        <ele>264.3570000</ele>
        <time>2010-09-26T14:43:34Z</time>
      </trkpt>
      <trkpt lat="41.7578600" lon="1.9255970">
        <ele>265.6930000</ele>
        <time>2010-09-26T14:43:43Z</time>
      </trkpt>
      <trkpt lat="41.7576630" lon="1.9253830">
        <ele>266.8240000</ele>
        <time>2010-09-26T14:43:52Z</time>
      </trkpt>
      <trkpt lat="41.7574990" lon="1.9252250">
        <ele>268.1770000</ele>
        <time>2010-09-26T14:43:59Z</time>
      </trkpt>
      <trkpt lat="41.7573900" lon="1.9251800">
        <ele>268.6070000</ele>
        <time>2010-09-26T14:44:04Z</time>
      </trkpt>
      <trkpt lat="41.7572890" lon="1.9251720">
        <ele>268.3760000</ele>
        <time>2010-09-26T14:44:07Z</time>
      </trkpt>
      <trkpt lat="41.7572050" lon="1.9250360">
        <ele>267.7160000</ele>
        <time>2010-09-26T14:44:11Z</time>
      </trkpt>
      <trkpt lat="41.7571730" lon="1.9248730">
        <ele>265.3610000</ele>
        <time>2010-09-26T14:44:15Z</time>
      </trkpt>
      <trkpt lat="41.7571460" lon="1.9248430">
        <ele>264.7340000</ele>
        <time>2010-09-26T14:44:16Z</time>
      </trkpt>
      <trkpt lat="41.7569650" lon="1.9246500">
        <ele>262.0400000</ele>
        <time>2010-09-26T14:44:21Z</time>
      </trkpt>
      <trkpt lat="41.7567420" lon="1.9245240">
        <ele>261.4980000</ele>
        <time>2010-09-26T14:44:27Z</time>
      </trkpt>
      <trkpt lat="41.7565790" lon="1.9243670">
        <ele>261.7860000</ele>
        <time>2010-09-26T14:44:33Z</time>
      </trkpt>
      <trkpt lat="41.7564510" lon="1.9243610">
        <ele>262.8260000</ele>
        <time>2010-09-26T14:44:38Z</time>
      </trkpt>
      <trkpt lat="41.7562920" lon="1.9244030">
        <ele>264.3430000</ele>
        <time>2010-09-26T14:44:45Z</time>
      </trkpt>
      <trkpt lat="41.7561130" lon="1.9244530">
        <ele>264.1200000</ele>
        <time>2010-09-26T14:44:51Z</time>
      </trkpt>
      <trkpt lat="41.7560740" lon="1.9244640">
        <ele>263.9120000</ele>
        <time>2010-09-26T14:44:52Z</time>
      </trkpt>
      <trkpt lat="41.7559960" lon="1.9243370">
        <ele>263.6410000</ele>
        <time>2010-09-26T14:44:56Z</time>
      </trkpt>
      <trkpt lat="41.7560140" lon="1.9241570">
        <ele>263.9860000</ele>
        <time>2010-09-26T14:45:01Z</time>
      </trkpt>
      <trkpt lat="41.7560280" lon="1.9240840">
        <ele>264.6840000</ele>
        <time>2010-09-26T14:45:04Z</time>
      </trkpt>
      <trkpt lat="41.7559810" lon="1.9240700">
        <ele>265.7980000</ele>
        <time>2010-09-26T14:45:09Z</time>
      </trkpt>
      <trkpt lat="41.7559520" lon="1.9241080">
        <ele>266.4910000</ele>
        <time>2010-09-26T14:45:11Z</time>
      </trkpt>
      <trkpt lat="41.7558720" lon="1.9241060">
        <ele>269.4830000</ele>
        <time>2010-09-26T14:45:17Z</time>
      </trkpt>
      <trkpt lat="41.7558550" lon="1.9241050">
        <ele>269.9440000</ele>
        <time>2010-09-26T14:45:19Z</time>
      </trkpt>
      <trkpt lat="41.7557990" lon="1.9240780">
        <ele>269.4280000</ele>
        <time>2010-09-26T14:45:35Z</time>
      </trkpt>
      <trkpt lat="41.7557660" lon="1.9240530">
        <ele>269.6640000</ele>
        <time>2010-09-26T14:45:41Z</time>
      </trkpt>
      <trkpt lat="41.7557880" lon="1.9240240">
        <ele>267.7470000</ele>
        <time>2010-09-26T14:51:08Z</time>
      </trkpt>
      <trkpt lat="41.7557770" lon="1.9240280">
        <ele>267.9690000</ele>
        <time>2010-09-26T14:51:11Z</time>
      </trkpt>
      <trkpt lat="41.7556220" lon="1.9239310">
        <ele>267.1320000</ele>
        <time>2010-09-26T14:52:13Z</time>
      </trkpt>
      <trkpt lat="41.7554810" lon="1.9237260">
        <ele>266.1870000</ele>
        <time>2010-09-26T14:52:18Z</time>
      </trkpt>
      <trkpt lat="41.7554210" lon="1.9236230">
        <ele>265.6330000</ele>
        <time>2010-09-26T14:52:20Z</time>
      </trkpt>
      <trkpt lat="41.7553080" lon="1.9233230">
        <ele>265.6320000</ele>
        <time>2010-09-26T14:52:26Z</time>
      </trkpt>
      <trkpt lat="41.7552240" lon="1.9231080">
        <ele>266.2500000</ele>
        <time>2010-09-26T14:52:33Z</time>
      </trkpt>
      <trkpt lat="41.7551430" lon="1.9228940">
        <ele>268.1810000</ele>
        <time>2010-09-26T14:52:41Z</time>
      </trkpt>
      <trkpt lat="41.7550300" lon="1.9226930">
        <ele>270.0930000</ele>
        <time>2010-09-26T14:52:50Z</time>
      </trkpt>
      <trkpt lat="41.7549420" lon="1.9225240">
        <ele>271.5010000</ele>
        <time>2010-09-26T14:52:58Z</time>
      </trkpt>
      <trkpt lat="41.7548860" lon="1.9223710">
        <ele>273.4680000</ele>
        <time>2010-09-26T14:53:05Z</time>
      </trkpt>
      <trkpt lat="41.7548470" lon="1.9222350">
        <ele>275.7140000</ele>
        <time>2010-09-26T14:53:12Z</time>
      </trkpt>
      <trkpt lat="41.7548080" lon="1.9221460">
        <ele>276.7800000</ele>
        <time>2010-09-26T14:53:17Z</time>
      </trkpt>
      <trkpt lat="41.7547730" lon="1.9220240">
        <ele>278.4500000</ele>
        <time>2010-09-26T14:53:24Z</time>
      </trkpt>
      <trkpt lat="41.7547430" lon="1.9219830">
        <ele>279.0140000</ele>
        <time>2010-09-26T14:53:27Z</time>
      </trkpt>
      <trkpt lat="41.7547010" lon="1.9219570">
        <ele>279.8030000</ele>
        <time>2010-09-26T14:53:31Z</time>
      </trkpt>
      <trkpt lat="41.7545980" lon="1.9219810">
        <ele>281.5110000</ele>
        <time>2010-09-26T14:53:39Z</time>
      </trkpt>
      <trkpt lat="41.7545090" lon="1.9220200">
        <ele>282.5930000</ele>
        <time>2010-09-26T14:53:47Z</time>
      </trkpt>
      <trkpt lat="41.7544310" lon="1.9221030">
        <ele>284.9580000</ele>
        <time>2010-09-26T14:53:56Z</time>
      </trkpt>
      <trkpt lat="41.7543600" lon="1.9221720">
        <ele>286.1380000</ele>
        <time>2010-09-26T14:54:02Z</time>
      </trkpt>
      <trkpt lat="41.7542850" lon="1.9220940">
        <ele>287.4690000</ele>
        <time>2010-09-26T14:54:09Z</time>
      </trkpt>
      <trkpt lat="41.7543180" lon="1.9219910">
        <ele>288.1070000</ele>
        <time>2010-09-26T14:54:15Z</time>
      </trkpt>
      <trkpt lat="41.7543500" lon="1.9219540">
        <ele>288.3870000</ele>
        <time>2010-09-26T14:54:18Z</time>
      </trkpt>
      <trkpt lat="41.7543940" lon="1.9218920">
        <ele>289.1070000</ele>
        <time>2010-09-26T14:54:24Z</time>
      </trkpt>
      <trkpt lat="41.7544330" lon="1.9218550">
        <ele>289.4850000</ele>
        <time>2010-09-26T14:54:27Z</time>
      </trkpt>
      <trkpt lat="41.7545310" lon="1.9216880">
        <ele>290.1510000</ele>
        <time>2010-09-26T14:54:36Z</time>
      </trkpt>
      <trkpt lat="41.7545990" lon="1.9215660">
        <ele>290.2360000</ele>
        <time>2010-09-26T14:54:42Z</time>
      </trkpt>
      <trkpt lat="41.7546850" lon="1.9214150">
        <ele>291.2790000</ele>
        <time>2010-09-26T14:54:50Z</time>
      </trkpt>
      <trkpt lat="41.7547730" lon="1.9213080">
        <ele>293.1500000</ele>
        <time>2010-09-26T14:54:57Z</time>
      </trkpt>
      <trkpt lat="41.7548550" lon="1.9212100">
        <ele>293.7830000</ele>
        <time>2010-09-26T14:55:03Z</time>
      </trkpt>
      <trkpt lat="41.7549190" lon="1.9211070">
        <ele>295.2150000</ele>
        <time>2010-09-26T14:55:09Z</time>
      </trkpt>
      <trkpt lat="41.7549860" lon="1.9209900">
        <ele>297.2360000</ele>
        <time>2010-09-26T14:55:17Z</time>
      </trkpt>
      <trkpt lat="41.7550400" lon="1.9209060">
        <ele>298.5380000</ele>
        <time>2010-09-26T14:55:23Z</time>
      </trkpt>
      <trkpt lat="41.7550990" lon="1.9207980">
        <ele>300.2790000</ele>
        <time>2010-09-26T14:55:29Z</time>
      </trkpt>
      <trkpt lat="41.7551190" lon="1.9206520">
        <ele>301.5680000</ele>
        <time>2010-09-26T14:55:36Z</time>
      </trkpt>
      <trkpt lat="41.7551110" lon="1.9206320">
        <ele>301.6330000</ele>
        <time>2010-09-26T14:55:37Z</time>
      </trkpt>
      <trkpt lat="41.7550580" lon="1.9205640">
        <ele>301.5700000</ele>
        <time>2010-09-26T14:55:42Z</time>
      </trkpt>
      <trkpt lat="41.7549540" lon="1.9204240">
        <ele>301.8510000</ele>
        <time>2010-09-26T14:55:48Z</time>
      </trkpt>
      <trkpt lat="41.7548580" lon="1.9203260">
        <ele>301.4600000</ele>
        <time>2010-09-26T14:55:52Z</time>
      </trkpt>
      <trkpt lat="41.7548000" lon="1.9202310">
        <ele>301.0610000</ele>
        <time>2010-09-26T14:55:54Z</time>
      </trkpt>
      <trkpt lat="41.7546530" lon="1.9198500">
        <ele>298.9110000</ele>
        <time>2010-09-26T14:55:59Z</time>
      </trkpt>
      <trkpt lat="41.7546340" lon="1.9194990">
        <ele>297.7720000</ele>
        <time>2010-09-26T14:56:03Z</time>
      </trkpt>
      <trkpt lat="41.7547920" lon="1.9189590">
        <ele>295.4130000</ele>
        <time>2010-09-26T14:56:09Z</time>
      </trkpt>
      <trkpt lat="41.7550030" lon="1.9184250">
        <ele>290.8170000</ele>
        <time>2010-09-26T14:56:15Z</time>
      </trkpt>
      <trkpt lat="41.7550610" lon="1.9182550">
        <ele>288.9450000</ele>
        <time>2010-09-26T14:56:17Z</time>
      </trkpt>
      <trkpt lat="41.7551100" lon="1.9179760">
        <ele>286.1440000</ele>
        <time>2010-09-26T14:56:21Z</time>
      </trkpt>
      <trkpt lat="41.7550340" lon="1.9179690">
        <ele>284.0460000</ele>
        <time>2010-09-26T14:56:25Z</time>
      </trkpt>
      <trkpt lat="41.7548680" lon="1.9180380">
        <ele>283.7470000</ele>
        <time>2010-09-26T14:56:29Z</time>
      </trkpt>
      <trkpt lat="41.7548160" lon="1.9180580">
        <ele>283.7580000</ele>
        <time>2010-09-26T14:56:30Z</time>
      </trkpt>
      <trkpt lat="41.7545940" lon="1.9180260">
        <ele>282.9710000</ele>
        <time>2010-09-26T14:56:34Z</time>
      </trkpt>
      <trkpt lat="41.7544100" lon="1.9177800">
        <ele>282.0030000</ele>
        <time>2010-09-26T14:56:38Z</time>
      </trkpt>
      <trkpt lat="41.7543790" lon="1.9176910">
        <ele>282.0020000</ele>
        <time>2010-09-26T14:56:39Z</time>
      </trkpt>
      <trkpt lat="41.7541950" lon="1.9171820">
        <ele>279.0490000</ele>
        <time>2010-09-26T14:56:44Z</time>
      </trkpt>
      <trkpt lat="41.7541710" lon="1.9169310">
        <ele>277.4300000</ele>
        <time>2010-09-26T14:56:46Z</time>
      </trkpt>
      <trkpt lat="41.7541230" lon="1.9159940">
        <ele>272.0870000</ele>
        <time>2010-09-26T14:56:53Z</time>
      </trkpt>
      <trkpt lat="41.7541480" lon="1.9157350">
        <ele>271.0470000</ele>
        <time>2010-09-26T14:56:55Z</time>
      </trkpt>
      <trkpt lat="41.7541040" lon="1.9154460">
        <ele>269.4310000</ele>
        <time>2010-09-26T14:56:58Z</time>
      </trkpt>
      <trkpt lat="41.7539430" lon="1.9153890">
        <ele>268.1930000</ele>
        <time>2010-09-26T14:57:01Z</time>
      </trkpt>
      <trkpt lat="41.7538450" lon="1.9154170">
        <ele>268.0180000</ele>
        <time>2010-09-26T14:57:03Z</time>
      </trkpt>
      <trkpt lat="41.7536620" lon="1.9154630">
        <ele>268.2080000</ele>
        <time>2010-09-26T14:57:07Z</time>
      </trkpt>
      <trkpt lat="41.7534140" lon="1.9154190">
        <ele>268.5040000</ele>
        <time>2010-09-26T14:57:13Z</time>
      </trkpt>
      <trkpt lat="41.7532880" lon="1.9154380">
        <ele>268.4500000</ele>
        <time>2010-09-26T14:57:17Z</time>
      </trkpt>
      <trkpt lat="41.7530680" lon="1.9154230">
        <ele>268.5100000</ele>
        <time>2010-09-26T14:57:23Z</time>
      </trkpt>
      <trkpt lat="41.7527070" lon="1.9154140">
        <ele>268.3900000</ele>
        <time>2010-09-26T14:57:31Z</time>
      </trkpt>
      <trkpt lat="41.7523660" lon="1.9153820">
        <ele>267.8790000</ele>
        <time>2010-09-26T14:57:38Z</time>
      </trkpt>
      <trkpt lat="41.7522010" lon="1.9152230">
        <ele>267.3650000</ele>
        <time>2010-09-26T14:57:42Z</time>
      </trkpt>
      <trkpt lat="41.7519010" lon="1.9146570">
        <ele>266.3980000</ele>
        <time>2010-09-26T14:57:51Z</time>
      </trkpt>
      <trkpt lat="41.7515840" lon="1.9140570">
        <ele>265.3070000</ele>
        <time>2010-09-26T14:58:00Z</time>
      </trkpt>
      <trkpt lat="41.7512650" lon="1.9134590">
        <ele>262.9490000</ele>
        <time>2010-09-26T14:58:08Z</time>
      </trkpt>
      <trkpt lat="41.7510900" lon="1.9129900">
        <ele>262.3110000</ele>
        <time>2010-09-26T14:58:13Z</time>
      </trkpt>
      <trkpt lat="41.7509100" lon="1.9122500">
        <ele>259.2720000</ele>
        <time>2010-09-26T14:58:20Z</time>
      </trkpt>
      <trkpt lat="41.7507160" lon="1.9114440">
        <ele>256.8940000</ele>
        <time>2010-09-26T14:58:28Z</time>
      </trkpt>
      <trkpt lat="41.7506380" lon="1.9108610">
        <ele>255.9460000</ele>
        <time>2010-09-26T14:58:34Z</time>
      </trkpt>
      <trkpt lat="41.7506580" lon="1.9103580">
        <ele>254.4120000</ele>
        <time>2010-09-26T14:58:39Z</time>
      </trkpt>
      <trkpt lat="41.7505860" lon="1.9099880">
        <ele>253.9090000</ele>
        <time>2010-09-26T14:58:43Z</time>
      </trkpt>
      <trkpt lat="41.7504610" lon="1.9098260">
        <ele>254.0080000</ele>
        <time>2010-09-26T14:58:46Z</time>
      </trkpt>
      <trkpt lat="41.7502110" lon="1.9096590">
        <ele>254.8940000</ele>
        <time>2010-09-26T14:58:52Z</time>
      </trkpt>
      <trkpt lat="41.7501660" lon="1.9096450">
        <ele>255.1860000</ele>
        <time>2010-09-26T14:58:53Z</time>
      </trkpt>
      <trkpt lat="41.7498820" lon="1.9096510">
        <ele>256.9960000</ele>
        <time>2010-09-26T14:58:59Z</time>
      </trkpt>
      <trkpt lat="41.7497020" lon="1.9096630">
        <ele>258.4720000</ele>
        <time>2010-09-26T14:59:03Z</time>
      </trkpt>
      <trkpt lat="41.7496590" lon="1.9096600">
        <ele>258.9830000</ele>
        <time>2010-09-26T14:59:04Z</time>
      </trkpt>
      <trkpt lat="41.7495370" lon="1.9096150">
        <ele>260.1140000</ele>
        <time>2010-09-26T14:59:07Z</time>
      </trkpt>
      <trkpt lat="41.7493930" lon="1.9094330">
        <ele>261.7220000</ele>
        <time>2010-09-26T14:59:12Z</time>
      </trkpt>
      <trkpt lat="41.7493330" lon="1.9092400">
        <ele>263.0150000</ele>
        <time>2010-09-26T14:59:17Z</time>
      </trkpt>
      <trkpt lat="41.7494060" lon="1.9092040">
        <ele>263.8120000</ele>
        <time>2010-09-26T14:59:21Z</time>
      </trkpt>
      <trkpt lat="41.7495440" lon="1.9091600">
        <ele>262.8910000</ele>
        <time>2010-09-26T14:59:24Z</time>
      </trkpt>
      <trkpt lat="41.7498530" lon="1.9090090">
        <ele>261.8370000</ele>
        <time>2010-09-26T14:59:31Z</time>
      </trkpt>
      <trkpt lat="41.7498750" lon="1.9089960">
        <ele>261.6410000</ele>
        <time>2010-09-26T14:59:32Z</time>
      </trkpt>
      <trkpt lat="41.7498980" lon="1.9088540">
        <ele>261.2720000</ele>
        <time>2010-09-26T14:59:37Z</time>
      </trkpt>
      <trkpt lat="41.7498640" lon="1.9085340">
        <ele>263.1320000</ele>
        <time>2010-09-26T14:59:44Z</time>
      </trkpt>
      <trkpt lat="41.7498700" lon="1.9084920">
        <ele>263.3550000</ele>
        <time>2010-09-26T14:59:45Z</time>
      </trkpt>
      <trkpt lat="41.7500400" lon="1.9083730">
        <ele>264.1970000</ele>
        <time>2010-09-26T14:59:50Z</time>
      </trkpt>
      <trkpt lat="41.7502490" lon="1.9082840">
        <ele>263.3920000</ele>
        <time>2010-09-26T14:59:54Z</time>
      </trkpt>
      <trkpt lat="41.7505000" lon="1.9080610">
        <ele>262.1240000</ele>
        <time>2010-09-26T14:59:59Z</time>
      </trkpt>
      <trkpt lat="41.7507590" lon="1.9076910">
        <ele>260.7110000</ele>
        <time>2010-09-26T15:00:04Z</time>
      </trkpt>
      <trkpt lat="41.7508060" lon="1.9076080">
        <ele>260.1120000</ele>
        <time>2010-09-26T15:00:05Z</time>
      </trkpt>
      <trkpt lat="41.7508860" lon="1.9073640">
        <ele>258.5690000</ele>
        <time>2010-09-26T15:00:08Z</time>
      </trkpt>
      <trkpt lat="41.7508200" lon="1.9071580">
        <ele>257.7230000</ele>
        <time>2010-09-26T15:00:11Z</time>
      </trkpt>
      <trkpt lat="41.7507440" lon="1.9070690">
        <ele>256.8470000</ele>
        <time>2010-09-26T15:00:13Z</time>
      </trkpt>
      <trkpt lat="41.7506590" lon="1.9069410">
        <ele>255.5810000</ele>
        <time>2010-09-26T15:00:16Z</time>
      </trkpt>
      <trkpt lat="41.7505680" lon="1.9066840">
        <ele>254.6810000</ele>
        <time>2010-09-26T15:00:22Z</time>
      </trkpt>
      <trkpt lat="41.7505620" lon="1.9066510">
        <ele>254.0970000</ele>
        <time>2010-09-26T15:00:26Z</time>
      </trkpt>
    </trkseg>
  </trk>

</gpx>
